<?xml version="1.0" encoding="UTF-8" standalone="no" ?>
<gpx xmlns="http://www.topografix.com/GPX/1/1" xmlns:xsi="http://www.w3.org/2001/XMLSchema-instance" xsi:schemaLocation="http://www.topografix.com/GPX/1/1 http://www.topografix.com/GPX/1/1/gpx.xsd" version="1.1" creator="VisuGPX - https://www.visugpx.com">
  <metadata>
    <name>Paris Provins 2025</name>
  </metadata>
  <trk>
    <name><![CDATA[Paris Randonnée_1]]></name>
    <trkseg>
      <trkpt lat="48.83145" lon="2.40126">
        <ele>46.6</ele>
        <time>2025-03-15T13:59:18Z</time>
      </trkpt>
      <trkpt lat="48.83145" lon="2.40126">
        <ele>46.6</ele>
        <time>2025-03-15T13:59:19Z</time>
      </trkpt>
      <trkpt lat="48.83144" lon="2.40127">
        <ele>45.6</ele>
        <time>2025-03-15T13:59:32Z</time>
      </trkpt>
      <trkpt lat="48.83144" lon="2.40128">
        <ele>45.2</ele>
        <time>2025-03-15T13:59:52Z</time>
      </trkpt>
      <trkpt lat="48.83144" lon="2.40128">
        <ele>48.4</ele>
        <time>2025-03-15T14:00:03Z</time>
      </trkpt>
      <trkpt lat="48.83142" lon="2.40129">
        <ele>47.6</ele>
        <time>2025-03-15T14:00:13Z</time>
      </trkpt>
      <trkpt lat="48.83135" lon="2.40131">
        <ele>47.4</ele>
        <time>2025-03-15T14:00:18Z</time>
      </trkpt>
      <trkpt lat="48.83121" lon="2.40136">
        <ele>47.4</ele>
        <time>2025-03-15T14:00:29Z</time>
      </trkpt>
      <trkpt lat="48.83117" lon="2.4014">
        <ele>47.4</ele>
        <time>2025-03-15T14:00:33Z</time>
      </trkpt>
      <trkpt lat="48.83115" lon="2.40142">
        <ele>47.2</ele>
        <time>2025-03-15T14:00:35Z</time>
      </trkpt>
      <trkpt lat="48.8311" lon="2.40144">
        <ele>47</ele>
        <time>2025-03-15T14:00:39Z</time>
      </trkpt>
      <trkpt lat="48.83109" lon="2.40146">
        <ele>47</ele>
        <time>2025-03-15T14:00:40Z</time>
      </trkpt>
      <trkpt lat="48.83109" lon="2.40151">
        <ele>47.6</ele>
        <time>2025-03-15T14:00:43Z</time>
      </trkpt>
      <trkpt lat="48.83117" lon="2.40186">
        <ele>46.8</ele>
        <time>2025-03-15T14:00:59Z</time>
      </trkpt>
      <trkpt lat="48.83127" lon="2.40221">
        <ele>48</ele>
        <time>2025-03-15T14:01:16Z</time>
      </trkpt>
      <trkpt lat="48.83136" lon="2.40252">
        <ele>48</ele>
        <time>2025-03-15T14:01:32Z</time>
      </trkpt>
      <trkpt lat="48.8315" lon="2.40282">
        <ele>47.6</ele>
        <time>2025-03-15T14:01:49Z</time>
      </trkpt>
      <trkpt lat="48.83167" lon="2.4031">
        <ele>47.8</ele>
        <time>2025-03-15T14:02:04Z</time>
      </trkpt>
      <trkpt lat="48.8319" lon="2.40346">
        <ele>47.8</ele>
        <time>2025-03-15T14:02:24Z</time>
      </trkpt>
      <trkpt lat="48.83207" lon="2.40373">
        <ele>47.4</ele>
        <time>2025-03-15T14:02:38Z</time>
      </trkpt>
      <trkpt lat="48.83222" lon="2.40405">
        <ele>48.6</ele>
        <time>2025-03-15T14:02:54Z</time>
      </trkpt>
      <trkpt lat="48.83233" lon="2.40437">
        <ele>47.8</ele>
        <time>2025-03-15T14:03:09Z</time>
      </trkpt>
      <trkpt lat="48.8324" lon="2.40453">
        <ele>47.6</ele>
        <time>2025-03-15T14:03:17Z</time>
      </trkpt>
      <trkpt lat="48.8324" lon="2.40455">
        <ele>47.6</ele>
        <time>2025-03-15T14:03:18Z</time>
      </trkpt>
      <trkpt lat="48.8324" lon="2.40457">
        <ele>47.6</ele>
        <time>2025-03-15T14:03:19Z</time>
      </trkpt>
      <trkpt lat="48.8324" lon="2.40459">
        <ele>47.4</ele>
        <time>2025-03-15T14:03:20Z</time>
      </trkpt>
      <trkpt lat="48.8324" lon="2.40461">
        <ele>47.4</ele>
        <time>2025-03-15T14:03:21Z</time>
      </trkpt>
      <trkpt lat="48.83241" lon="2.40463">
        <ele>47.4</ele>
        <time>2025-03-15T14:03:22Z</time>
      </trkpt>
      <trkpt lat="48.83241" lon="2.40466">
        <ele>47.2</ele>
        <time>2025-03-15T14:03:23Z</time>
      </trkpt>
      <trkpt lat="48.83242" lon="2.40469">
        <ele>47.2</ele>
        <time>2025-03-15T14:03:24Z</time>
      </trkpt>
      <trkpt lat="48.83242" lon="2.40473">
        <ele>47.2</ele>
        <time>2025-03-15T14:03:26Z</time>
      </trkpt>
      <trkpt lat="48.83241" lon="2.40478">
        <ele>47</ele>
        <time>2025-03-15T14:03:29Z</time>
      </trkpt>
      <trkpt lat="48.83241" lon="2.4048">
        <ele>47</ele>
        <time>2025-03-15T14:03:30Z</time>
      </trkpt>
      <trkpt lat="48.83241" lon="2.40483">
        <ele>47</ele>
        <time>2025-03-15T14:03:31Z</time>
      </trkpt>
      <trkpt lat="48.83242" lon="2.40486">
        <ele>47</ele>
        <time>2025-03-15T14:03:32Z</time>
      </trkpt>
      <trkpt lat="48.83242" lon="2.40488">
        <ele>47</ele>
        <time>2025-03-15T14:03:33Z</time>
      </trkpt>
      <trkpt lat="48.83242" lon="2.40493">
        <ele>47</ele>
        <time>2025-03-15T14:03:35Z</time>
      </trkpt>
      <trkpt lat="48.83242" lon="2.40495">
        <ele>47.2</ele>
        <time>2025-03-15T14:03:36Z</time>
      </trkpt>
      <trkpt lat="48.83242" lon="2.40498">
        <ele>47.2</ele>
        <time>2025-03-15T14:03:37Z</time>
      </trkpt>
      <trkpt lat="48.83242" lon="2.405">
        <ele>47.2</ele>
        <time>2025-03-15T14:03:38Z</time>
      </trkpt>
      <trkpt lat="48.83241" lon="2.40503">
        <ele>47.2</ele>
        <time>2025-03-15T14:03:39Z</time>
      </trkpt>
      <trkpt lat="48.83241" lon="2.40506">
        <ele>47.2</ele>
        <time>2025-03-15T14:03:40Z</time>
      </trkpt>
      <trkpt lat="48.83241" lon="2.40508">
        <ele>47.2</ele>
        <time>2025-03-15T14:03:41Z</time>
      </trkpt>
      <trkpt lat="48.83241" lon="2.40511">
        <ele>47.2</ele>
        <time>2025-03-15T14:03:42Z</time>
      </trkpt>
      <trkpt lat="48.83241" lon="2.40514">
        <ele>47.2</ele>
        <time>2025-03-15T14:03:43Z</time>
      </trkpt>
      <trkpt lat="48.83241" lon="2.40526">
        <ele>47.4</ele>
        <time>2025-03-15T14:03:48Z</time>
      </trkpt>
      <trkpt lat="48.8324" lon="2.40529">
        <ele>47.4</ele>
        <time>2025-03-15T14:03:49Z</time>
      </trkpt>
      <trkpt lat="48.83239" lon="2.40531">
        <ele>47.4</ele>
        <time>2025-03-15T14:03:50Z</time>
      </trkpt>
      <trkpt lat="48.83229" lon="2.40579">
        <ele>47.6</ele>
        <time>2025-03-15T14:04:09Z</time>
      </trkpt>
      <trkpt lat="48.83222" lon="2.40614">
        <ele>48.4</ele>
        <time>2025-03-15T14:04:26Z</time>
      </trkpt>
      <trkpt lat="48.83215" lon="2.40655">
        <ele>48.6</ele>
        <time>2025-03-15T14:04:44Z</time>
      </trkpt>
      <trkpt lat="48.83206" lon="2.40698">
        <ele>49.2</ele>
        <time>2025-03-15T14:05:03Z</time>
      </trkpt>
      <trkpt lat="48.83196" lon="2.40732">
        <ele>49.2</ele>
        <time>2025-03-15T14:05:20Z</time>
      </trkpt>
      <trkpt lat="48.83185" lon="2.40768">
        <ele>49.2</ele>
        <time>2025-03-15T14:05:35Z</time>
      </trkpt>
      <trkpt lat="48.83171" lon="2.40796">
        <ele>48.8</ele>
        <time>2025-03-15T14:05:51Z</time>
      </trkpt>
      <trkpt lat="48.83153" lon="2.40828">
        <ele>48.6</ele>
        <time>2025-03-15T14:06:07Z</time>
      </trkpt>
      <trkpt lat="48.83133" lon="2.40863">
        <ele>48.6</ele>
        <time>2025-03-15T14:06:25Z</time>
      </trkpt>
      <trkpt lat="48.83106" lon="2.40893">
        <ele>48.2</ele>
        <time>2025-03-15T14:06:45Z</time>
      </trkpt>
      <trkpt lat="48.83083" lon="2.4092">
        <ele>48</ele>
        <time>2025-03-15T14:07:03Z</time>
      </trkpt>
      <trkpt lat="48.83062" lon="2.40954">
        <ele>47.2</ele>
        <time>2025-03-15T14:07:22Z</time>
      </trkpt>
      <trkpt lat="48.8304" lon="2.40991">
        <ele>47.2</ele>
        <time>2025-03-15T14:07:42Z</time>
      </trkpt>
      <trkpt lat="48.8302" lon="2.41023">
        <ele>47</ele>
        <time>2025-03-15T14:08:00Z</time>
      </trkpt>
      <trkpt lat="48.83003" lon="2.41058">
        <ele>47.4</ele>
        <time>2025-03-15T14:08:17Z</time>
      </trkpt>
      <trkpt lat="48.82987" lon="2.41095">
        <ele>47.4</ele>
        <time>2025-03-15T14:08:36Z</time>
      </trkpt>
      <trkpt lat="48.8297" lon="2.41129">
        <ele>47</ele>
        <time>2025-03-15T14:08:53Z</time>
      </trkpt>
      <trkpt lat="48.82955" lon="2.41166">
        <ele>46.6</ele>
        <time>2025-03-15T14:09:12Z</time>
      </trkpt>
      <trkpt lat="48.82938" lon="2.41202">
        <ele>46.4</ele>
        <time>2025-03-15T14:09:30Z</time>
      </trkpt>
      <trkpt lat="48.82919" lon="2.41245">
        <ele>46.4</ele>
        <time>2025-03-15T14:09:51Z</time>
      </trkpt>
      <trkpt lat="48.82903" lon="2.4128">
        <ele>46.6</ele>
        <time>2025-03-15T14:10:09Z</time>
      </trkpt>
      <trkpt lat="48.82887" lon="2.41321">
        <ele>46.4</ele>
        <time>2025-03-15T14:10:28Z</time>
      </trkpt>
      <trkpt lat="48.82872" lon="2.41362">
        <ele>47</ele>
        <time>2025-03-15T14:10:47Z</time>
      </trkpt>
      <trkpt lat="48.82871" lon="2.41365">
        <ele>47</ele>
        <time>2025-03-15T14:10:48Z</time>
      </trkpt>
      <trkpt lat="48.82871" lon="2.41367">
        <ele>47</ele>
        <time>2025-03-15T14:10:49Z</time>
      </trkpt>
      <trkpt lat="48.82871" lon="2.41369">
        <ele>47</ele>
        <time>2025-03-15T14:10:50Z</time>
      </trkpt>
      <trkpt lat="48.8287" lon="2.4137">
        <ele>47</ele>
        <time>2025-03-15T14:10:51Z</time>
      </trkpt>
      <trkpt lat="48.82869" lon="2.41372">
        <ele>47</ele>
        <time>2025-03-15T14:10:52Z</time>
      </trkpt>
      <trkpt lat="48.82869" lon="2.41374">
        <ele>47</ele>
        <time>2025-03-15T14:10:53Z</time>
      </trkpt>
      <trkpt lat="48.82868" lon="2.41377">
        <ele>46.8</ele>
        <time>2025-03-15T14:10:54Z</time>
      </trkpt>
      <trkpt lat="48.82867" lon="2.41379">
        <ele>46.8</ele>
        <time>2025-03-15T14:10:55Z</time>
      </trkpt>
      <trkpt lat="48.82867" lon="2.41381">
        <ele>46.6</ele>
        <time>2025-03-15T14:10:56Z</time>
      </trkpt>
      <trkpt lat="48.82866" lon="2.41383">
        <ele>46.6</ele>
        <time>2025-03-15T14:10:57Z</time>
      </trkpt>
      <trkpt lat="48.82855" lon="2.41412">
        <ele>45</ele>
        <time>2025-03-15T14:11:12Z</time>
      </trkpt>
      <trkpt lat="48.82843" lon="2.4144">
        <ele>45</ele>
        <time>2025-03-15T14:11:27Z</time>
      </trkpt>
      <trkpt lat="48.82831" lon="2.41478">
        <ele>46.6</ele>
        <time>2025-03-15T14:11:44Z</time>
      </trkpt>
      <trkpt lat="48.8282" lon="2.41521">
        <ele>47.8</ele>
        <time>2025-03-15T14:12:03Z</time>
      </trkpt>
      <trkpt lat="48.82808" lon="2.41569">
        <ele>47</ele>
        <time>2025-03-15T14:12:25Z</time>
      </trkpt>
      <trkpt lat="48.82799" lon="2.41618">
        <ele>46.2</ele>
        <time>2025-03-15T14:12:46Z</time>
      </trkpt>
      <trkpt lat="48.82793" lon="2.41663">
        <ele>48</ele>
        <time>2025-03-15T14:13:06Z</time>
      </trkpt>
      <trkpt lat="48.82792" lon="2.41665">
        <ele>48</ele>
        <time>2025-03-15T14:13:07Z</time>
      </trkpt>
      <trkpt lat="48.82785" lon="2.41709">
        <ele>48</ele>
        <time>2025-03-15T14:13:26Z</time>
      </trkpt>
      <trkpt lat="48.82783" lon="2.41756">
        <ele>47.6</ele>
        <time>2025-03-15T14:13:46Z</time>
      </trkpt>
      <trkpt lat="48.82783" lon="2.418">
        <ele>48.2</ele>
        <time>2025-03-15T14:14:04Z</time>
      </trkpt>
      <trkpt lat="48.82786" lon="2.41847">
        <ele>48.8</ele>
        <time>2025-03-15T14:14:24Z</time>
      </trkpt>
      <trkpt lat="48.82793" lon="2.41866">
        <ele>49.8</ele>
        <time>2025-03-15T14:14:34Z</time>
      </trkpt>
      <trkpt lat="48.82794" lon="2.41868">
        <ele>49.8</ele>
        <time>2025-03-15T14:14:35Z</time>
      </trkpt>
      <trkpt lat="48.82796" lon="2.41872">
        <ele>49.4</ele>
        <time>2025-03-15T14:14:37Z</time>
      </trkpt>
      <trkpt lat="48.82801" lon="2.41884">
        <ele>48.8</ele>
        <time>2025-03-15T14:14:44Z</time>
      </trkpt>
      <trkpt lat="48.82818" lon="2.41906">
        <ele>47</ele>
        <time>2025-03-15T14:14:58Z</time>
      </trkpt>
      <trkpt lat="48.82824" lon="2.41911">
        <ele>47.8</ele>
        <time>2025-03-15T14:15:02Z</time>
      </trkpt>
      <trkpt lat="48.82825" lon="2.41911">
        <ele>48</ele>
        <time>2025-03-15T14:15:03Z</time>
      </trkpt>
      <trkpt lat="48.82826" lon="2.41912">
        <ele>48.4</ele>
        <time>2025-03-15T14:15:04Z</time>
      </trkpt>
      <trkpt lat="48.82841" lon="2.41915">
        <ele>48.6</ele>
        <time>2025-03-15T14:15:18Z</time>
      </trkpt>
      <trkpt lat="48.82842" lon="2.41916">
        <ele>48.6</ele>
        <time>2025-03-15T14:15:19Z</time>
      </trkpt>
      <trkpt lat="48.82844" lon="2.41916">
        <ele>48.6</ele>
        <time>2025-03-15T14:15:20Z</time>
      </trkpt>
      <trkpt lat="48.82846" lon="2.41917">
        <ele>48.6</ele>
        <time>2025-03-15T14:15:21Z</time>
      </trkpt>
      <trkpt lat="48.82848" lon="2.41919">
        <ele>48.4</ele>
        <time>2025-03-15T14:15:22Z</time>
      </trkpt>
      <trkpt lat="48.8285" lon="2.41921">
        <ele>48.4</ele>
        <time>2025-03-15T14:15:23Z</time>
      </trkpt>
      <trkpt lat="48.82866" lon="2.41937">
        <ele>48.2</ele>
        <time>2025-03-15T14:15:35Z</time>
      </trkpt>
      <trkpt lat="48.82872" lon="2.4195">
        <ele>48.2</ele>
        <time>2025-03-15T14:15:41Z</time>
      </trkpt>
      <trkpt lat="48.82873" lon="2.41953">
        <ele>48.2</ele>
        <time>2025-03-15T14:15:42Z</time>
      </trkpt>
      <trkpt lat="48.82874" lon="2.41956">
        <ele>48.2</ele>
        <time>2025-03-15T14:15:43Z</time>
      </trkpt>
      <trkpt lat="48.82875" lon="2.41959">
        <ele>48.2</ele>
        <time>2025-03-15T14:15:44Z</time>
      </trkpt>
      <trkpt lat="48.82875" lon="2.41962">
        <ele>48</ele>
        <time>2025-03-15T14:15:45Z</time>
      </trkpt>
      <trkpt lat="48.82881" lon="2.41982">
        <ele>47.8</ele>
        <time>2025-03-15T14:15:55Z</time>
      </trkpt>
      <trkpt lat="48.82882" lon="2.41984">
        <ele>47.8</ele>
        <time>2025-03-15T14:15:56Z</time>
      </trkpt>
      <trkpt lat="48.82882" lon="2.41987">
        <ele>47.6</ele>
        <time>2025-03-15T14:15:57Z</time>
      </trkpt>
      <trkpt lat="48.82888" lon="2.42019">
        <ele>47</ele>
        <time>2025-03-15T14:16:11Z</time>
      </trkpt>
      <trkpt lat="48.8289" lon="2.42021">
        <ele>47</ele>
        <time>2025-03-15T14:16:12Z</time>
      </trkpt>
      <trkpt lat="48.8289" lon="2.42023">
        <ele>47.2</ele>
        <time>2025-03-15T14:16:13Z</time>
      </trkpt>
      <trkpt lat="48.82891" lon="2.42025">
        <ele>47.2</ele>
        <time>2025-03-15T14:16:14Z</time>
      </trkpt>
      <trkpt lat="48.82892" lon="2.42028">
        <ele>47.4</ele>
        <time>2025-03-15T14:16:15Z</time>
      </trkpt>
      <trkpt lat="48.82892" lon="2.4203">
        <ele>47.6</ele>
        <time>2025-03-15T14:16:16Z</time>
      </trkpt>
      <trkpt lat="48.82892" lon="2.42033">
        <ele>47.6</ele>
        <time>2025-03-15T14:16:17Z</time>
      </trkpt>
      <trkpt lat="48.82892" lon="2.42035">
        <ele>47.8</ele>
        <time>2025-03-15T14:16:18Z</time>
      </trkpt>
      <trkpt lat="48.82893" lon="2.42037">
        <ele>47.8</ele>
        <time>2025-03-15T14:16:19Z</time>
      </trkpt>
      <trkpt lat="48.82895" lon="2.42066">
        <ele>48</ele>
        <time>2025-03-15T14:16:32Z</time>
      </trkpt>
      <trkpt lat="48.82898" lon="2.42091">
        <ele>50.4</ele>
        <time>2025-03-15T14:16:44Z</time>
      </trkpt>
      <trkpt lat="48.82898" lon="2.42093">
        <ele>50.2</ele>
        <time>2025-03-15T14:16:45Z</time>
      </trkpt>
      <trkpt lat="48.82899" lon="2.42095">
        <ele>50</ele>
        <time>2025-03-15T14:16:46Z</time>
      </trkpt>
      <trkpt lat="48.82899" lon="2.42099">
        <ele>49.6</ele>
        <time>2025-03-15T14:16:48Z</time>
      </trkpt>
      <trkpt lat="48.82905" lon="2.42137">
        <ele>48.4</ele>
        <time>2025-03-15T14:17:05Z</time>
      </trkpt>
      <trkpt lat="48.82902" lon="2.42191">
        <ele>47.8</ele>
        <time>2025-03-15T14:17:23Z</time>
      </trkpt>
      <trkpt lat="48.829" lon="2.42232">
        <ele>48.2</ele>
        <time>2025-03-15T14:17:39Z</time>
      </trkpt>
      <trkpt lat="48.829" lon="2.42234">
        <ele>48.2</ele>
        <time>2025-03-15T14:17:40Z</time>
      </trkpt>
      <trkpt lat="48.82899" lon="2.42237">
        <ele>48.2</ele>
        <time>2025-03-15T14:17:41Z</time>
      </trkpt>
      <trkpt lat="48.82899" lon="2.42239">
        <ele>48.2</ele>
        <time>2025-03-15T14:17:42Z</time>
      </trkpt>
      <trkpt lat="48.82899" lon="2.42242">
        <ele>48.4</ele>
        <time>2025-03-15T14:17:43Z</time>
      </trkpt>
      <trkpt lat="48.82898" lon="2.42244">
        <ele>48.4</ele>
        <time>2025-03-15T14:17:44Z</time>
      </trkpt>
      <trkpt lat="48.82898" lon="2.42246">
        <ele>48.6</ele>
        <time>2025-03-15T14:17:45Z</time>
      </trkpt>
      <trkpt lat="48.82898" lon="2.42249">
        <ele>48.6</ele>
        <time>2025-03-15T14:17:46Z</time>
      </trkpt>
      <trkpt lat="48.82898" lon="2.42251">
        <ele>48.8</ele>
        <time>2025-03-15T14:17:47Z</time>
      </trkpt>
      <trkpt lat="48.82898" lon="2.42253">
        <ele>49</ele>
        <time>2025-03-15T14:17:48Z</time>
      </trkpt>
      <trkpt lat="48.82898" lon="2.42256">
        <ele>49.2</ele>
        <time>2025-03-15T14:17:49Z</time>
      </trkpt>
      <trkpt lat="48.82899" lon="2.42258">
        <ele>49.2</ele>
        <time>2025-03-15T14:17:50Z</time>
      </trkpt>
      <trkpt lat="48.82899" lon="2.4226">
        <ele>49.4</ele>
        <time>2025-03-15T14:17:51Z</time>
      </trkpt>
      <trkpt lat="48.82899" lon="2.42262">
        <ele>49.4</ele>
        <time>2025-03-15T14:17:52Z</time>
      </trkpt>
      <trkpt lat="48.829" lon="2.42265">
        <ele>49.4</ele>
        <time>2025-03-15T14:17:53Z</time>
      </trkpt>
      <trkpt lat="48.829" lon="2.42267">
        <ele>49.6</ele>
        <time>2025-03-15T14:17:54Z</time>
      </trkpt>
      <trkpt lat="48.82901" lon="2.42311">
        <ele>50.2</ele>
        <time>2025-03-15T14:18:12Z</time>
      </trkpt>
      <trkpt lat="48.82898" lon="2.42349">
        <ele>51.2</ele>
        <time>2025-03-15T14:18:30Z</time>
      </trkpt>
      <trkpt lat="48.82898" lon="2.42355">
        <ele>51.2</ele>
        <time>2025-03-15T14:18:34Z</time>
      </trkpt>
      <trkpt lat="48.82897" lon="2.42358">
        <ele>51</ele>
        <time>2025-03-15T14:18:35Z</time>
      </trkpt>
      <trkpt lat="48.82897" lon="2.42362">
        <ele>50.6</ele>
        <time>2025-03-15T14:18:36Z</time>
      </trkpt>
      <trkpt lat="48.82896" lon="2.42366">
        <ele>50.2</ele>
        <time>2025-03-15T14:18:37Z</time>
      </trkpt>
      <trkpt lat="48.82893" lon="2.42384">
        <ele>49</ele>
        <time>2025-03-15T14:18:44Z</time>
      </trkpt>
      <trkpt lat="48.82893" lon="2.42386">
        <ele>48.8</ele>
        <time>2025-03-15T14:18:45Z</time>
      </trkpt>
      <trkpt lat="48.82893" lon="2.42389">
        <ele>48.8</ele>
        <time>2025-03-15T14:18:46Z</time>
      </trkpt>
      <trkpt lat="48.82892" lon="2.42391">
        <ele>48.8</ele>
        <time>2025-03-15T14:18:47Z</time>
      </trkpt>
      <trkpt lat="48.82892" lon="2.42394">
        <ele>48.6</ele>
        <time>2025-03-15T14:18:48Z</time>
      </trkpt>
      <trkpt lat="48.82891" lon="2.42397">
        <ele>48.6</ele>
        <time>2025-03-15T14:18:49Z</time>
      </trkpt>
      <trkpt lat="48.82891" lon="2.42399">
        <ele>48.6</ele>
        <time>2025-03-15T14:18:50Z</time>
      </trkpt>
      <trkpt lat="48.82882" lon="2.42414">
        <ele>48.4</ele>
        <time>2025-03-15T14:19:00Z</time>
      </trkpt>
      <trkpt lat="48.82863" lon="2.42427">
        <ele>48.2</ele>
        <time>2025-03-15T14:19:14Z</time>
      </trkpt>
      <trkpt lat="48.82862" lon="2.4243">
        <ele>48.2</ele>
        <time>2025-03-15T14:19:15Z</time>
      </trkpt>
      <trkpt lat="48.8286" lon="2.42431">
        <ele>48.2</ele>
        <time>2025-03-15T14:19:16Z</time>
      </trkpt>
      <trkpt lat="48.82859" lon="2.42432">
        <ele>48.2</ele>
        <time>2025-03-15T14:19:17Z</time>
      </trkpt>
      <trkpt lat="48.82857" lon="2.42433">
        <ele>48.2</ele>
        <time>2025-03-15T14:19:18Z</time>
      </trkpt>
      <trkpt lat="48.82854" lon="2.42434">
        <ele>48.2</ele>
        <time>2025-03-15T14:19:19Z</time>
      </trkpt>
      <trkpt lat="48.82834" lon="2.42445">
        <ele>48.4</ele>
        <time>2025-03-15T14:19:33Z</time>
      </trkpt>
      <trkpt lat="48.82831" lon="2.4245">
        <ele>48.4</ele>
        <time>2025-03-15T14:19:35Z</time>
      </trkpt>
      <trkpt lat="48.82802" lon="2.42472">
        <ele>48.4</ele>
        <time>2025-03-15T14:19:56Z</time>
      </trkpt>
      <trkpt lat="48.82795" lon="2.4248">
        <ele>48.6</ele>
        <time>2025-03-15T14:20:02Z</time>
      </trkpt>
      <trkpt lat="48.82789" lon="2.42486">
        <ele>48.8</ele>
        <time>2025-03-15T14:20:07Z</time>
      </trkpt>
      <trkpt lat="48.82788" lon="2.42488">
        <ele>48.8</ele>
        <time>2025-03-15T14:20:08Z</time>
      </trkpt>
      <trkpt lat="48.82767" lon="2.42508">
        <ele>49</ele>
        <time>2025-03-15T14:20:23Z</time>
      </trkpt>
      <trkpt lat="48.82755" lon="2.42523">
        <ele>49.2</ele>
        <time>2025-03-15T14:20:34Z</time>
      </trkpt>
      <trkpt lat="48.82737" lon="2.4254">
        <ele>49.4</ele>
        <time>2025-03-15T14:20:46Z</time>
      </trkpt>
      <trkpt lat="48.82735" lon="2.42541">
        <ele>49.4</ele>
        <time>2025-03-15T14:20:47Z</time>
      </trkpt>
      <trkpt lat="48.82734" lon="2.42543">
        <ele>49.4</ele>
        <time>2025-03-15T14:20:48Z</time>
      </trkpt>
      <trkpt lat="48.82725" lon="2.42557">
        <ele>49.2</ele>
        <time>2025-03-15T14:20:57Z</time>
      </trkpt>
      <trkpt lat="48.82724" lon="2.42559">
        <ele>49.2</ele>
        <time>2025-03-15T14:20:58Z</time>
      </trkpt>
      <trkpt lat="48.82723" lon="2.42562">
        <ele>49.2</ele>
        <time>2025-03-15T14:20:59Z</time>
      </trkpt>
      <trkpt lat="48.82719" lon="2.42569">
        <ele>49</ele>
        <time>2025-03-15T14:21:02Z</time>
      </trkpt>
      <trkpt lat="48.82707" lon="2.42591">
        <ele>49.6</ele>
        <time>2025-03-15T14:21:15Z</time>
      </trkpt>
      <trkpt lat="48.82706" lon="2.42592">
        <ele>49.8</ele>
        <time>2025-03-15T14:21:16Z</time>
      </trkpt>
      <trkpt lat="48.8269" lon="2.42622">
        <ele>51</ele>
        <time>2025-03-15T14:21:33Z</time>
      </trkpt>
      <trkpt lat="48.82672" lon="2.42672">
        <ele>51.6</ele>
        <time>2025-03-15T14:21:58Z</time>
      </trkpt>
      <trkpt lat="48.8267" lon="2.42679">
        <ele>51.8</ele>
        <time>2025-03-15T14:22:01Z</time>
      </trkpt>
      <trkpt lat="48.82667" lon="2.42699">
        <ele>51.8</ele>
        <time>2025-03-15T14:22:10Z</time>
      </trkpt>
      <trkpt lat="48.8266" lon="2.42722">
        <ele>52</ele>
        <time>2025-03-15T14:22:18Z</time>
      </trkpt>
      <trkpt lat="48.82656" lon="2.42746">
        <ele>52</ele>
        <time>2025-03-15T14:22:29Z</time>
      </trkpt>
      <trkpt lat="48.82656" lon="2.42757">
        <ele>52.2</ele>
        <time>2025-03-15T14:22:33Z</time>
      </trkpt>
      <trkpt lat="48.82651" lon="2.42791">
        <ele>52.4</ele>
        <time>2025-03-15T14:22:46Z</time>
      </trkpt>
      <trkpt lat="48.82651" lon="2.42806">
        <ele>52.4</ele>
        <time>2025-03-15T14:22:52Z</time>
      </trkpt>
      <trkpt lat="48.82651" lon="2.42809">
        <ele>52.4</ele>
        <time>2025-03-15T14:22:53Z</time>
      </trkpt>
      <trkpt lat="48.82645" lon="2.42835">
        <ele>52</ele>
        <time>2025-03-15T14:23:08Z</time>
      </trkpt>
      <trkpt lat="48.82644" lon="2.42836">
        <ele>52.2</ele>
        <time>2025-03-15T14:23:09Z</time>
      </trkpt>
      <trkpt lat="48.8264" lon="2.42846">
        <ele>53.2</ele>
        <time>2025-03-15T14:23:14Z</time>
      </trkpt>
      <trkpt lat="48.82639" lon="2.42847">
        <ele>53.2</ele>
        <time>2025-03-15T14:23:15Z</time>
      </trkpt>
      <trkpt lat="48.82636" lon="2.42853">
        <ele>53</ele>
        <time>2025-03-15T14:23:18Z</time>
      </trkpt>
      <trkpt lat="48.82634" lon="2.42857">
        <ele>53</ele>
        <time>2025-03-15T14:23:19Z</time>
      </trkpt>
      <trkpt lat="48.82612" lon="2.42889">
        <ele>52.8</ele>
        <time>2025-03-15T14:23:36Z</time>
      </trkpt>
      <trkpt lat="48.82604" lon="2.42895">
        <ele>53.6</ele>
        <time>2025-03-15T14:23:42Z</time>
      </trkpt>
      <trkpt lat="48.82603" lon="2.42896">
        <ele>53.6</ele>
        <time>2025-03-15T14:23:43Z</time>
      </trkpt>
      <trkpt lat="48.82602" lon="2.42897">
        <ele>53.8</ele>
        <time>2025-03-15T14:23:44Z</time>
      </trkpt>
      <trkpt lat="48.82589" lon="2.4291">
        <ele>54.4</ele>
        <time>2025-03-15T14:23:56Z</time>
      </trkpt>
      <trkpt lat="48.82567" lon="2.4292">
        <ele>54.6</ele>
        <time>2025-03-15T14:24:13Z</time>
      </trkpt>
      <trkpt lat="48.82545" lon="2.42936">
        <ele>54.8</ele>
        <time>2025-03-15T14:24:29Z</time>
      </trkpt>
      <trkpt lat="48.82526" lon="2.42961">
        <ele>55.2</ele>
        <time>2025-03-15T14:24:46Z</time>
      </trkpt>
      <trkpt lat="48.82514" lon="2.4297">
        <ele>55.6</ele>
        <time>2025-03-15T14:24:54Z</time>
      </trkpt>
      <trkpt lat="48.82513" lon="2.42971">
        <ele>55.8</ele>
        <time>2025-03-15T14:24:55Z</time>
      </trkpt>
      <trkpt lat="48.82511" lon="2.42972">
        <ele>55.8</ele>
        <time>2025-03-15T14:24:56Z</time>
      </trkpt>
      <trkpt lat="48.82493" lon="2.42985">
        <ele>57.2</ele>
        <time>2025-03-15T14:25:11Z</time>
      </trkpt>
      <trkpt lat="48.82473" lon="2.43004">
        <ele>54.8</ele>
        <time>2025-03-15T14:25:27Z</time>
      </trkpt>
      <trkpt lat="48.82453" lon="2.43041">
        <ele>54.8</ele>
        <time>2025-03-15T14:25:48Z</time>
      </trkpt>
      <trkpt lat="48.82453" lon="2.43044">
        <ele>55</ele>
        <time>2025-03-15T14:25:49Z</time>
      </trkpt>
      <trkpt lat="48.82452" lon="2.43045">
        <ele>55</ele>
        <time>2025-03-15T14:25:50Z</time>
      </trkpt>
      <trkpt lat="48.82449" lon="2.43051">
        <ele>55</ele>
        <time>2025-03-15T14:25:53Z</time>
      </trkpt>
      <trkpt lat="48.82433" lon="2.43095">
        <ele>55.6</ele>
        <time>2025-03-15T14:26:12Z</time>
      </trkpt>
      <trkpt lat="48.8243" lon="2.43125">
        <ele>56</ele>
        <time>2025-03-15T14:26:25Z</time>
      </trkpt>
      <trkpt lat="48.82433" lon="2.43154">
        <ele>56</ele>
        <time>2025-03-15T14:26:40Z</time>
      </trkpt>
      <trkpt lat="48.82433" lon="2.43157">
        <ele>56</ele>
        <time>2025-03-15T14:26:41Z</time>
      </trkpt>
      <trkpt lat="48.82424" lon="2.43187">
        <ele>56.2</ele>
        <time>2025-03-15T14:26:57Z</time>
      </trkpt>
      <trkpt lat="48.82414" lon="2.43235">
        <ele>55</ele>
        <time>2025-03-15T14:27:15Z</time>
      </trkpt>
      <trkpt lat="48.82413" lon="2.43247">
        <ele>55.8</ele>
        <time>2025-03-15T14:27:20Z</time>
      </trkpt>
      <trkpt lat="48.82413" lon="2.43249">
        <ele>56</ele>
        <time>2025-03-15T14:27:21Z</time>
      </trkpt>
      <trkpt lat="48.82416" lon="2.43274">
        <ele>56.4</ele>
        <time>2025-03-15T14:27:35Z</time>
      </trkpt>
      <trkpt lat="48.82415" lon="2.4329">
        <ele>56.2</ele>
        <time>2025-03-15T14:27:41Z</time>
      </trkpt>
      <trkpt lat="48.82414" lon="2.43293">
        <ele>56.2</ele>
        <time>2025-03-15T14:27:42Z</time>
      </trkpt>
      <trkpt lat="48.82413" lon="2.43295">
        <ele>56.2</ele>
        <time>2025-03-15T14:27:43Z</time>
      </trkpt>
      <trkpt lat="48.82412" lon="2.43298">
        <ele>56.2</ele>
        <time>2025-03-15T14:27:44Z</time>
      </trkpt>
      <trkpt lat="48.82409" lon="2.43304">
        <ele>56</ele>
        <time>2025-03-15T14:27:48Z</time>
      </trkpt>
      <trkpt lat="48.82408" lon="2.43306">
        <ele>56</ele>
        <time>2025-03-15T14:27:49Z</time>
      </trkpt>
      <trkpt lat="48.82407" lon="2.43307">
        <ele>56</ele>
        <time>2025-03-15T14:27:50Z</time>
      </trkpt>
      <trkpt lat="48.82389" lon="2.43322">
        <ele>55.2</ele>
        <time>2025-03-15T14:28:03Z</time>
      </trkpt>
      <trkpt lat="48.82365" lon="2.43346">
        <ele>56.2</ele>
        <time>2025-03-15T14:28:20Z</time>
      </trkpt>
      <trkpt lat="48.82344" lon="2.43371">
        <ele>57.2</ele>
        <time>2025-03-15T14:28:37Z</time>
      </trkpt>
      <trkpt lat="48.82327" lon="2.4339">
        <ele>57.6</ele>
        <time>2025-03-15T14:28:52Z</time>
      </trkpt>
      <trkpt lat="48.82313" lon="2.43419">
        <ele>58.2</ele>
        <time>2025-03-15T14:29:07Z</time>
      </trkpt>
      <trkpt lat="48.82312" lon="2.43421">
        <ele>58.2</ele>
        <time>2025-03-15T14:29:08Z</time>
      </trkpt>
      <trkpt lat="48.8231" lon="2.43423">
        <ele>58.2</ele>
        <time>2025-03-15T14:29:09Z</time>
      </trkpt>
      <trkpt lat="48.82309" lon="2.43424">
        <ele>58.2</ele>
        <time>2025-03-15T14:29:10Z</time>
      </trkpt>
      <trkpt lat="48.82308" lon="2.43426">
        <ele>58.2</ele>
        <time>2025-03-15T14:29:11Z</time>
      </trkpt>
      <trkpt lat="48.82307" lon="2.43428">
        <ele>58.2</ele>
        <time>2025-03-15T14:29:12Z</time>
      </trkpt>
      <trkpt lat="48.82296" lon="2.43451">
        <ele>58.6</ele>
        <time>2025-03-15T14:29:27Z</time>
      </trkpt>
      <trkpt lat="48.82281" lon="2.43493">
        <ele>60.4</ele>
        <time>2025-03-15T14:29:49Z</time>
      </trkpt>
      <trkpt lat="48.82275" lon="2.43529">
        <ele>59.2</ele>
        <time>2025-03-15T14:30:02Z</time>
      </trkpt>
      <trkpt lat="48.8227" lon="2.4357">
        <ele>58.4</ele>
        <time>2025-03-15T14:30:17Z</time>
      </trkpt>
      <trkpt lat="48.82267" lon="2.43585">
        <ele>58.4</ele>
        <time>2025-03-15T14:30:25Z</time>
      </trkpt>
      <trkpt lat="48.82266" lon="2.43588">
        <ele>58.6</ele>
        <time>2025-03-15T14:30:26Z</time>
      </trkpt>
      <trkpt lat="48.82262" lon="2.43609">
        <ele>58.8</ele>
        <time>2025-03-15T14:30:38Z</time>
      </trkpt>
      <trkpt lat="48.8226" lon="2.43634">
        <ele>58.8</ele>
        <time>2025-03-15T14:30:53Z</time>
      </trkpt>
      <trkpt lat="48.82252" lon="2.43695">
        <ele>58</ele>
        <time>2025-03-15T14:31:16Z</time>
      </trkpt>
      <trkpt lat="48.82252" lon="2.43713">
        <ele>58.8</ele>
        <time>2025-03-15T14:31:24Z</time>
      </trkpt>
      <trkpt lat="48.82252" lon="2.43716">
        <ele>58.8</ele>
        <time>2025-03-15T14:31:25Z</time>
      </trkpt>
      <trkpt lat="48.82253" lon="2.43754">
        <ele>58.8</ele>
        <time>2025-03-15T14:31:42Z</time>
      </trkpt>
      <trkpt lat="48.82252" lon="2.43783">
        <ele>59.2</ele>
        <time>2025-03-15T14:31:54Z</time>
      </trkpt>
      <trkpt lat="48.82248" lon="2.43812">
        <ele>59</ele>
        <time>2025-03-15T14:32:09Z</time>
      </trkpt>
      <trkpt lat="48.82246" lon="2.4382">
        <ele>58.8</ele>
        <time>2025-03-15T14:32:11Z</time>
      </trkpt>
      <trkpt lat="48.82247" lon="2.43822">
        <ele>58.8</ele>
        <time>2025-03-15T14:32:12Z</time>
      </trkpt>
      <trkpt lat="48.82247" lon="2.43824">
        <ele>58.8</ele>
        <time>2025-03-15T14:32:13Z</time>
      </trkpt>
      <trkpt lat="48.82247" lon="2.43826">
        <ele>58.6</ele>
        <time>2025-03-15T14:32:14Z</time>
      </trkpt>
      <trkpt lat="48.82247" lon="2.43828">
        <ele>58.6</ele>
        <time>2025-03-15T14:32:15Z</time>
      </trkpt>
      <trkpt lat="48.82245" lon="2.43844">
        <ele>58.6</ele>
        <time>2025-03-15T14:32:22Z</time>
      </trkpt>
      <trkpt lat="48.82245" lon="2.43846">
        <ele>58.6</ele>
        <time>2025-03-15T14:32:23Z</time>
      </trkpt>
      <trkpt lat="48.82244" lon="2.43848">
        <ele>58.6</ele>
        <time>2025-03-15T14:32:24Z</time>
      </trkpt>
      <trkpt lat="48.82243" lon="2.4385">
        <ele>58.6</ele>
        <time>2025-03-15T14:32:25Z</time>
      </trkpt>
      <trkpt lat="48.82243" lon="2.43853">
        <ele>58.6</ele>
        <time>2025-03-15T14:32:26Z</time>
      </trkpt>
      <trkpt lat="48.82243" lon="2.43856">
        <ele>58.8</ele>
        <time>2025-03-15T14:32:27Z</time>
      </trkpt>
      <trkpt lat="48.82244" lon="2.43858">
        <ele>58.8</ele>
        <time>2025-03-15T14:32:28Z</time>
      </trkpt>
      <trkpt lat="48.8224" lon="2.43889">
        <ele>58</ele>
        <time>2025-03-15T14:32:40Z</time>
      </trkpt>
      <trkpt lat="48.82239" lon="2.43898">
        <ele>58</ele>
        <time>2025-03-15T14:32:45Z</time>
      </trkpt>
      <trkpt lat="48.82238" lon="2.43906">
        <ele>58</ele>
        <time>2025-03-15T14:32:49Z</time>
      </trkpt>
      <trkpt lat="48.82237" lon="2.43919">
        <ele>58.2</ele>
        <time>2025-03-15T14:32:55Z</time>
      </trkpt>
      <trkpt lat="48.82237" lon="2.43922">
        <ele>58.2</ele>
        <time>2025-03-15T14:32:56Z</time>
      </trkpt>
      <trkpt lat="48.82237" lon="2.4395">
        <ele>58</ele>
        <time>2025-03-15T14:33:08Z</time>
      </trkpt>
      <trkpt lat="48.82237" lon="2.43985">
        <ele>58</ele>
        <time>2025-03-15T14:33:22Z</time>
      </trkpt>
      <trkpt lat="48.82236" lon="2.43997">
        <ele>58</ele>
        <time>2025-03-15T14:33:27Z</time>
      </trkpt>
      <trkpt lat="48.82236" lon="2.44">
        <ele>58</ele>
        <time>2025-03-15T14:33:28Z</time>
      </trkpt>
      <trkpt lat="48.82233" lon="2.44033">
        <ele>58</ele>
        <time>2025-03-15T14:33:42Z</time>
      </trkpt>
      <trkpt lat="48.82233" lon="2.44048">
        <ele>57.8</ele>
        <time>2025-03-15T14:33:49Z</time>
      </trkpt>
      <trkpt lat="48.82233" lon="2.4405">
        <ele>57.8</ele>
        <time>2025-03-15T14:33:50Z</time>
      </trkpt>
      <trkpt lat="48.82234" lon="2.44051">
        <ele>57.8</ele>
        <time>2025-03-15T14:33:51Z</time>
      </trkpt>
      <trkpt lat="48.82233" lon="2.44056">
        <ele>57.8</ele>
        <time>2025-03-15T14:33:53Z</time>
      </trkpt>
      <trkpt lat="48.82233" lon="2.44058">
        <ele>57.8</ele>
        <time>2025-03-15T14:33:54Z</time>
      </trkpt>
      <trkpt lat="48.82233" lon="2.4406">
        <ele>57.8</ele>
        <time>2025-03-15T14:33:55Z</time>
      </trkpt>
      <trkpt lat="48.82225" lon="2.44096">
        <ele>57.4</ele>
        <time>2025-03-15T14:34:09Z</time>
      </trkpt>
      <trkpt lat="48.82217" lon="2.44128">
        <ele>57.6</ele>
        <time>2025-03-15T14:34:22Z</time>
      </trkpt>
      <trkpt lat="48.82221" lon="2.44162">
        <ele>59.6</ele>
        <time>2025-03-15T14:34:37Z</time>
      </trkpt>
      <trkpt lat="48.82223" lon="2.442">
        <ele>59</ele>
        <time>2025-03-15T14:34:51Z</time>
      </trkpt>
      <trkpt lat="48.8221" lon="2.44228">
        <ele>58.2</ele>
        <time>2025-03-15T14:35:04Z</time>
      </trkpt>
      <trkpt lat="48.8221" lon="2.4423">
        <ele>58.2</ele>
        <time>2025-03-15T14:35:05Z</time>
      </trkpt>
      <trkpt lat="48.82209" lon="2.44231">
        <ele>58.2</ele>
        <time>2025-03-15T14:35:06Z</time>
      </trkpt>
      <trkpt lat="48.82204" lon="2.44249">
        <ele>58.8</ele>
        <time>2025-03-15T14:35:17Z</time>
      </trkpt>
      <trkpt lat="48.82203" lon="2.44251">
        <ele>58.8</ele>
        <time>2025-03-15T14:35:18Z</time>
      </trkpt>
      <trkpt lat="48.82202" lon="2.44253">
        <ele>59</ele>
        <time>2025-03-15T14:35:19Z</time>
      </trkpt>
      <trkpt lat="48.82188" lon="2.44285">
        <ele>59.4</ele>
        <time>2025-03-15T14:35:37Z</time>
      </trkpt>
      <trkpt lat="48.82187" lon="2.44286">
        <ele>59.6</ele>
        <time>2025-03-15T14:35:38Z</time>
      </trkpt>
      <trkpt lat="48.82187" lon="2.44288">
        <ele>59.6</ele>
        <time>2025-03-15T14:35:39Z</time>
      </trkpt>
      <trkpt lat="48.82186" lon="2.4429">
        <ele>59.6</ele>
        <time>2025-03-15T14:35:40Z</time>
      </trkpt>
      <trkpt lat="48.82186" lon="2.44291">
        <ele>59.6</ele>
        <time>2025-03-15T14:35:41Z</time>
      </trkpt>
      <trkpt lat="48.82185" lon="2.44293">
        <ele>59.6</ele>
        <time>2025-03-15T14:35:42Z</time>
      </trkpt>
      <trkpt lat="48.82185" lon="2.44295">
        <ele>59.6</ele>
        <time>2025-03-15T14:35:43Z</time>
      </trkpt>
      <trkpt lat="48.82184" lon="2.44298">
        <ele>59.4</ele>
        <time>2025-03-15T14:35:44Z</time>
      </trkpt>
      <trkpt lat="48.82183" lon="2.44301">
        <ele>59.4</ele>
        <time>2025-03-15T14:35:45Z</time>
      </trkpt>
      <trkpt lat="48.82175" lon="2.44322">
        <ele>59.8</ele>
        <time>2025-03-15T14:35:56Z</time>
      </trkpt>
      <trkpt lat="48.8217" lon="2.44334">
        <ele>59.8</ele>
        <time>2025-03-15T14:36:02Z</time>
      </trkpt>
      <trkpt lat="48.8217" lon="2.44336">
        <ele>59.8</ele>
        <time>2025-03-15T14:36:03Z</time>
      </trkpt>
      <trkpt lat="48.8217" lon="2.44338">
        <ele>59.8</ele>
        <time>2025-03-15T14:36:04Z</time>
      </trkpt>
      <trkpt lat="48.82169" lon="2.4434">
        <ele>59.8</ele>
        <time>2025-03-15T14:36:05Z</time>
      </trkpt>
      <trkpt lat="48.82168" lon="2.44341">
        <ele>59.8</ele>
        <time>2025-03-15T14:36:06Z</time>
      </trkpt>
      <trkpt lat="48.82156" lon="2.44364">
        <ele>59.2</ele>
        <time>2025-03-15T14:36:19Z</time>
      </trkpt>
      <trkpt lat="48.82149" lon="2.44376">
        <ele>60</ele>
        <time>2025-03-15T14:36:28Z</time>
      </trkpt>
      <trkpt lat="48.82148" lon="2.44377">
        <ele>60</ele>
        <time>2025-03-15T14:36:29Z</time>
      </trkpt>
      <trkpt lat="48.82137" lon="2.44394">
        <ele>62.2</ele>
        <time>2025-03-15T14:36:41Z</time>
      </trkpt>
      <trkpt lat="48.82133" lon="2.44401">
        <ele>62</ele>
        <time>2025-03-15T14:36:45Z</time>
      </trkpt>
      <trkpt lat="48.82113" lon="2.44436">
        <ele>62</ele>
        <time>2025-03-15T14:37:06Z</time>
      </trkpt>
      <trkpt lat="48.82101" lon="2.44466">
        <ele>62.2</ele>
        <time>2025-03-15T14:37:21Z</time>
      </trkpt>
      <trkpt lat="48.82097" lon="2.44471">
        <ele>62.2</ele>
        <time>2025-03-15T14:37:24Z</time>
      </trkpt>
      <trkpt lat="48.82095" lon="2.44473">
        <ele>62.2</ele>
        <time>2025-03-15T14:37:25Z</time>
      </trkpt>
      <trkpt lat="48.82073" lon="2.44487">
        <ele>62.6</ele>
        <time>2025-03-15T14:37:40Z</time>
      </trkpt>
      <trkpt lat="48.82051" lon="2.44498">
        <ele>62.8</ele>
        <time>2025-03-15T14:37:53Z</time>
      </trkpt>
      <trkpt lat="48.82049" lon="2.445">
        <ele>62.8</ele>
        <time>2025-03-15T14:37:55Z</time>
      </trkpt>
      <trkpt lat="48.82044" lon="2.44511">
        <ele>62.4</ele>
        <time>2025-03-15T14:37:59Z</time>
      </trkpt>
      <trkpt lat="48.82043" lon="2.44513">
        <ele>62.2</ele>
        <time>2025-03-15T14:38:00Z</time>
      </trkpt>
      <trkpt lat="48.82041" lon="2.44513">
        <ele>62.2</ele>
        <time>2025-03-15T14:38:01Z</time>
      </trkpt>
      <trkpt lat="48.82039" lon="2.44513">
        <ele>62.4</ele>
        <time>2025-03-15T14:38:02Z</time>
      </trkpt>
      <trkpt lat="48.82038" lon="2.44512">
        <ele>62.4</ele>
        <time>2025-03-15T14:38:03Z</time>
      </trkpt>
      <trkpt lat="48.82037" lon="2.44512">
        <ele>62.4</ele>
        <time>2025-03-15T14:38:04Z</time>
      </trkpt>
      <trkpt lat="48.82035" lon="2.4451">
        <ele>62.4</ele>
        <time>2025-03-15T14:38:05Z</time>
      </trkpt>
      <trkpt lat="48.82016" lon="2.44495">
        <ele>64</ele>
        <time>2025-03-15T14:38:19Z</time>
      </trkpt>
      <trkpt lat="48.81994" lon="2.44472">
        <ele>64.8</ele>
        <time>2025-03-15T14:38:35Z</time>
      </trkpt>
      <trkpt lat="48.81974" lon="2.44455">
        <ele>64.4</ele>
        <time>2025-03-15T14:38:50Z</time>
      </trkpt>
      <trkpt lat="48.81955" lon="2.44441">
        <ele>64.8</ele>
        <time>2025-03-15T14:39:04Z</time>
      </trkpt>
      <trkpt lat="48.81935" lon="2.44415">
        <ele>64.4</ele>
        <time>2025-03-15T14:39:21Z</time>
      </trkpt>
      <trkpt lat="48.81912" lon="2.44388">
        <ele>63.6</ele>
        <time>2025-03-15T14:39:40Z</time>
      </trkpt>
      <trkpt lat="48.81893" lon="2.44357">
        <ele>62.6</ele>
        <time>2025-03-15T14:39:58Z</time>
      </trkpt>
      <trkpt lat="48.81884" lon="2.44338">
        <ele>62.2</ele>
        <time>2025-03-15T14:40:11Z</time>
      </trkpt>
      <trkpt lat="48.81872" lon="2.44331">
        <ele>60</ele>
        <time>2025-03-15T14:40:27Z</time>
      </trkpt>
      <trkpt lat="48.81871" lon="2.44332">
        <ele>60</ele>
        <time>2025-03-15T14:40:28Z</time>
      </trkpt>
      <trkpt lat="48.81869" lon="2.44331">
        <ele>59</ele>
        <time>2025-03-15T14:40:46Z</time>
      </trkpt>
      <trkpt lat="48.81867" lon="2.44328">
        <ele>59.2</ele>
        <time>2025-03-15T14:41:16Z</time>
      </trkpt>
      <trkpt lat="48.81862" lon="2.44322">
        <ele>59.2</ele>
        <time>2025-03-15T14:41:23Z</time>
      </trkpt>
      <trkpt lat="48.81861" lon="2.4432">
        <ele>59.2</ele>
        <time>2025-03-15T14:41:24Z</time>
      </trkpt>
      <trkpt lat="48.81855" lon="2.44278">
        <ele>58.6</ele>
        <time>2025-03-15T14:41:46Z</time>
      </trkpt>
      <trkpt lat="48.81848" lon="2.44234">
        <ele>55.6</ele>
        <time>2025-03-15T14:42:08Z</time>
      </trkpt>
      <trkpt lat="48.81853" lon="2.44179">
        <ele>53.4</ele>
        <time>2025-03-15T14:42:34Z</time>
      </trkpt>
      <trkpt lat="48.81855" lon="2.44149">
        <ele>53</ele>
        <time>2025-03-15T14:42:45Z</time>
      </trkpt>
      <trkpt lat="48.81855" lon="2.44142">
        <ele>52.4</ele>
        <time>2025-03-15T14:42:47Z</time>
      </trkpt>
      <trkpt lat="48.81856" lon="2.44139">
        <ele>52</ele>
        <time>2025-03-15T14:42:48Z</time>
      </trkpt>
      <trkpt lat="48.81856" lon="2.44136">
        <ele>51.8</ele>
        <time>2025-03-15T14:42:49Z</time>
      </trkpt>
      <trkpt lat="48.81855" lon="2.44127">
        <ele>53</ele>
        <time>2025-03-15T14:42:55Z</time>
      </trkpt>
      <trkpt lat="48.81848" lon="2.4412">
        <ele>50.6</ele>
        <time>2025-03-15T14:43:14Z</time>
      </trkpt>
      <trkpt lat="48.81844" lon="2.44127">
        <ele>49.2</ele>
        <time>2025-03-15T14:43:19Z</time>
      </trkpt>
      <trkpt lat="48.81843" lon="2.44129">
        <ele>49</ele>
        <time>2025-03-15T14:43:20Z</time>
      </trkpt>
      <trkpt lat="48.81841" lon="2.44131">
        <ele>48.8</ele>
        <time>2025-03-15T14:43:21Z</time>
      </trkpt>
      <trkpt lat="48.8184" lon="2.44133">
        <ele>48.6</ele>
        <time>2025-03-15T14:43:22Z</time>
      </trkpt>
      <trkpt lat="48.8184" lon="2.44134">
        <ele>48.2</ele>
        <time>2025-03-15T14:43:23Z</time>
      </trkpt>
      <trkpt lat="48.8184" lon="2.44135">
        <ele>48</ele>
        <time>2025-03-15T14:43:24Z</time>
      </trkpt>
      <trkpt lat="48.81839" lon="2.44137">
        <ele>47.6</ele>
        <time>2025-03-15T14:43:25Z</time>
      </trkpt>
      <trkpt lat="48.81839" lon="2.44139">
        <ele>47.2</ele>
        <time>2025-03-15T14:43:26Z</time>
      </trkpt>
      <trkpt lat="48.81839" lon="2.44141">
        <ele>47</ele>
        <time>2025-03-15T14:43:27Z</time>
      </trkpt>
      <trkpt lat="48.81838" lon="2.44143">
        <ele>46.8</ele>
        <time>2025-03-15T14:43:28Z</time>
      </trkpt>
      <trkpt lat="48.81833" lon="2.44158">
        <ele>44.4</ele>
        <time>2025-03-15T14:43:37Z</time>
      </trkpt>
      <trkpt lat="48.8183" lon="2.44163">
        <ele>43.8</ele>
        <time>2025-03-15T14:43:40Z</time>
      </trkpt>
      <trkpt lat="48.81828" lon="2.44165">
        <ele>43.6</ele>
        <time>2025-03-15T14:43:41Z</time>
      </trkpt>
      <trkpt lat="48.81827" lon="2.44167">
        <ele>43.2</ele>
        <time>2025-03-15T14:43:42Z</time>
      </trkpt>
      <trkpt lat="48.81827" lon="2.44169">
        <ele>43</ele>
        <time>2025-03-15T14:43:43Z</time>
      </trkpt>
      <trkpt lat="48.81824" lon="2.44179">
        <ele>41.2</ele>
        <time>2025-03-15T14:43:51Z</time>
      </trkpt>
      <trkpt lat="48.81822" lon="2.44182">
        <ele>40.8</ele>
        <time>2025-03-15T14:43:52Z</time>
      </trkpt>
      <trkpt lat="48.81814" lon="2.44194">
        <ele>39.2</ele>
        <time>2025-03-15T14:44:02Z</time>
      </trkpt>
      <trkpt lat="48.8181" lon="2.44207">
        <ele>36</ele>
        <time>2025-03-15T14:44:12Z</time>
      </trkpt>
      <trkpt lat="48.81809" lon="2.44209">
        <ele>35.2</ele>
        <time>2025-03-15T14:44:14Z</time>
      </trkpt>
      <trkpt lat="48.81803" lon="2.44224">
        <ele>34</ele>
        <time>2025-03-15T14:44:20Z</time>
      </trkpt>
      <trkpt lat="48.81803" lon="2.44225">
        <ele>34</ele>
        <time>2025-03-15T14:44:21Z</time>
      </trkpt>
      <trkpt lat="48.81802" lon="2.44228">
        <ele>33.6</ele>
        <time>2025-03-15T14:44:22Z</time>
      </trkpt>
      <trkpt lat="48.81802" lon="2.4423">
        <ele>33.6</ele>
        <time>2025-03-15T14:44:23Z</time>
      </trkpt>
      <trkpt lat="48.81801" lon="2.44232">
        <ele>33.4</ele>
        <time>2025-03-15T14:44:24Z</time>
      </trkpt>
      <trkpt lat="48.81801" lon="2.44234">
        <ele>33.4</ele>
        <time>2025-03-15T14:44:25Z</time>
      </trkpt>
      <trkpt lat="48.81797" lon="2.44245">
        <ele>32.8</ele>
        <time>2025-03-15T14:44:29Z</time>
      </trkpt>
      <trkpt lat="48.81796" lon="2.44247">
        <ele>32.6</ele>
        <time>2025-03-15T14:44:30Z</time>
      </trkpt>
      <trkpt lat="48.81795" lon="2.4425">
        <ele>32.6</ele>
        <time>2025-03-15T14:44:31Z</time>
      </trkpt>
      <trkpt lat="48.81794" lon="2.44252">
        <ele>32.6</ele>
        <time>2025-03-15T14:44:32Z</time>
      </trkpt>
      <trkpt lat="48.81794" lon="2.44253">
        <ele>32.8</ele>
        <time>2025-03-15T14:44:33Z</time>
      </trkpt>
      <trkpt lat="48.81793" lon="2.44255">
        <ele>32.8</ele>
        <time>2025-03-15T14:44:34Z</time>
      </trkpt>
      <trkpt lat="48.81793" lon="2.44257">
        <ele>32.8</ele>
        <time>2025-03-15T14:44:35Z</time>
      </trkpt>
      <trkpt lat="48.81789" lon="2.44273">
        <ele>33</ele>
        <time>2025-03-15T14:44:42Z</time>
      </trkpt>
      <trkpt lat="48.81787" lon="2.44276">
        <ele>33</ele>
        <time>2025-03-15T14:44:43Z</time>
      </trkpt>
      <trkpt lat="48.81786" lon="2.44278">
        <ele>33</ele>
        <time>2025-03-15T14:44:44Z</time>
      </trkpt>
      <trkpt lat="48.81769" lon="2.44279">
        <ele>33.6</ele>
        <time>2025-03-15T14:45:06Z</time>
      </trkpt>
      <trkpt lat="48.81769" lon="2.44284">
        <ele>35.8</ele>
        <time>2025-03-15T14:45:24Z</time>
      </trkpt>
      <trkpt lat="48.81757" lon="2.44267">
        <ele>39</ele>
        <time>2025-03-15T14:45:43Z</time>
      </trkpt>
      <trkpt lat="48.81752" lon="2.44264">
        <ele>39.4</ele>
        <time>2025-03-15T14:45:47Z</time>
      </trkpt>
      <trkpt lat="48.81751" lon="2.44264">
        <ele>39.6</ele>
        <time>2025-03-15T14:45:48Z</time>
      </trkpt>
      <trkpt lat="48.81749" lon="2.44263">
        <ele>39.8</ele>
        <time>2025-03-15T14:45:49Z</time>
      </trkpt>
      <trkpt lat="48.81737" lon="2.44263">
        <ele>40.6</ele>
        <time>2025-03-15T14:45:57Z</time>
      </trkpt>
      <trkpt lat="48.81726" lon="2.44263">
        <ele>41.4</ele>
        <time>2025-03-15T14:46:03Z</time>
      </trkpt>
      <trkpt lat="48.81724" lon="2.44263">
        <ele>41.6</ele>
        <time>2025-03-15T14:46:04Z</time>
      </trkpt>
      <trkpt lat="48.81723" lon="2.44262">
        <ele>41.6</ele>
        <time>2025-03-15T14:46:05Z</time>
      </trkpt>
      <trkpt lat="48.81721" lon="2.44262">
        <ele>41.6</ele>
        <time>2025-03-15T14:46:06Z</time>
      </trkpt>
      <trkpt lat="48.81719" lon="2.44262">
        <ele>41.4</ele>
        <time>2025-03-15T14:46:07Z</time>
      </trkpt>
      <trkpt lat="48.81717" lon="2.44262">
        <ele>41.4</ele>
        <time>2025-03-15T14:46:08Z</time>
      </trkpt>
      <trkpt lat="48.81689" lon="2.44257">
        <ele>42.8</ele>
        <time>2025-03-15T14:46:27Z</time>
      </trkpt>
      <trkpt lat="48.81688" lon="2.44258">
        <ele>43</ele>
        <time>2025-03-15T14:46:28Z</time>
      </trkpt>
      <trkpt lat="48.81685" lon="2.44293">
        <ele>42.2</ele>
        <time>2025-03-15T14:46:44Z</time>
      </trkpt>
      <trkpt lat="48.81683" lon="2.44328">
        <ele>39</ele>
        <time>2025-03-15T14:47:01Z</time>
      </trkpt>
      <trkpt lat="48.81682" lon="2.44333">
        <ele>38.8</ele>
        <time>2025-03-15T14:47:04Z</time>
      </trkpt>
      <trkpt lat="48.81681" lon="2.44335">
        <ele>38.8</ele>
        <time>2025-03-15T14:47:05Z</time>
      </trkpt>
      <trkpt lat="48.81681" lon="2.44337">
        <ele>38.6</ele>
        <time>2025-03-15T14:47:06Z</time>
      </trkpt>
      <trkpt lat="48.81681" lon="2.44339">
        <ele>38.6</ele>
        <time>2025-03-15T14:47:07Z</time>
      </trkpt>
      <trkpt lat="48.81681" lon="2.44341">
        <ele>38.4</ele>
        <time>2025-03-15T14:47:08Z</time>
      </trkpt>
      <trkpt lat="48.81676" lon="2.4438">
        <ele>35.6</ele>
        <time>2025-03-15T14:47:25Z</time>
      </trkpt>
      <trkpt lat="48.81675" lon="2.44381">
        <ele>35.4</ele>
        <time>2025-03-15T14:47:26Z</time>
      </trkpt>
      <trkpt lat="48.81674" lon="2.44381">
        <ele>35</ele>
        <time>2025-03-15T14:47:27Z</time>
      </trkpt>
      <trkpt lat="48.81672" lon="2.44381">
        <ele>34.8</ele>
        <time>2025-03-15T14:47:28Z</time>
      </trkpt>
      <trkpt lat="48.81671" lon="2.44381">
        <ele>34.6</ele>
        <time>2025-03-15T14:47:29Z</time>
      </trkpt>
      <trkpt lat="48.81669" lon="2.4438">
        <ele>34.6</ele>
        <time>2025-03-15T14:47:30Z</time>
      </trkpt>
      <trkpt lat="48.81667" lon="2.4438">
        <ele>34.4</ele>
        <time>2025-03-15T14:47:31Z</time>
      </trkpt>
      <trkpt lat="48.81666" lon="2.4438">
        <ele>34.4</ele>
        <time>2025-03-15T14:47:32Z</time>
      </trkpt>
      <trkpt lat="48.81664" lon="2.44381">
        <ele>34.2</ele>
        <time>2025-03-15T14:47:33Z</time>
      </trkpt>
      <trkpt lat="48.81662" lon="2.44381">
        <ele>34.2</ele>
        <time>2025-03-15T14:47:34Z</time>
      </trkpt>
      <trkpt lat="48.81635" lon="2.44382">
        <ele>36.2</ele>
        <time>2025-03-15T14:47:51Z</time>
      </trkpt>
      <trkpt lat="48.81609" lon="2.4438">
        <ele>36.6</ele>
        <time>2025-03-15T14:48:08Z</time>
      </trkpt>
      <trkpt lat="48.81585" lon="2.44382">
        <ele>34.4</ele>
        <time>2025-03-15T14:48:24Z</time>
      </trkpt>
      <trkpt lat="48.81585" lon="2.44384">
        <ele>33.8</ele>
        <time>2025-03-15T14:48:25Z</time>
      </trkpt>
      <trkpt lat="48.81584" lon="2.44386">
        <ele>33.8</ele>
        <time>2025-03-15T14:48:26Z</time>
      </trkpt>
      <trkpt lat="48.81584" lon="2.44389">
        <ele>33.6</ele>
        <time>2025-03-15T14:48:27Z</time>
      </trkpt>
      <trkpt lat="48.81584" lon="2.44392">
        <ele>33.6</ele>
        <time>2025-03-15T14:48:28Z</time>
      </trkpt>
      <trkpt lat="48.81584" lon="2.44395">
        <ele>33.4</ele>
        <time>2025-03-15T14:48:29Z</time>
      </trkpt>
      <trkpt lat="48.81585" lon="2.44435">
        <ele>32.2</ele>
        <time>2025-03-15T14:48:46Z</time>
      </trkpt>
      <trkpt lat="48.81584" lon="2.44447">
        <ele>30.8</ele>
        <time>2025-03-15T14:48:52Z</time>
      </trkpt>
      <trkpt lat="48.81585" lon="2.44449">
        <ele>30.8</ele>
        <time>2025-03-15T14:48:53Z</time>
      </trkpt>
      <trkpt lat="48.81585" lon="2.44452">
        <ele>30.8</ele>
        <time>2025-03-15T14:48:54Z</time>
      </trkpt>
      <trkpt lat="48.81583" lon="2.44489">
        <ele>28.2</ele>
        <time>2025-03-15T14:49:09Z</time>
      </trkpt>
      <trkpt lat="48.81583" lon="2.44497">
        <ele>28</ele>
        <time>2025-03-15T14:49:14Z</time>
      </trkpt>
      <trkpt lat="48.81585" lon="2.44542">
        <ele>29.6</ele>
        <time>2025-03-15T14:49:33Z</time>
      </trkpt>
      <trkpt lat="48.81587" lon="2.44584">
        <ele>30.4</ele>
        <time>2025-03-15T14:49:50Z</time>
      </trkpt>
      <trkpt lat="48.81586" lon="2.44631">
        <ele>30.6</ele>
        <time>2025-03-15T14:50:09Z</time>
      </trkpt>
      <trkpt lat="48.81582" lon="2.44676">
        <ele>28.8</ele>
        <time>2025-03-15T14:50:29Z</time>
      </trkpt>
      <trkpt lat="48.81584" lon="2.44712">
        <ele>29.6</ele>
        <time>2025-03-15T14:50:44Z</time>
      </trkpt>
      <trkpt lat="48.81582" lon="2.44744">
        <ele>29.2</ele>
        <time>2025-03-15T14:50:58Z</time>
      </trkpt>
      <trkpt lat="48.81581" lon="2.44782">
        <ele>29.2</ele>
        <time>2025-03-15T14:51:15Z</time>
      </trkpt>
      <trkpt lat="48.81576" lon="2.44814">
        <ele>29</ele>
        <time>2025-03-15T14:51:29Z</time>
      </trkpt>
      <trkpt lat="48.81578" lon="2.4485">
        <ele>29.4</ele>
        <time>2025-03-15T14:51:43Z</time>
      </trkpt>
      <trkpt lat="48.81577" lon="2.44901">
        <ele>29.6</ele>
        <time>2025-03-15T14:52:05Z</time>
      </trkpt>
      <trkpt lat="48.81573" lon="2.4494">
        <ele>29.6</ele>
        <time>2025-03-15T14:52:22Z</time>
      </trkpt>
      <trkpt lat="48.81574" lon="2.44964">
        <ele>29.6</ele>
        <time>2025-03-15T14:52:32Z</time>
      </trkpt>
      <trkpt lat="48.81573" lon="2.44966">
        <ele>29.6</ele>
        <time>2025-03-15T14:52:33Z</time>
      </trkpt>
      <trkpt lat="48.81575" lon="2.45004">
        <ele>29.4</ele>
        <time>2025-03-15T14:52:51Z</time>
      </trkpt>
      <trkpt lat="48.81574" lon="2.45006">
        <ele>29.4</ele>
        <time>2025-03-15T14:52:52Z</time>
      </trkpt>
      <trkpt lat="48.81567" lon="2.45049">
        <ele>29.2</ele>
        <time>2025-03-15T14:53:10Z</time>
      </trkpt>
      <trkpt lat="48.81567" lon="2.45061">
        <ele>29</ele>
        <time>2025-03-15T14:53:16Z</time>
      </trkpt>
      <trkpt lat="48.81566" lon="2.45063">
        <ele>29</ele>
        <time>2025-03-15T14:53:17Z</time>
      </trkpt>
      <trkpt lat="48.81566" lon="2.45064">
        <ele>29.2</ele>
        <time>2025-03-15T14:53:18Z</time>
      </trkpt>
      <trkpt lat="48.81561" lon="2.45076">
        <ele>29.4</ele>
        <time>2025-03-15T14:53:24Z</time>
      </trkpt>
      <trkpt lat="48.8156" lon="2.45078">
        <ele>29.4</ele>
        <time>2025-03-15T14:53:25Z</time>
      </trkpt>
      <trkpt lat="48.81552" lon="2.45113">
        <ele>29.8</ele>
        <time>2025-03-15T14:53:40Z</time>
      </trkpt>
      <trkpt lat="48.81532" lon="2.45144">
        <ele>30</ele>
        <time>2025-03-15T14:53:56Z</time>
      </trkpt>
      <trkpt lat="48.81512" lon="2.45178">
        <ele>29.4</ele>
        <time>2025-03-15T14:54:15Z</time>
      </trkpt>
      <trkpt lat="48.81495" lon="2.45205">
        <ele>28.6</ele>
        <time>2025-03-15T14:54:31Z</time>
      </trkpt>
      <trkpt lat="48.8147" lon="2.4524">
        <ele>28.2</ele>
        <time>2025-03-15T14:54:53Z</time>
      </trkpt>
      <trkpt lat="48.81451" lon="2.45264">
        <ele>29.4</ele>
        <time>2025-03-15T14:55:11Z</time>
      </trkpt>
      <trkpt lat="48.81432" lon="2.45282">
        <ele>29</ele>
        <time>2025-03-15T14:55:27Z</time>
      </trkpt>
      <trkpt lat="48.81424" lon="2.45293">
        <ele>29.2</ele>
        <time>2025-03-15T14:55:35Z</time>
      </trkpt>
      <trkpt lat="48.81423" lon="2.45295">
        <ele>29.2</ele>
        <time>2025-03-15T14:55:36Z</time>
      </trkpt>
      <trkpt lat="48.81421" lon="2.45296">
        <ele>29.2</ele>
        <time>2025-03-15T14:55:37Z</time>
      </trkpt>
      <trkpt lat="48.8142" lon="2.45298">
        <ele>29.2</ele>
        <time>2025-03-15T14:55:38Z</time>
      </trkpt>
      <trkpt lat="48.81419" lon="2.45301">
        <ele>29.4</ele>
        <time>2025-03-15T14:55:39Z</time>
      </trkpt>
      <trkpt lat="48.81418" lon="2.45303">
        <ele>29.4</ele>
        <time>2025-03-15T14:55:40Z</time>
      </trkpt>
      <trkpt lat="48.81398" lon="2.45326">
        <ele>29.2</ele>
        <time>2025-03-15T14:55:57Z</time>
      </trkpt>
      <trkpt lat="48.8137" lon="2.45358">
        <ele>29.2</ele>
        <time>2025-03-15T14:56:18Z</time>
      </trkpt>
      <trkpt lat="48.8135" lon="2.45382">
        <ele>29</ele>
        <time>2025-03-15T14:56:35Z</time>
      </trkpt>
      <trkpt lat="48.81331" lon="2.454">
        <ele>27.6</ele>
        <time>2025-03-15T14:56:50Z</time>
      </trkpt>
      <trkpt lat="48.81311" lon="2.45417">
        <ele>28.2</ele>
        <time>2025-03-15T14:57:06Z</time>
      </trkpt>
      <trkpt lat="48.81305" lon="2.45425">
        <ele>29.4</ele>
        <time>2025-03-15T14:57:12Z</time>
      </trkpt>
      <trkpt lat="48.81303" lon="2.45426">
        <ele>29.6</ele>
        <time>2025-03-15T14:57:13Z</time>
      </trkpt>
      <trkpt lat="48.81302" lon="2.45427">
        <ele>29.8</ele>
        <time>2025-03-15T14:57:14Z</time>
      </trkpt>
      <trkpt lat="48.813" lon="2.45427">
        <ele>30</ele>
        <time>2025-03-15T14:57:15Z</time>
      </trkpt>
      <trkpt lat="48.81299" lon="2.45429">
        <ele>30</ele>
        <time>2025-03-15T14:57:16Z</time>
      </trkpt>
      <trkpt lat="48.81281" lon="2.45444">
        <ele>31.6</ele>
        <time>2025-03-15T14:57:30Z</time>
      </trkpt>
      <trkpt lat="48.81257" lon="2.45472">
        <ele>32.8</ele>
        <time>2025-03-15T14:57:50Z</time>
      </trkpt>
      <trkpt lat="48.81241" lon="2.4549">
        <ele>32.8</ele>
        <time>2025-03-15T14:58:04Z</time>
      </trkpt>
      <trkpt lat="48.81216" lon="2.45511">
        <ele>32.4</ele>
        <time>2025-03-15T14:58:22Z</time>
      </trkpt>
      <trkpt lat="48.81197" lon="2.4553">
        <ele>33</ele>
        <time>2025-03-15T14:58:37Z</time>
      </trkpt>
      <trkpt lat="48.81175" lon="2.45556">
        <ele>33</ele>
        <time>2025-03-15T14:58:54Z</time>
      </trkpt>
      <trkpt lat="48.81149" lon="2.45584">
        <ele>32.2</ele>
        <time>2025-03-15T14:59:13Z</time>
      </trkpt>
      <trkpt lat="48.81129" lon="2.45605">
        <ele>31.8</ele>
        <time>2025-03-15T14:59:30Z</time>
      </trkpt>
      <trkpt lat="48.81111" lon="2.45629">
        <ele>31.4</ele>
        <time>2025-03-15T14:59:45Z</time>
      </trkpt>
      <trkpt lat="48.81092" lon="2.45654">
        <ele>30.4</ele>
        <time>2025-03-15T15:00:01Z</time>
      </trkpt>
      <trkpt lat="48.81082" lon="2.45664">
        <ele>29.8</ele>
        <time>2025-03-15T15:00:09Z</time>
      </trkpt>
      <trkpt lat="48.81077" lon="2.45668">
        <ele>29.4</ele>
        <time>2025-03-15T15:00:14Z</time>
      </trkpt>
      <trkpt lat="48.81076" lon="2.4567">
        <ele>29.2</ele>
        <time>2025-03-15T15:00:15Z</time>
      </trkpt>
      <trkpt lat="48.81075" lon="2.45671">
        <ele>29.2</ele>
        <time>2025-03-15T15:00:16Z</time>
      </trkpt>
      <trkpt lat="48.81065" lon="2.45688">
        <ele>30</ele>
        <time>2025-03-15T15:00:28Z</time>
      </trkpt>
      <trkpt lat="48.81064" lon="2.45692">
        <ele>30</ele>
        <time>2025-03-15T15:00:29Z</time>
      </trkpt>
      <trkpt lat="48.81063" lon="2.45695">
        <ele>30</ele>
        <time>2025-03-15T15:00:30Z</time>
      </trkpt>
      <trkpt lat="48.81062" lon="2.45698">
        <ele>30.2</ele>
        <time>2025-03-15T15:00:31Z</time>
      </trkpt>
      <trkpt lat="48.81061" lon="2.457">
        <ele>30.2</ele>
        <time>2025-03-15T15:00:32Z</time>
      </trkpt>
      <trkpt lat="48.81044" lon="2.45731">
        <ele>31</ele>
        <time>2025-03-15T15:00:47Z</time>
      </trkpt>
      <trkpt lat="48.81027" lon="2.45768">
        <ele>30.8</ele>
        <time>2025-03-15T15:01:06Z</time>
      </trkpt>
      <trkpt lat="48.81009" lon="2.45801">
        <ele>30.2</ele>
        <time>2025-03-15T15:01:24Z</time>
      </trkpt>
      <trkpt lat="48.80992" lon="2.45844">
        <ele>32.4</ele>
        <time>2025-03-15T15:01:45Z</time>
      </trkpt>
      <trkpt lat="48.80978" lon="2.45876">
        <ele>31.8</ele>
        <time>2025-03-15T15:02:01Z</time>
      </trkpt>
      <trkpt lat="48.80961" lon="2.45909">
        <ele>31</ele>
        <time>2025-03-15T15:02:20Z</time>
      </trkpt>
      <trkpt lat="48.80945" lon="2.4594">
        <ele>31.4</ele>
        <time>2025-03-15T15:02:37Z</time>
      </trkpt>
      <trkpt lat="48.80929" lon="2.45974">
        <ele>29.6</ele>
        <time>2025-03-15T15:02:55Z</time>
      </trkpt>
      <trkpt lat="48.80909" lon="2.46014">
        <ele>30.4</ele>
        <time>2025-03-15T15:03:16Z</time>
      </trkpt>
      <trkpt lat="48.80892" lon="2.46055">
        <ele>31.2</ele>
        <time>2025-03-15T15:03:36Z</time>
      </trkpt>
      <trkpt lat="48.80872" lon="2.46094">
        <ele>32</ele>
        <time>2025-03-15T15:03:57Z</time>
      </trkpt>
      <trkpt lat="48.80855" lon="2.46129">
        <ele>32.4</ele>
        <time>2025-03-15T15:04:15Z</time>
      </trkpt>
      <trkpt lat="48.80836" lon="2.46167">
        <ele>32.6</ele>
        <time>2025-03-15T15:04:35Z</time>
      </trkpt>
      <trkpt lat="48.80816" lon="2.46205">
        <ele>32.2</ele>
        <time>2025-03-15T15:04:56Z</time>
      </trkpt>
      <trkpt lat="48.80797" lon="2.46235">
        <ele>32.2</ele>
        <time>2025-03-15T15:05:13Z</time>
      </trkpt>
      <trkpt lat="48.80779" lon="2.46269">
        <ele>32.8</ele>
        <time>2025-03-15T15:05:32Z</time>
      </trkpt>
      <trkpt lat="48.80766" lon="2.46294">
        <ele>30.8</ele>
        <time>2025-03-15T15:05:45Z</time>
      </trkpt>
      <trkpt lat="48.80752" lon="2.46315">
        <ele>29.4</ele>
        <time>2025-03-15T15:05:58Z</time>
      </trkpt>
      <trkpt lat="48.80733" lon="2.4634">
        <ele>29.2</ele>
        <time>2025-03-15T15:06:14Z</time>
      </trkpt>
      <trkpt lat="48.8072" lon="2.46365">
        <ele>30.4</ele>
        <time>2025-03-15T15:06:28Z</time>
      </trkpt>
      <trkpt lat="48.80706" lon="2.46388">
        <ele>29.8</ele>
        <time>2025-03-15T15:06:42Z</time>
      </trkpt>
      <trkpt lat="48.80687" lon="2.46411">
        <ele>30</ele>
        <time>2025-03-15T15:06:57Z</time>
      </trkpt>
      <trkpt lat="48.8067" lon="2.46443">
        <ele>29.6</ele>
        <time>2025-03-15T15:07:13Z</time>
      </trkpt>
      <trkpt lat="48.80654" lon="2.46458">
        <ele>30.2</ele>
        <time>2025-03-15T15:07:26Z</time>
      </trkpt>
      <trkpt lat="48.80651" lon="2.46461">
        <ele>30.2</ele>
        <time>2025-03-15T15:07:29Z</time>
      </trkpt>
      <trkpt lat="48.80635" lon="2.4648">
        <ele>30.4</ele>
        <time>2025-03-15T15:07:42Z</time>
      </trkpt>
      <trkpt lat="48.80634" lon="2.46482">
        <ele>30.6</ele>
        <time>2025-03-15T15:07:43Z</time>
      </trkpt>
      <trkpt lat="48.80631" lon="2.46487">
        <ele>30.6</ele>
        <time>2025-03-15T15:07:46Z</time>
      </trkpt>
      <trkpt lat="48.80611" lon="2.46511">
        <ele>30.6</ele>
        <time>2025-03-15T15:08:01Z</time>
      </trkpt>
      <trkpt lat="48.80588" lon="2.46541">
        <ele>32.2</ele>
        <time>2025-03-15T15:08:21Z</time>
      </trkpt>
      <trkpt lat="48.80568" lon="2.46569">
        <ele>32.2</ele>
        <time>2025-03-15T15:08:39Z</time>
      </trkpt>
      <trkpt lat="48.80547" lon="2.466">
        <ele>32</ele>
        <time>2025-03-15T15:08:58Z</time>
      </trkpt>
      <trkpt lat="48.80531" lon="2.46624">
        <ele>32</ele>
        <time>2025-03-15T15:09:12Z</time>
      </trkpt>
      <trkpt lat="48.80507" lon="2.46662">
        <ele>31.6</ele>
        <time>2025-03-15T15:09:33Z</time>
      </trkpt>
      <trkpt lat="48.80483" lon="2.46694">
        <ele>32.2</ele>
        <time>2025-03-15T15:09:53Z</time>
      </trkpt>
      <trkpt lat="48.80462" lon="2.46721">
        <ele>32.4</ele>
        <time>2025-03-15T15:10:11Z</time>
      </trkpt>
      <trkpt lat="48.8044" lon="2.46748">
        <ele>32.2</ele>
        <time>2025-03-15T15:10:29Z</time>
      </trkpt>
      <trkpt lat="48.80415" lon="2.4677">
        <ele>32.6</ele>
        <time>2025-03-15T15:10:46Z</time>
      </trkpt>
      <trkpt lat="48.80385" lon="2.46789">
        <ele>32.2</ele>
        <time>2025-03-15T15:11:07Z</time>
      </trkpt>
      <trkpt lat="48.80372" lon="2.46798">
        <ele>33.4</ele>
        <time>2025-03-15T15:11:16Z</time>
      </trkpt>
      <trkpt lat="48.8037" lon="2.46799">
        <ele>33.4</ele>
        <time>2025-03-15T15:11:17Z</time>
      </trkpt>
      <trkpt lat="48.80348" lon="2.46809">
        <ele>32</ele>
        <time>2025-03-15T15:11:31Z</time>
      </trkpt>
      <trkpt lat="48.80326" lon="2.4681">
        <ele>31.4</ele>
        <time>2025-03-15T15:11:45Z</time>
      </trkpt>
      <trkpt lat="48.80325" lon="2.4681">
        <ele>31.2</ele>
        <time>2025-03-15T15:11:46Z</time>
      </trkpt>
      <trkpt lat="48.80323" lon="2.46811">
        <ele>31.2</ele>
        <time>2025-03-15T15:11:47Z</time>
      </trkpt>
      <trkpt lat="48.803" lon="2.4681">
        <ele>31</ele>
        <time>2025-03-15T15:12:03Z</time>
      </trkpt>
      <trkpt lat="48.80298" lon="2.46809">
        <ele>30.8</ele>
        <time>2025-03-15T15:12:04Z</time>
      </trkpt>
      <trkpt lat="48.80296" lon="2.46808">
        <ele>30.8</ele>
        <time>2025-03-15T15:12:05Z</time>
      </trkpt>
      <trkpt lat="48.80294" lon="2.46806">
        <ele>30.8</ele>
        <time>2025-03-15T15:12:06Z</time>
      </trkpt>
      <trkpt lat="48.80292" lon="2.46806">
        <ele>30.8</ele>
        <time>2025-03-15T15:12:07Z</time>
      </trkpt>
      <trkpt lat="48.8027" lon="2.46798">
        <ele>31</ele>
        <time>2025-03-15T15:12:20Z</time>
      </trkpt>
      <trkpt lat="48.80258" lon="2.46795">
        <ele>31.2</ele>
        <time>2025-03-15T15:12:28Z</time>
      </trkpt>
      <trkpt lat="48.80256" lon="2.46794">
        <ele>31.2</ele>
        <time>2025-03-15T15:12:29Z</time>
      </trkpt>
      <trkpt lat="48.80255" lon="2.46793">
        <ele>31.2</ele>
        <time>2025-03-15T15:12:30Z</time>
      </trkpt>
      <trkpt lat="48.80235" lon="2.46782">
        <ele>30.8</ele>
        <time>2025-03-15T15:12:43Z</time>
      </trkpt>
      <trkpt lat="48.80232" lon="2.46781">
        <ele>30.8</ele>
        <time>2025-03-15T15:12:45Z</time>
      </trkpt>
      <trkpt lat="48.80231" lon="2.46781">
        <ele>31</ele>
        <time>2025-03-15T15:12:46Z</time>
      </trkpt>
      <trkpt lat="48.80212" lon="2.46776">
        <ele>31.2</ele>
        <time>2025-03-15T15:13:01Z</time>
      </trkpt>
      <trkpt lat="48.8019" lon="2.46769">
        <ele>31.4</ele>
        <time>2025-03-15T15:13:19Z</time>
      </trkpt>
      <trkpt lat="48.8016" lon="2.46761">
        <ele>31.8</ele>
        <time>2025-03-15T15:13:42Z</time>
      </trkpt>
      <trkpt lat="48.80127" lon="2.46747">
        <ele>32</ele>
        <time>2025-03-15T15:14:05Z</time>
      </trkpt>
      <trkpt lat="48.80114" lon="2.46752">
        <ele>31.4</ele>
        <time>2025-03-15T15:14:19Z</time>
      </trkpt>
      <trkpt lat="48.80108" lon="2.46768">
        <ele>31.4</ele>
        <time>2025-03-15T15:14:28Z</time>
      </trkpt>
      <trkpt lat="48.80108" lon="2.46769">
        <ele>31.2</ele>
        <time>2025-03-15T15:14:29Z</time>
      </trkpt>
      <trkpt lat="48.80111" lon="2.46793">
        <ele>31</ele>
        <time>2025-03-15T15:14:41Z</time>
      </trkpt>
      <trkpt lat="48.80107" lon="2.46801">
        <ele>30.6</ele>
        <time>2025-03-15T15:14:47Z</time>
      </trkpt>
      <trkpt lat="48.80093" lon="2.46812">
        <ele>30.4</ele>
        <time>2025-03-15T15:15:01Z</time>
      </trkpt>
      <trkpt lat="48.80088" lon="2.46816">
        <ele>30.6</ele>
        <time>2025-03-15T15:15:05Z</time>
      </trkpt>
      <trkpt lat="48.80086" lon="2.46823">
        <ele>30.6</ele>
        <time>2025-03-15T15:15:08Z</time>
      </trkpt>
      <trkpt lat="48.80085" lon="2.46824">
        <ele>30.6</ele>
        <time>2025-03-15T15:15:09Z</time>
      </trkpt>
      <trkpt lat="48.80085" lon="2.46826">
        <ele>30.6</ele>
        <time>2025-03-15T15:15:10Z</time>
      </trkpt>
      <trkpt lat="48.80085" lon="2.46828">
        <ele>30.6</ele>
        <time>2025-03-15T15:15:11Z</time>
      </trkpt>
      <trkpt lat="48.80086" lon="2.4683">
        <ele>30.6</ele>
        <time>2025-03-15T15:15:12Z</time>
      </trkpt>
      <trkpt lat="48.80085" lon="2.46832">
        <ele>30.6</ele>
        <time>2025-03-15T15:15:13Z</time>
      </trkpt>
      <trkpt lat="48.80086" lon="2.46852">
        <ele>30.8</ele>
        <time>2025-03-15T15:15:22Z</time>
      </trkpt>
      <trkpt lat="48.80082" lon="2.46857">
        <ele>30.8</ele>
        <time>2025-03-15T15:15:26Z</time>
      </trkpt>
      <trkpt lat="48.80059" lon="2.46873">
        <ele>31.6</ele>
        <time>2025-03-15T15:15:41Z</time>
      </trkpt>
      <trkpt lat="48.80034" lon="2.4688">
        <ele>32</ele>
        <time>2025-03-15T15:15:56Z</time>
      </trkpt>
      <trkpt lat="48.8003" lon="2.46884">
        <ele>33</ele>
        <time>2025-03-15T15:15:59Z</time>
      </trkpt>
      <trkpt lat="48.80029" lon="2.46885">
        <ele>33.2</ele>
        <time>2025-03-15T15:16:00Z</time>
      </trkpt>
      <trkpt lat="48.80028" lon="2.46886">
        <ele>33.2</ele>
        <time>2025-03-15T15:16:01Z</time>
      </trkpt>
      <trkpt lat="48.80026" lon="2.46887">
        <ele>33.2</ele>
        <time>2025-03-15T15:16:02Z</time>
      </trkpt>
      <trkpt lat="48.80024" lon="2.46888">
        <ele>33</ele>
        <time>2025-03-15T15:16:03Z</time>
      </trkpt>
      <trkpt lat="48.80011" lon="2.46895">
        <ele>32.2</ele>
        <time>2025-03-15T15:16:12Z</time>
      </trkpt>
      <trkpt lat="48.8001" lon="2.46897">
        <ele>32.2</ele>
        <time>2025-03-15T15:16:13Z</time>
      </trkpt>
      <trkpt lat="48.80009" lon="2.46898">
        <ele>32.2</ele>
        <time>2025-03-15T15:16:14Z</time>
      </trkpt>
      <trkpt lat="48.80009" lon="2.46923">
        <ele>32</ele>
        <time>2025-03-15T15:16:27Z</time>
      </trkpt>
      <trkpt lat="48.80007" lon="2.46926">
        <ele>32</ele>
        <time>2025-03-15T15:16:29Z</time>
      </trkpt>
      <trkpt lat="48.80006" lon="2.46927">
        <ele>31.8</ele>
        <time>2025-03-15T15:16:30Z</time>
      </trkpt>
      <trkpt lat="48.80003" lon="2.46929">
        <ele>31.8</ele>
        <time>2025-03-15T15:16:31Z</time>
      </trkpt>
      <trkpt lat="48.80002" lon="2.4693">
        <ele>31.6</ele>
        <time>2025-03-15T15:16:32Z</time>
      </trkpt>
      <trkpt lat="48.8" lon="2.46932">
        <ele>31.6</ele>
        <time>2025-03-15T15:16:33Z</time>
      </trkpt>
      <trkpt lat="48.79999" lon="2.46934">
        <ele>31.4</ele>
        <time>2025-03-15T15:16:35Z</time>
      </trkpt>
      <trkpt lat="48.79998" lon="2.46936">
        <ele>31.4</ele>
        <time>2025-03-15T15:16:36Z</time>
      </trkpt>
      <trkpt lat="48.79998" lon="2.46938">
        <ele>31.4</ele>
        <time>2025-03-15T15:16:37Z</time>
      </trkpt>
      <trkpt lat="48.79998" lon="2.4694">
        <ele>31.4</ele>
        <time>2025-03-15T15:16:38Z</time>
      </trkpt>
      <trkpt lat="48.79998" lon="2.46943">
        <ele>31.4</ele>
        <time>2025-03-15T15:16:39Z</time>
      </trkpt>
      <trkpt lat="48.79997" lon="2.46945">
        <ele>31.4</ele>
        <time>2025-03-15T15:16:40Z</time>
      </trkpt>
      <trkpt lat="48.79996" lon="2.46947">
        <ele>31.4</ele>
        <time>2025-03-15T15:16:41Z</time>
      </trkpt>
      <trkpt lat="48.79996" lon="2.46949">
        <ele>31.2</ele>
        <time>2025-03-15T15:16:42Z</time>
      </trkpt>
      <trkpt lat="48.79993" lon="2.4695">
        <ele>31.2</ele>
        <time>2025-03-15T15:16:43Z</time>
      </trkpt>
      <trkpt lat="48.79992" lon="2.46951">
        <ele>31.2</ele>
        <time>2025-03-15T15:16:44Z</time>
      </trkpt>
      <trkpt lat="48.79977" lon="2.46965">
        <ele>29.6</ele>
        <time>2025-03-15T15:16:59Z</time>
      </trkpt>
      <trkpt lat="48.79967" lon="2.46952">
        <ele>29.6</ele>
        <time>2025-03-15T15:17:03Z</time>
      </trkpt>
      <trkpt lat="48.79932" lon="2.46961">
        <ele>30.2</ele>
        <time>2025-03-15T15:17:21Z</time>
      </trkpt>
      <trkpt lat="48.79924" lon="2.46932">
        <ele>31.6</ele>
        <time>2025-03-15T15:17:36Z</time>
      </trkpt>
      <trkpt lat="48.79921" lon="2.46897">
        <ele>31.6</ele>
        <time>2025-03-15T15:17:50Z</time>
      </trkpt>
      <trkpt lat="48.79916" lon="2.46861">
        <ele>31.6</ele>
        <time>2025-03-15T15:18:06Z</time>
      </trkpt>
      <trkpt lat="48.79915" lon="2.46857">
        <ele>31.6</ele>
        <time>2025-03-15T15:18:08Z</time>
      </trkpt>
      <trkpt lat="48.79915" lon="2.46855">
        <ele>31.6</ele>
        <time>2025-03-15T15:18:09Z</time>
      </trkpt>
      <trkpt lat="48.79914" lon="2.46853">
        <ele>31.6</ele>
        <time>2025-03-15T15:18:10Z</time>
      </trkpt>
      <trkpt lat="48.79912" lon="2.46852">
        <ele>31.8</ele>
        <time>2025-03-15T15:18:11Z</time>
      </trkpt>
      <trkpt lat="48.79911" lon="2.46851">
        <ele>31.8</ele>
        <time>2025-03-15T15:18:12Z</time>
      </trkpt>
      <trkpt lat="48.79909" lon="2.46851">
        <ele>31.8</ele>
        <time>2025-03-15T15:18:13Z</time>
      </trkpt>
      <trkpt lat="48.79908" lon="2.46852">
        <ele>31.8</ele>
        <time>2025-03-15T15:18:14Z</time>
      </trkpt>
      <trkpt lat="48.79907" lon="2.46852">
        <ele>31.8</ele>
        <time>2025-03-15T15:18:15Z</time>
      </trkpt>
      <trkpt lat="48.79905" lon="2.46852">
        <ele>32</ele>
        <time>2025-03-15T15:18:16Z</time>
      </trkpt>
      <trkpt lat="48.79877" lon="2.46856">
        <ele>32</ele>
        <time>2025-03-15T15:18:34Z</time>
      </trkpt>
      <trkpt lat="48.79873" lon="2.46857">
        <ele>32.2</ele>
        <time>2025-03-15T15:18:37Z</time>
      </trkpt>
      <trkpt lat="48.79872" lon="2.46858">
        <ele>32.2</ele>
        <time>2025-03-15T15:18:38Z</time>
      </trkpt>
      <trkpt lat="48.7985" lon="2.46872">
        <ele>31.8</ele>
        <time>2025-03-15T15:18:55Z</time>
      </trkpt>
      <trkpt lat="48.79825" lon="2.4689">
        <ele>31.8</ele>
        <time>2025-03-15T15:19:12Z</time>
      </trkpt>
      <trkpt lat="48.798" lon="2.46912">
        <ele>31.6</ele>
        <time>2025-03-15T15:19:29Z</time>
      </trkpt>
      <trkpt lat="48.79775" lon="2.46927">
        <ele>31.2</ele>
        <time>2025-03-15T15:19:46Z</time>
      </trkpt>
      <trkpt lat="48.79761" lon="2.46932">
        <ele>31.6</ele>
        <time>2025-03-15T15:19:56Z</time>
      </trkpt>
      <trkpt lat="48.79759" lon="2.46932">
        <ele>31.6</ele>
        <time>2025-03-15T15:19:57Z</time>
      </trkpt>
      <trkpt lat="48.79758" lon="2.46932">
        <ele>31.6</ele>
        <time>2025-03-15T15:19:58Z</time>
      </trkpt>
      <trkpt lat="48.79757" lon="2.46932">
        <ele>31.6</ele>
        <time>2025-03-15T15:19:59Z</time>
      </trkpt>
      <trkpt lat="48.79756" lon="2.46931">
        <ele>31.8</ele>
        <time>2025-03-15T15:20:00Z</time>
      </trkpt>
      <trkpt lat="48.79733" lon="2.46941">
        <ele>31.8</ele>
        <time>2025-03-15T15:20:15Z</time>
      </trkpt>
      <trkpt lat="48.79704" lon="2.46956">
        <ele>31.6</ele>
        <time>2025-03-15T15:20:34Z</time>
      </trkpt>
      <trkpt lat="48.79688" lon="2.46959">
        <ele>31.6</ele>
        <time>2025-03-15T15:20:44Z</time>
      </trkpt>
      <trkpt lat="48.79663" lon="2.4697">
        <ele>31.6</ele>
        <time>2025-03-15T15:21:01Z</time>
      </trkpt>
      <trkpt lat="48.79638" lon="2.4698">
        <ele>31.8</ele>
        <time>2025-03-15T15:21:17Z</time>
      </trkpt>
      <trkpt lat="48.79612" lon="2.46988">
        <ele>31.8</ele>
        <time>2025-03-15T15:21:35Z</time>
      </trkpt>
      <trkpt lat="48.79605" lon="2.46991">
        <ele>31</ele>
        <time>2025-03-15T15:21:40Z</time>
      </trkpt>
      <trkpt lat="48.79604" lon="2.46991">
        <ele>31</ele>
        <time>2025-03-15T15:21:41Z</time>
      </trkpt>
      <trkpt lat="48.79602" lon="2.46993">
        <ele>31</ele>
        <time>2025-03-15T15:21:42Z</time>
      </trkpt>
      <trkpt lat="48.796" lon="2.46993">
        <ele>31</ele>
        <time>2025-03-15T15:21:43Z</time>
      </trkpt>
      <trkpt lat="48.79598" lon="2.46994">
        <ele>31</ele>
        <time>2025-03-15T15:21:44Z</time>
      </trkpt>
      <trkpt lat="48.79597" lon="2.46995">
        <ele>31</ele>
        <time>2025-03-15T15:21:45Z</time>
      </trkpt>
      <trkpt lat="48.79595" lon="2.46996">
        <ele>31</ele>
        <time>2025-03-15T15:21:46Z</time>
      </trkpt>
      <trkpt lat="48.79594" lon="2.46997">
        <ele>30.8</ele>
        <time>2025-03-15T15:21:47Z</time>
      </trkpt>
      <trkpt lat="48.79592" lon="2.46997">
        <ele>30.8</ele>
        <time>2025-03-15T15:21:48Z</time>
      </trkpt>
      <trkpt lat="48.79591" lon="2.46998">
        <ele>30.6</ele>
        <time>2025-03-15T15:21:49Z</time>
      </trkpt>
      <trkpt lat="48.79582" lon="2.47001">
        <ele>29.6</ele>
        <time>2025-03-15T15:21:56Z</time>
      </trkpt>
      <trkpt lat="48.7958" lon="2.47">
        <ele>29.8</ele>
        <time>2025-03-15T15:21:57Z</time>
      </trkpt>
      <trkpt lat="48.79576" lon="2.46979">
        <ele>30.4</ele>
        <time>2025-03-15T15:22:08Z</time>
      </trkpt>
      <trkpt lat="48.79568" lon="2.46943">
        <ele>31</ele>
        <time>2025-03-15T15:22:25Z</time>
      </trkpt>
      <trkpt lat="48.79568" lon="2.46941">
        <ele>31.2</ele>
        <time>2025-03-15T15:22:26Z</time>
      </trkpt>
      <trkpt lat="48.79567" lon="2.46925">
        <ele>31.4</ele>
        <time>2025-03-15T15:22:36Z</time>
      </trkpt>
      <trkpt lat="48.79565" lon="2.46907">
        <ele>31.2</ele>
        <time>2025-03-15T15:22:44Z</time>
      </trkpt>
      <trkpt lat="48.79569" lon="2.469">
        <ele>31.2</ele>
        <time>2025-03-15T15:22:48Z</time>
      </trkpt>
      <trkpt lat="48.79573" lon="2.46895">
        <ele>31.4</ele>
        <time>2025-03-15T15:22:51Z</time>
      </trkpt>
      <trkpt lat="48.79574" lon="2.46891">
        <ele>31.6</ele>
        <time>2025-03-15T15:22:53Z</time>
      </trkpt>
      <trkpt lat="48.79572" lon="2.46872">
        <ele>32.2</ele>
        <time>2025-03-15T15:23:00Z</time>
      </trkpt>
      <trkpt lat="48.79568" lon="2.46864">
        <ele>32.2</ele>
        <time>2025-03-15T15:23:04Z</time>
      </trkpt>
      <trkpt lat="48.79566" lon="2.46863">
        <ele>32</ele>
        <time>2025-03-15T15:23:05Z</time>
      </trkpt>
      <trkpt lat="48.79565" lon="2.46863">
        <ele>32</ele>
        <time>2025-03-15T15:23:06Z</time>
      </trkpt>
      <trkpt lat="48.79563" lon="2.46862">
        <ele>32</ele>
        <time>2025-03-15T15:23:07Z</time>
      </trkpt>
      <trkpt lat="48.79543" lon="2.4687">
        <ele>31.2</ele>
        <time>2025-03-15T15:23:24Z</time>
      </trkpt>
      <trkpt lat="48.79535" lon="2.46876">
        <ele>31.2</ele>
        <time>2025-03-15T15:23:30Z</time>
      </trkpt>
      <trkpt lat="48.79516" lon="2.46886">
        <ele>31.2</ele>
        <time>2025-03-15T15:23:44Z</time>
      </trkpt>
      <trkpt lat="48.79495" lon="2.46902">
        <ele>30.8</ele>
        <time>2025-03-15T15:23:59Z</time>
      </trkpt>
      <trkpt lat="48.79476" lon="2.4691">
        <ele>30.8</ele>
        <time>2025-03-15T15:24:13Z</time>
      </trkpt>
      <trkpt lat="48.79463" lon="2.46915">
        <ele>31</ele>
        <time>2025-03-15T15:24:22Z</time>
      </trkpt>
      <trkpt lat="48.79458" lon="2.46915">
        <ele>30.8</ele>
        <time>2025-03-15T15:24:25Z</time>
      </trkpt>
      <trkpt lat="48.79456" lon="2.46916">
        <ele>30.8</ele>
        <time>2025-03-15T15:24:26Z</time>
      </trkpt>
      <trkpt lat="48.79454" lon="2.46917">
        <ele>31</ele>
        <time>2025-03-15T15:24:27Z</time>
      </trkpt>
      <trkpt lat="48.79453" lon="2.46917">
        <ele>31</ele>
        <time>2025-03-15T15:24:28Z</time>
      </trkpt>
      <trkpt lat="48.79451" lon="2.46917">
        <ele>31</ele>
        <time>2025-03-15T15:24:29Z</time>
      </trkpt>
      <trkpt lat="48.79423" lon="2.46934">
        <ele>30.8</ele>
        <time>2025-03-15T15:24:47Z</time>
      </trkpt>
      <trkpt lat="48.79397" lon="2.46939">
        <ele>30.2</ele>
        <time>2025-03-15T15:25:03Z</time>
      </trkpt>
      <trkpt lat="48.79382" lon="2.46939">
        <ele>30.6</ele>
        <time>2025-03-15T15:25:13Z</time>
      </trkpt>
      <trkpt lat="48.7938" lon="2.4694">
        <ele>30.6</ele>
        <time>2025-03-15T15:25:14Z</time>
      </trkpt>
      <trkpt lat="48.79378" lon="2.46939">
        <ele>30.6</ele>
        <time>2025-03-15T15:25:15Z</time>
      </trkpt>
      <trkpt lat="48.79354" lon="2.46935">
        <ele>31.4</ele>
        <time>2025-03-15T15:25:31Z</time>
      </trkpt>
      <trkpt lat="48.7933" lon="2.46938">
        <ele>31.2</ele>
        <time>2025-03-15T15:25:48Z</time>
      </trkpt>
      <trkpt lat="48.79309" lon="2.46939">
        <ele>30.8</ele>
        <time>2025-03-15T15:26:03Z</time>
      </trkpt>
      <trkpt lat="48.79285" lon="2.46935">
        <ele>30.8</ele>
        <time>2025-03-15T15:26:18Z</time>
      </trkpt>
      <trkpt lat="48.79261" lon="2.46934">
        <ele>30.8</ele>
        <time>2025-03-15T15:26:34Z</time>
      </trkpt>
      <trkpt lat="48.79237" lon="2.46938">
        <ele>31</ele>
        <time>2025-03-15T15:26:50Z</time>
      </trkpt>
      <trkpt lat="48.79212" lon="2.46943">
        <ele>31.2</ele>
        <time>2025-03-15T15:27:04Z</time>
      </trkpt>
      <trkpt lat="48.79193" lon="2.46949">
        <ele>31</ele>
        <time>2025-03-15T15:27:17Z</time>
      </trkpt>
      <trkpt lat="48.7919" lon="2.46949">
        <ele>31</ele>
        <time>2025-03-15T15:27:20Z</time>
      </trkpt>
      <trkpt lat="48.79184" lon="2.4695">
        <ele>31.2</ele>
        <time>2025-03-15T15:27:24Z</time>
      </trkpt>
      <trkpt lat="48.79165" lon="2.46947">
        <ele>31.6</ele>
        <time>2025-03-15T15:27:38Z</time>
      </trkpt>
      <trkpt lat="48.79138" lon="2.46949">
        <ele>31.2</ele>
        <time>2025-03-15T15:27:55Z</time>
      </trkpt>
      <trkpt lat="48.79114" lon="2.46954">
        <ele>31.6</ele>
        <time>2025-03-15T15:28:10Z</time>
      </trkpt>
      <trkpt lat="48.79087" lon="2.46965">
        <ele>31.4</ele>
        <time>2025-03-15T15:28:28Z</time>
      </trkpt>
      <trkpt lat="48.79065" lon="2.46972">
        <ele>31.4</ele>
        <time>2025-03-15T15:28:43Z</time>
      </trkpt>
      <trkpt lat="48.79043" lon="2.46984">
        <ele>31.4</ele>
        <time>2025-03-15T15:28:59Z</time>
      </trkpt>
      <trkpt lat="48.79016" lon="2.47">
        <ele>31.2</ele>
        <time>2025-03-15T15:29:17Z</time>
      </trkpt>
      <trkpt lat="48.79001" lon="2.47008">
        <ele>31.2</ele>
        <time>2025-03-15T15:29:27Z</time>
      </trkpt>
      <trkpt lat="48.79" lon="2.47008">
        <ele>31.2</ele>
        <time>2025-03-15T15:29:28Z</time>
      </trkpt>
      <trkpt lat="48.78998" lon="2.47009">
        <ele>31.2</ele>
        <time>2025-03-15T15:29:29Z</time>
      </trkpt>
      <trkpt lat="48.78997" lon="2.4701">
        <ele>31.2</ele>
        <time>2025-03-15T15:29:30Z</time>
      </trkpt>
      <trkpt lat="48.78996" lon="2.47011">
        <ele>31</ele>
        <time>2025-03-15T15:29:31Z</time>
      </trkpt>
      <trkpt lat="48.78973" lon="2.47018">
        <ele>31.2</ele>
        <time>2025-03-15T15:29:47Z</time>
      </trkpt>
      <trkpt lat="48.78946" lon="2.4703">
        <ele>31.6</ele>
        <time>2025-03-15T15:30:04Z</time>
      </trkpt>
      <trkpt lat="48.78923" lon="2.4704">
        <ele>31.6</ele>
        <time>2025-03-15T15:30:19Z</time>
      </trkpt>
      <trkpt lat="48.78918" lon="2.47042">
        <ele>31.6</ele>
        <time>2025-03-15T15:30:22Z</time>
      </trkpt>
      <trkpt lat="48.78916" lon="2.47042">
        <ele>31.6</ele>
        <time>2025-03-15T15:30:23Z</time>
      </trkpt>
      <trkpt lat="48.78914" lon="2.47042">
        <ele>31.6</ele>
        <time>2025-03-15T15:30:24Z</time>
      </trkpt>
      <trkpt lat="48.78913" lon="2.47041">
        <ele>31.6</ele>
        <time>2025-03-15T15:30:25Z</time>
      </trkpt>
      <trkpt lat="48.78912" lon="2.47041">
        <ele>31.8</ele>
        <time>2025-03-15T15:30:26Z</time>
      </trkpt>
      <trkpt lat="48.7891" lon="2.47041">
        <ele>31.8</ele>
        <time>2025-03-15T15:30:27Z</time>
      </trkpt>
      <trkpt lat="48.78909" lon="2.47041">
        <ele>32</ele>
        <time>2025-03-15T15:30:28Z</time>
      </trkpt>
      <trkpt lat="48.78907" lon="2.47041">
        <ele>32</ele>
        <time>2025-03-15T15:30:29Z</time>
      </trkpt>
      <trkpt lat="48.78906" lon="2.47042">
        <ele>32</ele>
        <time>2025-03-15T15:30:30Z</time>
      </trkpt>
      <trkpt lat="48.78874" lon="2.4705">
        <ele>32.2</ele>
        <time>2025-03-15T15:30:49Z</time>
      </trkpt>
      <trkpt lat="48.78849" lon="2.47056">
        <ele>32.4</ele>
        <time>2025-03-15T15:31:07Z</time>
      </trkpt>
      <trkpt lat="48.78833" lon="2.47071">
        <ele>32</ele>
        <time>2025-03-15T15:31:24Z</time>
      </trkpt>
      <trkpt lat="48.78819" lon="2.47075">
        <ele>31.4</ele>
        <time>2025-03-15T15:31:34Z</time>
      </trkpt>
      <trkpt lat="48.78817" lon="2.47077">
        <ele>31.4</ele>
        <time>2025-03-15T15:31:35Z</time>
      </trkpt>
      <trkpt lat="48.78806" lon="2.47086">
        <ele>31.8</ele>
        <time>2025-03-15T15:31:42Z</time>
      </trkpt>
      <trkpt lat="48.78784" lon="2.47114">
        <ele>29</ele>
        <time>2025-03-15T15:31:57Z</time>
      </trkpt>
      <trkpt lat="48.78765" lon="2.47133">
        <ele>29.4</ele>
        <time>2025-03-15T15:32:11Z</time>
      </trkpt>
      <trkpt lat="48.78744" lon="2.47164">
        <ele>30.4</ele>
        <time>2025-03-15T15:32:31Z</time>
      </trkpt>
      <trkpt lat="48.78728" lon="2.47196">
        <ele>31.2</ele>
        <time>2025-03-15T15:32:48Z</time>
      </trkpt>
      <trkpt lat="48.78714" lon="2.4724">
        <ele>31.4</ele>
        <time>2025-03-15T15:33:08Z</time>
      </trkpt>
      <trkpt lat="48.78706" lon="2.4727">
        <ele>31.4</ele>
        <time>2025-03-15T15:33:22Z</time>
      </trkpt>
      <trkpt lat="48.78704" lon="2.473">
        <ele>30.8</ele>
        <time>2025-03-15T15:33:36Z</time>
      </trkpt>
      <trkpt lat="48.78704" lon="2.47302">
        <ele>30.4</ele>
        <time>2025-03-15T15:33:37Z</time>
      </trkpt>
      <trkpt lat="48.78705" lon="2.47305">
        <ele>30.2</ele>
        <time>2025-03-15T15:33:38Z</time>
      </trkpt>
      <trkpt lat="48.78713" lon="2.47341">
        <ele>29.8</ele>
        <time>2025-03-15T15:33:55Z</time>
      </trkpt>
      <trkpt lat="48.78716" lon="2.47369">
        <ele>29.4</ele>
        <time>2025-03-15T15:34:08Z</time>
      </trkpt>
      <trkpt lat="48.78716" lon="2.47371">
        <ele>29.6</ele>
        <time>2025-03-15T15:34:09Z</time>
      </trkpt>
      <trkpt lat="48.78717" lon="2.47373">
        <ele>29.6</ele>
        <time>2025-03-15T15:34:10Z</time>
      </trkpt>
      <trkpt lat="48.78717" lon="2.47375">
        <ele>29.6</ele>
        <time>2025-03-15T15:34:11Z</time>
      </trkpt>
      <trkpt lat="48.78717" lon="2.47377">
        <ele>29.8</ele>
        <time>2025-03-15T15:34:12Z</time>
      </trkpt>
      <trkpt lat="48.78717" lon="2.47415">
        <ele>30</ele>
        <time>2025-03-15T15:34:29Z</time>
      </trkpt>
      <trkpt lat="48.78709" lon="2.4746">
        <ele>30</ele>
        <time>2025-03-15T15:34:48Z</time>
      </trkpt>
      <trkpt lat="48.787" lon="2.47495">
        <ele>30.2</ele>
        <time>2025-03-15T15:35:04Z</time>
      </trkpt>
      <trkpt lat="48.78686" lon="2.47532">
        <ele>30.6</ele>
        <time>2025-03-15T15:35:22Z</time>
      </trkpt>
      <trkpt lat="48.78666" lon="2.47548">
        <ele>31</ele>
        <time>2025-03-15T15:35:37Z</time>
      </trkpt>
      <trkpt lat="48.78638" lon="2.47561">
        <ele>32.8</ele>
        <time>2025-03-15T15:35:57Z</time>
      </trkpt>
      <trkpt lat="48.78608" lon="2.47579">
        <ele>33</ele>
        <time>2025-03-15T15:36:18Z</time>
      </trkpt>
      <trkpt lat="48.78581" lon="2.47595">
        <ele>33</ele>
        <time>2025-03-15T15:36:37Z</time>
      </trkpt>
      <trkpt lat="48.78554" lon="2.47622">
        <ele>33</ele>
        <time>2025-03-15T15:36:57Z</time>
      </trkpt>
      <trkpt lat="48.78535" lon="2.47647">
        <ele>33</ele>
        <time>2025-03-15T15:37:14Z</time>
      </trkpt>
      <trkpt lat="48.78513" lon="2.47669">
        <ele>33.2</ele>
        <time>2025-03-15T15:37:31Z</time>
      </trkpt>
      <trkpt lat="48.78484" lon="2.47695">
        <ele>32.6</ele>
        <time>2025-03-15T15:37:53Z</time>
      </trkpt>
      <trkpt lat="48.78457" lon="2.47724">
        <ele>33</ele>
        <time>2025-03-15T15:38:14Z</time>
      </trkpt>
      <trkpt lat="48.7843" lon="2.4775">
        <ele>33</ele>
        <time>2025-03-15T15:38:35Z</time>
      </trkpt>
      <trkpt lat="48.78398" lon="2.47777">
        <ele>32.4</ele>
        <time>2025-03-15T15:39:00Z</time>
      </trkpt>
      <trkpt lat="48.78371" lon="2.478">
        <ele>31.6</ele>
        <time>2025-03-15T15:39:20Z</time>
      </trkpt>
      <trkpt lat="48.78343" lon="2.47823">
        <ele>33</ele>
        <time>2025-03-15T15:39:40Z</time>
      </trkpt>
      <trkpt lat="48.78312" lon="2.47849">
        <ele>32.2</ele>
        <time>2025-03-15T15:40:03Z</time>
      </trkpt>
      <trkpt lat="48.78283" lon="2.47872">
        <ele>32</ele>
        <time>2025-03-15T15:40:24Z</time>
      </trkpt>
      <trkpt lat="48.78258" lon="2.47892">
        <ele>31.6</ele>
        <time>2025-03-15T15:40:43Z</time>
      </trkpt>
      <trkpt lat="48.78228" lon="2.47918">
        <ele>32.2</ele>
        <time>2025-03-15T15:41:04Z</time>
      </trkpt>
      <trkpt lat="48.78201" lon="2.47939">
        <ele>32.4</ele>
        <time>2025-03-15T15:41:25Z</time>
      </trkpt>
      <trkpt lat="48.78176" lon="2.47959">
        <ele>32</ele>
        <time>2025-03-15T15:41:43Z</time>
      </trkpt>
      <trkpt lat="48.78152" lon="2.47975">
        <ele>31.4</ele>
        <time>2025-03-15T15:42:01Z</time>
      </trkpt>
      <trkpt lat="48.78128" lon="2.47996">
        <ele>32.6</ele>
        <time>2025-03-15T15:42:18Z</time>
      </trkpt>
      <trkpt lat="48.78104" lon="2.48016">
        <ele>31.6</ele>
        <time>2025-03-15T15:42:35Z</time>
      </trkpt>
      <trkpt lat="48.78084" lon="2.48032">
        <ele>30.6</ele>
        <time>2025-03-15T15:42:51Z</time>
      </trkpt>
      <trkpt lat="48.7806" lon="2.48052">
        <ele>31.6</ele>
        <time>2025-03-15T15:43:09Z</time>
      </trkpt>
      <trkpt lat="48.78036" lon="2.48074">
        <ele>31.8</ele>
        <time>2025-03-15T15:43:26Z</time>
      </trkpt>
      <trkpt lat="48.78014" lon="2.48095">
        <ele>31.6</ele>
        <time>2025-03-15T15:43:45Z</time>
      </trkpt>
      <trkpt lat="48.78012" lon="2.48096">
        <ele>31.6</ele>
        <time>2025-03-15T15:43:46Z</time>
      </trkpt>
      <trkpt lat="48.7801" lon="2.48099">
        <ele>31.6</ele>
        <time>2025-03-15T15:43:48Z</time>
      </trkpt>
      <trkpt lat="48.78009" lon="2.481">
        <ele>31.4</ele>
        <time>2025-03-15T15:43:49Z</time>
      </trkpt>
      <trkpt lat="48.77986" lon="2.48123">
        <ele>31.8</ele>
        <time>2025-03-15T15:44:07Z</time>
      </trkpt>
      <trkpt lat="48.77964" lon="2.48148">
        <ele>31.8</ele>
        <time>2025-03-15T15:44:25Z</time>
      </trkpt>
      <trkpt lat="48.77944" lon="2.48174">
        <ele>31.4</ele>
        <time>2025-03-15T15:44:43Z</time>
      </trkpt>
      <trkpt lat="48.77927" lon="2.48197">
        <ele>31.4</ele>
        <time>2025-03-15T15:44:59Z</time>
      </trkpt>
      <trkpt lat="48.77907" lon="2.48231">
        <ele>31.4</ele>
        <time>2025-03-15T15:45:17Z</time>
      </trkpt>
      <trkpt lat="48.77894" lon="2.48262">
        <ele>31.2</ele>
        <time>2025-03-15T15:45:32Z</time>
      </trkpt>
      <trkpt lat="48.77883" lon="2.48284">
        <ele>31.2</ele>
        <time>2025-03-15T15:45:44Z</time>
      </trkpt>
      <trkpt lat="48.7787" lon="2.48314">
        <ele>30.8</ele>
        <time>2025-03-15T15:46:00Z</time>
      </trkpt>
      <trkpt lat="48.77857" lon="2.48349">
        <ele>31.4</ele>
        <time>2025-03-15T15:46:17Z</time>
      </trkpt>
      <trkpt lat="48.77846" lon="2.48381">
        <ele>31.4</ele>
        <time>2025-03-15T15:46:34Z</time>
      </trkpt>
      <trkpt lat="48.77835" lon="2.48422">
        <ele>31.4</ele>
        <time>2025-03-15T15:46:50Z</time>
      </trkpt>
      <trkpt lat="48.77825" lon="2.48459">
        <ele>31.4</ele>
        <time>2025-03-15T15:47:07Z</time>
      </trkpt>
      <trkpt lat="48.77813" lon="2.48496">
        <ele>31.4</ele>
        <time>2025-03-15T15:47:25Z</time>
      </trkpt>
      <trkpt lat="48.77799" lon="2.48539">
        <ele>30.8</ele>
        <time>2025-03-15T15:47:44Z</time>
      </trkpt>
      <trkpt lat="48.77789" lon="2.48573">
        <ele>31.2</ele>
        <time>2025-03-15T15:48:01Z</time>
      </trkpt>
      <trkpt lat="48.7778" lon="2.48599">
        <ele>31.2</ele>
        <time>2025-03-15T15:48:17Z</time>
      </trkpt>
      <trkpt lat="48.77769" lon="2.48633">
        <ele>31.2</ele>
        <time>2025-03-15T15:48:34Z</time>
      </trkpt>
      <trkpt lat="48.77766" lon="2.48641">
        <ele>31.2</ele>
        <time>2025-03-15T15:48:38Z</time>
      </trkpt>
      <trkpt lat="48.77765" lon="2.48644">
        <ele>31.2</ele>
        <time>2025-03-15T15:48:39Z</time>
      </trkpt>
      <trkpt lat="48.77764" lon="2.48646">
        <ele>31.2</ele>
        <time>2025-03-15T15:48:40Z</time>
      </trkpt>
      <trkpt lat="48.77764" lon="2.48648">
        <ele>31.2</ele>
        <time>2025-03-15T15:48:41Z</time>
      </trkpt>
      <trkpt lat="48.77763" lon="2.48651">
        <ele>31.2</ele>
        <time>2025-03-15T15:48:42Z</time>
      </trkpt>
      <trkpt lat="48.77754" lon="2.48689">
        <ele>31.6</ele>
        <time>2025-03-15T15:49:00Z</time>
      </trkpt>
      <trkpt lat="48.77745" lon="2.48725">
        <ele>30.8</ele>
        <time>2025-03-15T15:49:18Z</time>
      </trkpt>
      <trkpt lat="48.77735" lon="2.48762">
        <ele>31.4</ele>
        <time>2025-03-15T15:49:36Z</time>
      </trkpt>
      <trkpt lat="48.7772" lon="2.48792">
        <ele>30.8</ele>
        <time>2025-03-15T15:49:52Z</time>
      </trkpt>
      <trkpt lat="48.77719" lon="2.48796">
        <ele>31</ele>
        <time>2025-03-15T15:49:54Z</time>
      </trkpt>
      <trkpt lat="48.77718" lon="2.48797">
        <ele>31.2</ele>
        <time>2025-03-15T15:49:55Z</time>
      </trkpt>
      <trkpt lat="48.77717" lon="2.48799">
        <ele>31.2</ele>
        <time>2025-03-15T15:49:56Z</time>
      </trkpt>
      <trkpt lat="48.77717" lon="2.48802">
        <ele>31.2</ele>
        <time>2025-03-15T15:49:57Z</time>
      </trkpt>
      <trkpt lat="48.77716" lon="2.48804">
        <ele>31.2</ele>
        <time>2025-03-15T15:49:58Z</time>
      </trkpt>
      <trkpt lat="48.77716" lon="2.48806">
        <ele>31.2</ele>
        <time>2025-03-15T15:49:59Z</time>
      </trkpt>
      <trkpt lat="48.77715" lon="2.48809">
        <ele>31</ele>
        <time>2025-03-15T15:50:00Z</time>
      </trkpt>
      <trkpt lat="48.77716" lon="2.48812">
        <ele>30.8</ele>
        <time>2025-03-15T15:50:01Z</time>
      </trkpt>
      <trkpt lat="48.77712" lon="2.4885">
        <ele>31</ele>
        <time>2025-03-15T15:50:17Z</time>
      </trkpt>
      <trkpt lat="48.77704" lon="2.48885">
        <ele>31.2</ele>
        <time>2025-03-15T15:50:33Z</time>
      </trkpt>
      <trkpt lat="48.77689" lon="2.4893">
        <ele>30.4</ele>
        <time>2025-03-15T15:50:53Z</time>
      </trkpt>
      <trkpt lat="48.77682" lon="2.4896">
        <ele>30.4</ele>
        <time>2025-03-15T15:51:08Z</time>
      </trkpt>
      <trkpt lat="48.7767" lon="2.48993">
        <ele>31.2</ele>
        <time>2025-03-15T15:51:23Z</time>
      </trkpt>
      <trkpt lat="48.77666" lon="2.49023">
        <ele>28.6</ele>
        <time>2025-03-15T15:51:39Z</time>
      </trkpt>
      <trkpt lat="48.7766" lon="2.4905">
        <ele>29.6</ele>
        <time>2025-03-15T15:51:55Z</time>
      </trkpt>
      <trkpt lat="48.77643" lon="2.49075">
        <ele>30.4</ele>
        <time>2025-03-15T15:52:11Z</time>
      </trkpt>
      <trkpt lat="48.77621" lon="2.4908">
        <ele>31.8</ele>
        <time>2025-03-15T15:52:26Z</time>
      </trkpt>
      <trkpt lat="48.77607" lon="2.49087">
        <ele>31.2</ele>
        <time>2025-03-15T15:52:38Z</time>
      </trkpt>
      <trkpt lat="48.77606" lon="2.49089">
        <ele>31.2</ele>
        <time>2025-03-15T15:52:39Z</time>
      </trkpt>
      <trkpt lat="48.77605" lon="2.4909">
        <ele>31.2</ele>
        <time>2025-03-15T15:52:40Z</time>
      </trkpt>
      <trkpt lat="48.776" lon="2.49096">
        <ele>31.2</ele>
        <time>2025-03-15T15:52:45Z</time>
      </trkpt>
      <trkpt lat="48.77592" lon="2.49107">
        <ele>30.8</ele>
        <time>2025-03-15T15:53:01Z</time>
      </trkpt>
      <trkpt lat="48.77591" lon="2.49107">
        <ele>30.8</ele>
        <time>2025-03-15T15:53:21Z</time>
      </trkpt>
      <trkpt lat="48.77587" lon="2.491">
        <ele>31.2</ele>
        <time>2025-03-15T15:53:30Z</time>
      </trkpt>
      <trkpt lat="48.77586" lon="2.49098">
        <ele>31.2</ele>
        <time>2025-03-15T15:53:31Z</time>
      </trkpt>
      <trkpt lat="48.77586" lon="2.49096">
        <ele>31.2</ele>
        <time>2025-03-15T15:53:32Z</time>
      </trkpt>
      <trkpt lat="48.77585" lon="2.49093">
        <ele>31.2</ele>
        <time>2025-03-15T15:53:33Z</time>
      </trkpt>
      <trkpt lat="48.77585" lon="2.49091">
        <ele>31.2</ele>
        <time>2025-03-15T15:53:34Z</time>
      </trkpt>
      <trkpt lat="48.77585" lon="2.49089">
        <ele>31.2</ele>
        <time>2025-03-15T15:53:35Z</time>
      </trkpt>
      <trkpt lat="48.77576" lon="2.49042">
        <ele>31.8</ele>
        <time>2025-03-15T15:53:56Z</time>
      </trkpt>
      <trkpt lat="48.77575" lon="2.4904">
        <ele>31.8</ele>
        <time>2025-03-15T15:53:57Z</time>
      </trkpt>
      <trkpt lat="48.77575" lon="2.49038">
        <ele>31.4</ele>
        <time>2025-03-15T15:53:58Z</time>
      </trkpt>
      <trkpt lat="48.77575" lon="2.49036">
        <ele>30.6</ele>
        <time>2025-03-15T15:53:59Z</time>
      </trkpt>
      <trkpt lat="48.77575" lon="2.49034">
        <ele>29.4</ele>
        <time>2025-03-15T15:54:00Z</time>
      </trkpt>
      <trkpt lat="48.77575" lon="2.49031">
        <ele>28.4</ele>
        <time>2025-03-15T15:54:01Z</time>
      </trkpt>
      <trkpt lat="48.77574" lon="2.49027">
        <ele>27.8</ele>
        <time>2025-03-15T15:54:03Z</time>
      </trkpt>
      <trkpt lat="48.77571" lon="2.49024">
        <ele>32.2</ele>
        <time>2025-03-15T15:54:06Z</time>
      </trkpt>
      <trkpt lat="48.77569" lon="2.49022">
        <ele>34</ele>
        <time>2025-03-15T15:54:08Z</time>
      </trkpt>
      <trkpt lat="48.77566" lon="2.4902">
        <ele>34</ele>
        <time>2025-03-15T15:54:11Z</time>
      </trkpt>
      <trkpt lat="48.77556" lon="2.49019">
        <ele>32.8</ele>
        <time>2025-03-15T15:54:20Z</time>
      </trkpt>
      <trkpt lat="48.77554" lon="2.49019">
        <ele>32.8</ele>
        <time>2025-03-15T15:54:21Z</time>
      </trkpt>
      <trkpt lat="48.77552" lon="2.4902">
        <ele>32.8</ele>
        <time>2025-03-15T15:54:22Z</time>
      </trkpt>
      <trkpt lat="48.77549" lon="2.49019">
        <ele>32.8</ele>
        <time>2025-03-15T15:54:23Z</time>
      </trkpt>
      <trkpt lat="48.77547" lon="2.49019">
        <ele>32.8</ele>
        <time>2025-03-15T15:54:24Z</time>
      </trkpt>
      <trkpt lat="48.77545" lon="2.49019">
        <ele>32.8</ele>
        <time>2025-03-15T15:54:25Z</time>
      </trkpt>
      <trkpt lat="48.77544" lon="2.49019">
        <ele>32.8</ele>
        <time>2025-03-15T15:54:26Z</time>
      </trkpt>
      <trkpt lat="48.77523" lon="2.49013">
        <ele>33.2</ele>
        <time>2025-03-15T15:54:39Z</time>
      </trkpt>
      <trkpt lat="48.77492" lon="2.49007">
        <ele>34.2</ele>
        <time>2025-03-15T15:54:57Z</time>
      </trkpt>
      <trkpt lat="48.77471" lon="2.49007">
        <ele>33.6</ele>
        <time>2025-03-15T15:55:10Z</time>
      </trkpt>
      <trkpt lat="48.77441" lon="2.49003">
        <ele>34</ele>
        <time>2025-03-15T15:55:27Z</time>
      </trkpt>
      <trkpt lat="48.77416" lon="2.49003">
        <ele>35</ele>
        <time>2025-03-15T15:55:45Z</time>
      </trkpt>
      <trkpt lat="48.77388" lon="2.49001">
        <ele>35</ele>
        <time>2025-03-15T15:56:05Z</time>
      </trkpt>
      <trkpt lat="48.77372" lon="2.49013">
        <ele>35</ele>
        <time>2025-03-15T15:56:18Z</time>
      </trkpt>
      <trkpt lat="48.77371" lon="2.49014">
        <ele>35</ele>
        <time>2025-03-15T15:56:19Z</time>
      </trkpt>
      <trkpt lat="48.77371" lon="2.49015">
        <ele>35</ele>
        <time>2025-03-15T15:56:20Z</time>
      </trkpt>
      <trkpt lat="48.7737" lon="2.49016">
        <ele>35.2</ele>
        <time>2025-03-15T15:56:21Z</time>
      </trkpt>
      <trkpt lat="48.77367" lon="2.49018">
        <ele>35</ele>
        <time>2025-03-15T15:56:24Z</time>
      </trkpt>
      <trkpt lat="48.77367" lon="2.49019">
        <ele>34.8</ele>
        <time>2025-03-15T15:56:25Z</time>
      </trkpt>
      <trkpt lat="48.77366" lon="2.49021">
        <ele>34.8</ele>
        <time>2025-03-15T15:56:26Z</time>
      </trkpt>
      <trkpt lat="48.77366" lon="2.49022">
        <ele>34.6</ele>
        <time>2025-03-15T15:56:27Z</time>
      </trkpt>
      <trkpt lat="48.77365" lon="2.49024">
        <ele>34.6</ele>
        <time>2025-03-15T15:56:28Z</time>
      </trkpt>
      <trkpt lat="48.77365" lon="2.49026">
        <ele>34.6</ele>
        <time>2025-03-15T15:56:29Z</time>
      </trkpt>
      <trkpt lat="48.77365" lon="2.49027">
        <ele>34.4</ele>
        <time>2025-03-15T15:56:30Z</time>
      </trkpt>
      <trkpt lat="48.77365" lon="2.49029">
        <ele>34.6</ele>
        <time>2025-03-15T15:56:31Z</time>
      </trkpt>
      <trkpt lat="48.77365" lon="2.49032">
        <ele>34.6</ele>
        <time>2025-03-15T15:56:32Z</time>
      </trkpt>
      <trkpt lat="48.77365" lon="2.49034">
        <ele>34.6</ele>
        <time>2025-03-15T15:56:33Z</time>
      </trkpt>
      <trkpt lat="48.77365" lon="2.49036">
        <ele>34.6</ele>
        <time>2025-03-15T15:56:34Z</time>
      </trkpt>
      <trkpt lat="48.77366" lon="2.49038">
        <ele>34.6</ele>
        <time>2025-03-15T15:56:35Z</time>
      </trkpt>
      <trkpt lat="48.77366" lon="2.4904">
        <ele>34.6</ele>
        <time>2025-03-15T15:56:36Z</time>
      </trkpt>
      <trkpt lat="48.77366" lon="2.49042">
        <ele>34.6</ele>
        <time>2025-03-15T15:56:37Z</time>
      </trkpt>
      <trkpt lat="48.77363" lon="2.49062">
        <ele>34.6</ele>
        <time>2025-03-15T15:56:47Z</time>
      </trkpt>
      <trkpt lat="48.77363" lon="2.49064">
        <ele>34.8</ele>
        <time>2025-03-15T15:56:48Z</time>
      </trkpt>
      <trkpt lat="48.77363" lon="2.49066">
        <ele>35</ele>
        <time>2025-03-15T15:56:49Z</time>
      </trkpt>
      <trkpt lat="48.77363" lon="2.49068">
        <ele>35</ele>
        <time>2025-03-15T15:56:50Z</time>
      </trkpt>
      <trkpt lat="48.77363" lon="2.4907">
        <ele>35</ele>
        <time>2025-03-15T15:56:51Z</time>
      </trkpt>
      <trkpt lat="48.77365" lon="2.4908">
        <ele>34.6</ele>
        <time>2025-03-15T15:56:57Z</time>
      </trkpt>
      <trkpt lat="48.77365" lon="2.49082">
        <ele>34.4</ele>
        <time>2025-03-15T15:56:58Z</time>
      </trkpt>
      <trkpt lat="48.77365" lon="2.49084">
        <ele>34.2</ele>
        <time>2025-03-15T15:56:59Z</time>
      </trkpt>
      <trkpt lat="48.77364" lon="2.49144">
        <ele>33</ele>
        <time>2025-03-15T15:57:27Z</time>
      </trkpt>
      <trkpt lat="48.77362" lon="2.49186">
        <ele>32.8</ele>
        <time>2025-03-15T15:57:43Z</time>
      </trkpt>
      <trkpt lat="48.77361" lon="2.49195">
        <ele>32.8</ele>
        <time>2025-03-15T15:57:47Z</time>
      </trkpt>
      <trkpt lat="48.77361" lon="2.49198">
        <ele>32.8</ele>
        <time>2025-03-15T15:57:48Z</time>
      </trkpt>
      <trkpt lat="48.77361" lon="2.49201">
        <ele>32.8</ele>
        <time>2025-03-15T15:57:49Z</time>
      </trkpt>
      <trkpt lat="48.77359" lon="2.4924">
        <ele>32.6</ele>
        <time>2025-03-15T15:58:05Z</time>
      </trkpt>
      <trkpt lat="48.77355" lon="2.49277">
        <ele>32.6</ele>
        <time>2025-03-15T15:58:19Z</time>
      </trkpt>
      <trkpt lat="48.77353" lon="2.49311">
        <ele>32.6</ele>
        <time>2025-03-15T15:58:34Z</time>
      </trkpt>
      <trkpt lat="48.7735" lon="2.49346">
        <ele>32.6</ele>
        <time>2025-03-15T15:58:49Z</time>
      </trkpt>
      <trkpt lat="48.77348" lon="2.49379">
        <ele>32.4</ele>
        <time>2025-03-15T15:59:03Z</time>
      </trkpt>
      <trkpt lat="48.77346" lon="2.49411">
        <ele>32.4</ele>
        <time>2025-03-15T15:59:17Z</time>
      </trkpt>
      <trkpt lat="48.77343" lon="2.4943">
        <ele>31.2</ele>
        <time>2025-03-15T15:59:33Z</time>
      </trkpt>
      <trkpt lat="48.77342" lon="2.49434">
        <ele>32.2</ele>
        <time>2025-03-15T16:00:08Z</time>
      </trkpt>
      <trkpt lat="48.77341" lon="2.49434">
        <ele>32.2</ele>
        <time>2025-03-15T16:00:14Z</time>
      </trkpt>
      <trkpt lat="48.77339" lon="2.49433">
        <ele>32.2</ele>
        <time>2025-03-15T16:00:15Z</time>
      </trkpt>
      <trkpt lat="48.77338" lon="2.49433">
        <ele>32.2</ele>
        <time>2025-03-15T16:00:16Z</time>
      </trkpt>
      <trkpt lat="48.77336" lon="2.49432">
        <ele>32.2</ele>
        <time>2025-03-15T16:00:17Z</time>
      </trkpt>
      <trkpt lat="48.77335" lon="2.49431">
        <ele>32.2</ele>
        <time>2025-03-15T16:00:18Z</time>
      </trkpt>
      <trkpt lat="48.77334" lon="2.4943">
        <ele>32</ele>
        <time>2025-03-15T16:00:19Z</time>
      </trkpt>
      <trkpt lat="48.77311" lon="2.49437">
        <ele>31.8</ele>
        <time>2025-03-15T16:00:36Z</time>
      </trkpt>
      <trkpt lat="48.7729" lon="2.49453">
        <ele>32.6</ele>
        <time>2025-03-15T16:00:54Z</time>
      </trkpt>
      <trkpt lat="48.77286" lon="2.49491">
        <ele>33.2</ele>
        <time>2025-03-15T16:01:10Z</time>
      </trkpt>
      <trkpt lat="48.77296" lon="2.49533">
        <ele>31.8</ele>
        <time>2025-03-15T16:01:28Z</time>
      </trkpt>
      <trkpt lat="48.77303" lon="2.49564">
        <ele>31.8</ele>
        <time>2025-03-15T16:01:43Z</time>
      </trkpt>
      <trkpt lat="48.77301" lon="2.49605">
        <ele>31.8</ele>
        <time>2025-03-15T16:02:01Z</time>
      </trkpt>
      <trkpt lat="48.77298" lon="2.49641">
        <ele>31.6</ele>
        <time>2025-03-15T16:02:17Z</time>
      </trkpt>
      <trkpt lat="48.77298" lon="2.4966">
        <ele>31.4</ele>
        <time>2025-03-15T16:02:25Z</time>
      </trkpt>
      <trkpt lat="48.77298" lon="2.49662">
        <ele>31.4</ele>
        <time>2025-03-15T16:02:26Z</time>
      </trkpt>
      <trkpt lat="48.77297" lon="2.49664">
        <ele>31.4</ele>
        <time>2025-03-15T16:02:27Z</time>
      </trkpt>
      <trkpt lat="48.77299" lon="2.49713">
        <ele>31.8</ele>
        <time>2025-03-15T16:02:48Z</time>
      </trkpt>
      <trkpt lat="48.77299" lon="2.49719">
        <ele>31.8</ele>
        <time>2025-03-15T16:02:51Z</time>
      </trkpt>
      <trkpt lat="48.77299" lon="2.49721">
        <ele>31.8</ele>
        <time>2025-03-15T16:02:52Z</time>
      </trkpt>
      <trkpt lat="48.77299" lon="2.49722">
        <ele>31.6</ele>
        <time>2025-03-15T16:02:53Z</time>
      </trkpt>
      <trkpt lat="48.77299" lon="2.49724">
        <ele>31.6</ele>
        <time>2025-03-15T16:02:54Z</time>
      </trkpt>
      <trkpt lat="48.77299" lon="2.49726">
        <ele>31.6</ele>
        <time>2025-03-15T16:02:55Z</time>
      </trkpt>
      <trkpt lat="48.77299" lon="2.49728">
        <ele>31.8</ele>
        <time>2025-03-15T16:02:56Z</time>
      </trkpt>
      <trkpt lat="48.77298" lon="2.49765">
        <ele>31.4</ele>
        <time>2025-03-15T16:03:13Z</time>
      </trkpt>
      <trkpt lat="48.77293" lon="2.49811">
        <ele>31.8</ele>
        <time>2025-03-15T16:03:32Z</time>
      </trkpt>
      <trkpt lat="48.77288" lon="2.49859">
        <ele>31.6</ele>
        <time>2025-03-15T16:03:51Z</time>
      </trkpt>
      <trkpt lat="48.77283" lon="2.49911">
        <ele>31.8</ele>
        <time>2025-03-15T16:04:14Z</time>
      </trkpt>
      <trkpt lat="48.7728" lon="2.49957">
        <ele>31.8</ele>
        <time>2025-03-15T16:04:34Z</time>
      </trkpt>
      <trkpt lat="48.77278" lon="2.49994">
        <ele>31.6</ele>
        <time>2025-03-15T16:04:50Z</time>
      </trkpt>
      <trkpt lat="48.77265" lon="2.5003">
        <ele>31</ele>
        <time>2025-03-15T16:05:08Z</time>
      </trkpt>
      <trkpt lat="48.77263" lon="2.50078">
        <ele>30.8</ele>
        <time>2025-03-15T16:05:27Z</time>
      </trkpt>
      <trkpt lat="48.77271" lon="2.50097">
        <ele>30</ele>
        <time>2025-03-15T16:05:43Z</time>
      </trkpt>
      <trkpt lat="48.77274" lon="2.50098">
        <ele>30.2</ele>
        <time>2025-03-15T16:05:58Z</time>
      </trkpt>
      <trkpt lat="48.77278" lon="2.50102">
        <ele>29.6</ele>
        <time>2025-03-15T16:06:03Z</time>
      </trkpt>
      <trkpt lat="48.77292" lon="2.50122">
        <ele>30.4</ele>
        <time>2025-03-15T16:06:17Z</time>
      </trkpt>
      <trkpt lat="48.77296" lon="2.50157">
        <ele>30.2</ele>
        <time>2025-03-15T16:06:33Z</time>
      </trkpt>
      <trkpt lat="48.77307" lon="2.50219">
        <ele>31</ele>
        <time>2025-03-15T16:06:58Z</time>
      </trkpt>
      <trkpt lat="48.7732" lon="2.50256">
        <ele>31</ele>
        <time>2025-03-15T16:07:16Z</time>
      </trkpt>
      <trkpt lat="48.77328" lon="2.50308">
        <ele>31.4</ele>
        <time>2025-03-15T16:07:38Z</time>
      </trkpt>
      <trkpt lat="48.77339" lon="2.50354">
        <ele>32</ele>
        <time>2025-03-15T16:07:59Z</time>
      </trkpt>
      <trkpt lat="48.77341" lon="2.50363">
        <ele>32</ele>
        <time>2025-03-15T16:08:03Z</time>
      </trkpt>
      <trkpt lat="48.77342" lon="2.50365">
        <ele>32</ele>
        <time>2025-03-15T16:08:04Z</time>
      </trkpt>
      <trkpt lat="48.77342" lon="2.50367">
        <ele>32</ele>
        <time>2025-03-15T16:08:05Z</time>
      </trkpt>
      <trkpt lat="48.77347" lon="2.50401">
        <ele>32.2</ele>
        <time>2025-03-15T16:08:21Z</time>
      </trkpt>
      <trkpt lat="48.77353" lon="2.50443">
        <ele>32.6</ele>
        <time>2025-03-15T16:08:40Z</time>
      </trkpt>
      <trkpt lat="48.77357" lon="2.50481">
        <ele>32.6</ele>
        <time>2025-03-15T16:08:57Z</time>
      </trkpt>
      <trkpt lat="48.77356" lon="2.50484">
        <ele>32.8</ele>
        <time>2025-03-15T16:08:58Z</time>
      </trkpt>
      <trkpt lat="48.77355" lon="2.50486">
        <ele>33</ele>
        <time>2025-03-15T16:08:59Z</time>
      </trkpt>
      <trkpt lat="48.77353" lon="2.50488">
        <ele>33</ele>
        <time>2025-03-15T16:09:00Z</time>
      </trkpt>
      <trkpt lat="48.77351" lon="2.5049">
        <ele>33.2</ele>
        <time>2025-03-15T16:09:01Z</time>
      </trkpt>
      <trkpt lat="48.77349" lon="2.50491">
        <ele>33.2</ele>
        <time>2025-03-15T16:09:02Z</time>
      </trkpt>
      <trkpt lat="48.77319" lon="2.50505">
        <ele>32.2</ele>
        <time>2025-03-15T16:09:19Z</time>
      </trkpt>
      <trkpt lat="48.77291" lon="2.50527">
        <ele>31</ele>
        <time>2025-03-15T16:09:39Z</time>
      </trkpt>
      <trkpt lat="48.7728" lon="2.50532">
        <ele>31</ele>
        <time>2025-03-15T16:09:47Z</time>
      </trkpt>
      <trkpt lat="48.77279" lon="2.50532">
        <ele>30.8</ele>
        <time>2025-03-15T16:09:48Z</time>
      </trkpt>
      <trkpt lat="48.77254" lon="2.50549">
        <ele>31.6</ele>
        <time>2025-03-15T16:10:06Z</time>
      </trkpt>
      <trkpt lat="48.7724" lon="2.50575">
        <ele>32</ele>
        <time>2025-03-15T16:10:21Z</time>
      </trkpt>
      <trkpt lat="48.77226" lon="2.50589">
        <ele>32</ele>
        <time>2025-03-15T16:10:33Z</time>
      </trkpt>
      <trkpt lat="48.77225" lon="2.5059">
        <ele>32</ele>
        <time>2025-03-15T16:10:34Z</time>
      </trkpt>
      <trkpt lat="48.77223" lon="2.5059">
        <ele>32.2</ele>
        <time>2025-03-15T16:10:35Z</time>
      </trkpt>
      <trkpt lat="48.77222" lon="2.5059">
        <ele>32.2</ele>
        <time>2025-03-15T16:10:36Z</time>
      </trkpt>
      <trkpt lat="48.7722" lon="2.5059">
        <ele>32.2</ele>
        <time>2025-03-15T16:10:37Z</time>
      </trkpt>
      <trkpt lat="48.77219" lon="2.5059">
        <ele>32.2</ele>
        <time>2025-03-15T16:10:38Z</time>
      </trkpt>
      <trkpt lat="48.77217" lon="2.5059">
        <ele>32.2</ele>
        <time>2025-03-15T16:10:39Z</time>
      </trkpt>
      <trkpt lat="48.77209" lon="2.5059">
        <ele>32</ele>
        <time>2025-03-15T16:10:44Z</time>
      </trkpt>
      <trkpt lat="48.77208" lon="2.50592">
        <ele>32</ele>
        <time>2025-03-15T16:10:45Z</time>
      </trkpt>
      <trkpt lat="48.77208" lon="2.50593">
        <ele>32</ele>
        <time>2025-03-15T16:10:46Z</time>
      </trkpt>
      <trkpt lat="48.772" lon="2.50616">
        <ele>32</ele>
        <time>2025-03-15T16:10:59Z</time>
      </trkpt>
      <trkpt lat="48.77199" lon="2.50618">
        <ele>32</ele>
        <time>2025-03-15T16:11:00Z</time>
      </trkpt>
      <trkpt lat="48.77198" lon="2.5062">
        <ele>32</ele>
        <time>2025-03-15T16:11:01Z</time>
      </trkpt>
      <trkpt lat="48.77179" lon="2.50643">
        <ele>32.2</ele>
        <time>2025-03-15T16:11:19Z</time>
      </trkpt>
      <trkpt lat="48.7716" lon="2.50662">
        <ele>32.4</ele>
        <time>2025-03-15T16:11:35Z</time>
      </trkpt>
      <trkpt lat="48.77155" lon="2.50682">
        <ele>32.8</ele>
        <time>2025-03-15T16:11:52Z</time>
      </trkpt>
      <trkpt lat="48.77157" lon="2.50685">
        <ele>35.8</ele>
        <time>2025-03-15T16:12:00Z</time>
      </trkpt>
      <trkpt lat="48.7716" lon="2.50683">
        <ele>38.8</ele>
        <time>2025-03-15T16:12:11Z</time>
      </trkpt>
      <trkpt lat="48.77156" lon="2.50684">
        <ele>41.2</ele>
        <time>2025-03-15T16:12:16Z</time>
      </trkpt>
      <trkpt lat="48.77156" lon="2.5069">
        <ele>41.4</ele>
        <time>2025-03-15T16:12:20Z</time>
      </trkpt>
      <trkpt lat="48.77156" lon="2.50691">
        <ele>41.4</ele>
        <time>2025-03-15T16:12:21Z</time>
      </trkpt>
      <trkpt lat="48.77157" lon="2.50722">
        <ele>41.6</ele>
        <time>2025-03-15T16:12:35Z</time>
      </trkpt>
      <trkpt lat="48.77158" lon="2.50751">
        <ele>41.8</ele>
        <time>2025-03-15T16:12:48Z</time>
      </trkpt>
      <trkpt lat="48.77156" lon="2.50781">
        <ele>42.2</ele>
        <time>2025-03-15T16:13:03Z</time>
      </trkpt>
      <trkpt lat="48.77148" lon="2.50787">
        <ele>40.8</ele>
        <time>2025-03-15T16:13:17Z</time>
      </trkpt>
      <trkpt lat="48.77142" lon="2.50788">
        <ele>37.6</ele>
        <time>2025-03-15T16:13:26Z</time>
      </trkpt>
      <trkpt lat="48.77131" lon="2.50803">
        <ele>34.4</ele>
        <time>2025-03-15T16:13:38Z</time>
      </trkpt>
      <trkpt lat="48.77113" lon="2.50828">
        <ele>34.2</ele>
        <time>2025-03-15T16:13:55Z</time>
      </trkpt>
      <trkpt lat="48.77111" lon="2.50839">
        <ele>34.4</ele>
        <time>2025-03-15T16:14:04Z</time>
      </trkpt>
      <trkpt lat="48.77113" lon="2.50842">
        <ele>33.6</ele>
        <time>2025-03-15T16:14:06Z</time>
      </trkpt>
      <trkpt lat="48.77114" lon="2.50844">
        <ele>33.4</ele>
        <time>2025-03-15T16:14:07Z</time>
      </trkpt>
      <trkpt lat="48.77115" lon="2.50844">
        <ele>33.2</ele>
        <time>2025-03-15T16:14:08Z</time>
      </trkpt>
      <trkpt lat="48.77116" lon="2.50845">
        <ele>33.2</ele>
        <time>2025-03-15T16:14:09Z</time>
      </trkpt>
      <trkpt lat="48.77117" lon="2.50846">
        <ele>33.4</ele>
        <time>2025-03-15T16:14:10Z</time>
      </trkpt>
      <trkpt lat="48.77118" lon="2.50848">
        <ele>33.4</ele>
        <time>2025-03-15T16:14:11Z</time>
      </trkpt>
      <trkpt lat="48.77133" lon="2.50855">
        <ele>34.4</ele>
        <time>2025-03-15T16:14:29Z</time>
      </trkpt>
      <trkpt lat="48.77137" lon="2.50855">
        <ele>34</ele>
        <time>2025-03-15T16:14:50Z</time>
      </trkpt>
      <trkpt lat="48.77135" lon="2.50859">
        <ele>34</ele>
        <time>2025-03-15T16:15:14Z</time>
      </trkpt>
      <trkpt lat="48.77135" lon="2.50861">
        <ele>34.4</ele>
        <time>2025-03-15T16:15:38Z</time>
      </trkpt>
      <trkpt lat="48.77136" lon="2.5086">
        <ele>34.2</ele>
        <time>2025-03-15T16:16:20Z</time>
      </trkpt>
      <trkpt lat="48.77135" lon="2.50863">
        <ele>34.2</ele>
        <time>2025-03-15T16:16:56Z</time>
      </trkpt>
      <trkpt lat="48.77136" lon="2.50863">
        <ele>33.8</ele>
        <time>2025-03-15T16:17:34Z</time>
      </trkpt>
      <trkpt lat="48.77136" lon="2.50863">
        <ele>33.6</ele>
        <time>2025-03-15T16:18:11Z</time>
      </trkpt>
      <trkpt lat="48.77136" lon="2.50862">
        <ele>34</ele>
        <time>2025-03-15T16:18:47Z</time>
      </trkpt>
      <trkpt lat="48.77136" lon="2.50863">
        <ele>33.8</ele>
        <time>2025-03-15T16:19:36Z</time>
      </trkpt>
      <trkpt lat="48.77136" lon="2.50863">
        <ele>33.8</ele>
        <time>2025-03-15T16:20:20Z</time>
      </trkpt>
      <trkpt lat="48.77137" lon="2.5086">
        <ele>33.6</ele>
        <time>2025-03-15T16:21:07Z</time>
      </trkpt>
      <trkpt lat="48.77138" lon="2.5086">
        <ele>34</ele>
        <time>2025-03-15T16:21:32Z</time>
      </trkpt>
      <trkpt lat="48.77136" lon="2.50859">
        <ele>32.8</ele>
        <time>2025-03-15T16:22:12Z</time>
      </trkpt>
      <trkpt lat="48.77135" lon="2.50858">
        <ele>33.4</ele>
        <time>2025-03-15T16:22:50Z</time>
      </trkpt>
      <trkpt lat="48.77134" lon="2.50857">
        <ele>33.4</ele>
        <time>2025-03-15T16:23:22Z</time>
      </trkpt>
      <trkpt lat="48.7713" lon="2.50857">
        <ele>33.6</ele>
        <time>2025-03-15T16:23:32Z</time>
      </trkpt>
      <trkpt lat="48.77129" lon="2.50857">
        <ele>33.6</ele>
        <time>2025-03-15T16:23:33Z</time>
      </trkpt>
      <trkpt lat="48.77128" lon="2.50857">
        <ele>33.6</ele>
        <time>2025-03-15T16:23:34Z</time>
      </trkpt>
      <trkpt lat="48.77126" lon="2.50856">
        <ele>33.6</ele>
        <time>2025-03-15T16:23:35Z</time>
      </trkpt>
      <trkpt lat="48.77125" lon="2.50856">
        <ele>33.6</ele>
        <time>2025-03-15T16:23:36Z</time>
      </trkpt>
      <trkpt lat="48.77116" lon="2.50851">
        <ele>33.4</ele>
        <time>2025-03-15T16:23:47Z</time>
      </trkpt>
      <trkpt lat="48.77114" lon="2.5085">
        <ele>33.4</ele>
        <time>2025-03-15T16:23:48Z</time>
      </trkpt>
      <trkpt lat="48.77113" lon="2.50849">
        <ele>33.4</ele>
        <time>2025-03-15T16:23:49Z</time>
      </trkpt>
      <trkpt lat="48.77111" lon="2.50848">
        <ele>33.2</ele>
        <time>2025-03-15T16:23:50Z</time>
      </trkpt>
      <trkpt lat="48.7711" lon="2.50846">
        <ele>33.2</ele>
        <time>2025-03-15T16:23:51Z</time>
      </trkpt>
      <trkpt lat="48.77109" lon="2.50844">
        <ele>33.2</ele>
        <time>2025-03-15T16:23:52Z</time>
      </trkpt>
      <trkpt lat="48.77108" lon="2.50842">
        <ele>33.2</ele>
        <time>2025-03-15T16:23:53Z</time>
      </trkpt>
      <trkpt lat="48.77108" lon="2.5084">
        <ele>33.2</ele>
        <time>2025-03-15T16:23:54Z</time>
      </trkpt>
      <trkpt lat="48.77107" lon="2.50838">
        <ele>33.2</ele>
        <time>2025-03-15T16:23:55Z</time>
      </trkpt>
      <trkpt lat="48.77106" lon="2.50836">
        <ele>33.2</ele>
        <time>2025-03-15T16:23:56Z</time>
      </trkpt>
      <trkpt lat="48.77101" lon="2.50828">
        <ele>33.2</ele>
        <time>2025-03-15T16:24:03Z</time>
      </trkpt>
      <trkpt lat="48.771" lon="2.50829">
        <ele>33.2</ele>
        <time>2025-03-15T16:24:04Z</time>
      </trkpt>
      <trkpt lat="48.77098" lon="2.5083">
        <ele>33.2</ele>
        <time>2025-03-15T16:24:05Z</time>
      </trkpt>
      <trkpt lat="48.77097" lon="2.5083">
        <ele>33</ele>
        <time>2025-03-15T16:24:06Z</time>
      </trkpt>
      <trkpt lat="48.77096" lon="2.50832">
        <ele>32.8</ele>
        <time>2025-03-15T16:24:07Z</time>
      </trkpt>
      <trkpt lat="48.77095" lon="2.50833">
        <ele>32.8</ele>
        <time>2025-03-15T16:24:08Z</time>
      </trkpt>
      <trkpt lat="48.77093" lon="2.50833">
        <ele>32.8</ele>
        <time>2025-03-15T16:24:09Z</time>
      </trkpt>
      <trkpt lat="48.77091" lon="2.50833">
        <ele>32.8</ele>
        <time>2025-03-15T16:24:10Z</time>
      </trkpt>
      <trkpt lat="48.7709" lon="2.50833">
        <ele>32.8</ele>
        <time>2025-03-15T16:24:11Z</time>
      </trkpt>
      <trkpt lat="48.77088" lon="2.50833">
        <ele>33</ele>
        <time>2025-03-15T16:24:12Z</time>
      </trkpt>
      <trkpt lat="48.77087" lon="2.50832">
        <ele>33</ele>
        <time>2025-03-15T16:24:13Z</time>
      </trkpt>
      <trkpt lat="48.77085" lon="2.50832">
        <ele>33.2</ele>
        <time>2025-03-15T16:24:14Z</time>
      </trkpt>
      <trkpt lat="48.77084" lon="2.50832">
        <ele>33.2</ele>
        <time>2025-03-15T16:24:15Z</time>
      </trkpt>
      <trkpt lat="48.77057" lon="2.50828">
        <ele>32.8</ele>
        <time>2025-03-15T16:24:33Z</time>
      </trkpt>
      <trkpt lat="48.77035" lon="2.50824">
        <ele>32.6</ele>
        <time>2025-03-15T16:24:47Z</time>
      </trkpt>
      <trkpt lat="48.77008" lon="2.50822">
        <ele>32.6</ele>
        <time>2025-03-15T16:25:06Z</time>
      </trkpt>
      <trkpt lat="48.77006" lon="2.50821">
        <ele>32.6</ele>
        <time>2025-03-15T16:25:07Z</time>
      </trkpt>
      <trkpt lat="48.77002" lon="2.50821">
        <ele>32.6</ele>
        <time>2025-03-15T16:25:09Z</time>
      </trkpt>
      <trkpt lat="48.77" lon="2.5082">
        <ele>32.6</ele>
        <time>2025-03-15T16:25:10Z</time>
      </trkpt>
      <trkpt lat="48.76972" lon="2.5082">
        <ele>32.8</ele>
        <time>2025-03-15T16:25:27Z</time>
      </trkpt>
      <trkpt lat="48.76938" lon="2.50821">
        <ele>33.4</ele>
        <time>2025-03-15T16:25:48Z</time>
      </trkpt>
      <trkpt lat="48.76904" lon="2.50819">
        <ele>33.6</ele>
        <time>2025-03-15T16:26:11Z</time>
      </trkpt>
      <trkpt lat="48.76871" lon="2.50823">
        <ele>34.8</ele>
        <time>2025-03-15T16:26:32Z</time>
      </trkpt>
      <trkpt lat="48.76863" lon="2.50823">
        <ele>35</ele>
        <time>2025-03-15T16:26:37Z</time>
      </trkpt>
      <trkpt lat="48.76861" lon="2.50822">
        <ele>35</ele>
        <time>2025-03-15T16:26:38Z</time>
      </trkpt>
      <trkpt lat="48.7686" lon="2.50823">
        <ele>35</ele>
        <time>2025-03-15T16:26:39Z</time>
      </trkpt>
      <trkpt lat="48.76835" lon="2.50828">
        <ele>35.4</ele>
        <time>2025-03-15T16:26:56Z</time>
      </trkpt>
      <trkpt lat="48.76813" lon="2.50831">
        <ele>35.8</ele>
        <time>2025-03-15T16:27:11Z</time>
      </trkpt>
      <trkpt lat="48.76785" lon="2.50836">
        <ele>36</ele>
        <time>2025-03-15T16:27:29Z</time>
      </trkpt>
      <trkpt lat="48.76782" lon="2.50836">
        <ele>36.6</ele>
        <time>2025-03-15T16:27:45Z</time>
      </trkpt>
      <trkpt lat="48.7678" lon="2.50838">
        <ele>36.4</ele>
        <time>2025-03-15T16:27:55Z</time>
      </trkpt>
      <trkpt lat="48.76779" lon="2.50838">
        <ele>36.4</ele>
        <time>2025-03-15T16:27:56Z</time>
      </trkpt>
      <trkpt lat="48.76777" lon="2.50839">
        <ele>36.2</ele>
        <time>2025-03-15T16:27:57Z</time>
      </trkpt>
      <trkpt lat="48.76776" lon="2.5084">
        <ele>36</ele>
        <time>2025-03-15T16:27:58Z</time>
      </trkpt>
      <trkpt lat="48.76774" lon="2.50842">
        <ele>36</ele>
        <time>2025-03-15T16:27:59Z</time>
      </trkpt>
      <trkpt lat="48.76773" lon="2.50843">
        <ele>36</ele>
        <time>2025-03-15T16:28:00Z</time>
      </trkpt>
      <trkpt lat="48.76772" lon="2.50844">
        <ele>36</ele>
        <time>2025-03-15T16:28:01Z</time>
      </trkpt>
      <trkpt lat="48.76771" lon="2.50844">
        <ele>36</ele>
        <time>2025-03-15T16:28:02Z</time>
      </trkpt>
      <trkpt lat="48.76769" lon="2.50845">
        <ele>36</ele>
        <time>2025-03-15T16:28:03Z</time>
      </trkpt>
      <trkpt lat="48.76743" lon="2.50853">
        <ele>36.8</ele>
        <time>2025-03-15T16:28:20Z</time>
      </trkpt>
      <trkpt lat="48.76716" lon="2.50861">
        <ele>36.8</ele>
        <time>2025-03-15T16:28:38Z</time>
      </trkpt>
      <trkpt lat="48.76691" lon="2.50874">
        <ele>37.4</ele>
        <time>2025-03-15T16:28:55Z</time>
      </trkpt>
      <trkpt lat="48.76688" lon="2.50876">
        <ele>37.6</ele>
        <time>2025-03-15T16:28:57Z</time>
      </trkpt>
      <trkpt lat="48.76687" lon="2.50877">
        <ele>37.6</ele>
        <time>2025-03-15T16:28:58Z</time>
      </trkpt>
      <trkpt lat="48.76685" lon="2.50879">
        <ele>37.6</ele>
        <time>2025-03-15T16:28:59Z</time>
      </trkpt>
      <trkpt lat="48.76666" lon="2.50887">
        <ele>37.6</ele>
        <time>2025-03-15T16:29:12Z</time>
      </trkpt>
      <trkpt lat="48.76664" lon="2.50888">
        <ele>37.6</ele>
        <time>2025-03-15T16:29:13Z</time>
      </trkpt>
      <trkpt lat="48.76663" lon="2.50889">
        <ele>37.8</ele>
        <time>2025-03-15T16:29:14Z</time>
      </trkpt>
      <trkpt lat="48.76647" lon="2.50903">
        <ele>38.2</ele>
        <time>2025-03-15T16:29:26Z</time>
      </trkpt>
      <trkpt lat="48.76645" lon="2.50902">
        <ele>38</ele>
        <time>2025-03-15T16:29:27Z</time>
      </trkpt>
      <trkpt lat="48.76644" lon="2.50901">
        <ele>37.6</ele>
        <time>2025-03-15T16:29:28Z</time>
      </trkpt>
      <trkpt lat="48.76642" lon="2.50901">
        <ele>37.6</ele>
        <time>2025-03-15T16:29:29Z</time>
      </trkpt>
      <trkpt lat="48.76641" lon="2.50901">
        <ele>37.4</ele>
        <time>2025-03-15T16:29:30Z</time>
      </trkpt>
      <trkpt lat="48.76639" lon="2.509">
        <ele>37.2</ele>
        <time>2025-03-15T16:29:31Z</time>
      </trkpt>
      <trkpt lat="48.76638" lon="2.50899">
        <ele>37</ele>
        <time>2025-03-15T16:29:32Z</time>
      </trkpt>
      <trkpt lat="48.76637" lon="2.50897">
        <ele>36.8</ele>
        <time>2025-03-15T16:29:33Z</time>
      </trkpt>
      <trkpt lat="48.76636" lon="2.50894">
        <ele>36.8</ele>
        <time>2025-03-15T16:29:34Z</time>
      </trkpt>
      <trkpt lat="48.76636" lon="2.50892">
        <ele>36.6</ele>
        <time>2025-03-15T16:29:35Z</time>
      </trkpt>
      <trkpt lat="48.76635" lon="2.50889">
        <ele>36.6</ele>
        <time>2025-03-15T16:29:36Z</time>
      </trkpt>
      <trkpt lat="48.76628" lon="2.50871">
        <ele>36.6</ele>
        <time>2025-03-15T16:29:45Z</time>
      </trkpt>
      <trkpt lat="48.76628" lon="2.50869">
        <ele>36.6</ele>
        <time>2025-03-15T16:29:48Z</time>
      </trkpt>
      <trkpt lat="48.76627" lon="2.50869">
        <ele>36.6</ele>
        <time>2025-03-15T16:29:49Z</time>
      </trkpt>
      <trkpt lat="48.76625" lon="2.50868">
        <ele>36.6</ele>
        <time>2025-03-15T16:29:50Z</time>
      </trkpt>
      <trkpt lat="48.76624" lon="2.50866">
        <ele>36.6</ele>
        <time>2025-03-15T16:29:51Z</time>
      </trkpt>
      <trkpt lat="48.76621" lon="2.50865">
        <ele>36.6</ele>
        <time>2025-03-15T16:29:52Z</time>
      </trkpt>
      <trkpt lat="48.7659" lon="2.5086">
        <ele>36.4</ele>
        <time>2025-03-15T16:30:10Z</time>
      </trkpt>
      <trkpt lat="48.76561" lon="2.50863">
        <ele>36.2</ele>
        <time>2025-03-15T16:30:28Z</time>
      </trkpt>
      <trkpt lat="48.76542" lon="2.50884">
        <ele>35.6</ele>
        <time>2025-03-15T16:30:44Z</time>
      </trkpt>
      <trkpt lat="48.76541" lon="2.50885">
        <ele>35.6</ele>
        <time>2025-03-15T16:30:45Z</time>
      </trkpt>
      <trkpt lat="48.76539" lon="2.50885">
        <ele>35.6</ele>
        <time>2025-03-15T16:30:46Z</time>
      </trkpt>
      <trkpt lat="48.76524" lon="2.50861">
        <ele>35.8</ele>
        <time>2025-03-15T16:31:01Z</time>
      </trkpt>
      <trkpt lat="48.76499" lon="2.50846">
        <ele>36.6</ele>
        <time>2025-03-15T16:31:17Z</time>
      </trkpt>
      <trkpt lat="48.76479" lon="2.50844">
        <ele>37</ele>
        <time>2025-03-15T16:31:32Z</time>
      </trkpt>
      <trkpt lat="48.76446" lon="2.50864">
        <ele>36.6</ele>
        <time>2025-03-15T16:31:52Z</time>
      </trkpt>
      <trkpt lat="48.76425" lon="2.50875">
        <ele>36</ele>
        <time>2025-03-15T16:32:07Z</time>
      </trkpt>
      <trkpt lat="48.76397" lon="2.50884">
        <ele>37.6</ele>
        <time>2025-03-15T16:32:25Z</time>
      </trkpt>
      <trkpt lat="48.76372" lon="2.50887">
        <ele>38</ele>
        <time>2025-03-15T16:32:42Z</time>
      </trkpt>
      <trkpt lat="48.76337" lon="2.50888">
        <ele>38</ele>
        <time>2025-03-15T16:33:03Z</time>
      </trkpt>
      <trkpt lat="48.76307" lon="2.50891">
        <ele>38.4</ele>
        <time>2025-03-15T16:33:22Z</time>
      </trkpt>
      <trkpt lat="48.76286" lon="2.50901">
        <ele>38.4</ele>
        <time>2025-03-15T16:33:39Z</time>
      </trkpt>
      <trkpt lat="48.7628" lon="2.50905">
        <ele>37.6</ele>
        <time>2025-03-15T16:33:45Z</time>
      </trkpt>
      <trkpt lat="48.76278" lon="2.50906">
        <ele>37.6</ele>
        <time>2025-03-15T16:33:46Z</time>
      </trkpt>
      <trkpt lat="48.76276" lon="2.50907">
        <ele>37.4</ele>
        <time>2025-03-15T16:33:47Z</time>
      </trkpt>
      <trkpt lat="48.76274" lon="2.50907">
        <ele>37.4</ele>
        <time>2025-03-15T16:33:48Z</time>
      </trkpt>
      <trkpt lat="48.76273" lon="2.50908">
        <ele>37.4</ele>
        <time>2025-03-15T16:33:49Z</time>
      </trkpt>
      <trkpt lat="48.76252" lon="2.50924">
        <ele>37</ele>
        <time>2025-03-15T16:34:03Z</time>
      </trkpt>
      <trkpt lat="48.76236" lon="2.50944">
        <ele>37.2</ele>
        <time>2025-03-15T16:34:16Z</time>
      </trkpt>
      <trkpt lat="48.76229" lon="2.50952">
        <ele>37.6</ele>
        <time>2025-03-15T16:34:22Z</time>
      </trkpt>
      <trkpt lat="48.76227" lon="2.50954">
        <ele>37.6</ele>
        <time>2025-03-15T16:34:23Z</time>
      </trkpt>
      <trkpt lat="48.76213" lon="2.50973">
        <ele>38</ele>
        <time>2025-03-15T16:34:34Z</time>
      </trkpt>
      <trkpt lat="48.76201" lon="2.50986">
        <ele>38.6</ele>
        <time>2025-03-15T16:34:44Z</time>
      </trkpt>
      <trkpt lat="48.76183" lon="2.5097">
        <ele>39</ele>
        <time>2025-03-15T16:34:59Z</time>
      </trkpt>
      <trkpt lat="48.76166" lon="2.50948">
        <ele>40</ele>
        <time>2025-03-15T16:35:14Z</time>
      </trkpt>
      <trkpt lat="48.7615" lon="2.50928">
        <ele>40.6</ele>
        <time>2025-03-15T16:35:29Z</time>
      </trkpt>
      <trkpt lat="48.76136" lon="2.50909">
        <ele>40.8</ele>
        <time>2025-03-15T16:35:44Z</time>
      </trkpt>
      <trkpt lat="48.76117" lon="2.50886">
        <ele>40.8</ele>
        <time>2025-03-15T16:36:00Z</time>
      </trkpt>
      <trkpt lat="48.76114" lon="2.50884">
        <ele>40.8</ele>
        <time>2025-03-15T16:36:01Z</time>
      </trkpt>
      <trkpt lat="48.76112" lon="2.50882">
        <ele>40.8</ele>
        <time>2025-03-15T16:36:02Z</time>
      </trkpt>
      <trkpt lat="48.76111" lon="2.50881">
        <ele>40.8</ele>
        <time>2025-03-15T16:36:03Z</time>
      </trkpt>
      <trkpt lat="48.76088" lon="2.50859">
        <ele>40.8</ele>
        <time>2025-03-15T16:36:23Z</time>
      </trkpt>
      <trkpt lat="48.7608" lon="2.50849">
        <ele>40.6</ele>
        <time>2025-03-15T16:36:29Z</time>
      </trkpt>
      <trkpt lat="48.76079" lon="2.50848">
        <ele>40.6</ele>
        <time>2025-03-15T16:36:30Z</time>
      </trkpt>
      <trkpt lat="48.76053" lon="2.50827">
        <ele>40.6</ele>
        <time>2025-03-15T16:36:46Z</time>
      </trkpt>
      <trkpt lat="48.7603" lon="2.50815">
        <ele>40.8</ele>
        <time>2025-03-15T16:37:02Z</time>
      </trkpt>
      <trkpt lat="48.75999" lon="2.50808">
        <ele>40.8</ele>
        <time>2025-03-15T16:37:21Z</time>
      </trkpt>
      <trkpt lat="48.75967" lon="2.50807">
        <ele>41</ele>
        <time>2025-03-15T16:37:41Z</time>
      </trkpt>
      <trkpt lat="48.75936" lon="2.50806">
        <ele>40.8</ele>
        <time>2025-03-15T16:38:01Z</time>
      </trkpt>
      <trkpt lat="48.75912" lon="2.50802">
        <ele>40.4</ele>
        <time>2025-03-15T16:38:17Z</time>
      </trkpt>
      <trkpt lat="48.75884" lon="2.50797">
        <ele>40.8</ele>
        <time>2025-03-15T16:38:34Z</time>
      </trkpt>
      <trkpt lat="48.75856" lon="2.50798">
        <ele>41.6</ele>
        <time>2025-03-15T16:38:52Z</time>
      </trkpt>
      <trkpt lat="48.75848" lon="2.50798">
        <ele>41.8</ele>
        <time>2025-03-15T16:39:00Z</time>
      </trkpt>
      <trkpt lat="48.75848" lon="2.508">
        <ele>41.8</ele>
        <time>2025-03-15T16:39:01Z</time>
      </trkpt>
      <trkpt lat="48.75848" lon="2.50803">
        <ele>41.8</ele>
        <time>2025-03-15T16:39:02Z</time>
      </trkpt>
      <trkpt lat="48.75847" lon="2.50805">
        <ele>41.6</ele>
        <time>2025-03-15T16:39:03Z</time>
      </trkpt>
      <trkpt lat="48.75847" lon="2.50807">
        <ele>41.6</ele>
        <time>2025-03-15T16:39:04Z</time>
      </trkpt>
      <trkpt lat="48.75849" lon="2.50814">
        <ele>41.6</ele>
        <time>2025-03-15T16:39:08Z</time>
      </trkpt>
      <trkpt lat="48.7585" lon="2.50815">
        <ele>41.6</ele>
        <time>2025-03-15T16:39:09Z</time>
      </trkpt>
      <trkpt lat="48.75853" lon="2.50836">
        <ele>41.6</ele>
        <time>2025-03-15T16:39:22Z</time>
      </trkpt>
      <trkpt lat="48.7585" lon="2.50847">
        <ele>41.8</ele>
        <time>2025-03-15T16:39:29Z</time>
      </trkpt>
      <trkpt lat="48.75849" lon="2.50848">
        <ele>42</ele>
        <time>2025-03-15T16:39:30Z</time>
      </trkpt>
      <trkpt lat="48.75844" lon="2.50853">
        <ele>42</ele>
        <time>2025-03-15T16:39:35Z</time>
      </trkpt>
      <trkpt lat="48.7583" lon="2.50884">
        <ele>42</ele>
        <time>2025-03-15T16:39:55Z</time>
      </trkpt>
      <trkpt lat="48.75815" lon="2.50917">
        <ele>43.4</ele>
        <time>2025-03-15T16:40:14Z</time>
      </trkpt>
      <trkpt lat="48.758" lon="2.50952">
        <ele>43.6</ele>
        <time>2025-03-15T16:40:32Z</time>
      </trkpt>
      <trkpt lat="48.75786" lon="2.5098">
        <ele>44.2</ele>
        <time>2025-03-15T16:40:47Z</time>
      </trkpt>
      <trkpt lat="48.75771" lon="2.51017">
        <ele>44.6</ele>
        <time>2025-03-15T16:41:06Z</time>
      </trkpt>
      <trkpt lat="48.75757" lon="2.51044">
        <ele>45.8</ele>
        <time>2025-03-15T16:41:24Z</time>
      </trkpt>
      <trkpt lat="48.75756" lon="2.51047">
        <ele>45.8</ele>
        <time>2025-03-15T16:41:26Z</time>
      </trkpt>
      <trkpt lat="48.75754" lon="2.51049">
        <ele>45.8</ele>
        <time>2025-03-15T16:41:27Z</time>
      </trkpt>
      <trkpt lat="48.75753" lon="2.51052">
        <ele>46</ele>
        <time>2025-03-15T16:41:29Z</time>
      </trkpt>
      <trkpt lat="48.75743" lon="2.51087">
        <ele>46.6</ele>
        <time>2025-03-15T16:41:46Z</time>
      </trkpt>
      <trkpt lat="48.7573" lon="2.51116">
        <ele>47.4</ele>
        <time>2025-03-15T16:42:03Z</time>
      </trkpt>
      <trkpt lat="48.75719" lon="2.51142">
        <ele>48</ele>
        <time>2025-03-15T16:42:17Z</time>
      </trkpt>
      <trkpt lat="48.75703" lon="2.51178">
        <ele>49</ele>
        <time>2025-03-15T16:42:36Z</time>
      </trkpt>
      <trkpt lat="48.75691" lon="2.51206">
        <ele>50</ele>
        <time>2025-03-15T16:42:52Z</time>
      </trkpt>
      <trkpt lat="48.75681" lon="2.51228">
        <ele>51.6</ele>
        <time>2025-03-15T16:43:07Z</time>
      </trkpt>
      <trkpt lat="48.75666" lon="2.51267">
        <ele>53</ele>
        <time>2025-03-15T16:43:25Z</time>
      </trkpt>
      <trkpt lat="48.75649" lon="2.51307">
        <ele>56</ele>
        <time>2025-03-15T16:43:46Z</time>
      </trkpt>
      <trkpt lat="48.75636" lon="2.5134">
        <ele>57.6</ele>
        <time>2025-03-15T16:44:04Z</time>
      </trkpt>
      <trkpt lat="48.75622" lon="2.51367">
        <ele>59.2</ele>
        <time>2025-03-15T16:44:20Z</time>
      </trkpt>
      <trkpt lat="48.75612" lon="2.51389">
        <ele>61.4</ele>
        <time>2025-03-15T16:44:34Z</time>
      </trkpt>
      <trkpt lat="48.756" lon="2.51421">
        <ele>63</ele>
        <time>2025-03-15T16:44:50Z</time>
      </trkpt>
      <trkpt lat="48.75581" lon="2.51462">
        <ele>65.8</ele>
        <time>2025-03-15T16:45:12Z</time>
      </trkpt>
      <trkpt lat="48.75568" lon="2.51496">
        <ele>69</ele>
        <time>2025-03-15T16:45:30Z</time>
      </trkpt>
      <trkpt lat="48.75557" lon="2.51521">
        <ele>70.8</ele>
        <time>2025-03-15T16:45:47Z</time>
      </trkpt>
      <trkpt lat="48.75539" lon="2.51556">
        <ele>74</ele>
        <time>2025-03-15T16:46:06Z</time>
      </trkpt>
      <trkpt lat="48.75531" lon="2.51582">
        <ele>75.8</ele>
        <time>2025-03-15T16:46:21Z</time>
      </trkpt>
      <trkpt lat="48.75515" lon="2.51618">
        <ele>76.2</ele>
        <time>2025-03-15T16:46:44Z</time>
      </trkpt>
      <trkpt lat="48.75516" lon="2.51619">
        <ele>78.2</ele>
        <time>2025-03-15T16:47:04Z</time>
      </trkpt>
      <trkpt lat="48.75514" lon="2.51615">
        <ele>78.2</ele>
        <time>2025-03-15T16:47:57Z</time>
      </trkpt>
      <trkpt lat="48.75514" lon="2.51614">
        <ele>78.2</ele>
        <time>2025-03-15T16:48:47Z</time>
      </trkpt>
      <trkpt lat="48.75513" lon="2.51615">
        <ele>78</ele>
        <time>2025-03-15T16:49:37Z</time>
      </trkpt>
      <trkpt lat="48.75509" lon="2.51619">
        <ele>78.6</ele>
        <time>2025-03-15T16:49:45Z</time>
      </trkpt>
      <trkpt lat="48.75509" lon="2.5162">
        <ele>78.6</ele>
        <time>2025-03-15T16:49:46Z</time>
      </trkpt>
      <trkpt lat="48.75508" lon="2.51621">
        <ele>78</ele>
        <time>2025-03-15T16:49:47Z</time>
      </trkpt>
      <trkpt lat="48.75507" lon="2.51623">
        <ele>77.6</ele>
        <time>2025-03-15T16:49:48Z</time>
      </trkpt>
      <trkpt lat="48.75506" lon="2.51625">
        <ele>77.4</ele>
        <time>2025-03-15T16:49:49Z</time>
      </trkpt>
      <trkpt lat="48.75505" lon="2.51626">
        <ele>77.4</ele>
        <time>2025-03-15T16:49:50Z</time>
      </trkpt>
      <trkpt lat="48.75504" lon="2.51628">
        <ele>77.4</ele>
        <time>2025-03-15T16:49:51Z</time>
      </trkpt>
      <trkpt lat="48.75492" lon="2.51657">
        <ele>80</ele>
        <time>2025-03-15T16:50:07Z</time>
      </trkpt>
      <trkpt lat="48.75486" lon="2.51679">
        <ele>80.6</ele>
        <time>2025-03-15T16:50:19Z</time>
      </trkpt>
      <trkpt lat="48.75485" lon="2.51684">
        <ele>80.8</ele>
        <time>2025-03-15T16:50:22Z</time>
      </trkpt>
      <trkpt lat="48.75484" lon="2.51686">
        <ele>80.8</ele>
        <time>2025-03-15T16:50:23Z</time>
      </trkpt>
      <trkpt lat="48.75473" lon="2.51705">
        <ele>83.2</ele>
        <time>2025-03-15T16:50:36Z</time>
      </trkpt>
      <trkpt lat="48.7546" lon="2.51736">
        <ele>83.4</ele>
        <time>2025-03-15T16:50:51Z</time>
      </trkpt>
      <trkpt lat="48.75446" lon="2.51778">
        <ele>84.8</ele>
        <time>2025-03-15T16:51:10Z</time>
      </trkpt>
      <trkpt lat="48.75429" lon="2.5182">
        <ele>85.6</ele>
        <time>2025-03-15T16:51:31Z</time>
      </trkpt>
      <trkpt lat="48.75414" lon="2.51861">
        <ele>87.2</ele>
        <time>2025-03-15T16:51:51Z</time>
      </trkpt>
      <trkpt lat="48.75403" lon="2.51903">
        <ele>88.4</ele>
        <time>2025-03-15T16:52:11Z</time>
      </trkpt>
      <trkpt lat="48.75403" lon="2.51908">
        <ele>88.6</ele>
        <time>2025-03-15T16:52:13Z</time>
      </trkpt>
      <trkpt lat="48.75391" lon="2.5194">
        <ele>89</ele>
        <time>2025-03-15T16:52:30Z</time>
      </trkpt>
      <trkpt lat="48.7538" lon="2.51977">
        <ele>89.2</ele>
        <time>2025-03-15T16:52:48Z</time>
      </trkpt>
      <trkpt lat="48.75377" lon="2.51987">
        <ele>89.6</ele>
        <time>2025-03-15T16:52:53Z</time>
      </trkpt>
      <trkpt lat="48.75376" lon="2.51989">
        <ele>89.6</ele>
        <time>2025-03-15T16:52:54Z</time>
      </trkpt>
      <trkpt lat="48.75375" lon="2.51991">
        <ele>89.8</ele>
        <time>2025-03-15T16:52:55Z</time>
      </trkpt>
      <trkpt lat="48.75374" lon="2.51993">
        <ele>89.8</ele>
        <time>2025-03-15T16:52:56Z</time>
      </trkpt>
      <trkpt lat="48.75374" lon="2.51995">
        <ele>89.8</ele>
        <time>2025-03-15T16:52:57Z</time>
      </trkpt>
      <trkpt lat="48.75373" lon="2.51997">
        <ele>89.8</ele>
        <time>2025-03-15T16:52:58Z</time>
      </trkpt>
      <trkpt lat="48.75372" lon="2.52">
        <ele>89.8</ele>
        <time>2025-03-15T16:52:59Z</time>
      </trkpt>
      <trkpt lat="48.75365" lon="2.52037">
        <ele>89.8</ele>
        <time>2025-03-15T16:53:15Z</time>
      </trkpt>
      <trkpt lat="48.75361" lon="2.52065">
        <ele>89.8</ele>
        <time>2025-03-15T16:53:29Z</time>
      </trkpt>
      <trkpt lat="48.75358" lon="2.52101">
        <ele>90</ele>
        <time>2025-03-15T16:53:43Z</time>
      </trkpt>
      <trkpt lat="48.7535" lon="2.52141">
        <ele>90.4</ele>
        <time>2025-03-15T16:53:59Z</time>
      </trkpt>
      <trkpt lat="48.75344" lon="2.52176">
        <ele>91</ele>
        <time>2025-03-15T16:54:15Z</time>
      </trkpt>
      <trkpt lat="48.75339" lon="2.5222">
        <ele>89</ele>
        <time>2025-03-15T16:54:32Z</time>
      </trkpt>
      <trkpt lat="48.75336" lon="2.52256">
        <ele>89.6</ele>
        <time>2025-03-15T16:54:48Z</time>
      </trkpt>
      <trkpt lat="48.75341" lon="2.52291">
        <ele>91.2</ele>
        <time>2025-03-15T16:55:05Z</time>
      </trkpt>
      <trkpt lat="48.75338" lon="2.523">
        <ele>91.8</ele>
        <time>2025-03-15T16:55:17Z</time>
      </trkpt>
      <trkpt lat="48.75336" lon="2.52301">
        <ele>91.6</ele>
        <time>2025-03-15T16:55:18Z</time>
      </trkpt>
      <trkpt lat="48.75335" lon="2.52302">
        <ele>91.4</ele>
        <time>2025-03-15T16:55:19Z</time>
      </trkpt>
      <trkpt lat="48.75335" lon="2.52304">
        <ele>91</ele>
        <time>2025-03-15T16:55:20Z</time>
      </trkpt>
      <trkpt lat="48.75334" lon="2.52307">
        <ele>90.8</ele>
        <time>2025-03-15T16:55:21Z</time>
      </trkpt>
      <trkpt lat="48.75333" lon="2.52309">
        <ele>90.8</ele>
        <time>2025-03-15T16:55:22Z</time>
      </trkpt>
      <trkpt lat="48.75333" lon="2.52312">
        <ele>90.8</ele>
        <time>2025-03-15T16:55:23Z</time>
      </trkpt>
      <trkpt lat="48.75325" lon="2.52349">
        <ele>91</ele>
        <time>2025-03-15T16:55:40Z</time>
      </trkpt>
      <trkpt lat="48.75316" lon="2.52393">
        <ele>91.4</ele>
        <time>2025-03-15T16:55:59Z</time>
      </trkpt>
      <trkpt lat="48.7531" lon="2.52426">
        <ele>91.2</ele>
        <time>2025-03-15T16:56:15Z</time>
      </trkpt>
      <trkpt lat="48.753" lon="2.52475">
        <ele>91.4</ele>
        <time>2025-03-15T16:56:36Z</time>
      </trkpt>
      <trkpt lat="48.75291" lon="2.52515">
        <ele>91</ele>
        <time>2025-03-15T16:56:54Z</time>
      </trkpt>
      <trkpt lat="48.75282" lon="2.52561">
        <ele>91.2</ele>
        <time>2025-03-15T16:57:15Z</time>
      </trkpt>
      <trkpt lat="48.75272" lon="2.52599">
        <ele>91.4</ele>
        <time>2025-03-15T16:57:33Z</time>
      </trkpt>
      <trkpt lat="48.75264" lon="2.52637">
        <ele>91</ele>
        <time>2025-03-15T16:57:50Z</time>
      </trkpt>
      <trkpt lat="48.75258" lon="2.52673">
        <ele>91</ele>
        <time>2025-03-15T16:58:05Z</time>
      </trkpt>
      <trkpt lat="48.75247" lon="2.5273">
        <ele>91.4</ele>
        <time>2025-03-15T16:58:30Z</time>
      </trkpt>
      <trkpt lat="48.75239" lon="2.52771">
        <ele>92</ele>
        <time>2025-03-15T16:58:49Z</time>
      </trkpt>
      <trkpt lat="48.75231" lon="2.52808">
        <ele>92</ele>
        <time>2025-03-15T16:59:07Z</time>
      </trkpt>
      <trkpt lat="48.75222" lon="2.52849">
        <ele>92.4</ele>
        <time>2025-03-15T16:59:26Z</time>
      </trkpt>
      <trkpt lat="48.75214" lon="2.52894">
        <ele>92.2</ele>
        <time>2025-03-15T16:59:45Z</time>
      </trkpt>
      <trkpt lat="48.75204" lon="2.52937">
        <ele>92</ele>
        <time>2025-03-15T17:00:05Z</time>
      </trkpt>
      <trkpt lat="48.75197" lon="2.52976">
        <ele>91.8</ele>
        <time>2025-03-15T17:00:23Z</time>
      </trkpt>
      <trkpt lat="48.75188" lon="2.53015">
        <ele>91.8</ele>
        <time>2025-03-15T17:00:40Z</time>
      </trkpt>
      <trkpt lat="48.75178" lon="2.53061">
        <ele>92</ele>
        <time>2025-03-15T17:01:01Z</time>
      </trkpt>
      <trkpt lat="48.75167" lon="2.53112">
        <ele>92</ele>
        <time>2025-03-15T17:01:24Z</time>
      </trkpt>
      <trkpt lat="48.75159" lon="2.53153">
        <ele>91.6</ele>
        <time>2025-03-15T17:01:43Z</time>
      </trkpt>
      <trkpt lat="48.7515" lon="2.53198">
        <ele>91.4</ele>
        <time>2025-03-15T17:02:04Z</time>
      </trkpt>
      <trkpt lat="48.75142" lon="2.53236">
        <ele>90.6</ele>
        <time>2025-03-15T17:02:21Z</time>
      </trkpt>
      <trkpt lat="48.75132" lon="2.5328">
        <ele>91.8</ele>
        <time>2025-03-15T17:02:41Z</time>
      </trkpt>
      <trkpt lat="48.75121" lon="2.53332">
        <ele>92</ele>
        <time>2025-03-15T17:03:04Z</time>
      </trkpt>
      <trkpt lat="48.75112" lon="2.53372">
        <ele>91.8</ele>
        <time>2025-03-15T17:03:22Z</time>
      </trkpt>
      <trkpt lat="48.75106" lon="2.53392">
        <ele>92.2</ele>
        <time>2025-03-15T17:03:33Z</time>
      </trkpt>
      <trkpt lat="48.75104" lon="2.53392">
        <ele>92.2</ele>
        <time>2025-03-15T17:03:34Z</time>
      </trkpt>
      <trkpt lat="48.75072" lon="2.53382">
        <ele>92.8</ele>
        <time>2025-03-15T17:03:57Z</time>
      </trkpt>
      <trkpt lat="48.75061" lon="2.53419">
        <ele>92.4</ele>
        <time>2025-03-15T17:04:15Z</time>
      </trkpt>
      <trkpt lat="48.75051" lon="2.53466">
        <ele>92.2</ele>
        <time>2025-03-15T17:04:36Z</time>
      </trkpt>
      <trkpt lat="48.7504" lon="2.53521">
        <ele>92.2</ele>
        <time>2025-03-15T17:05:00Z</time>
      </trkpt>
      <trkpt lat="48.7503" lon="2.53568">
        <ele>92.6</ele>
        <time>2025-03-15T17:05:22Z</time>
      </trkpt>
      <trkpt lat="48.75021" lon="2.53618">
        <ele>92.6</ele>
        <time>2025-03-15T17:05:44Z</time>
      </trkpt>
      <trkpt lat="48.75011" lon="2.53664">
        <ele>92.4</ele>
        <time>2025-03-15T17:06:06Z</time>
      </trkpt>
      <trkpt lat="48.75" lon="2.53712">
        <ele>92.6</ele>
        <time>2025-03-15T17:06:28Z</time>
      </trkpt>
      <trkpt lat="48.7499" lon="2.53748">
        <ele>92.6</ele>
        <time>2025-03-15T17:06:46Z</time>
      </trkpt>
      <trkpt lat="48.74969" lon="2.53773">
        <ele>92.4</ele>
        <time>2025-03-15T17:07:05Z</time>
      </trkpt>
      <trkpt lat="48.7496" lon="2.5381">
        <ele>93.2</ele>
        <time>2025-03-15T17:07:22Z</time>
      </trkpt>
      <trkpt lat="48.74949" lon="2.53856">
        <ele>90.8</ele>
        <time>2025-03-15T17:07:43Z</time>
      </trkpt>
      <trkpt lat="48.74938" lon="2.53904">
        <ele>92</ele>
        <time>2025-03-15T17:08:05Z</time>
      </trkpt>
      <trkpt lat="48.74928" lon="2.53949">
        <ele>92.4</ele>
        <time>2025-03-15T17:08:26Z</time>
      </trkpt>
      <trkpt lat="48.74921" lon="2.53972">
        <ele>92.2</ele>
        <time>2025-03-15T17:08:37Z</time>
      </trkpt>
      <trkpt lat="48.74921" lon="2.53974">
        <ele>92.2</ele>
        <time>2025-03-15T17:08:38Z</time>
      </trkpt>
      <trkpt lat="48.74922" lon="2.5398">
        <ele>92.4</ele>
        <time>2025-03-15T17:08:41Z</time>
      </trkpt>
      <trkpt lat="48.74921" lon="2.53982">
        <ele>92.4</ele>
        <time>2025-03-15T17:08:42Z</time>
      </trkpt>
      <trkpt lat="48.74921" lon="2.53984">
        <ele>92.6</ele>
        <time>2025-03-15T17:08:43Z</time>
      </trkpt>
      <trkpt lat="48.74922" lon="2.53986">
        <ele>92.6</ele>
        <time>2025-03-15T17:08:44Z</time>
      </trkpt>
      <trkpt lat="48.74923" lon="2.53988">
        <ele>92.6</ele>
        <time>2025-03-15T17:08:45Z</time>
      </trkpt>
      <trkpt lat="48.74941" lon="2.54004">
        <ele>92.6</ele>
        <time>2025-03-15T17:09:00Z</time>
      </trkpt>
      <trkpt lat="48.74963" lon="2.5402">
        <ele>91.2</ele>
        <time>2025-03-15T17:09:17Z</time>
      </trkpt>
      <trkpt lat="48.7497" lon="2.54042">
        <ele>92</ele>
        <time>2025-03-15T17:09:32Z</time>
      </trkpt>
      <trkpt lat="48.74963" lon="2.54084">
        <ele>91.4</ele>
        <time>2025-03-15T17:09:51Z</time>
      </trkpt>
      <trkpt lat="48.74952" lon="2.54132">
        <ele>92.4</ele>
        <time>2025-03-15T17:10:13Z</time>
      </trkpt>
      <trkpt lat="48.74947" lon="2.54175">
        <ele>92.2</ele>
        <time>2025-03-15T17:10:31Z</time>
      </trkpt>
      <trkpt lat="48.74939" lon="2.54216">
        <ele>92.2</ele>
        <time>2025-03-15T17:10:50Z</time>
      </trkpt>
      <trkpt lat="48.74934" lon="2.54237">
        <ele>92.2</ele>
        <time>2025-03-15T17:11:00Z</time>
      </trkpt>
      <trkpt lat="48.74934" lon="2.5424">
        <ele>92.4</ele>
        <time>2025-03-15T17:11:01Z</time>
      </trkpt>
      <trkpt lat="48.74934" lon="2.54242">
        <ele>92.2</ele>
        <time>2025-03-15T17:11:02Z</time>
      </trkpt>
      <trkpt lat="48.74926" lon="2.54278">
        <ele>92.2</ele>
        <time>2025-03-15T17:11:19Z</time>
      </trkpt>
      <trkpt lat="48.74923" lon="2.54295">
        <ele>92</ele>
        <time>2025-03-15T17:11:26Z</time>
      </trkpt>
      <trkpt lat="48.74922" lon="2.54297">
        <ele>92</ele>
        <time>2025-03-15T17:11:27Z</time>
      </trkpt>
      <trkpt lat="48.74922" lon="2.54298">
        <ele>92</ele>
        <time>2025-03-15T17:11:28Z</time>
      </trkpt>
      <trkpt lat="48.74912" lon="2.54328">
        <ele>92</ele>
        <time>2025-03-15T17:11:43Z</time>
      </trkpt>
      <trkpt lat="48.74905" lon="2.54369">
        <ele>92</ele>
        <time>2025-03-15T17:12:03Z</time>
      </trkpt>
      <trkpt lat="48.74899" lon="2.54405">
        <ele>92.4</ele>
        <time>2025-03-15T17:12:17Z</time>
      </trkpt>
      <trkpt lat="48.74898" lon="2.54407">
        <ele>92.4</ele>
        <time>2025-03-15T17:12:18Z</time>
      </trkpt>
      <trkpt lat="48.74898" lon="2.54409">
        <ele>92.2</ele>
        <time>2025-03-15T17:12:19Z</time>
      </trkpt>
      <trkpt lat="48.74898" lon="2.54411">
        <ele>91.6</ele>
        <time>2025-03-15T17:12:20Z</time>
      </trkpt>
      <trkpt lat="48.74898" lon="2.54413">
        <ele>91.4</ele>
        <time>2025-03-15T17:12:21Z</time>
      </trkpt>
      <trkpt lat="48.74898" lon="2.54416">
        <ele>91.4</ele>
        <time>2025-03-15T17:12:22Z</time>
      </trkpt>
      <trkpt lat="48.74886" lon="2.54461">
        <ele>90.2</ele>
        <time>2025-03-15T17:12:40Z</time>
      </trkpt>
      <trkpt lat="48.74877" lon="2.54507">
        <ele>90.4</ele>
        <time>2025-03-15T17:13:00Z</time>
      </trkpt>
      <trkpt lat="48.74876" lon="2.5451">
        <ele>90.4</ele>
        <time>2025-03-15T17:13:01Z</time>
      </trkpt>
      <trkpt lat="48.74866" lon="2.54544">
        <ele>91</ele>
        <time>2025-03-15T17:13:17Z</time>
      </trkpt>
      <trkpt lat="48.74859" lon="2.54581">
        <ele>91</ele>
        <time>2025-03-15T17:13:34Z</time>
      </trkpt>
      <trkpt lat="48.74853" lon="2.54611">
        <ele>91.2</ele>
        <time>2025-03-15T17:13:48Z</time>
      </trkpt>
      <trkpt lat="48.74845" lon="2.54653">
        <ele>91</ele>
        <time>2025-03-15T17:14:06Z</time>
      </trkpt>
      <trkpt lat="48.74839" lon="2.54693">
        <ele>90.8</ele>
        <time>2025-03-15T17:14:25Z</time>
      </trkpt>
      <trkpt lat="48.74829" lon="2.54734">
        <ele>90.8</ele>
        <time>2025-03-15T17:14:43Z</time>
      </trkpt>
      <trkpt lat="48.74818" lon="2.5478">
        <ele>91</ele>
        <time>2025-03-15T17:15:04Z</time>
      </trkpt>
      <trkpt lat="48.74809" lon="2.54827">
        <ele>90.8</ele>
        <time>2025-03-15T17:15:25Z</time>
      </trkpt>
      <trkpt lat="48.74802" lon="2.54864">
        <ele>91.2</ele>
        <time>2025-03-15T17:15:43Z</time>
      </trkpt>
      <trkpt lat="48.74794" lon="2.54901">
        <ele>91.2</ele>
        <time>2025-03-15T17:16:01Z</time>
      </trkpt>
      <trkpt lat="48.74784" lon="2.54941">
        <ele>91</ele>
        <time>2025-03-15T17:16:19Z</time>
      </trkpt>
      <trkpt lat="48.74777" lon="2.54975">
        <ele>91.2</ele>
        <time>2025-03-15T17:16:35Z</time>
      </trkpt>
      <trkpt lat="48.74767" lon="2.55025">
        <ele>91</ele>
        <time>2025-03-15T17:16:57Z</time>
      </trkpt>
      <trkpt lat="48.74758" lon="2.55065">
        <ele>91.2</ele>
        <time>2025-03-15T17:17:15Z</time>
      </trkpt>
      <trkpt lat="48.7475" lon="2.55101">
        <ele>91.4</ele>
        <time>2025-03-15T17:17:33Z</time>
      </trkpt>
      <trkpt lat="48.74743" lon="2.55137">
        <ele>91.2</ele>
        <time>2025-03-15T17:17:49Z</time>
      </trkpt>
      <trkpt lat="48.74735" lon="2.55175">
        <ele>90.6</ele>
        <time>2025-03-15T17:18:06Z</time>
      </trkpt>
      <trkpt lat="48.74734" lon="2.55185">
        <ele>90.4</ele>
        <time>2025-03-15T17:18:10Z</time>
      </trkpt>
      <trkpt lat="48.74724" lon="2.55231">
        <ele>89.8</ele>
        <time>2025-03-15T17:18:30Z</time>
      </trkpt>
      <trkpt lat="48.74715" lon="2.55269">
        <ele>89.2</ele>
        <time>2025-03-15T17:18:47Z</time>
      </trkpt>
      <trkpt lat="48.74709" lon="2.55303">
        <ele>89</ele>
        <time>2025-03-15T17:19:03Z</time>
      </trkpt>
      <trkpt lat="48.74705" lon="2.55326">
        <ele>89</ele>
        <time>2025-03-15T17:19:13Z</time>
      </trkpt>
      <trkpt lat="48.74704" lon="2.55335">
        <ele>89</ele>
        <time>2025-03-15T17:19:17Z</time>
      </trkpt>
      <trkpt lat="48.74696" lon="2.55369">
        <ele>88.4</ele>
        <time>2025-03-15T17:19:33Z</time>
      </trkpt>
      <trkpt lat="48.74684" lon="2.55412">
        <ele>88</ele>
        <time>2025-03-15T17:19:52Z</time>
      </trkpt>
      <trkpt lat="48.74679" lon="2.55437">
        <ele>85</ele>
        <time>2025-03-15T17:20:03Z</time>
      </trkpt>
      <trkpt lat="48.7467" lon="2.55476">
        <ele>85.2</ele>
        <time>2025-03-15T17:20:21Z</time>
      </trkpt>
      <trkpt lat="48.74661" lon="2.55523">
        <ele>86.8</ele>
        <time>2025-03-15T17:20:43Z</time>
      </trkpt>
      <trkpt lat="48.74652" lon="2.55564">
        <ele>88</ele>
        <time>2025-03-15T17:21:02Z</time>
      </trkpt>
      <trkpt lat="48.74644" lon="2.55612">
        <ele>89</ele>
        <time>2025-03-15T17:21:23Z</time>
      </trkpt>
      <trkpt lat="48.74634" lon="2.55654">
        <ele>89.8</ele>
        <time>2025-03-15T17:21:42Z</time>
      </trkpt>
      <trkpt lat="48.74629" lon="2.55685">
        <ele>89.2</ele>
        <time>2025-03-15T17:21:57Z</time>
      </trkpt>
      <trkpt lat="48.74631" lon="2.55709">
        <ele>89</ele>
        <time>2025-03-15T17:22:13Z</time>
      </trkpt>
      <trkpt lat="48.74641" lon="2.55723">
        <ele>89.4</ele>
        <time>2025-03-15T17:22:29Z</time>
      </trkpt>
      <trkpt lat="48.74642" lon="2.55727">
        <ele>89.4</ele>
        <time>2025-03-15T17:22:30Z</time>
      </trkpt>
      <trkpt lat="48.74641" lon="2.55729">
        <ele>89.2</ele>
        <time>2025-03-15T17:22:31Z</time>
      </trkpt>
      <trkpt lat="48.74641" lon="2.55731">
        <ele>89.2</ele>
        <time>2025-03-15T17:22:32Z</time>
      </trkpt>
      <trkpt lat="48.74641" lon="2.55734">
        <ele>89.2</ele>
        <time>2025-03-15T17:22:33Z</time>
      </trkpt>
      <trkpt lat="48.74641" lon="2.55736">
        <ele>88.8</ele>
        <time>2025-03-15T17:22:34Z</time>
      </trkpt>
      <trkpt lat="48.7464" lon="2.55738">
        <ele>88.8</ele>
        <time>2025-03-15T17:22:35Z</time>
      </trkpt>
      <trkpt lat="48.74638" lon="2.5575">
        <ele>88.4</ele>
        <time>2025-03-15T17:22:40Z</time>
      </trkpt>
      <trkpt lat="48.74637" lon="2.55752">
        <ele>88.2</ele>
        <time>2025-03-15T17:22:41Z</time>
      </trkpt>
      <trkpt lat="48.74637" lon="2.55754">
        <ele>88.2</ele>
        <time>2025-03-15T17:22:42Z</time>
      </trkpt>
      <trkpt lat="48.74636" lon="2.55756">
        <ele>88.2</ele>
        <time>2025-03-15T17:22:43Z</time>
      </trkpt>
      <trkpt lat="48.74635" lon="2.55758">
        <ele>88.2</ele>
        <time>2025-03-15T17:22:44Z</time>
      </trkpt>
      <trkpt lat="48.74634" lon="2.55759">
        <ele>88.2</ele>
        <time>2025-03-15T17:22:45Z</time>
      </trkpt>
      <trkpt lat="48.74633" lon="2.55761">
        <ele>88.4</ele>
        <time>2025-03-15T17:22:46Z</time>
      </trkpt>
      <trkpt lat="48.74632" lon="2.55762">
        <ele>88.6</ele>
        <time>2025-03-15T17:22:47Z</time>
      </trkpt>
      <trkpt lat="48.74631" lon="2.55764">
        <ele>88.6</ele>
        <time>2025-03-15T17:22:48Z</time>
      </trkpt>
      <trkpt lat="48.7463" lon="2.55765">
        <ele>88.8</ele>
        <time>2025-03-15T17:22:49Z</time>
      </trkpt>
      <trkpt lat="48.74618" lon="2.55794">
        <ele>89.6</ele>
        <time>2025-03-15T17:23:03Z</time>
      </trkpt>
      <trkpt lat="48.74599" lon="2.55827">
        <ele>90.4</ele>
        <time>2025-03-15T17:23:21Z</time>
      </trkpt>
      <trkpt lat="48.74577" lon="2.55865">
        <ele>91</ele>
        <time>2025-03-15T17:23:42Z</time>
      </trkpt>
      <trkpt lat="48.74577" lon="2.55867">
        <ele>91</ele>
        <time>2025-03-15T17:23:43Z</time>
      </trkpt>
      <trkpt lat="48.74576" lon="2.55869">
        <ele>90.8</ele>
        <time>2025-03-15T17:23:44Z</time>
      </trkpt>
      <trkpt lat="48.74576" lon="2.55871">
        <ele>90.8</ele>
        <time>2025-03-15T17:23:45Z</time>
      </trkpt>
      <trkpt lat="48.74555" lon="2.5591">
        <ele>91.2</ele>
        <time>2025-03-15T17:24:06Z</time>
      </trkpt>
      <trkpt lat="48.74532" lon="2.55949">
        <ele>91.2</ele>
        <time>2025-03-15T17:24:28Z</time>
      </trkpt>
      <trkpt lat="48.74509" lon="2.55989">
        <ele>91</ele>
        <time>2025-03-15T17:24:50Z</time>
      </trkpt>
      <trkpt lat="48.74489" lon="2.56025">
        <ele>90.8</ele>
        <time>2025-03-15T17:25:10Z</time>
      </trkpt>
      <trkpt lat="48.74467" lon="2.56064">
        <ele>90.6</ele>
        <time>2025-03-15T17:25:32Z</time>
      </trkpt>
      <trkpt lat="48.74451" lon="2.56094">
        <ele>90.6</ele>
        <time>2025-03-15T17:25:49Z</time>
      </trkpt>
      <trkpt lat="48.74434" lon="2.56128">
        <ele>90.8</ele>
        <time>2025-03-15T17:26:08Z</time>
      </trkpt>
      <trkpt lat="48.74418" lon="2.56157">
        <ele>91</ele>
        <time>2025-03-15T17:26:25Z</time>
      </trkpt>
      <trkpt lat="48.74396" lon="2.56187">
        <ele>90.4</ele>
        <time>2025-03-15T17:26:43Z</time>
      </trkpt>
      <trkpt lat="48.74379" lon="2.56217">
        <ele>90.2</ele>
        <time>2025-03-15T17:26:59Z</time>
      </trkpt>
      <trkpt lat="48.7436" lon="2.56249">
        <ele>90.2</ele>
        <time>2025-03-15T17:27:17Z</time>
      </trkpt>
      <trkpt lat="48.74343" lon="2.56282">
        <ele>90.2</ele>
        <time>2025-03-15T17:27:35Z</time>
      </trkpt>
      <trkpt lat="48.74327" lon="2.56308">
        <ele>90.2</ele>
        <time>2025-03-15T17:27:51Z</time>
      </trkpt>
      <trkpt lat="48.74311" lon="2.56339">
        <ele>90</ele>
        <time>2025-03-15T17:28:08Z</time>
      </trkpt>
      <trkpt lat="48.74293" lon="2.5637">
        <ele>89.8</ele>
        <time>2025-03-15T17:28:26Z</time>
      </trkpt>
      <trkpt lat="48.74278" lon="2.56398">
        <ele>90</ele>
        <time>2025-03-15T17:28:42Z</time>
      </trkpt>
      <trkpt lat="48.74262" lon="2.56431">
        <ele>89.8</ele>
        <time>2025-03-15T17:28:59Z</time>
      </trkpt>
      <trkpt lat="48.74243" lon="2.56459">
        <ele>89.4</ele>
        <time>2025-03-15T17:29:16Z</time>
      </trkpt>
      <trkpt lat="48.74225" lon="2.56491">
        <ele>89.4</ele>
        <time>2025-03-15T17:29:33Z</time>
      </trkpt>
      <trkpt lat="48.74207" lon="2.56519">
        <ele>89.6</ele>
        <time>2025-03-15T17:29:51Z</time>
      </trkpt>
      <trkpt lat="48.74186" lon="2.56557">
        <ele>90.2</ele>
        <time>2025-03-15T17:30:12Z</time>
      </trkpt>
      <trkpt lat="48.74173" lon="2.56584">
        <ele>90</ele>
        <time>2025-03-15T17:30:27Z</time>
      </trkpt>
      <trkpt lat="48.74153" lon="2.56619">
        <ele>90.2</ele>
        <time>2025-03-15T17:30:48Z</time>
      </trkpt>
      <trkpt lat="48.74137" lon="2.56647">
        <ele>90.6</ele>
        <time>2025-03-15T17:31:04Z</time>
      </trkpt>
      <trkpt lat="48.74124" lon="2.5667">
        <ele>90.2</ele>
        <time>2025-03-15T17:31:17Z</time>
      </trkpt>
      <trkpt lat="48.74103" lon="2.56709">
        <ele>90.2</ele>
        <time>2025-03-15T17:31:38Z</time>
      </trkpt>
      <trkpt lat="48.74084" lon="2.56743">
        <ele>90.2</ele>
        <time>2025-03-15T17:31:58Z</time>
      </trkpt>
      <trkpt lat="48.74066" lon="2.56776">
        <ele>90.4</ele>
        <time>2025-03-15T17:32:16Z</time>
      </trkpt>
      <trkpt lat="48.74051" lon="2.56802">
        <ele>90.4</ele>
        <time>2025-03-15T17:32:31Z</time>
      </trkpt>
      <trkpt lat="48.74036" lon="2.56829">
        <ele>89.8</ele>
        <time>2025-03-15T17:32:48Z</time>
      </trkpt>
      <trkpt lat="48.74019" lon="2.56862">
        <ele>90.2</ele>
        <time>2025-03-15T17:33:06Z</time>
      </trkpt>
      <trkpt lat="48.74" lon="2.56891">
        <ele>90.4</ele>
        <time>2025-03-15T17:33:23Z</time>
      </trkpt>
      <trkpt lat="48.73992" lon="2.56903">
        <ele>90.6</ele>
        <time>2025-03-15T17:33:31Z</time>
      </trkpt>
      <trkpt lat="48.73991" lon="2.56905">
        <ele>90.6</ele>
        <time>2025-03-15T17:33:32Z</time>
      </trkpt>
      <trkpt lat="48.73977" lon="2.56932">
        <ele>90.4</ele>
        <time>2025-03-15T17:33:47Z</time>
      </trkpt>
      <trkpt lat="48.73962" lon="2.56963">
        <ele>90.2</ele>
        <time>2025-03-15T17:34:04Z</time>
      </trkpt>
      <trkpt lat="48.73946" lon="2.56992">
        <ele>90.6</ele>
        <time>2025-03-15T17:34:21Z</time>
      </trkpt>
      <trkpt lat="48.7393" lon="2.57024">
        <ele>90.6</ele>
        <time>2025-03-15T17:34:38Z</time>
      </trkpt>
      <trkpt lat="48.73915" lon="2.57052">
        <ele>90</ele>
        <time>2025-03-15T17:34:54Z</time>
      </trkpt>
      <trkpt lat="48.73894" lon="2.57085">
        <ele>90.2</ele>
        <time>2025-03-15T17:35:13Z</time>
      </trkpt>
      <trkpt lat="48.73876" lon="2.57116">
        <ele>90</ele>
        <time>2025-03-15T17:35:30Z</time>
      </trkpt>
      <trkpt lat="48.7386" lon="2.57143">
        <ele>89.6</ele>
        <time>2025-03-15T17:35:47Z</time>
      </trkpt>
      <trkpt lat="48.73842" lon="2.57172">
        <ele>89.2</ele>
        <time>2025-03-15T17:36:04Z</time>
      </trkpt>
      <trkpt lat="48.73823" lon="2.57205">
        <ele>89.2</ele>
        <time>2025-03-15T17:36:23Z</time>
      </trkpt>
      <trkpt lat="48.73809" lon="2.57237">
        <ele>89.4</ele>
        <time>2025-03-15T17:36:39Z</time>
      </trkpt>
      <trkpt lat="48.73791" lon="2.5727">
        <ele>89.2</ele>
        <time>2025-03-15T17:36:58Z</time>
      </trkpt>
      <trkpt lat="48.73775" lon="2.57298">
        <ele>89</ele>
        <time>2025-03-15T17:37:13Z</time>
      </trkpt>
      <trkpt lat="48.73759" lon="2.57325">
        <ele>89</ele>
        <time>2025-03-15T17:37:29Z</time>
      </trkpt>
      <trkpt lat="48.73741" lon="2.57356">
        <ele>89.2</ele>
        <time>2025-03-15T17:37:47Z</time>
      </trkpt>
      <trkpt lat="48.73724" lon="2.57384">
        <ele>88.6</ele>
        <time>2025-03-15T17:38:03Z</time>
      </trkpt>
      <trkpt lat="48.73703" lon="2.57395">
        <ele>89.6</ele>
        <time>2025-03-15T17:38:19Z</time>
      </trkpt>
      <trkpt lat="48.73678" lon="2.5741">
        <ele>89.4</ele>
        <time>2025-03-15T17:38:36Z</time>
      </trkpt>
      <trkpt lat="48.73655" lon="2.57422">
        <ele>89.4</ele>
        <time>2025-03-15T17:38:52Z</time>
      </trkpt>
      <trkpt lat="48.73632" lon="2.57436">
        <ele>88.6</ele>
        <time>2025-03-15T17:39:10Z</time>
      </trkpt>
      <trkpt lat="48.73603" lon="2.57452">
        <ele>88.8</ele>
        <time>2025-03-15T17:39:29Z</time>
      </trkpt>
      <trkpt lat="48.73602" lon="2.57452">
        <ele>88.8</ele>
        <time>2025-03-15T17:39:30Z</time>
      </trkpt>
      <trkpt lat="48.736" lon="2.57453">
        <ele>88.8</ele>
        <time>2025-03-15T17:39:31Z</time>
      </trkpt>
      <trkpt lat="48.73598" lon="2.57453">
        <ele>88.8</ele>
        <time>2025-03-15T17:39:32Z</time>
      </trkpt>
      <trkpt lat="48.73597" lon="2.57453">
        <ele>88.8</ele>
        <time>2025-03-15T17:39:33Z</time>
      </trkpt>
      <trkpt lat="48.73567" lon="2.57458">
        <ele>88.6</ele>
        <time>2025-03-15T17:39:51Z</time>
      </trkpt>
      <trkpt lat="48.73544" lon="2.57462">
        <ele>88.2</ele>
        <time>2025-03-15T17:40:06Z</time>
      </trkpt>
      <trkpt lat="48.73517" lon="2.57462">
        <ele>88.2</ele>
        <time>2025-03-15T17:40:23Z</time>
      </trkpt>
      <trkpt lat="48.73492" lon="2.57466">
        <ele>87.6</ele>
        <time>2025-03-15T17:40:39Z</time>
      </trkpt>
      <trkpt lat="48.73464" lon="2.5747">
        <ele>87.8</ele>
        <time>2025-03-15T17:40:57Z</time>
      </trkpt>
      <trkpt lat="48.73436" lon="2.57482">
        <ele>87.8</ele>
        <time>2025-03-15T17:41:14Z</time>
      </trkpt>
      <trkpt lat="48.73403" lon="2.57492">
        <ele>87</ele>
        <time>2025-03-15T17:41:35Z</time>
      </trkpt>
      <trkpt lat="48.73373" lon="2.57503">
        <ele>86.4</ele>
        <time>2025-03-15T17:41:55Z</time>
      </trkpt>
      <trkpt lat="48.73341" lon="2.57514">
        <ele>86.6</ele>
        <time>2025-03-15T17:42:16Z</time>
      </trkpt>
      <trkpt lat="48.7331" lon="2.57524">
        <ele>86.4</ele>
        <time>2025-03-15T17:42:37Z</time>
      </trkpt>
      <trkpt lat="48.73279" lon="2.57529">
        <ele>86</ele>
        <time>2025-03-15T17:42:57Z</time>
      </trkpt>
      <trkpt lat="48.73247" lon="2.57534">
        <ele>86</ele>
        <time>2025-03-15T17:43:19Z</time>
      </trkpt>
      <trkpt lat="48.73237" lon="2.57536">
        <ele>86.4</ele>
        <time>2025-03-15T17:43:35Z</time>
      </trkpt>
      <trkpt lat="48.73235" lon="2.57536">
        <ele>86</ele>
        <time>2025-03-15T17:43:58Z</time>
      </trkpt>
      <trkpt lat="48.73234" lon="2.57535">
        <ele>85.8</ele>
        <time>2025-03-15T17:44:17Z</time>
      </trkpt>
      <trkpt lat="48.73231" lon="2.57536">
        <ele>86</ele>
        <time>2025-03-15T17:44:33Z</time>
      </trkpt>
      <trkpt lat="48.73231" lon="2.57535">
        <ele>85.8</ele>
        <time>2025-03-15T17:45:05Z</time>
      </trkpt>
      <trkpt lat="48.73233" lon="2.57535">
        <ele>85.8</ele>
        <time>2025-03-15T17:45:17Z</time>
      </trkpt>
      <trkpt lat="48.73238" lon="2.57534">
        <ele>85.4</ele>
        <time>2025-03-15T17:45:21Z</time>
      </trkpt>
      <trkpt lat="48.7324" lon="2.57534">
        <ele>85.4</ele>
        <time>2025-03-15T17:45:22Z</time>
      </trkpt>
      <trkpt lat="48.73241" lon="2.57534">
        <ele>85.4</ele>
        <time>2025-03-15T17:45:23Z</time>
      </trkpt>
      <trkpt lat="48.73242" lon="2.57534">
        <ele>85.4</ele>
        <time>2025-03-15T17:45:24Z</time>
      </trkpt>
      <trkpt lat="48.73243" lon="2.57535">
        <ele>85.6</ele>
        <time>2025-03-15T17:45:26Z</time>
      </trkpt>
      <trkpt lat="48.73246" lon="2.57538">
        <ele>86.2</ele>
        <time>2025-03-15T17:45:39Z</time>
      </trkpt>
      <trkpt lat="48.73248" lon="2.57539">
        <ele>86</ele>
        <time>2025-03-15T17:45:58Z</time>
      </trkpt>
      <trkpt lat="48.73247" lon="2.57539">
        <ele>86</ele>
        <time>2025-03-15T17:46:21Z</time>
      </trkpt>
      <trkpt lat="48.73245" lon="2.5754">
        <ele>86.4</ele>
        <time>2025-03-15T17:46:30Z</time>
      </trkpt>
      <trkpt lat="48.73244" lon="2.5754">
        <ele>86.4</ele>
        <time>2025-03-15T17:46:31Z</time>
      </trkpt>
      <trkpt lat="48.7324" lon="2.57539">
        <ele>86</ele>
        <time>2025-03-15T17:46:35Z</time>
      </trkpt>
      <trkpt lat="48.73239" lon="2.57538">
        <ele>86</ele>
        <time>2025-03-15T17:46:36Z</time>
      </trkpt>
      <trkpt lat="48.73238" lon="2.57537">
        <ele>86</ele>
        <time>2025-03-15T17:46:37Z</time>
      </trkpt>
      <trkpt lat="48.73237" lon="2.57536">
        <ele>86</ele>
        <time>2025-03-15T17:46:38Z</time>
      </trkpt>
      <trkpt lat="48.73236" lon="2.57536">
        <ele>86</ele>
        <time>2025-03-15T17:46:39Z</time>
      </trkpt>
      <trkpt lat="48.73235" lon="2.57536">
        <ele>86</ele>
        <time>2025-03-15T17:46:40Z</time>
      </trkpt>
      <trkpt lat="48.73234" lon="2.57536">
        <ele>86</ele>
        <time>2025-03-15T17:46:41Z</time>
      </trkpt>
      <trkpt lat="48.73232" lon="2.57536">
        <ele>85.8</ele>
        <time>2025-03-15T17:46:56Z</time>
      </trkpt>
      <trkpt lat="48.7323" lon="2.57534">
        <ele>85.6</ele>
        <time>2025-03-15T17:47:22Z</time>
      </trkpt>
      <trkpt lat="48.73231" lon="2.57535">
        <ele>85.8</ele>
        <time>2025-03-15T17:47:52Z</time>
      </trkpt>
      <trkpt lat="48.73228" lon="2.57533">
        <ele>85.6</ele>
        <time>2025-03-15T17:48:07Z</time>
      </trkpt>
      <trkpt lat="48.73226" lon="2.57533">
        <ele>85.4</ele>
        <time>2025-03-15T17:48:11Z</time>
      </trkpt>
      <trkpt lat="48.73225" lon="2.57533">
        <ele>85.4</ele>
        <time>2025-03-15T17:48:12Z</time>
      </trkpt>
      <trkpt lat="48.73223" lon="2.57534">
        <ele>85.4</ele>
        <time>2025-03-15T17:48:13Z</time>
      </trkpt>
      <trkpt lat="48.73222" lon="2.57533">
        <ele>85.4</ele>
        <time>2025-03-15T17:48:14Z</time>
      </trkpt>
      <trkpt lat="48.73221" lon="2.57534">
        <ele>85.2</ele>
        <time>2025-03-15T17:48:15Z</time>
      </trkpt>
      <trkpt lat="48.7322" lon="2.57534">
        <ele>85</ele>
        <time>2025-03-15T17:48:16Z</time>
      </trkpt>
      <trkpt lat="48.73218" lon="2.57534">
        <ele>84.8</ele>
        <time>2025-03-15T17:48:17Z</time>
      </trkpt>
      <trkpt lat="48.73217" lon="2.57535">
        <ele>84.8</ele>
        <time>2025-03-15T17:48:18Z</time>
      </trkpt>
      <trkpt lat="48.73185" lon="2.57535">
        <ele>85.6</ele>
        <time>2025-03-15T17:48:38Z</time>
      </trkpt>
      <trkpt lat="48.73154" lon="2.57536">
        <ele>85</ele>
        <time>2025-03-15T17:48:57Z</time>
      </trkpt>
      <trkpt lat="48.73126" lon="2.57532">
        <ele>84</ele>
        <time>2025-03-15T17:49:15Z</time>
      </trkpt>
      <trkpt lat="48.73102" lon="2.57527">
        <ele>83.4</ele>
        <time>2025-03-15T17:49:30Z</time>
      </trkpt>
      <trkpt lat="48.73072" lon="2.57521">
        <ele>82.8</ele>
        <time>2025-03-15T17:49:50Z</time>
      </trkpt>
      <trkpt lat="48.73034" lon="2.57515">
        <ele>82.4</ele>
        <time>2025-03-15T17:50:14Z</time>
      </trkpt>
      <trkpt lat="48.73025" lon="2.57507">
        <ele>81.8</ele>
        <time>2025-03-15T17:50:27Z</time>
      </trkpt>
      <trkpt lat="48.73024" lon="2.57507">
        <ele>81.2</ele>
        <time>2025-03-15T17:50:34Z</time>
      </trkpt>
      <trkpt lat="48.73023" lon="2.57506">
        <ele>81</ele>
        <time>2025-03-15T17:50:35Z</time>
      </trkpt>
      <trkpt lat="48.73022" lon="2.57505">
        <ele>81</ele>
        <time>2025-03-15T17:50:36Z</time>
      </trkpt>
      <trkpt lat="48.7302" lon="2.57504">
        <ele>80.8</ele>
        <time>2025-03-15T17:50:37Z</time>
      </trkpt>
      <trkpt lat="48.73019" lon="2.57503">
        <ele>80.4</ele>
        <time>2025-03-15T17:50:38Z</time>
      </trkpt>
      <trkpt lat="48.73018" lon="2.57502">
        <ele>80.4</ele>
        <time>2025-03-15T17:50:39Z</time>
      </trkpt>
      <trkpt lat="48.73016" lon="2.57501">
        <ele>80.2</ele>
        <time>2025-03-15T17:50:40Z</time>
      </trkpt>
      <trkpt lat="48.73015" lon="2.57501">
        <ele>80.2</ele>
        <time>2025-03-15T17:50:41Z</time>
      </trkpt>
      <trkpt lat="48.73014" lon="2.57501">
        <ele>80.2</ele>
        <time>2025-03-15T17:50:42Z</time>
      </trkpt>
      <trkpt lat="48.73012" lon="2.57502">
        <ele>80</ele>
        <time>2025-03-15T17:50:43Z</time>
      </trkpt>
      <trkpt lat="48.73012" lon="2.57504">
        <ele>80</ele>
        <time>2025-03-15T17:50:44Z</time>
      </trkpt>
      <trkpt lat="48.73011" lon="2.57506">
        <ele>80</ele>
        <time>2025-03-15T17:50:45Z</time>
      </trkpt>
      <trkpt lat="48.73001" lon="2.57519">
        <ele>80.4</ele>
        <time>2025-03-15T17:50:53Z</time>
      </trkpt>
      <trkpt lat="48.73" lon="2.57519">
        <ele>80.8</ele>
        <time>2025-03-15T17:50:54Z</time>
      </trkpt>
      <trkpt lat="48.72998" lon="2.57519">
        <ele>81</ele>
        <time>2025-03-15T17:50:55Z</time>
      </trkpt>
      <trkpt lat="48.72996" lon="2.57519">
        <ele>81.2</ele>
        <time>2025-03-15T17:50:56Z</time>
      </trkpt>
      <trkpt lat="48.72995" lon="2.57519">
        <ele>81.2</ele>
        <time>2025-03-15T17:50:57Z</time>
      </trkpt>
      <trkpt lat="48.7297" lon="2.57512">
        <ele>81</ele>
        <time>2025-03-15T17:51:13Z</time>
      </trkpt>
      <trkpt lat="48.72948" lon="2.57501">
        <ele>81</ele>
        <time>2025-03-15T17:51:28Z</time>
      </trkpt>
      <trkpt lat="48.72921" lon="2.57492">
        <ele>81.4</ele>
        <time>2025-03-15T17:51:47Z</time>
      </trkpt>
      <trkpt lat="48.72894" lon="2.57492">
        <ele>81.4</ele>
        <time>2025-03-15T17:52:03Z</time>
      </trkpt>
      <trkpt lat="48.72863" lon="2.57467">
        <ele>81.6</ele>
        <time>2025-03-15T17:52:24Z</time>
      </trkpt>
      <trkpt lat="48.72837" lon="2.5745">
        <ele>81</ele>
        <time>2025-03-15T17:52:42Z</time>
      </trkpt>
      <trkpt lat="48.72835" lon="2.57451">
        <ele>81</ele>
        <time>2025-03-15T17:52:43Z</time>
      </trkpt>
      <trkpt lat="48.72834" lon="2.57452">
        <ele>81</ele>
        <time>2025-03-15T17:52:44Z</time>
      </trkpt>
      <trkpt lat="48.72833" lon="2.57453">
        <ele>81</ele>
        <time>2025-03-15T17:52:45Z</time>
      </trkpt>
      <trkpt lat="48.72831" lon="2.57454">
        <ele>80.8</ele>
        <time>2025-03-15T17:52:46Z</time>
      </trkpt>
      <trkpt lat="48.72828" lon="2.57456">
        <ele>80.8</ele>
        <time>2025-03-15T17:52:48Z</time>
      </trkpt>
      <trkpt lat="48.72827" lon="2.57457">
        <ele>80.8</ele>
        <time>2025-03-15T17:52:49Z</time>
      </trkpt>
      <trkpt lat="48.72826" lon="2.57458">
        <ele>80.8</ele>
        <time>2025-03-15T17:52:50Z</time>
      </trkpt>
      <trkpt lat="48.72824" lon="2.57458">
        <ele>80.8</ele>
        <time>2025-03-15T17:52:51Z</time>
      </trkpt>
      <trkpt lat="48.72823" lon="2.57458">
        <ele>80.6</ele>
        <time>2025-03-15T17:52:52Z</time>
      </trkpt>
      <trkpt lat="48.72821" lon="2.57458">
        <ele>80.4</ele>
        <time>2025-03-15T17:52:53Z</time>
      </trkpt>
      <trkpt lat="48.7282" lon="2.57458">
        <ele>80.4</ele>
        <time>2025-03-15T17:52:54Z</time>
      </trkpt>
      <trkpt lat="48.72791" lon="2.57453">
        <ele>79.6</ele>
        <time>2025-03-15T17:53:14Z</time>
      </trkpt>
      <trkpt lat="48.72762" lon="2.57448">
        <ele>78.8</ele>
        <time>2025-03-15T17:53:33Z</time>
      </trkpt>
      <trkpt lat="48.72725" lon="2.5744">
        <ele>77</ele>
        <time>2025-03-15T17:53:55Z</time>
      </trkpt>
      <trkpt lat="48.72701" lon="2.57433">
        <ele>76</ele>
        <time>2025-03-15T17:54:10Z</time>
      </trkpt>
      <trkpt lat="48.72682" lon="2.57428">
        <ele>73</ele>
        <time>2025-03-15T17:54:23Z</time>
      </trkpt>
      <trkpt lat="48.72661" lon="2.57423">
        <ele>71.8</ele>
        <time>2025-03-15T17:54:39Z</time>
      </trkpt>
      <trkpt lat="48.72638" lon="2.57407">
        <ele>71</ele>
        <time>2025-03-15T17:54:55Z</time>
      </trkpt>
      <trkpt lat="48.72609" lon="2.57399">
        <ele>68.8</ele>
        <time>2025-03-15T17:55:13Z</time>
      </trkpt>
      <trkpt lat="48.7258" lon="2.57387">
        <ele>66.4</ele>
        <time>2025-03-15T17:55:32Z</time>
      </trkpt>
      <trkpt lat="48.72555" lon="2.57381">
        <ele>64.8</ele>
        <time>2025-03-15T17:55:49Z</time>
      </trkpt>
      <trkpt lat="48.72531" lon="2.57369">
        <ele>62.6</ele>
        <time>2025-03-15T17:56:05Z</time>
      </trkpt>
      <trkpt lat="48.72507" lon="2.57358">
        <ele>60.2</ele>
        <time>2025-03-15T17:56:21Z</time>
      </trkpt>
      <trkpt lat="48.72482" lon="2.57352">
        <ele>58.4</ele>
        <time>2025-03-15T17:56:37Z</time>
      </trkpt>
      <trkpt lat="48.72469" lon="2.57352">
        <ele>57.8</ele>
        <time>2025-03-15T17:56:45Z</time>
      </trkpt>
      <trkpt lat="48.72466" lon="2.57351">
        <ele>57.6</ele>
        <time>2025-03-15T17:56:46Z</time>
      </trkpt>
      <trkpt lat="48.72464" lon="2.57351">
        <ele>57.4</ele>
        <time>2025-03-15T17:56:47Z</time>
      </trkpt>
      <trkpt lat="48.72463" lon="2.57351">
        <ele>57.2</ele>
        <time>2025-03-15T17:56:48Z</time>
      </trkpt>
      <trkpt lat="48.72461" lon="2.57351">
        <ele>57</ele>
        <time>2025-03-15T17:56:49Z</time>
      </trkpt>
      <trkpt lat="48.72445" lon="2.57346">
        <ele>56.2</ele>
        <time>2025-03-15T17:57:00Z</time>
      </trkpt>
      <trkpt lat="48.72444" lon="2.57345">
        <ele>56</ele>
        <time>2025-03-15T17:57:01Z</time>
      </trkpt>
      <trkpt lat="48.72443" lon="2.57344">
        <ele>55.8</ele>
        <time>2025-03-15T17:57:02Z</time>
      </trkpt>
      <trkpt lat="48.72442" lon="2.57343">
        <ele>55.8</ele>
        <time>2025-03-15T17:57:03Z</time>
      </trkpt>
      <trkpt lat="48.72441" lon="2.57342">
        <ele>55.8</ele>
        <time>2025-03-15T17:57:04Z</time>
      </trkpt>
      <trkpt lat="48.7244" lon="2.5734">
        <ele>55.8</ele>
        <time>2025-03-15T17:57:05Z</time>
      </trkpt>
      <trkpt lat="48.72438" lon="2.5734">
        <ele>55.6</ele>
        <time>2025-03-15T17:57:06Z</time>
      </trkpt>
      <trkpt lat="48.72437" lon="2.57339">
        <ele>55.6</ele>
        <time>2025-03-15T17:57:07Z</time>
      </trkpt>
      <trkpt lat="48.72435" lon="2.57339">
        <ele>55.4</ele>
        <time>2025-03-15T17:57:08Z</time>
      </trkpt>
      <trkpt lat="48.72433" lon="2.57339">
        <ele>55.4</ele>
        <time>2025-03-15T17:57:09Z</time>
      </trkpt>
      <trkpt lat="48.72432" lon="2.57338">
        <ele>55.2</ele>
        <time>2025-03-15T17:57:10Z</time>
      </trkpt>
      <trkpt lat="48.7243" lon="2.57337">
        <ele>55.2</ele>
        <time>2025-03-15T17:57:11Z</time>
      </trkpt>
      <trkpt lat="48.72401" lon="2.57324">
        <ele>55</ele>
        <time>2025-03-15T17:57:29Z</time>
      </trkpt>
      <trkpt lat="48.72376" lon="2.57318">
        <ele>55.2</ele>
        <time>2025-03-15T17:57:45Z</time>
      </trkpt>
      <trkpt lat="48.72357" lon="2.57319">
        <ele>54.6</ele>
        <time>2025-03-15T17:57:58Z</time>
      </trkpt>
      <trkpt lat="48.72355" lon="2.5732">
        <ele>54.6</ele>
        <time>2025-03-15T17:57:59Z</time>
      </trkpt>
      <trkpt lat="48.72354" lon="2.57321">
        <ele>54.8</ele>
        <time>2025-03-15T17:58:00Z</time>
      </trkpt>
      <trkpt lat="48.72353" lon="2.57322">
        <ele>54.8</ele>
        <time>2025-03-15T17:58:01Z</time>
      </trkpt>
      <trkpt lat="48.72352" lon="2.57324">
        <ele>54.8</ele>
        <time>2025-03-15T17:58:02Z</time>
      </trkpt>
      <trkpt lat="48.72335" lon="2.57353">
        <ele>54.8</ele>
        <time>2025-03-15T17:58:19Z</time>
      </trkpt>
      <trkpt lat="48.72315" lon="2.57359">
        <ele>54.2</ele>
        <time>2025-03-15T17:58:35Z</time>
      </trkpt>
      <trkpt lat="48.72286" lon="2.57376">
        <ele>54.6</ele>
        <time>2025-03-15T17:58:55Z</time>
      </trkpt>
      <trkpt lat="48.72259" lon="2.57386">
        <ele>54.6</ele>
        <time>2025-03-15T17:59:13Z</time>
      </trkpt>
      <trkpt lat="48.72252" lon="2.57387">
        <ele>55.2</ele>
        <time>2025-03-15T17:59:19Z</time>
      </trkpt>
      <trkpt lat="48.72226" lon="2.57405">
        <ele>56.6</ele>
        <time>2025-03-15T17:59:37Z</time>
      </trkpt>
      <trkpt lat="48.72204" lon="2.57422">
        <ele>57.6</ele>
        <time>2025-03-15T17:59:54Z</time>
      </trkpt>
      <trkpt lat="48.72179" lon="2.57449">
        <ele>59.2</ele>
        <time>2025-03-15T18:00:14Z</time>
      </trkpt>
      <trkpt lat="48.72165" lon="2.57494">
        <ele>60</ele>
        <time>2025-03-15T18:00:33Z</time>
      </trkpt>
      <trkpt lat="48.72158" lon="2.57532">
        <ele>60</ele>
        <time>2025-03-15T18:00:50Z</time>
      </trkpt>
      <trkpt lat="48.72152" lon="2.57567">
        <ele>59.8</ele>
        <time>2025-03-15T18:01:06Z</time>
      </trkpt>
      <trkpt lat="48.72145" lon="2.57605">
        <ele>60.6</ele>
        <time>2025-03-15T18:01:23Z</time>
      </trkpt>
      <trkpt lat="48.72138" lon="2.57641">
        <ele>62</ele>
        <time>2025-03-15T18:01:39Z</time>
      </trkpt>
      <trkpt lat="48.72124" lon="2.57689">
        <ele>62.8</ele>
        <time>2025-03-15T18:02:00Z</time>
      </trkpt>
      <trkpt lat="48.72114" lon="2.5772">
        <ele>64.2</ele>
        <time>2025-03-15T18:02:17Z</time>
      </trkpt>
      <trkpt lat="48.72103" lon="2.57752">
        <ele>64.6</ele>
        <time>2025-03-15T18:02:33Z</time>
      </trkpt>
      <trkpt lat="48.72094" lon="2.57786">
        <ele>64.8</ele>
        <time>2025-03-15T18:02:47Z</time>
      </trkpt>
      <trkpt lat="48.72081" lon="2.57824">
        <ele>65.8</ele>
        <time>2025-03-15T18:03:05Z</time>
      </trkpt>
      <trkpt lat="48.72081" lon="2.57845">
        <ele>66.8</ele>
        <time>2025-03-15T18:03:15Z</time>
      </trkpt>
      <trkpt lat="48.72082" lon="2.57847">
        <ele>66.8</ele>
        <time>2025-03-15T18:03:16Z</time>
      </trkpt>
      <trkpt lat="48.72083" lon="2.57849">
        <ele>67</ele>
        <time>2025-03-15T18:03:17Z</time>
      </trkpt>
      <trkpt lat="48.72104" lon="2.57864">
        <ele>66.6</ele>
        <time>2025-03-15T18:03:33Z</time>
      </trkpt>
      <trkpt lat="48.72133" lon="2.57877">
        <ele>64.4</ele>
        <time>2025-03-15T18:03:52Z</time>
      </trkpt>
      <trkpt lat="48.7216" lon="2.57888">
        <ele>62.6</ele>
        <time>2025-03-15T18:04:11Z</time>
      </trkpt>
      <trkpt lat="48.72182" lon="2.57916">
        <ele>61.2</ele>
        <time>2025-03-15T18:04:29Z</time>
      </trkpt>
      <trkpt lat="48.72186" lon="2.57923">
        <ele>59.6</ele>
        <time>2025-03-15T18:04:33Z</time>
      </trkpt>
      <trkpt lat="48.72186" lon="2.57925">
        <ele>59.6</ele>
        <time>2025-03-15T18:04:34Z</time>
      </trkpt>
      <trkpt lat="48.72187" lon="2.57927">
        <ele>59.2</ele>
        <time>2025-03-15T18:04:35Z</time>
      </trkpt>
      <trkpt lat="48.72187" lon="2.57928">
        <ele>59.2</ele>
        <time>2025-03-15T18:04:36Z</time>
      </trkpt>
      <trkpt lat="48.72188" lon="2.5793">
        <ele>59.2</ele>
        <time>2025-03-15T18:04:37Z</time>
      </trkpt>
      <trkpt lat="48.72189" lon="2.57932">
        <ele>59</ele>
        <time>2025-03-15T18:04:38Z</time>
      </trkpt>
      <trkpt lat="48.7219" lon="2.57934">
        <ele>59</ele>
        <time>2025-03-15T18:04:39Z</time>
      </trkpt>
      <trkpt lat="48.7219" lon="2.57936">
        <ele>59</ele>
        <time>2025-03-15T18:04:40Z</time>
      </trkpt>
      <trkpt lat="48.7219" lon="2.57939">
        <ele>59</ele>
        <time>2025-03-15T18:04:41Z</time>
      </trkpt>
      <trkpt lat="48.72178" lon="2.5797">
        <ele>58.2</ele>
        <time>2025-03-15T18:04:57Z</time>
      </trkpt>
      <trkpt lat="48.7216" lon="2.58009">
        <ele>58</ele>
        <time>2025-03-15T18:05:17Z</time>
      </trkpt>
      <trkpt lat="48.72142" lon="2.58051">
        <ele>58</ele>
        <time>2025-03-15T18:05:39Z</time>
      </trkpt>
      <trkpt lat="48.72127" lon="2.58088">
        <ele>57.4</ele>
        <time>2025-03-15T18:05:57Z</time>
      </trkpt>
      <trkpt lat="48.72116" lon="2.58121">
        <ele>57.2</ele>
        <time>2025-03-15T18:06:13Z</time>
      </trkpt>
      <trkpt lat="48.72105" lon="2.58167">
        <ele>57.2</ele>
        <time>2025-03-15T18:06:33Z</time>
      </trkpt>
      <trkpt lat="48.72097" lon="2.58201">
        <ele>56.8</ele>
        <time>2025-03-15T18:06:49Z</time>
      </trkpt>
      <trkpt lat="48.72091" lon="2.5824">
        <ele>57</ele>
        <time>2025-03-15T18:07:05Z</time>
      </trkpt>
      <trkpt lat="48.72084" lon="2.58289">
        <ele>56.8</ele>
        <time>2025-03-15T18:07:26Z</time>
      </trkpt>
      <trkpt lat="48.72081" lon="2.58326">
        <ele>56.2</ele>
        <time>2025-03-15T18:07:42Z</time>
      </trkpt>
      <trkpt lat="48.72083" lon="2.58375">
        <ele>56.4</ele>
        <time>2025-03-15T18:08:03Z</time>
      </trkpt>
      <trkpt lat="48.72084" lon="2.58412">
        <ele>56.4</ele>
        <time>2025-03-15T18:08:19Z</time>
      </trkpt>
      <trkpt lat="48.72077" lon="2.58452">
        <ele>56.6</ele>
        <time>2025-03-15T18:08:36Z</time>
      </trkpt>
      <trkpt lat="48.72061" lon="2.58485">
        <ele>56.8</ele>
        <time>2025-03-15T18:08:53Z</time>
      </trkpt>
      <trkpt lat="48.72038" lon="2.58511">
        <ele>56.2</ele>
        <time>2025-03-15T18:09:11Z</time>
      </trkpt>
      <trkpt lat="48.72007" lon="2.58534">
        <ele>56.2</ele>
        <time>2025-03-15T18:09:32Z</time>
      </trkpt>
      <trkpt lat="48.71982" lon="2.58558">
        <ele>56.2</ele>
        <time>2025-03-15T18:09:51Z</time>
      </trkpt>
      <trkpt lat="48.71959" lon="2.58588">
        <ele>56</ele>
        <time>2025-03-15T18:10:12Z</time>
      </trkpt>
      <trkpt lat="48.71941" lon="2.58616">
        <ele>56.4</ele>
        <time>2025-03-15T18:10:30Z</time>
      </trkpt>
      <trkpt lat="48.71922" lon="2.58637">
        <ele>56.8</ele>
        <time>2025-03-15T18:10:45Z</time>
      </trkpt>
      <trkpt lat="48.71903" lon="2.58668">
        <ele>57.2</ele>
        <time>2025-03-15T18:11:00Z</time>
      </trkpt>
      <trkpt lat="48.71889" lon="2.58687">
        <ele>57.6</ele>
        <time>2025-03-15T18:11:12Z</time>
      </trkpt>
      <trkpt lat="48.71887" lon="2.58687">
        <ele>57.6</ele>
        <time>2025-03-15T18:11:13Z</time>
      </trkpt>
      <trkpt lat="48.71886" lon="2.58687">
        <ele>57.8</ele>
        <time>2025-03-15T18:11:14Z</time>
      </trkpt>
      <trkpt lat="48.71884" lon="2.58687">
        <ele>57.8</ele>
        <time>2025-03-15T18:11:15Z</time>
      </trkpt>
      <trkpt lat="48.71883" lon="2.58687">
        <ele>58</ele>
        <time>2025-03-15T18:11:16Z</time>
      </trkpt>
      <trkpt lat="48.71882" lon="2.58686">
        <ele>58</ele>
        <time>2025-03-15T18:11:17Z</time>
      </trkpt>
      <trkpt lat="48.7188" lon="2.58686">
        <ele>58.2</ele>
        <time>2025-03-15T18:11:18Z</time>
      </trkpt>
      <trkpt lat="48.71848" lon="2.58673">
        <ele>60.4</ele>
        <time>2025-03-15T18:11:41Z</time>
      </trkpt>
      <trkpt lat="48.71819" lon="2.5866">
        <ele>63</ele>
        <time>2025-03-15T18:12:03Z</time>
      </trkpt>
      <trkpt lat="48.71798" lon="2.58656">
        <ele>66.2</ele>
        <time>2025-03-15T18:12:19Z</time>
      </trkpt>
      <trkpt lat="48.71791" lon="2.58655">
        <ele>66.4</ele>
        <time>2025-03-15T18:12:24Z</time>
      </trkpt>
      <trkpt lat="48.7179" lon="2.58654">
        <ele>66.4</ele>
        <time>2025-03-15T18:12:25Z</time>
      </trkpt>
      <trkpt lat="48.71788" lon="2.58652">
        <ele>66.4</ele>
        <time>2025-03-15T18:12:26Z</time>
      </trkpt>
      <trkpt lat="48.71787" lon="2.5865">
        <ele>66.4</ele>
        <time>2025-03-15T18:12:27Z</time>
      </trkpt>
      <trkpt lat="48.71785" lon="2.58648">
        <ele>66.2</ele>
        <time>2025-03-15T18:12:28Z</time>
      </trkpt>
      <trkpt lat="48.71774" lon="2.58619">
        <ele>66.2</ele>
        <time>2025-03-15T18:12:42Z</time>
      </trkpt>
      <trkpt lat="48.71772" lon="2.58619">
        <ele>66.4</ele>
        <time>2025-03-15T18:12:43Z</time>
      </trkpt>
      <trkpt lat="48.71771" lon="2.58618">
        <ele>66.4</ele>
        <time>2025-03-15T18:12:44Z</time>
      </trkpt>
      <trkpt lat="48.71769" lon="2.58618">
        <ele>66.4</ele>
        <time>2025-03-15T18:12:45Z</time>
      </trkpt>
      <trkpt lat="48.71768" lon="2.58619">
        <ele>66.4</ele>
        <time>2025-03-15T18:12:46Z</time>
      </trkpt>
      <trkpt lat="48.71767" lon="2.5862">
        <ele>66.6</ele>
        <time>2025-03-15T18:12:47Z</time>
      </trkpt>
      <trkpt lat="48.71765" lon="2.5862">
        <ele>66.6</ele>
        <time>2025-03-15T18:12:48Z</time>
      </trkpt>
      <trkpt lat="48.71764" lon="2.58622">
        <ele>66.8</ele>
        <time>2025-03-15T18:12:49Z</time>
      </trkpt>
      <trkpt lat="48.7175" lon="2.58645">
        <ele>68.2</ele>
        <time>2025-03-15T18:13:03Z</time>
      </trkpt>
      <trkpt lat="48.71723" lon="2.58651">
        <ele>69.8</ele>
        <time>2025-03-15T18:13:22Z</time>
      </trkpt>
      <trkpt lat="48.71697" lon="2.58638">
        <ele>72</ele>
        <time>2025-03-15T18:13:41Z</time>
      </trkpt>
      <trkpt lat="48.71677" lon="2.58611">
        <ele>75</ele>
        <time>2025-03-15T18:13:59Z</time>
      </trkpt>
      <trkpt lat="48.71649" lon="2.58594">
        <ele>76.8</ele>
        <time>2025-03-15T18:14:19Z</time>
      </trkpt>
      <trkpt lat="48.71626" lon="2.58577">
        <ele>78.4</ele>
        <time>2025-03-15T18:14:37Z</time>
      </trkpt>
      <trkpt lat="48.71604" lon="2.58544">
        <ele>80</ele>
        <time>2025-03-15T18:14:58Z</time>
      </trkpt>
      <trkpt lat="48.71588" lon="2.58511">
        <ele>80.4</ele>
        <time>2025-03-15T18:15:17Z</time>
      </trkpt>
      <trkpt lat="48.71562" lon="2.58493">
        <ele>81.4</ele>
        <time>2025-03-15T18:15:35Z</time>
      </trkpt>
      <trkpt lat="48.71533" lon="2.58492">
        <ele>81.6</ele>
        <time>2025-03-15T18:15:55Z</time>
      </trkpt>
      <trkpt lat="48.71497" lon="2.58486">
        <ele>81.6</ele>
        <time>2025-03-15T18:16:18Z</time>
      </trkpt>
      <trkpt lat="48.71469" lon="2.58467">
        <ele>81.8</ele>
        <time>2025-03-15T18:16:37Z</time>
      </trkpt>
      <trkpt lat="48.71439" lon="2.58441">
        <ele>81.4</ele>
        <time>2025-03-15T18:16:59Z</time>
      </trkpt>
      <trkpt lat="48.71415" lon="2.58414">
        <ele>83</ele>
        <time>2025-03-15T18:17:19Z</time>
      </trkpt>
      <trkpt lat="48.71389" lon="2.58387">
        <ele>82.8</ele>
        <time>2025-03-15T18:17:40Z</time>
      </trkpt>
      <trkpt lat="48.71369" lon="2.58365">
        <ele>83</ele>
        <time>2025-03-15T18:17:57Z</time>
      </trkpt>
      <trkpt lat="48.71348" lon="2.58342">
        <ele>83.6</ele>
        <time>2025-03-15T18:18:14Z</time>
      </trkpt>
      <trkpt lat="48.71343" lon="2.58339">
        <ele>83.6</ele>
        <time>2025-03-15T18:18:18Z</time>
      </trkpt>
      <trkpt lat="48.71342" lon="2.58337">
        <ele>83.6</ele>
        <time>2025-03-15T18:18:19Z</time>
      </trkpt>
      <trkpt lat="48.71315" lon="2.58311">
        <ele>82.8</ele>
        <time>2025-03-15T18:18:38Z</time>
      </trkpt>
      <trkpt lat="48.71298" lon="2.58288">
        <ele>83.2</ele>
        <time>2025-03-15T18:18:53Z</time>
      </trkpt>
      <trkpt lat="48.71282" lon="2.58278">
        <ele>83.6</ele>
        <time>2025-03-15T18:19:06Z</time>
      </trkpt>
      <trkpt lat="48.71273" lon="2.5829">
        <ele>82.8</ele>
        <time>2025-03-15T18:19:18Z</time>
      </trkpt>
      <trkpt lat="48.71272" lon="2.58292">
        <ele>82.8</ele>
        <time>2025-03-15T18:19:19Z</time>
      </trkpt>
      <trkpt lat="48.71271" lon="2.58295">
        <ele>82.8</ele>
        <time>2025-03-15T18:19:20Z</time>
      </trkpt>
      <trkpt lat="48.71257" lon="2.58326">
        <ele>82.8</ele>
        <time>2025-03-15T18:19:38Z</time>
      </trkpt>
      <trkpt lat="48.71243" lon="2.58356">
        <ele>83</ele>
        <time>2025-03-15T18:19:54Z</time>
      </trkpt>
      <trkpt lat="48.7123" lon="2.58385">
        <ele>83</ele>
        <time>2025-03-15T18:20:12Z</time>
      </trkpt>
      <trkpt lat="48.71211" lon="2.58425">
        <ele>83.4</ele>
        <time>2025-03-15T18:20:30Z</time>
      </trkpt>
      <trkpt lat="48.71194" lon="2.58463">
        <ele>83.4</ele>
        <time>2025-03-15T18:20:49Z</time>
      </trkpt>
      <trkpt lat="48.71179" lon="2.58496">
        <ele>83.2</ele>
        <time>2025-03-15T18:21:05Z</time>
      </trkpt>
      <trkpt lat="48.71166" lon="2.58526">
        <ele>83.4</ele>
        <time>2025-03-15T18:21:22Z</time>
      </trkpt>
      <trkpt lat="48.71156" lon="2.58552">
        <ele>83.4</ele>
        <time>2025-03-15T18:21:38Z</time>
      </trkpt>
      <trkpt lat="48.71141" lon="2.58588">
        <ele>83.4</ele>
        <time>2025-03-15T18:21:57Z</time>
      </trkpt>
      <trkpt lat="48.71127" lon="2.58618">
        <ele>83</ele>
        <time>2025-03-15T18:22:17Z</time>
      </trkpt>
      <trkpt lat="48.71114" lon="2.58649">
        <ele>83.2</ele>
        <time>2025-03-15T18:22:35Z</time>
      </trkpt>
      <trkpt lat="48.71095" lon="2.58701">
        <ele>82.8</ele>
        <time>2025-03-15T18:23:00Z</time>
      </trkpt>
      <trkpt lat="48.71082" lon="2.58729">
        <ele>83.8</ele>
        <time>2025-03-15T18:23:14Z</time>
      </trkpt>
      <trkpt lat="48.71066" lon="2.58765">
        <ele>83.2</ele>
        <time>2025-03-15T18:23:32Z</time>
      </trkpt>
      <trkpt lat="48.7105" lon="2.58799">
        <ele>83.4</ele>
        <time>2025-03-15T18:23:50Z</time>
      </trkpt>
      <trkpt lat="48.7104" lon="2.58822">
        <ele>83.4</ele>
        <time>2025-03-15T18:24:04Z</time>
      </trkpt>
      <trkpt lat="48.71024" lon="2.58853">
        <ele>83.2</ele>
        <time>2025-03-15T18:24:22Z</time>
      </trkpt>
      <trkpt lat="48.71014" lon="2.58875">
        <ele>83.2</ele>
        <time>2025-03-15T18:24:36Z</time>
      </trkpt>
      <trkpt lat="48.71012" lon="2.58884">
        <ele>83.4</ele>
        <time>2025-03-15T18:24:42Z</time>
      </trkpt>
      <trkpt lat="48.71011" lon="2.58885">
        <ele>83.4</ele>
        <time>2025-03-15T18:24:43Z</time>
      </trkpt>
      <trkpt lat="48.7101" lon="2.58887">
        <ele>83.4</ele>
        <time>2025-03-15T18:24:44Z</time>
      </trkpt>
      <trkpt lat="48.71008" lon="2.58889">
        <ele>83.4</ele>
        <time>2025-03-15T18:24:45Z</time>
      </trkpt>
      <trkpt lat="48.71008" lon="2.58891">
        <ele>83.4</ele>
        <time>2025-03-15T18:24:46Z</time>
      </trkpt>
      <trkpt lat="48.71007" lon="2.58892">
        <ele>83.4</ele>
        <time>2025-03-15T18:24:47Z</time>
      </trkpt>
      <trkpt lat="48.70992" lon="2.58927">
        <ele>83.4</ele>
        <time>2025-03-15T18:25:04Z</time>
      </trkpt>
      <trkpt lat="48.70979" lon="2.58962">
        <ele>83.4</ele>
        <time>2025-03-15T18:25:23Z</time>
      </trkpt>
      <trkpt lat="48.70969" lon="2.58989">
        <ele>83.6</ele>
        <time>2025-03-15T18:25:41Z</time>
      </trkpt>
      <trkpt lat="48.70961" lon="2.59003">
        <ele>84</ele>
        <time>2025-03-15T18:25:49Z</time>
      </trkpt>
      <trkpt lat="48.70961" lon="2.59007">
        <ele>83.4</ele>
        <time>2025-03-15T18:26:24Z</time>
      </trkpt>
      <trkpt lat="48.70961" lon="2.59007">
        <ele>83.4</ele>
        <time>2025-03-15T18:27:00Z</time>
      </trkpt>
      <trkpt lat="48.70961" lon="2.59007">
        <ele>83.2</ele>
        <time>2025-03-15T18:27:41Z</time>
      </trkpt>
      <trkpt lat="48.7096" lon="2.59013">
        <ele>82.8</ele>
        <time>2025-03-15T18:28:12Z</time>
      </trkpt>
      <trkpt lat="48.7096" lon="2.59014">
        <ele>82.8</ele>
        <time>2025-03-15T18:28:13Z</time>
      </trkpt>
      <trkpt lat="48.70959" lon="2.59017">
        <ele>82.6</ele>
        <time>2025-03-15T18:28:14Z</time>
      </trkpt>
      <trkpt lat="48.70958" lon="2.59019">
        <ele>82.6</ele>
        <time>2025-03-15T18:28:15Z</time>
      </trkpt>
      <trkpt lat="48.70957" lon="2.59021">
        <ele>82.6</ele>
        <time>2025-03-15T18:28:16Z</time>
      </trkpt>
      <trkpt lat="48.70956" lon="2.59023">
        <ele>82.6</ele>
        <time>2025-03-15T18:28:17Z</time>
      </trkpt>
      <trkpt lat="48.70956" lon="2.59025">
        <ele>82.4</ele>
        <time>2025-03-15T18:28:18Z</time>
      </trkpt>
      <trkpt lat="48.70946" lon="2.59043">
        <ele>82.6</ele>
        <time>2025-03-15T18:28:27Z</time>
      </trkpt>
      <trkpt lat="48.70941" lon="2.59051">
        <ele>83.6</ele>
        <time>2025-03-15T18:28:37Z</time>
      </trkpt>
      <trkpt lat="48.70938" lon="2.59057">
        <ele>83</ele>
        <time>2025-03-15T18:28:41Z</time>
      </trkpt>
      <trkpt lat="48.70925" lon="2.59086">
        <ele>83.4</ele>
        <time>2025-03-15T18:28:56Z</time>
      </trkpt>
      <trkpt lat="48.70912" lon="2.59117">
        <ele>83.6</ele>
        <time>2025-03-15T18:29:11Z</time>
      </trkpt>
      <trkpt lat="48.70899" lon="2.59153">
        <ele>84.2</ele>
        <time>2025-03-15T18:29:28Z</time>
      </trkpt>
      <trkpt lat="48.70879" lon="2.59188">
        <ele>84.2</ele>
        <time>2025-03-15T18:29:47Z</time>
      </trkpt>
      <trkpt lat="48.70866" lon="2.59217">
        <ele>83.8</ele>
        <time>2025-03-15T18:30:02Z</time>
      </trkpt>
      <trkpt lat="48.70853" lon="2.59245">
        <ele>83.8</ele>
        <time>2025-03-15T18:30:18Z</time>
      </trkpt>
      <trkpt lat="48.70852" lon="2.59246">
        <ele>83.8</ele>
        <time>2025-03-15T18:30:19Z</time>
      </trkpt>
      <trkpt lat="48.70851" lon="2.5925">
        <ele>83.8</ele>
        <time>2025-03-15T18:30:21Z</time>
      </trkpt>
      <trkpt lat="48.70849" lon="2.59255">
        <ele>83.8</ele>
        <time>2025-03-15T18:30:24Z</time>
      </trkpt>
      <trkpt lat="48.70849" lon="2.59257">
        <ele>83.8</ele>
        <time>2025-03-15T18:30:25Z</time>
      </trkpt>
      <trkpt lat="48.70848" lon="2.59259">
        <ele>83.6</ele>
        <time>2025-03-15T18:30:26Z</time>
      </trkpt>
      <trkpt lat="48.70847" lon="2.59261">
        <ele>83.6</ele>
        <time>2025-03-15T18:30:27Z</time>
      </trkpt>
      <trkpt lat="48.70843" lon="2.59274">
        <ele>83.8</ele>
        <time>2025-03-15T18:30:34Z</time>
      </trkpt>
      <trkpt lat="48.70842" lon="2.59276">
        <ele>84</ele>
        <time>2025-03-15T18:30:35Z</time>
      </trkpt>
      <trkpt lat="48.70828" lon="2.59313">
        <ele>83.6</ele>
        <time>2025-03-15T18:30:50Z</time>
      </trkpt>
      <trkpt lat="48.70827" lon="2.59315">
        <ele>83.6</ele>
        <time>2025-03-15T18:30:51Z</time>
      </trkpt>
      <trkpt lat="48.70813" lon="2.59344">
        <ele>83.8</ele>
        <time>2025-03-15T18:31:04Z</time>
      </trkpt>
      <trkpt lat="48.70795" lon="2.59384">
        <ele>84.6</ele>
        <time>2025-03-15T18:31:22Z</time>
      </trkpt>
      <trkpt lat="48.70781" lon="2.59414">
        <ele>83.8</ele>
        <time>2025-03-15T18:31:37Z</time>
      </trkpt>
      <trkpt lat="48.70766" lon="2.59447">
        <ele>83.6</ele>
        <time>2025-03-15T18:31:53Z</time>
      </trkpt>
      <trkpt lat="48.70756" lon="2.59477">
        <ele>83.8</ele>
        <time>2025-03-15T18:32:09Z</time>
      </trkpt>
      <trkpt lat="48.70739" lon="2.59517">
        <ele>83.6</ele>
        <time>2025-03-15T18:32:26Z</time>
      </trkpt>
      <trkpt lat="48.7072" lon="2.59559">
        <ele>83</ele>
        <time>2025-03-15T18:32:44Z</time>
      </trkpt>
      <trkpt lat="48.70702" lon="2.59595">
        <ele>84.4</ele>
        <time>2025-03-15T18:33:02Z</time>
      </trkpt>
      <trkpt lat="48.70686" lon="2.59633">
        <ele>83.2</ele>
        <time>2025-03-15T18:33:20Z</time>
      </trkpt>
      <trkpt lat="48.70669" lon="2.59669">
        <ele>83</ele>
        <time>2025-03-15T18:33:37Z</time>
      </trkpt>
      <trkpt lat="48.70659" lon="2.59696">
        <ele>82.6</ele>
        <time>2025-03-15T18:33:49Z</time>
      </trkpt>
      <trkpt lat="48.70634" lon="2.59717">
        <ele>82.6</ele>
        <time>2025-03-15T18:34:05Z</time>
      </trkpt>
      <trkpt lat="48.70627" lon="2.59755">
        <ele>82.2</ele>
        <time>2025-03-15T18:34:20Z</time>
      </trkpt>
      <trkpt lat="48.70618" lon="2.59785">
        <ele>81.8</ele>
        <time>2025-03-15T18:34:35Z</time>
      </trkpt>
      <trkpt lat="48.70606" lon="2.5981">
        <ele>81.6</ele>
        <time>2025-03-15T18:34:50Z</time>
      </trkpt>
      <trkpt lat="48.70596" lon="2.59852">
        <ele>81.6</ele>
        <time>2025-03-15T18:35:06Z</time>
      </trkpt>
      <trkpt lat="48.70573" lon="2.59891">
        <ele>81.4</ele>
        <time>2025-03-15T18:35:22Z</time>
      </trkpt>
      <trkpt lat="48.70557" lon="2.5993">
        <ele>82.2</ele>
        <time>2025-03-15T18:35:40Z</time>
      </trkpt>
      <trkpt lat="48.70539" lon="2.5997">
        <ele>83.2</ele>
        <time>2025-03-15T18:36:00Z</time>
      </trkpt>
      <trkpt lat="48.70524" lon="2.60007">
        <ele>83.4</ele>
        <time>2025-03-15T18:36:20Z</time>
      </trkpt>
      <trkpt lat="48.70507" lon="2.60045">
        <ele>83.4</ele>
        <time>2025-03-15T18:36:39Z</time>
      </trkpt>
      <trkpt lat="48.70492" lon="2.60083">
        <ele>83.2</ele>
        <time>2025-03-15T18:36:55Z</time>
      </trkpt>
      <trkpt lat="48.70472" lon="2.60129">
        <ele>83.4</ele>
        <time>2025-03-15T18:37:15Z</time>
      </trkpt>
      <trkpt lat="48.70459" lon="2.60161">
        <ele>83</ele>
        <time>2025-03-15T18:37:30Z</time>
      </trkpt>
      <trkpt lat="48.70436" lon="2.6021">
        <ele>82.4</ele>
        <time>2025-03-15T18:37:52Z</time>
      </trkpt>
      <trkpt lat="48.70415" lon="2.60247">
        <ele>81.4</ele>
        <time>2025-03-15T18:38:11Z</time>
      </trkpt>
      <trkpt lat="48.70405" lon="2.60256">
        <ele>80.8</ele>
        <time>2025-03-15T18:38:18Z</time>
      </trkpt>
      <trkpt lat="48.70404" lon="2.60258">
        <ele>80.8</ele>
        <time>2025-03-15T18:38:19Z</time>
      </trkpt>
      <trkpt lat="48.70404" lon="2.6026">
        <ele>80.8</ele>
        <time>2025-03-15T18:38:20Z</time>
      </trkpt>
      <trkpt lat="48.70406" lon="2.60295">
        <ele>80.4</ele>
        <time>2025-03-15T18:38:34Z</time>
      </trkpt>
      <trkpt lat="48.70399" lon="2.60333">
        <ele>80.2</ele>
        <time>2025-03-15T18:38:50Z</time>
      </trkpt>
      <trkpt lat="48.70391" lon="2.60378">
        <ele>80</ele>
        <time>2025-03-15T18:39:08Z</time>
      </trkpt>
      <trkpt lat="48.70383" lon="2.60423">
        <ele>79.4</ele>
        <time>2025-03-15T18:39:26Z</time>
      </trkpt>
      <trkpt lat="48.70377" lon="2.60465">
        <ele>79</ele>
        <time>2025-03-15T18:39:43Z</time>
      </trkpt>
      <trkpt lat="48.70374" lon="2.60516">
        <ele>79</ele>
        <time>2025-03-15T18:40:03Z</time>
      </trkpt>
      <trkpt lat="48.70371" lon="2.60557">
        <ele>78.2</ele>
        <time>2025-03-15T18:40:19Z</time>
      </trkpt>
      <trkpt lat="48.70371" lon="2.60592">
        <ele>77.2</ele>
        <time>2025-03-15T18:40:33Z</time>
      </trkpt>
      <trkpt lat="48.70371" lon="2.60607">
        <ele>77.2</ele>
        <time>2025-03-15T18:40:39Z</time>
      </trkpt>
      <trkpt lat="48.70371" lon="2.6061">
        <ele>77</ele>
        <time>2025-03-15T18:40:40Z</time>
      </trkpt>
      <trkpt lat="48.7037" lon="2.60613">
        <ele>76.8</ele>
        <time>2025-03-15T18:40:41Z</time>
      </trkpt>
      <trkpt lat="48.7037" lon="2.60615">
        <ele>76.8</ele>
        <time>2025-03-15T18:40:42Z</time>
      </trkpt>
      <trkpt lat="48.7037" lon="2.60617">
        <ele>76.8</ele>
        <time>2025-03-15T18:40:43Z</time>
      </trkpt>
      <trkpt lat="48.70371" lon="2.60666">
        <ele>76</ele>
        <time>2025-03-15T18:41:02Z</time>
      </trkpt>
      <trkpt lat="48.70368" lon="2.60698">
        <ele>75.4</ele>
        <time>2025-03-15T18:41:15Z</time>
      </trkpt>
      <trkpt lat="48.70366" lon="2.60699">
        <ele>75.4</ele>
        <time>2025-03-15T18:41:16Z</time>
      </trkpt>
      <trkpt lat="48.70365" lon="2.607">
        <ele>75.6</ele>
        <time>2025-03-15T18:41:17Z</time>
      </trkpt>
      <trkpt lat="48.70364" lon="2.60701">
        <ele>75.8</ele>
        <time>2025-03-15T18:41:18Z</time>
      </trkpt>
      <trkpt lat="48.70362" lon="2.60702">
        <ele>75.8</ele>
        <time>2025-03-15T18:41:19Z</time>
      </trkpt>
      <trkpt lat="48.70346" lon="2.60713">
        <ele>76</ele>
        <time>2025-03-15T18:41:32Z</time>
      </trkpt>
      <trkpt lat="48.70318" lon="2.60713">
        <ele>76</ele>
        <time>2025-03-15T18:41:50Z</time>
      </trkpt>
      <trkpt lat="48.70317" lon="2.60714">
        <ele>76</ele>
        <time>2025-03-15T18:41:51Z</time>
      </trkpt>
      <trkpt lat="48.70316" lon="2.60714">
        <ele>75.8</ele>
        <time>2025-03-15T18:41:52Z</time>
      </trkpt>
      <trkpt lat="48.70291" lon="2.60723">
        <ele>75.2</ele>
        <time>2025-03-15T18:42:09Z</time>
      </trkpt>
      <trkpt lat="48.70269" lon="2.60728">
        <ele>74.8</ele>
        <time>2025-03-15T18:42:25Z</time>
      </trkpt>
      <trkpt lat="48.7024" lon="2.60743">
        <ele>75.4</ele>
        <time>2025-03-15T18:42:43Z</time>
      </trkpt>
      <trkpt lat="48.7021" lon="2.60751">
        <ele>75.2</ele>
        <time>2025-03-15T18:43:03Z</time>
      </trkpt>
      <trkpt lat="48.70177" lon="2.60758">
        <ele>76.2</ele>
        <time>2025-03-15T18:43:23Z</time>
      </trkpt>
      <trkpt lat="48.7015" lon="2.60757">
        <ele>75</ele>
        <time>2025-03-15T18:43:41Z</time>
      </trkpt>
      <trkpt lat="48.70145" lon="2.60766">
        <ele>75.4</ele>
        <time>2025-03-15T18:43:48Z</time>
      </trkpt>
      <trkpt lat="48.70145" lon="2.60768">
        <ele>75.4</ele>
        <time>2025-03-15T18:43:49Z</time>
      </trkpt>
      <trkpt lat="48.70145" lon="2.6077">
        <ele>75.4</ele>
        <time>2025-03-15T18:43:50Z</time>
      </trkpt>
      <trkpt lat="48.70135" lon="2.60797">
        <ele>75.6</ele>
        <time>2025-03-15T18:44:07Z</time>
      </trkpt>
      <trkpt lat="48.70123" lon="2.60819">
        <ele>76</ele>
        <time>2025-03-15T18:44:22Z</time>
      </trkpt>
      <trkpt lat="48.70105" lon="2.60847">
        <ele>76.2</ele>
        <time>2025-03-15T18:44:39Z</time>
      </trkpt>
      <trkpt lat="48.7009" lon="2.60875">
        <ele>75.8</ele>
        <time>2025-03-15T18:44:55Z</time>
      </trkpt>
      <trkpt lat="48.70076" lon="2.60898">
        <ele>76</ele>
        <time>2025-03-15T18:45:11Z</time>
      </trkpt>
      <trkpt lat="48.70072" lon="2.60906">
        <ele>76</ele>
        <time>2025-03-15T18:45:15Z</time>
      </trkpt>
      <trkpt lat="48.70071" lon="2.60907">
        <ele>76</ele>
        <time>2025-03-15T18:45:16Z</time>
      </trkpt>
      <trkpt lat="48.7005" lon="2.60947">
        <ele>75.6</ele>
        <time>2025-03-15T18:45:36Z</time>
      </trkpt>
      <trkpt lat="48.70032" lon="2.60983">
        <ele>76</ele>
        <time>2025-03-15T18:45:54Z</time>
      </trkpt>
      <trkpt lat="48.70015" lon="2.61001">
        <ele>75.8</ele>
        <time>2025-03-15T18:46:09Z</time>
      </trkpt>
      <trkpt lat="48.70001" lon="2.61026">
        <ele>75.8</ele>
        <time>2025-03-15T18:46:25Z</time>
      </trkpt>
      <trkpt lat="48.69987" lon="2.61057">
        <ele>75.6</ele>
        <time>2025-03-15T18:46:41Z</time>
      </trkpt>
      <trkpt lat="48.6998" lon="2.6107">
        <ele>75.6</ele>
        <time>2025-03-15T18:46:48Z</time>
      </trkpt>
      <trkpt lat="48.6996" lon="2.61095">
        <ele>75.4</ele>
        <time>2025-03-15T18:47:04Z</time>
      </trkpt>
      <trkpt lat="48.69952" lon="2.61113">
        <ele>75.4</ele>
        <time>2025-03-15T18:47:13Z</time>
      </trkpt>
      <trkpt lat="48.69952" lon="2.61115">
        <ele>75.4</ele>
        <time>2025-03-15T18:47:14Z</time>
      </trkpt>
      <trkpt lat="48.69945" lon="2.61151">
        <ele>75.4</ele>
        <time>2025-03-15T18:47:30Z</time>
      </trkpt>
      <trkpt lat="48.69926" lon="2.61183">
        <ele>76</ele>
        <time>2025-03-15T18:47:49Z</time>
      </trkpt>
      <trkpt lat="48.69906" lon="2.61221">
        <ele>76.2</ele>
        <time>2025-03-15T18:48:09Z</time>
      </trkpt>
      <trkpt lat="48.69888" lon="2.61254">
        <ele>75.8</ele>
        <time>2025-03-15T18:48:27Z</time>
      </trkpt>
      <trkpt lat="48.69872" lon="2.61282">
        <ele>75.8</ele>
        <time>2025-03-15T18:48:43Z</time>
      </trkpt>
      <trkpt lat="48.6985" lon="2.61322">
        <ele>76</ele>
        <time>2025-03-15T18:49:05Z</time>
      </trkpt>
      <trkpt lat="48.69828" lon="2.6136">
        <ele>75.8</ele>
        <time>2025-03-15T18:49:26Z</time>
      </trkpt>
      <trkpt lat="48.69807" lon="2.61396">
        <ele>75.8</ele>
        <time>2025-03-15T18:49:46Z</time>
      </trkpt>
      <trkpt lat="48.69788" lon="2.61429">
        <ele>75.8</ele>
        <time>2025-03-15T18:50:05Z</time>
      </trkpt>
      <trkpt lat="48.69771" lon="2.61459">
        <ele>75.4</ele>
        <time>2025-03-15T18:50:23Z</time>
      </trkpt>
      <trkpt lat="48.69753" lon="2.61485">
        <ele>76.2</ele>
        <time>2025-03-15T18:50:39Z</time>
      </trkpt>
      <trkpt lat="48.69739" lon="2.61518">
        <ele>75</ele>
        <time>2025-03-15T18:50:55Z</time>
      </trkpt>
      <trkpt lat="48.69724" lon="2.61541">
        <ele>75.2</ele>
        <time>2025-03-15T18:51:12Z</time>
      </trkpt>
      <trkpt lat="48.69723" lon="2.61544">
        <ele>75.2</ele>
        <time>2025-03-15T18:51:13Z</time>
      </trkpt>
      <trkpt lat="48.69722" lon="2.61546">
        <ele>75.2</ele>
        <time>2025-03-15T18:51:14Z</time>
      </trkpt>
      <trkpt lat="48.69721" lon="2.61548">
        <ele>75</ele>
        <time>2025-03-15T18:51:15Z</time>
      </trkpt>
      <trkpt lat="48.69706" lon="2.61578">
        <ele>73.6</ele>
        <time>2025-03-15T18:51:32Z</time>
      </trkpt>
      <trkpt lat="48.6969" lon="2.616">
        <ele>74.6</ele>
        <time>2025-03-15T18:51:47Z</time>
      </trkpt>
      <trkpt lat="48.69676" lon="2.61625">
        <ele>75</ele>
        <time>2025-03-15T18:52:02Z</time>
      </trkpt>
      <trkpt lat="48.69672" lon="2.61629">
        <ele>75.2</ele>
        <time>2025-03-15T18:52:05Z</time>
      </trkpt>
      <trkpt lat="48.69654" lon="2.61663">
        <ele>75.4</ele>
        <time>2025-03-15T18:52:22Z</time>
      </trkpt>
      <trkpt lat="48.6965" lon="2.61673">
        <ele>75.2</ele>
        <time>2025-03-15T18:52:27Z</time>
      </trkpt>
      <trkpt lat="48.69634" lon="2.61702">
        <ele>75.2</ele>
        <time>2025-03-15T18:52:42Z</time>
      </trkpt>
      <trkpt lat="48.69632" lon="2.61708">
        <ele>75.2</ele>
        <time>2025-03-15T18:52:45Z</time>
      </trkpt>
      <trkpt lat="48.6963" lon="2.61709">
        <ele>75.2</ele>
        <time>2025-03-15T18:52:46Z</time>
      </trkpt>
      <trkpt lat="48.69616" lon="2.61731">
        <ele>75.4</ele>
        <time>2025-03-15T18:53:00Z</time>
      </trkpt>
      <trkpt lat="48.6961" lon="2.61749">
        <ele>75.4</ele>
        <time>2025-03-15T18:53:08Z</time>
      </trkpt>
      <trkpt lat="48.69608" lon="2.61751">
        <ele>75.4</ele>
        <time>2025-03-15T18:53:09Z</time>
      </trkpt>
      <trkpt lat="48.69607" lon="2.61754">
        <ele>75.4</ele>
        <time>2025-03-15T18:53:10Z</time>
      </trkpt>
      <trkpt lat="48.69606" lon="2.61755">
        <ele>75.4</ele>
        <time>2025-03-15T18:53:11Z</time>
      </trkpt>
      <trkpt lat="48.69605" lon="2.61757">
        <ele>75.4</ele>
        <time>2025-03-15T18:53:12Z</time>
      </trkpt>
      <trkpt lat="48.69604" lon="2.61759">
        <ele>75.4</ele>
        <time>2025-03-15T18:53:13Z</time>
      </trkpt>
      <trkpt lat="48.69604" lon="2.61761">
        <ele>75.6</ele>
        <time>2025-03-15T18:53:14Z</time>
      </trkpt>
      <trkpt lat="48.69592" lon="2.61786">
        <ele>76</ele>
        <time>2025-03-15T18:53:29Z</time>
      </trkpt>
      <trkpt lat="48.69575" lon="2.61821">
        <ele>74</ele>
        <time>2025-03-15T18:53:46Z</time>
      </trkpt>
      <trkpt lat="48.69558" lon="2.61864">
        <ele>74.8</ele>
        <time>2025-03-15T18:54:05Z</time>
      </trkpt>
      <trkpt lat="48.69546" lon="2.61888">
        <ele>75.8</ele>
        <time>2025-03-15T18:54:19Z</time>
      </trkpt>
      <trkpt lat="48.69534" lon="2.61919">
        <ele>75.8</ele>
        <time>2025-03-15T18:54:34Z</time>
      </trkpt>
      <trkpt lat="48.69523" lon="2.6194">
        <ele>75</ele>
        <time>2025-03-15T18:54:46Z</time>
      </trkpt>
      <trkpt lat="48.69523" lon="2.61942">
        <ele>75</ele>
        <time>2025-03-15T18:54:47Z</time>
      </trkpt>
      <trkpt lat="48.69522" lon="2.61945">
        <ele>75</ele>
        <time>2025-03-15T18:54:48Z</time>
      </trkpt>
      <trkpt lat="48.69522" lon="2.61948">
        <ele>75</ele>
        <time>2025-03-15T18:54:49Z</time>
      </trkpt>
      <trkpt lat="48.69521" lon="2.6195">
        <ele>75</ele>
        <time>2025-03-15T18:54:50Z</time>
      </trkpt>
      <trkpt lat="48.6952" lon="2.61952">
        <ele>75</ele>
        <time>2025-03-15T18:54:51Z</time>
      </trkpt>
      <trkpt lat="48.69519" lon="2.61954">
        <ele>75</ele>
        <time>2025-03-15T18:54:52Z</time>
      </trkpt>
      <trkpt lat="48.69519" lon="2.61956">
        <ele>75</ele>
        <time>2025-03-15T18:54:53Z</time>
      </trkpt>
      <trkpt lat="48.69518" lon="2.61958">
        <ele>75</ele>
        <time>2025-03-15T18:54:54Z</time>
      </trkpt>
      <trkpt lat="48.69517" lon="2.6196">
        <ele>75</ele>
        <time>2025-03-15T18:54:55Z</time>
      </trkpt>
      <trkpt lat="48.69515" lon="2.61963">
        <ele>75</ele>
        <time>2025-03-15T18:54:56Z</time>
      </trkpt>
      <trkpt lat="48.69501" lon="2.61988">
        <ele>75.4</ele>
        <time>2025-03-15T18:55:10Z</time>
      </trkpt>
      <trkpt lat="48.69489" lon="2.62013">
        <ele>75</ele>
        <time>2025-03-15T18:55:23Z</time>
      </trkpt>
      <trkpt lat="48.69488" lon="2.62016">
        <ele>75</ele>
        <time>2025-03-15T18:55:24Z</time>
      </trkpt>
      <trkpt lat="48.69488" lon="2.62018">
        <ele>75</ele>
        <time>2025-03-15T18:55:25Z</time>
      </trkpt>
      <trkpt lat="48.69487" lon="2.6202">
        <ele>75</ele>
        <time>2025-03-15T18:55:26Z</time>
      </trkpt>
      <trkpt lat="48.69485" lon="2.62022">
        <ele>75</ele>
        <time>2025-03-15T18:55:27Z</time>
      </trkpt>
      <trkpt lat="48.69467" lon="2.62047">
        <ele>75</ele>
        <time>2025-03-15T18:55:41Z</time>
      </trkpt>
      <trkpt lat="48.69457" lon="2.62066">
        <ele>75.2</ele>
        <time>2025-03-15T18:55:52Z</time>
      </trkpt>
      <trkpt lat="48.69456" lon="2.62066">
        <ele>75.2</ele>
        <time>2025-03-15T18:55:53Z</time>
      </trkpt>
      <trkpt lat="48.69454" lon="2.62065">
        <ele>75.2</ele>
        <time>2025-03-15T18:55:54Z</time>
      </trkpt>
      <trkpt lat="48.69453" lon="2.62063">
        <ele>75.2</ele>
        <time>2025-03-15T18:55:55Z</time>
      </trkpt>
      <trkpt lat="48.69452" lon="2.62062">
        <ele>75.2</ele>
        <time>2025-03-15T18:55:56Z</time>
      </trkpt>
      <trkpt lat="48.69451" lon="2.62061">
        <ele>75.2</ele>
        <time>2025-03-15T18:55:57Z</time>
      </trkpt>
      <trkpt lat="48.69447" lon="2.62055">
        <ele>75.2</ele>
        <time>2025-03-15T18:56:00Z</time>
      </trkpt>
      <trkpt lat="48.69434" lon="2.62032">
        <ele>75</ele>
        <time>2025-03-15T18:56:14Z</time>
      </trkpt>
      <trkpt lat="48.69423" lon="2.62004">
        <ele>74.6</ele>
        <time>2025-03-15T18:56:28Z</time>
      </trkpt>
      <trkpt lat="48.69409" lon="2.61966">
        <ele>73.4</ele>
        <time>2025-03-15T18:56:45Z</time>
      </trkpt>
      <trkpt lat="48.69396" lon="2.61933">
        <ele>73.6</ele>
        <time>2025-03-15T18:57:02Z</time>
      </trkpt>
      <trkpt lat="48.69385" lon="2.61899">
        <ele>74.2</ele>
        <time>2025-03-15T18:57:18Z</time>
      </trkpt>
      <trkpt lat="48.69373" lon="2.61863">
        <ele>74</ele>
        <time>2025-03-15T18:57:35Z</time>
      </trkpt>
      <trkpt lat="48.69363" lon="2.61835">
        <ele>74</ele>
        <time>2025-03-15T18:57:49Z</time>
      </trkpt>
      <trkpt lat="48.69352" lon="2.61795">
        <ele>73.2</ele>
        <time>2025-03-15T18:58:06Z</time>
      </trkpt>
      <trkpt lat="48.69343" lon="2.61771">
        <ele>73.2</ele>
        <time>2025-03-15T18:58:18Z</time>
      </trkpt>
      <trkpt lat="48.69342" lon="2.6177">
        <ele>73.2</ele>
        <time>2025-03-15T18:58:19Z</time>
      </trkpt>
      <trkpt lat="48.6934" lon="2.61769">
        <ele>73.2</ele>
        <time>2025-03-15T18:58:20Z</time>
      </trkpt>
      <trkpt lat="48.6933" lon="2.61765">
        <ele>73</ele>
        <time>2025-03-15T18:58:29Z</time>
      </trkpt>
      <trkpt lat="48.69305" lon="2.61779">
        <ele>72.4</ele>
        <time>2025-03-15T18:58:46Z</time>
      </trkpt>
      <trkpt lat="48.6928" lon="2.61796">
        <ele>72.2</ele>
        <time>2025-03-15T18:59:04Z</time>
      </trkpt>
      <trkpt lat="48.6928" lon="2.61798">
        <ele>72</ele>
        <time>2025-03-15T18:59:05Z</time>
      </trkpt>
      <trkpt lat="48.69279" lon="2.618">
        <ele>72</ele>
        <time>2025-03-15T18:59:06Z</time>
      </trkpt>
      <trkpt lat="48.69278" lon="2.61802">
        <ele>72.2</ele>
        <time>2025-03-15T18:59:07Z</time>
      </trkpt>
      <trkpt lat="48.69278" lon="2.61804">
        <ele>72.4</ele>
        <time>2025-03-15T18:59:08Z</time>
      </trkpt>
      <trkpt lat="48.69277" lon="2.61805">
        <ele>72.6</ele>
        <time>2025-03-15T18:59:09Z</time>
      </trkpt>
      <trkpt lat="48.69276" lon="2.61806">
        <ele>72.6</ele>
        <time>2025-03-15T18:59:10Z</time>
      </trkpt>
      <trkpt lat="48.69275" lon="2.61807">
        <ele>72.8</ele>
        <time>2025-03-15T18:59:11Z</time>
      </trkpt>
      <trkpt lat="48.69273" lon="2.61808">
        <ele>73</ele>
        <time>2025-03-15T18:59:12Z</time>
      </trkpt>
      <trkpt lat="48.69272" lon="2.61808">
        <ele>73</ele>
        <time>2025-03-15T18:59:13Z</time>
      </trkpt>
      <trkpt lat="48.69256" lon="2.61816">
        <ele>72.8</ele>
        <time>2025-03-15T18:59:25Z</time>
      </trkpt>
      <trkpt lat="48.69256" lon="2.61818">
        <ele>72.8</ele>
        <time>2025-03-15T18:59:26Z</time>
      </trkpt>
      <trkpt lat="48.69256" lon="2.6182">
        <ele>72.8</ele>
        <time>2025-03-15T18:59:27Z</time>
      </trkpt>
      <trkpt lat="48.69256" lon="2.61822">
        <ele>72.8</ele>
        <time>2025-03-15T18:59:28Z</time>
      </trkpt>
      <trkpt lat="48.69255" lon="2.61824">
        <ele>72.8</ele>
        <time>2025-03-15T18:59:29Z</time>
      </trkpt>
      <trkpt lat="48.69254" lon="2.61826">
        <ele>73</ele>
        <time>2025-03-15T18:59:30Z</time>
      </trkpt>
      <trkpt lat="48.69253" lon="2.61828">
        <ele>73</ele>
        <time>2025-03-15T18:59:31Z</time>
      </trkpt>
      <trkpt lat="48.6925" lon="2.61844">
        <ele>73</ele>
        <time>2025-03-15T18:59:41Z</time>
      </trkpt>
      <trkpt lat="48.69257" lon="2.61861">
        <ele>72.8</ele>
        <time>2025-03-15T18:59:49Z</time>
      </trkpt>
      <trkpt lat="48.69272" lon="2.61897">
        <ele>73</ele>
        <time>2025-03-15T19:00:08Z</time>
      </trkpt>
      <trkpt lat="48.69284" lon="2.61927">
        <ele>73.4</ele>
        <time>2025-03-15T19:00:23Z</time>
      </trkpt>
      <trkpt lat="48.69285" lon="2.61944">
        <ele>73.4</ele>
        <time>2025-03-15T19:00:41Z</time>
      </trkpt>
      <trkpt lat="48.69289" lon="2.61949">
        <ele>73</ele>
        <time>2025-03-15T19:01:14Z</time>
      </trkpt>
      <trkpt lat="48.69292" lon="2.61944">
        <ele>72.6</ele>
        <time>2025-03-15T19:01:56Z</time>
      </trkpt>
      <trkpt lat="48.69285" lon="2.6195">
        <ele>72.6</ele>
        <time>2025-03-15T19:02:37Z</time>
      </trkpt>
      <trkpt lat="48.69295" lon="2.61949">
        <ele>72.6</ele>
        <time>2025-03-15T19:03:16Z</time>
      </trkpt>
      <trkpt lat="48.69298" lon="2.6195">
        <ele>71.4</ele>
        <time>2025-03-15T19:03:30Z</time>
      </trkpt>
      <trkpt lat="48.69317" lon="2.6196">
        <ele>71.4</ele>
        <time>2025-03-15T19:03:45Z</time>
      </trkpt>
      <trkpt lat="48.69286" lon="2.61947">
        <ele>71.2</ele>
        <time>2025-03-15T19:04:12Z</time>
      </trkpt>
      <trkpt lat="48.69278" lon="2.6194">
        <ele>72.2</ele>
        <time>2025-03-15T19:04:38Z</time>
      </trkpt>
      <trkpt lat="48.69286" lon="2.61933">
        <ele>71.8</ele>
        <time>2025-03-15T19:04:58Z</time>
      </trkpt>
      <trkpt lat="48.69286" lon="2.61935">
        <ele>71.8</ele>
        <time>2025-03-15T19:04:59Z</time>
      </trkpt>
      <trkpt lat="48.6929" lon="2.61956">
        <ele>71.8</ele>
        <time>2025-03-15T19:05:14Z</time>
      </trkpt>
      <trkpt lat="48.69292" lon="2.61958">
        <ele>71.8</ele>
        <time>2025-03-15T19:05:21Z</time>
      </trkpt>
      <trkpt lat="48.69291" lon="2.61959">
        <ele>71.8</ele>
        <time>2025-03-15T19:05:22Z</time>
      </trkpt>
      <trkpt lat="48.69289" lon="2.61962">
        <ele>71.8</ele>
        <time>2025-03-15T19:05:24Z</time>
      </trkpt>
      <trkpt lat="48.69282" lon="2.61965">
        <ele>71.8</ele>
        <time>2025-03-15T19:05:32Z</time>
      </trkpt>
      <trkpt lat="48.69284" lon="2.61963">
        <ele>71.6</ele>
        <time>2025-03-15T19:05:44Z</time>
      </trkpt>
      <trkpt lat="48.69284" lon="2.61959">
        <ele>71.6</ele>
        <time>2025-03-15T19:05:46Z</time>
      </trkpt>
      <trkpt lat="48.6928" lon="2.61929">
        <ele>71.8</ele>
        <time>2025-03-15T19:06:24Z</time>
      </trkpt>
      <trkpt lat="48.69281" lon="2.61932">
        <ele>71.8</ele>
        <time>2025-03-15T19:06:26Z</time>
      </trkpt>
      <trkpt lat="48.69286" lon="2.61935">
        <ele>71.8</ele>
        <time>2025-03-15T19:06:45Z</time>
      </trkpt>
      <trkpt lat="48.69286" lon="2.61938">
        <ele>71.8</ele>
        <time>2025-03-15T19:06:47Z</time>
      </trkpt>
      <trkpt lat="48.69286" lon="2.6194">
        <ele>71.8</ele>
        <time>2025-03-15T19:06:48Z</time>
      </trkpt>
      <trkpt lat="48.69282" lon="2.61948">
        <ele>71.4</ele>
        <time>2025-03-15T19:07:24Z</time>
      </trkpt>
      <trkpt lat="48.69285" lon="2.61952">
        <ele>71.4</ele>
        <time>2025-03-15T19:07:53Z</time>
      </trkpt>
      <trkpt lat="48.69282" lon="2.61953">
        <ele>71.6</ele>
        <time>2025-03-15T19:08:23Z</time>
      </trkpt>
      <trkpt lat="48.69297" lon="2.61963">
        <ele>71.8</ele>
        <time>2025-03-15T19:08:57Z</time>
      </trkpt>
      <trkpt lat="48.69295" lon="2.61969">
        <ele>71.8</ele>
        <time>2025-03-15T19:09:06Z</time>
      </trkpt>
      <trkpt lat="48.69293" lon="2.61972">
        <ele>71.8</ele>
        <time>2025-03-15T19:09:09Z</time>
      </trkpt>
      <trkpt lat="48.69282" lon="2.61987">
        <ele>71.6</ele>
        <time>2025-03-15T19:09:33Z</time>
      </trkpt>
      <trkpt lat="48.69285" lon="2.61955">
        <ele>71.4</ele>
        <time>2025-03-15T19:10:10Z</time>
      </trkpt>
      <trkpt lat="48.69285" lon="2.61937">
        <ele>71.2</ele>
        <time>2025-03-15T19:10:45Z</time>
      </trkpt>
      <trkpt lat="48.69287" lon="2.61951">
        <ele>71.4</ele>
        <time>2025-03-15T19:11:14Z</time>
      </trkpt>
      <trkpt lat="48.69284" lon="2.61957">
        <ele>71.6</ele>
        <time>2025-03-15T19:11:21Z</time>
      </trkpt>
      <trkpt lat="48.69283" lon="2.61958">
        <ele>71.6</ele>
        <time>2025-03-15T19:11:22Z</time>
      </trkpt>
      <trkpt lat="48.69282" lon="2.6196">
        <ele>71.6</ele>
        <time>2025-03-15T19:11:23Z</time>
      </trkpt>
      <trkpt lat="48.69279" lon="2.61926">
        <ele>71.2</ele>
        <time>2025-03-15T19:11:58Z</time>
      </trkpt>
      <trkpt lat="48.69281" lon="2.61932">
        <ele>71.2</ele>
        <time>2025-03-15T19:12:07Z</time>
      </trkpt>
      <trkpt lat="48.69282" lon="2.61962">
        <ele>70.8</ele>
        <time>2025-03-15T19:12:22Z</time>
      </trkpt>
      <trkpt lat="48.69285" lon="2.61959">
        <ele>70.8</ele>
        <time>2025-03-15T19:12:59Z</time>
      </trkpt>
      <trkpt lat="48.69278" lon="2.61959">
        <ele>71</ele>
        <time>2025-03-15T19:13:34Z</time>
      </trkpt>
      <trkpt lat="48.69285" lon="2.61874">
        <ele>70.8</ele>
        <time>2025-03-15T19:14:07Z</time>
      </trkpt>
      <trkpt lat="48.69297" lon="2.61818">
        <ele>71</ele>
        <time>2025-03-15T19:14:47Z</time>
      </trkpt>
      <trkpt lat="48.69293" lon="2.61844">
        <ele>71</ele>
        <time>2025-03-15T19:15:12Z</time>
      </trkpt>
      <trkpt lat="48.69283" lon="2.61869">
        <ele>70.8</ele>
        <time>2025-03-15T19:15:44Z</time>
      </trkpt>
      <trkpt lat="48.69279" lon="2.61882">
        <ele>70.8</ele>
        <time>2025-03-15T19:15:46Z</time>
      </trkpt>
      <trkpt lat="48.6927" lon="2.6197">
        <ele>70.6</ele>
        <time>2025-03-15T19:16:14Z</time>
      </trkpt>
      <trkpt lat="48.69273" lon="2.61981">
        <ele>71</ele>
        <time>2025-03-15T19:16:42Z</time>
      </trkpt>
      <trkpt lat="48.69281" lon="2.61965">
        <ele>71</ele>
        <time>2025-03-15T19:16:56Z</time>
      </trkpt>
      <trkpt lat="48.69284" lon="2.61961">
        <ele>70.6</ele>
        <time>2025-03-15T19:17:27Z</time>
      </trkpt>
      <trkpt lat="48.69282" lon="2.6196">
        <ele>70.8</ele>
        <time>2025-03-15T19:18:03Z</time>
      </trkpt>
      <trkpt lat="48.69278" lon="2.61981">
        <ele>70.8</ele>
        <time>2025-03-15T19:18:36Z</time>
      </trkpt>
      <trkpt lat="48.6928" lon="2.6197">
        <ele>70.6</ele>
        <time>2025-03-15T19:19:09Z</time>
      </trkpt>
      <trkpt lat="48.69291" lon="2.6193">
        <ele>70.6</ele>
        <time>2025-03-15T19:19:49Z</time>
      </trkpt>
      <trkpt lat="48.69292" lon="2.61935">
        <ele>70</ele>
        <time>2025-03-15T19:20:27Z</time>
      </trkpt>
      <trkpt lat="48.69295" lon="2.61929">
        <ele>71</ele>
        <time>2025-03-15T19:21:11Z</time>
      </trkpt>
      <trkpt lat="48.69293" lon="2.61932">
        <ele>70.8</ele>
        <time>2025-03-15T19:21:57Z</time>
      </trkpt>
      <trkpt lat="48.69287" lon="2.61978">
        <ele>70.6</ele>
        <time>2025-03-15T19:22:38Z</time>
      </trkpt>
      <trkpt lat="48.69285" lon="2.61992">
        <ele>70.4</ele>
        <time>2025-03-15T19:23:15Z</time>
      </trkpt>
      <trkpt lat="48.69277" lon="2.6196">
        <ele>70</ele>
        <time>2025-03-15T19:23:46Z</time>
      </trkpt>
      <trkpt lat="48.69241" lon="2.61911">
        <ele>70.2</ele>
        <time>2025-03-15T19:24:27Z</time>
      </trkpt>
      <trkpt lat="48.69248" lon="2.61927">
        <ele>70.2</ele>
        <time>2025-03-15T19:25:03Z</time>
      </trkpt>
      <trkpt lat="48.69267" lon="2.61931">
        <ele>70</ele>
        <time>2025-03-15T19:25:21Z</time>
      </trkpt>
      <trkpt lat="48.69282" lon="2.61963">
        <ele>69.6</ele>
        <time>2025-03-15T19:25:53Z</time>
      </trkpt>
      <trkpt lat="48.69278" lon="2.61956">
        <ele>70.4</ele>
        <time>2025-03-15T19:26:35Z</time>
      </trkpt>
      <trkpt lat="48.6928" lon="2.61961">
        <ele>70.4</ele>
        <time>2025-03-15T19:27:20Z</time>
      </trkpt>
      <trkpt lat="48.69276" lon="2.61974">
        <ele>70.4</ele>
        <time>2025-03-15T19:28:00Z</time>
      </trkpt>
      <trkpt lat="48.69291" lon="2.61977">
        <ele>70.4</ele>
        <time>2025-03-15T19:28:36Z</time>
      </trkpt>
      <trkpt lat="48.69304" lon="2.6198">
        <ele>69.8</ele>
        <time>2025-03-15T19:29:17Z</time>
      </trkpt>
      <trkpt lat="48.69294" lon="2.62009">
        <ele>70.6</ele>
        <time>2025-03-15T19:29:59Z</time>
      </trkpt>
      <trkpt lat="48.69287" lon="2.62015">
        <ele>70.4</ele>
        <time>2025-03-15T19:30:43Z</time>
      </trkpt>
      <trkpt lat="48.693" lon="2.61999">
        <ele>70.2</ele>
        <time>2025-03-15T19:31:18Z</time>
      </trkpt>
      <trkpt lat="48.69291" lon="2.62002">
        <ele>69.6</ele>
        <time>2025-03-15T19:31:51Z</time>
      </trkpt>
      <trkpt lat="48.69285" lon="2.61967">
        <ele>69.8</ele>
        <time>2025-03-15T19:32:31Z</time>
      </trkpt>
      <trkpt lat="48.69286" lon="2.61927">
        <ele>69.6</ele>
        <time>2025-03-15T19:33:13Z</time>
      </trkpt>
      <trkpt lat="48.6926" lon="2.61935">
        <ele>70</ele>
        <time>2025-03-15T19:33:56Z</time>
      </trkpt>
      <trkpt lat="48.69257" lon="2.61941">
        <ele>69.8</ele>
        <time>2025-03-15T19:34:44Z</time>
      </trkpt>
      <trkpt lat="48.69255" lon="2.61939">
        <ele>70</ele>
        <time>2025-03-15T19:35:26Z</time>
      </trkpt>
      <trkpt lat="48.69251" lon="2.61942">
        <ele>70</ele>
        <time>2025-03-15T19:35:39Z</time>
      </trkpt>
      <trkpt lat="48.69279" lon="2.61977">
        <ele>69.8</ele>
        <time>2025-03-15T19:36:13Z</time>
      </trkpt>
      <trkpt lat="48.69276" lon="2.61967">
        <ele>69.6</ele>
        <time>2025-03-15T19:36:50Z</time>
      </trkpt>
      <trkpt lat="48.69274" lon="2.61961">
        <ele>70</ele>
        <time>2025-03-15T19:37:44Z</time>
      </trkpt>
      <trkpt lat="48.69293" lon="2.61941">
        <ele>70.2</ele>
        <time>2025-03-15T19:38:46Z</time>
      </trkpt>
      <trkpt lat="48.69292" lon="2.61956">
        <ele>69.8</ele>
        <time>2025-03-15T19:39:18Z</time>
      </trkpt>
      <trkpt lat="48.69289" lon="2.61969">
        <ele>70</ele>
        <time>2025-03-15T19:39:58Z</time>
      </trkpt>
      <trkpt lat="48.69285" lon="2.61966">
        <ele>70</ele>
        <time>2025-03-15T19:40:14Z</time>
      </trkpt>
      <trkpt lat="48.69282" lon="2.61966">
        <ele>70.2</ele>
        <time>2025-03-15T19:40:19Z</time>
      </trkpt>
      <trkpt lat="48.69274" lon="2.61965">
        <ele>70.2</ele>
        <time>2025-03-15T19:40:57Z</time>
      </trkpt>
      <trkpt lat="48.69279" lon="2.61973">
        <ele>70.2</ele>
        <time>2025-03-15T19:41:42Z</time>
      </trkpt>
      <trkpt lat="48.69278" lon="2.61958">
        <ele>70.2</ele>
        <time>2025-03-15T19:41:56Z</time>
      </trkpt>
      <trkpt lat="48.69277" lon="2.61958">
        <ele>68.8</ele>
        <time>2025-03-15T19:42:39Z</time>
      </trkpt>
      <trkpt lat="48.69272" lon="2.6196">
        <ele>68.8</ele>
        <time>2025-03-15T19:42:43Z</time>
      </trkpt>
      <trkpt lat="48.69271" lon="2.6196">
        <ele>64.8</ele>
        <time>2025-03-15T19:42:46Z</time>
      </trkpt>
      <trkpt lat="48.6927" lon="2.61959">
        <ele>68</ele>
        <time>2025-03-15T19:42:51Z</time>
      </trkpt>
      <trkpt lat="48.69273" lon="2.61957">
        <ele>71.6</ele>
        <time>2025-03-15T19:42:54Z</time>
      </trkpt>
      <trkpt lat="48.69274" lon="2.61955">
        <ele>72</ele>
        <time>2025-03-15T19:42:55Z</time>
      </trkpt>
      <trkpt lat="48.69275" lon="2.61954">
        <ele>72.2</ele>
        <time>2025-03-15T19:42:56Z</time>
      </trkpt>
      <trkpt lat="48.69275" lon="2.6195">
        <ele>71.6</ele>
        <time>2025-03-15T19:42:59Z</time>
      </trkpt>
      <trkpt lat="48.69281" lon="2.61954">
        <ele>68.6</ele>
        <time>2025-03-15T19:43:09Z</time>
      </trkpt>
      <trkpt lat="48.69287" lon="2.61959">
        <ele>71.2</ele>
        <time>2025-03-15T19:43:26Z</time>
      </trkpt>
      <trkpt lat="48.69284" lon="2.61965">
        <ele>69.8</ele>
        <time>2025-03-15T19:43:50Z</time>
      </trkpt>
      <trkpt lat="48.69303" lon="2.61959">
        <ele>70.2</ele>
        <time>2025-03-15T19:43:57Z</time>
      </trkpt>
      <trkpt lat="48.69301" lon="2.61954">
        <ele>70.2</ele>
        <time>2025-03-15T19:44:42Z</time>
      </trkpt>
      <trkpt lat="48.69297" lon="2.61953">
        <ele>70</ele>
        <time>2025-03-15T19:45:35Z</time>
      </trkpt>
      <trkpt lat="48.69296" lon="2.61958">
        <ele>70.2</ele>
        <time>2025-03-15T19:46:10Z</time>
      </trkpt>
      <trkpt lat="48.69296" lon="2.61959">
        <ele>69.6</ele>
        <time>2025-03-15T19:46:24Z</time>
      </trkpt>
      <trkpt lat="48.69296" lon="2.61955">
        <ele>69.4</ele>
        <time>2025-03-15T19:46:42Z</time>
      </trkpt>
      <trkpt lat="48.69295" lon="2.61955">
        <ele>69.8</ele>
        <time>2025-03-15T19:47:00Z</time>
      </trkpt>
      <trkpt lat="48.69295" lon="2.61957">
        <ele>69.8</ele>
        <time>2025-03-15T19:47:01Z</time>
      </trkpt>
      <trkpt lat="48.69295" lon="2.61958">
        <ele>69.8</ele>
        <time>2025-03-15T19:47:02Z</time>
      </trkpt>
      <trkpt lat="48.69295" lon="2.6196">
        <ele>69.8</ele>
        <time>2025-03-15T19:47:03Z</time>
      </trkpt>
      <trkpt lat="48.69302" lon="2.61965">
        <ele>68.6</ele>
        <time>2025-03-15T19:48:00Z</time>
      </trkpt>
      <trkpt lat="48.69304" lon="2.6197">
        <ele>69.2</ele>
        <time>2025-03-15T19:48:43Z</time>
      </trkpt>
      <trkpt lat="48.69304" lon="2.6197">
        <ele>69</ele>
        <time>2025-03-15T19:48:44Z</time>
      </trkpt>
      <trkpt lat="48.69304" lon="2.6197">
        <ele>71.2</ele>
        <time>2025-03-15T19:49:00Z</time>
      </trkpt>
      <trkpt lat="48.69301" lon="2.61967">
        <ele>70</ele>
        <time>2025-03-15T19:49:15Z</time>
      </trkpt>
      <trkpt lat="48.69297" lon="2.61958">
        <ele>69.8</ele>
        <time>2025-03-15T19:49:30Z</time>
      </trkpt>
      <trkpt lat="48.69297" lon="2.61958">
        <ele>69.8</ele>
        <time>2025-03-15T19:50:05Z</time>
      </trkpt>
      <trkpt lat="48.69296" lon="2.61956">
        <ele>69.8</ele>
        <time>2025-03-15T19:50:07Z</time>
      </trkpt>
      <trkpt lat="48.69295" lon="2.61954">
        <ele>69.8</ele>
        <time>2025-03-15T19:50:08Z</time>
      </trkpt>
      <trkpt lat="48.69295" lon="2.61952">
        <ele>69.8</ele>
        <time>2025-03-15T19:50:09Z</time>
      </trkpt>
      <trkpt lat="48.69295" lon="2.61951">
        <ele>69.8</ele>
        <time>2025-03-15T19:50:10Z</time>
      </trkpt>
      <trkpt lat="48.69295" lon="2.61949">
        <ele>69.6</ele>
        <time>2025-03-15T19:50:11Z</time>
      </trkpt>
      <trkpt lat="48.69289" lon="2.61917">
        <ele>69.4</ele>
        <time>2025-03-15T19:50:29Z</time>
      </trkpt>
      <trkpt lat="48.69264" lon="2.61883">
        <ele>69.6</ele>
        <time>2025-03-15T19:50:44Z</time>
      </trkpt>
      <trkpt lat="48.69245" lon="2.61855">
        <ele>69.8</ele>
        <time>2025-03-15T19:50:57Z</time>
      </trkpt>
      <trkpt lat="48.69245" lon="2.61852">
        <ele>69.8</ele>
        <time>2025-03-15T19:50:58Z</time>
      </trkpt>
      <trkpt lat="48.69247" lon="2.61832">
        <ele>70</ele>
        <time>2025-03-15T19:51:08Z</time>
      </trkpt>
      <trkpt lat="48.69246" lon="2.61828">
        <ele>70</ele>
        <time>2025-03-15T19:51:10Z</time>
      </trkpt>
      <trkpt lat="48.69242" lon="2.61825">
        <ele>70</ele>
        <time>2025-03-15T19:51:13Z</time>
      </trkpt>
      <trkpt lat="48.6924" lon="2.61826">
        <ele>70.2</ele>
        <time>2025-03-15T19:51:14Z</time>
      </trkpt>
      <trkpt lat="48.69239" lon="2.61826">
        <ele>70.2</ele>
        <time>2025-03-15T19:51:15Z</time>
      </trkpt>
      <trkpt lat="48.69238" lon="2.61826">
        <ele>70.2</ele>
        <time>2025-03-15T19:51:16Z</time>
      </trkpt>
      <trkpt lat="48.69236" lon="2.61827">
        <ele>70.2</ele>
        <time>2025-03-15T19:51:17Z</time>
      </trkpt>
      <trkpt lat="48.69235" lon="2.61828">
        <ele>70.2</ele>
        <time>2025-03-15T19:51:18Z</time>
      </trkpt>
      <trkpt lat="48.69209" lon="2.6184">
        <ele>72</ele>
        <time>2025-03-15T19:51:37Z</time>
      </trkpt>
      <trkpt lat="48.69184" lon="2.61847">
        <ele>73</ele>
        <time>2025-03-15T19:51:55Z</time>
      </trkpt>
      <trkpt lat="48.69161" lon="2.61856">
        <ele>74.8</ele>
        <time>2025-03-15T19:52:12Z</time>
      </trkpt>
      <trkpt lat="48.69137" lon="2.61863">
        <ele>74.8</ele>
        <time>2025-03-15T19:52:28Z</time>
      </trkpt>
      <trkpt lat="48.69108" lon="2.61875">
        <ele>75.2</ele>
        <time>2025-03-15T19:52:48Z</time>
      </trkpt>
      <trkpt lat="48.69082" lon="2.61891">
        <ele>75.8</ele>
        <time>2025-03-15T19:53:09Z</time>
      </trkpt>
      <trkpt lat="48.69056" lon="2.61907">
        <ele>76</ele>
        <time>2025-03-15T19:53:29Z</time>
      </trkpt>
      <trkpt lat="48.69022" lon="2.61927">
        <ele>75.8</ele>
        <time>2025-03-15T19:53:51Z</time>
      </trkpt>
      <trkpt lat="48.68993" lon="2.61947">
        <ele>76.4</ele>
        <time>2025-03-15T19:54:12Z</time>
      </trkpt>
      <trkpt lat="48.68974" lon="2.61959">
        <ele>77.2</ele>
        <time>2025-03-15T19:54:26Z</time>
      </trkpt>
      <trkpt lat="48.68946" lon="2.61977">
        <ele>76.6</ele>
        <time>2025-03-15T19:54:47Z</time>
      </trkpt>
      <trkpt lat="48.6894" lon="2.62006">
        <ele>75.8</ele>
        <time>2025-03-15T19:55:03Z</time>
      </trkpt>
      <trkpt lat="48.68943" lon="2.62033">
        <ele>76.2</ele>
        <time>2025-03-15T19:55:19Z</time>
      </trkpt>
      <trkpt lat="48.68944" lon="2.62064">
        <ele>76</ele>
        <time>2025-03-15T19:55:35Z</time>
      </trkpt>
      <trkpt lat="48.68955" lon="2.62107">
        <ele>76.2</ele>
        <time>2025-03-15T19:55:51Z</time>
      </trkpt>
      <trkpt lat="48.68964" lon="2.62141">
        <ele>76.4</ele>
        <time>2025-03-15T19:56:07Z</time>
      </trkpt>
      <trkpt lat="48.68972" lon="2.62188">
        <ele>77</ele>
        <time>2025-03-15T19:56:28Z</time>
      </trkpt>
      <trkpt lat="48.68974" lon="2.62224">
        <ele>77</ele>
        <time>2025-03-15T19:56:44Z</time>
      </trkpt>
      <trkpt lat="48.6898" lon="2.6227">
        <ele>77.2</ele>
        <time>2025-03-15T19:57:04Z</time>
      </trkpt>
      <trkpt lat="48.68988" lon="2.62319">
        <ele>77.6</ele>
        <time>2025-03-15T19:57:26Z</time>
      </trkpt>
      <trkpt lat="48.68995" lon="2.62354">
        <ele>78</ele>
        <time>2025-03-15T19:57:43Z</time>
      </trkpt>
      <trkpt lat="48.69003" lon="2.62389">
        <ele>77</ele>
        <time>2025-03-15T19:57:59Z</time>
      </trkpt>
      <trkpt lat="48.69013" lon="2.62439">
        <ele>77.4</ele>
        <time>2025-03-15T19:58:21Z</time>
      </trkpt>
      <trkpt lat="48.69022" lon="2.62484">
        <ele>77.2</ele>
        <time>2025-03-15T19:58:41Z</time>
      </trkpt>
      <trkpt lat="48.69032" lon="2.62524">
        <ele>76.8</ele>
        <time>2025-03-15T19:59:02Z</time>
      </trkpt>
      <trkpt lat="48.69043" lon="2.62565">
        <ele>76.4</ele>
        <time>2025-03-15T19:59:21Z</time>
      </trkpt>
      <trkpt lat="48.69058" lon="2.62618">
        <ele>76.6</ele>
        <time>2025-03-15T19:59:45Z</time>
      </trkpt>
      <trkpt lat="48.69069" lon="2.62663">
        <ele>76.6</ele>
        <time>2025-03-15T20:00:06Z</time>
      </trkpt>
      <trkpt lat="48.69082" lon="2.62707">
        <ele>76.2</ele>
        <time>2025-03-15T20:00:26Z</time>
      </trkpt>
      <trkpt lat="48.69091" lon="2.62739">
        <ele>76.4</ele>
        <time>2025-03-15T20:00:42Z</time>
      </trkpt>
      <trkpt lat="48.69103" lon="2.62787">
        <ele>76.2</ele>
        <time>2025-03-15T20:01:04Z</time>
      </trkpt>
      <trkpt lat="48.69103" lon="2.62795">
        <ele>76</ele>
        <time>2025-03-15T20:01:08Z</time>
      </trkpt>
      <trkpt lat="48.69094" lon="2.62821">
        <ele>75.8</ele>
        <time>2025-03-15T20:01:22Z</time>
      </trkpt>
      <trkpt lat="48.6908" lon="2.62854">
        <ele>75.6</ele>
        <time>2025-03-15T20:01:40Z</time>
      </trkpt>
      <trkpt lat="48.69065" lon="2.62889">
        <ele>75.4</ele>
        <time>2025-03-15T20:01:57Z</time>
      </trkpt>
      <trkpt lat="48.69044" lon="2.62934">
        <ele>75.4</ele>
        <time>2025-03-15T20:02:20Z</time>
      </trkpt>
      <trkpt lat="48.69031" lon="2.62963">
        <ele>75.8</ele>
        <time>2025-03-15T20:02:36Z</time>
      </trkpt>
      <trkpt lat="48.69013" lon="2.63">
        <ele>75.4</ele>
        <time>2025-03-15T20:02:55Z</time>
      </trkpt>
      <trkpt lat="48.68995" lon="2.63034">
        <ele>75.2</ele>
        <time>2025-03-15T20:03:14Z</time>
      </trkpt>
      <trkpt lat="48.68976" lon="2.63074">
        <ele>75.6</ele>
        <time>2025-03-15T20:03:36Z</time>
      </trkpt>
      <trkpt lat="48.68962" lon="2.63106">
        <ele>75.4</ele>
        <time>2025-03-15T20:03:56Z</time>
      </trkpt>
      <trkpt lat="48.68943" lon="2.6314">
        <ele>75.2</ele>
        <time>2025-03-15T20:04:15Z</time>
      </trkpt>
      <trkpt lat="48.68929" lon="2.63168">
        <ele>75.2</ele>
        <time>2025-03-15T20:04:30Z</time>
      </trkpt>
      <trkpt lat="48.68916" lon="2.63199">
        <ele>75</ele>
        <time>2025-03-15T20:04:46Z</time>
      </trkpt>
      <trkpt lat="48.689" lon="2.63229">
        <ele>74.8</ele>
        <time>2025-03-15T20:05:03Z</time>
      </trkpt>
      <trkpt lat="48.68884" lon="2.63269">
        <ele>74.8</ele>
        <time>2025-03-15T20:05:22Z</time>
      </trkpt>
      <trkpt lat="48.68865" lon="2.63307">
        <ele>74.2</ele>
        <time>2025-03-15T20:05:42Z</time>
      </trkpt>
      <trkpt lat="48.68853" lon="2.63335">
        <ele>73.8</ele>
        <time>2025-03-15T20:05:58Z</time>
      </trkpt>
      <trkpt lat="48.68839" lon="2.63362">
        <ele>74.4</ele>
        <time>2025-03-15T20:06:13Z</time>
      </trkpt>
      <trkpt lat="48.68827" lon="2.63386">
        <ele>73.8</ele>
        <time>2025-03-15T20:06:28Z</time>
      </trkpt>
      <trkpt lat="48.68808" lon="2.63423">
        <ele>73.8</ele>
        <time>2025-03-15T20:06:48Z</time>
      </trkpt>
      <trkpt lat="48.68793" lon="2.63457">
        <ele>73.6</ele>
        <time>2025-03-15T20:07:05Z</time>
      </trkpt>
      <trkpt lat="48.68777" lon="2.63494">
        <ele>73.4</ele>
        <time>2025-03-15T20:07:25Z</time>
      </trkpt>
      <trkpt lat="48.6876" lon="2.63518">
        <ele>74</ele>
        <time>2025-03-15T20:07:41Z</time>
      </trkpt>
      <trkpt lat="48.68746" lon="2.63548">
        <ele>73.6</ele>
        <time>2025-03-15T20:07:56Z</time>
      </trkpt>
      <trkpt lat="48.68738" lon="2.63567">
        <ele>73.8</ele>
        <time>2025-03-15T20:08:05Z</time>
      </trkpt>
      <trkpt lat="48.68725" lon="2.636">
        <ele>73.8</ele>
        <time>2025-03-15T20:08:21Z</time>
      </trkpt>
      <trkpt lat="48.68713" lon="2.63629">
        <ele>73.4</ele>
        <time>2025-03-15T20:08:36Z</time>
      </trkpt>
      <trkpt lat="48.687" lon="2.63652">
        <ele>73.4</ele>
        <time>2025-03-15T20:08:50Z</time>
      </trkpt>
      <trkpt lat="48.68698" lon="2.63655">
        <ele>73.4</ele>
        <time>2025-03-15T20:08:52Z</time>
      </trkpt>
      <trkpt lat="48.68681" lon="2.63691">
        <ele>73.4</ele>
        <time>2025-03-15T20:09:11Z</time>
      </trkpt>
      <trkpt lat="48.6867" lon="2.63711">
        <ele>72.4</ele>
        <time>2025-03-15T20:09:26Z</time>
      </trkpt>
      <trkpt lat="48.68669" lon="2.63714">
        <ele>72.4</ele>
        <time>2025-03-15T20:09:27Z</time>
      </trkpt>
      <trkpt lat="48.68668" lon="2.63716">
        <ele>72.4</ele>
        <time>2025-03-15T20:09:28Z</time>
      </trkpt>
      <trkpt lat="48.68667" lon="2.63719">
        <ele>72.4</ele>
        <time>2025-03-15T20:09:29Z</time>
      </trkpt>
      <trkpt lat="48.68665" lon="2.63721">
        <ele>72.4</ele>
        <time>2025-03-15T20:09:30Z</time>
      </trkpt>
      <trkpt lat="48.68665" lon="2.63723">
        <ele>72.2</ele>
        <time>2025-03-15T20:09:31Z</time>
      </trkpt>
      <trkpt lat="48.68653" lon="2.63753">
        <ele>72.2</ele>
        <time>2025-03-15T20:09:47Z</time>
      </trkpt>
      <trkpt lat="48.68637" lon="2.63791">
        <ele>71.8</ele>
        <time>2025-03-15T20:10:07Z</time>
      </trkpt>
      <trkpt lat="48.68626" lon="2.6382">
        <ele>71.8</ele>
        <time>2025-03-15T20:10:22Z</time>
      </trkpt>
      <trkpt lat="48.68613" lon="2.63849">
        <ele>71.6</ele>
        <time>2025-03-15T20:10:38Z</time>
      </trkpt>
      <trkpt lat="48.68604" lon="2.63877">
        <ele>71.6</ele>
        <time>2025-03-15T20:10:52Z</time>
      </trkpt>
      <trkpt lat="48.6859" lon="2.63906">
        <ele>70.8</ele>
        <time>2025-03-15T20:11:08Z</time>
      </trkpt>
      <trkpt lat="48.68576" lon="2.63936">
        <ele>70.8</ele>
        <time>2025-03-15T20:11:22Z</time>
      </trkpt>
      <trkpt lat="48.68561" lon="2.6397">
        <ele>70.8</ele>
        <time>2025-03-15T20:11:39Z</time>
      </trkpt>
      <trkpt lat="48.68549" lon="2.64004">
        <ele>70.4</ele>
        <time>2025-03-15T20:11:56Z</time>
      </trkpt>
      <trkpt lat="48.68535" lon="2.64042">
        <ele>70.2</ele>
        <time>2025-03-15T20:12:14Z</time>
      </trkpt>
      <trkpt lat="48.6852" lon="2.64083">
        <ele>69.4</ele>
        <time>2025-03-15T20:12:34Z</time>
      </trkpt>
      <trkpt lat="48.68503" lon="2.64128">
        <ele>69.4</ele>
        <time>2025-03-15T20:12:56Z</time>
      </trkpt>
      <trkpt lat="48.68489" lon="2.64165">
        <ele>69.4</ele>
        <time>2025-03-15T20:13:15Z</time>
      </trkpt>
      <trkpt lat="48.68477" lon="2.64202">
        <ele>69</ele>
        <time>2025-03-15T20:13:33Z</time>
      </trkpt>
      <trkpt lat="48.68464" lon="2.64243">
        <ele>68.8</ele>
        <time>2025-03-15T20:13:53Z</time>
      </trkpt>
      <trkpt lat="48.68451" lon="2.64282">
        <ele>68.6</ele>
        <time>2025-03-15T20:14:12Z</time>
      </trkpt>
      <trkpt lat="48.6844" lon="2.64315">
        <ele>68.6</ele>
        <time>2025-03-15T20:14:29Z</time>
      </trkpt>
      <trkpt lat="48.68429" lon="2.64347">
        <ele>68.4</ele>
        <time>2025-03-15T20:14:45Z</time>
      </trkpt>
      <trkpt lat="48.68419" lon="2.64377">
        <ele>68.4</ele>
        <time>2025-03-15T20:15:00Z</time>
      </trkpt>
      <trkpt lat="48.68407" lon="2.64416">
        <ele>68.4</ele>
        <time>2025-03-15T20:15:19Z</time>
      </trkpt>
      <trkpt lat="48.68397" lon="2.64442">
        <ele>68.4</ele>
        <time>2025-03-15T20:15:33Z</time>
      </trkpt>
      <trkpt lat="48.68387" lon="2.64475">
        <ele>68</ele>
        <time>2025-03-15T20:15:48Z</time>
      </trkpt>
      <trkpt lat="48.68378" lon="2.64507">
        <ele>64.8</ele>
        <time>2025-03-15T20:16:02Z</time>
      </trkpt>
      <trkpt lat="48.68373" lon="2.64519">
        <ele>68</ele>
        <time>2025-03-15T20:16:08Z</time>
      </trkpt>
      <trkpt lat="48.68372" lon="2.64524">
        <ele>68.8</ele>
        <time>2025-03-15T20:16:10Z</time>
      </trkpt>
      <trkpt lat="48.68362" lon="2.6456">
        <ele>67.6</ele>
        <time>2025-03-15T20:16:28Z</time>
      </trkpt>
      <trkpt lat="48.68348" lon="2.64599">
        <ele>68.2</ele>
        <time>2025-03-15T20:16:48Z</time>
      </trkpt>
      <trkpt lat="48.68338" lon="2.64632">
        <ele>68.2</ele>
        <time>2025-03-15T20:17:04Z</time>
      </trkpt>
      <trkpt lat="48.6833" lon="2.64672">
        <ele>68.4</ele>
        <time>2025-03-15T20:17:22Z</time>
      </trkpt>
      <trkpt lat="48.6832" lon="2.64708">
        <ele>68.4</ele>
        <time>2025-03-15T20:17:39Z</time>
      </trkpt>
      <trkpt lat="48.68312" lon="2.64751">
        <ele>68.8</ele>
        <time>2025-03-15T20:17:59Z</time>
      </trkpt>
      <trkpt lat="48.68302" lon="2.6479">
        <ele>69</ele>
        <time>2025-03-15T20:18:17Z</time>
      </trkpt>
      <trkpt lat="48.68293" lon="2.64826">
        <ele>69.4</ele>
        <time>2025-03-15T20:18:35Z</time>
      </trkpt>
      <trkpt lat="48.68286" lon="2.64858">
        <ele>69.8</ele>
        <time>2025-03-15T20:18:50Z</time>
      </trkpt>
      <trkpt lat="48.68276" lon="2.64889">
        <ele>70.4</ele>
        <time>2025-03-15T20:19:05Z</time>
      </trkpt>
      <trkpt lat="48.68267" lon="2.64926">
        <ele>70.4</ele>
        <time>2025-03-15T20:19:22Z</time>
      </trkpt>
      <trkpt lat="48.68258" lon="2.64962">
        <ele>70.4</ele>
        <time>2025-03-15T20:19:39Z</time>
      </trkpt>
      <trkpt lat="48.68248" lon="2.65001">
        <ele>70.6</ele>
        <time>2025-03-15T20:19:57Z</time>
      </trkpt>
      <trkpt lat="48.68241" lon="2.65035">
        <ele>71.2</ele>
        <time>2025-03-15T20:20:13Z</time>
      </trkpt>
      <trkpt lat="48.68231" lon="2.65078">
        <ele>71.6</ele>
        <time>2025-03-15T20:20:33Z</time>
      </trkpt>
      <trkpt lat="48.6822" lon="2.65126">
        <ele>71.8</ele>
        <time>2025-03-15T20:20:55Z</time>
      </trkpt>
      <trkpt lat="48.68208" lon="2.65176">
        <ele>71.8</ele>
        <time>2025-03-15T20:21:18Z</time>
      </trkpt>
      <trkpt lat="48.68199" lon="2.65214">
        <ele>72</ele>
        <time>2025-03-15T20:21:36Z</time>
      </trkpt>
      <trkpt lat="48.68191" lon="2.65247">
        <ele>72.4</ele>
        <time>2025-03-15T20:21:52Z</time>
      </trkpt>
      <trkpt lat="48.68182" lon="2.65288">
        <ele>72.6</ele>
        <time>2025-03-15T20:22:12Z</time>
      </trkpt>
      <trkpt lat="48.68172" lon="2.65326">
        <ele>72.8</ele>
        <time>2025-03-15T20:22:29Z</time>
      </trkpt>
      <trkpt lat="48.68162" lon="2.65364">
        <ele>73.2</ele>
        <time>2025-03-15T20:22:47Z</time>
      </trkpt>
      <trkpt lat="48.68154" lon="2.65399">
        <ele>73.4</ele>
        <time>2025-03-15T20:23:03Z</time>
      </trkpt>
      <trkpt lat="48.68146" lon="2.65439">
        <ele>73.8</ele>
        <time>2025-03-15T20:23:21Z</time>
      </trkpt>
      <trkpt lat="48.68137" lon="2.65468">
        <ele>74.4</ele>
        <time>2025-03-15T20:23:35Z</time>
      </trkpt>
      <trkpt lat="48.68137" lon="2.6547">
        <ele>74.4</ele>
        <time>2025-03-15T20:23:36Z</time>
      </trkpt>
      <trkpt lat="48.68136" lon="2.65473">
        <ele>74.4</ele>
        <time>2025-03-15T20:23:37Z</time>
      </trkpt>
      <trkpt lat="48.68127" lon="2.65515">
        <ele>74.4</ele>
        <time>2025-03-15T20:23:56Z</time>
      </trkpt>
      <trkpt lat="48.68118" lon="2.65553">
        <ele>74.4</ele>
        <time>2025-03-15T20:24:14Z</time>
      </trkpt>
      <trkpt lat="48.68116" lon="2.65558">
        <ele>74.6</ele>
        <time>2025-03-15T20:24:17Z</time>
      </trkpt>
      <trkpt lat="48.68116" lon="2.6556">
        <ele>74.6</ele>
        <time>2025-03-15T20:24:18Z</time>
      </trkpt>
      <trkpt lat="48.68115" lon="2.65561">
        <ele>74.6</ele>
        <time>2025-03-15T20:24:19Z</time>
      </trkpt>
      <trkpt lat="48.68115" lon="2.65563">
        <ele>74.6</ele>
        <time>2025-03-15T20:24:20Z</time>
      </trkpt>
      <trkpt lat="48.68114" lon="2.65565">
        <ele>74.8</ele>
        <time>2025-03-15T20:24:21Z</time>
      </trkpt>
      <trkpt lat="48.68114" lon="2.65567">
        <ele>74.8</ele>
        <time>2025-03-15T20:24:22Z</time>
      </trkpt>
      <trkpt lat="48.68113" lon="2.65569">
        <ele>74.8</ele>
        <time>2025-03-15T20:24:23Z</time>
      </trkpt>
      <trkpt lat="48.68113" lon="2.6557">
        <ele>75</ele>
        <time>2025-03-15T20:24:24Z</time>
      </trkpt>
      <trkpt lat="48.68112" lon="2.65573">
        <ele>75</ele>
        <time>2025-03-15T20:24:25Z</time>
      </trkpt>
      <trkpt lat="48.68111" lon="2.65575">
        <ele>75</ele>
        <time>2025-03-15T20:24:26Z</time>
      </trkpt>
      <trkpt lat="48.68111" lon="2.65577">
        <ele>75</ele>
        <time>2025-03-15T20:24:27Z</time>
      </trkpt>
      <trkpt lat="48.68104" lon="2.65612">
        <ele>75</ele>
        <time>2025-03-15T20:24:43Z</time>
      </trkpt>
      <trkpt lat="48.68102" lon="2.65617">
        <ele>75</ele>
        <time>2025-03-15T20:24:47Z</time>
      </trkpt>
      <trkpt lat="48.681" lon="2.6562">
        <ele>75.2</ele>
        <time>2025-03-15T20:24:49Z</time>
      </trkpt>
      <trkpt lat="48.681" lon="2.65623">
        <ele>75.4</ele>
        <time>2025-03-15T20:24:50Z</time>
      </trkpt>
      <trkpt lat="48.68099" lon="2.65625">
        <ele>75.4</ele>
        <time>2025-03-15T20:24:51Z</time>
      </trkpt>
      <trkpt lat="48.68099" lon="2.65628">
        <ele>75.4</ele>
        <time>2025-03-15T20:24:52Z</time>
      </trkpt>
      <trkpt lat="48.68098" lon="2.6563">
        <ele>75.6</ele>
        <time>2025-03-15T20:24:53Z</time>
      </trkpt>
      <trkpt lat="48.68098" lon="2.65633">
        <ele>75.6</ele>
        <time>2025-03-15T20:24:54Z</time>
      </trkpt>
      <trkpt lat="48.68097" lon="2.65635">
        <ele>75.6</ele>
        <time>2025-03-15T20:24:55Z</time>
      </trkpt>
      <trkpt lat="48.68097" lon="2.65638">
        <ele>75.4</ele>
        <time>2025-03-15T20:24:56Z</time>
      </trkpt>
      <trkpt lat="48.6809" lon="2.65674">
        <ele>75.6</ele>
        <time>2025-03-15T20:25:12Z</time>
      </trkpt>
      <trkpt lat="48.68081" lon="2.65718">
        <ele>76</ele>
        <time>2025-03-15T20:25:32Z</time>
      </trkpt>
      <trkpt lat="48.68074" lon="2.65748">
        <ele>76.2</ele>
        <time>2025-03-15T20:25:46Z</time>
      </trkpt>
      <trkpt lat="48.68065" lon="2.6578">
        <ele>76.4</ele>
        <time>2025-03-15T20:26:02Z</time>
      </trkpt>
      <trkpt lat="48.68053" lon="2.65824">
        <ele>76.6</ele>
        <time>2025-03-15T20:26:21Z</time>
      </trkpt>
      <trkpt lat="48.68044" lon="2.6586">
        <ele>77</ele>
        <time>2025-03-15T20:26:38Z</time>
      </trkpt>
      <trkpt lat="48.68035" lon="2.65894">
        <ele>77.2</ele>
        <time>2025-03-15T20:26:55Z</time>
      </trkpt>
      <trkpt lat="48.68027" lon="2.65925">
        <ele>78.2</ele>
        <time>2025-03-15T20:27:12Z</time>
      </trkpt>
      <trkpt lat="48.68025" lon="2.65929">
        <ele>78.2</ele>
        <time>2025-03-15T20:27:17Z</time>
      </trkpt>
      <trkpt lat="48.68025" lon="2.65931">
        <ele>78</ele>
        <time>2025-03-15T20:27:18Z</time>
      </trkpt>
      <trkpt lat="48.68025" lon="2.65933">
        <ele>77.8</ele>
        <time>2025-03-15T20:27:19Z</time>
      </trkpt>
      <trkpt lat="48.68025" lon="2.65935">
        <ele>77.6</ele>
        <time>2025-03-15T20:27:20Z</time>
      </trkpt>
      <trkpt lat="48.68024" lon="2.65937">
        <ele>77.6</ele>
        <time>2025-03-15T20:27:21Z</time>
      </trkpt>
      <trkpt lat="48.68024" lon="2.65939">
        <ele>77.4</ele>
        <time>2025-03-15T20:27:22Z</time>
      </trkpt>
      <trkpt lat="48.68016" lon="2.65975">
        <ele>77.6</ele>
        <time>2025-03-15T20:27:39Z</time>
      </trkpt>
      <trkpt lat="48.68006" lon="2.66022">
        <ele>77.8</ele>
        <time>2025-03-15T20:28:00Z</time>
      </trkpt>
      <trkpt lat="48.67995" lon="2.66068">
        <ele>78.6</ele>
        <time>2025-03-15T20:28:22Z</time>
      </trkpt>
      <trkpt lat="48.67987" lon="2.66103">
        <ele>79.2</ele>
        <time>2025-03-15T20:28:38Z</time>
      </trkpt>
      <trkpt lat="48.67977" lon="2.66149">
        <ele>79.2</ele>
        <time>2025-03-15T20:28:59Z</time>
      </trkpt>
      <trkpt lat="48.67969" lon="2.66184">
        <ele>79.6</ele>
        <time>2025-03-15T20:29:16Z</time>
      </trkpt>
      <trkpt lat="48.67961" lon="2.66221">
        <ele>79.8</ele>
        <time>2025-03-15T20:29:33Z</time>
      </trkpt>
      <trkpt lat="48.67951" lon="2.6626">
        <ele>79.8</ele>
        <time>2025-03-15T20:29:52Z</time>
      </trkpt>
      <trkpt lat="48.67944" lon="2.66291">
        <ele>79.6</ele>
        <time>2025-03-15T20:30:06Z</time>
      </trkpt>
      <trkpt lat="48.67943" lon="2.66293">
        <ele>79.6</ele>
        <time>2025-03-15T20:30:07Z</time>
      </trkpt>
      <trkpt lat="48.67942" lon="2.66295">
        <ele>79.8</ele>
        <time>2025-03-15T20:30:08Z</time>
      </trkpt>
      <trkpt lat="48.67942" lon="2.66297">
        <ele>79.8</ele>
        <time>2025-03-15T20:30:09Z</time>
      </trkpt>
      <trkpt lat="48.67941" lon="2.66299">
        <ele>79.8</ele>
        <time>2025-03-15T20:30:10Z</time>
      </trkpt>
      <trkpt lat="48.67941" lon="2.66301">
        <ele>79.8</ele>
        <time>2025-03-15T20:30:11Z</time>
      </trkpt>
      <trkpt lat="48.67941" lon="2.66304">
        <ele>79.8</ele>
        <time>2025-03-15T20:30:12Z</time>
      </trkpt>
      <trkpt lat="48.67932" lon="2.66336">
        <ele>80.2</ele>
        <time>2025-03-15T20:30:28Z</time>
      </trkpt>
      <trkpt lat="48.67928" lon="2.66353">
        <ele>80</ele>
        <time>2025-03-15T20:30:36Z</time>
      </trkpt>
      <trkpt lat="48.67922" lon="2.66391">
        <ele>80.8</ele>
        <time>2025-03-15T20:30:54Z</time>
      </trkpt>
      <trkpt lat="48.67912" lon="2.66429">
        <ele>81.2</ele>
        <time>2025-03-15T20:31:13Z</time>
      </trkpt>
      <trkpt lat="48.67906" lon="2.66463">
        <ele>81</ele>
        <time>2025-03-15T20:31:29Z</time>
      </trkpt>
      <trkpt lat="48.67898" lon="2.66488">
        <ele>81.2</ele>
        <time>2025-03-15T20:31:43Z</time>
      </trkpt>
      <trkpt lat="48.6789" lon="2.6652">
        <ele>81.8</ele>
        <time>2025-03-15T20:31:58Z</time>
      </trkpt>
      <trkpt lat="48.67881" lon="2.6656">
        <ele>81.6</ele>
        <time>2025-03-15T20:32:15Z</time>
      </trkpt>
      <trkpt lat="48.67872" lon="2.66602">
        <ele>81.8</ele>
        <time>2025-03-15T20:32:34Z</time>
      </trkpt>
      <trkpt lat="48.67866" lon="2.66635">
        <ele>82.4</ele>
        <time>2025-03-15T20:32:49Z</time>
      </trkpt>
      <trkpt lat="48.67858" lon="2.66667">
        <ele>82</ele>
        <time>2025-03-15T20:33:05Z</time>
      </trkpt>
      <trkpt lat="48.67848" lon="2.66696">
        <ele>82</ele>
        <time>2025-03-15T20:33:20Z</time>
      </trkpt>
      <trkpt lat="48.67843" lon="2.66714">
        <ele>82.2</ele>
        <time>2025-03-15T20:33:28Z</time>
      </trkpt>
      <trkpt lat="48.67836" lon="2.66748">
        <ele>82.4</ele>
        <time>2025-03-15T20:33:43Z</time>
      </trkpt>
      <trkpt lat="48.67825" lon="2.66791">
        <ele>82.2</ele>
        <time>2025-03-15T20:34:02Z</time>
      </trkpt>
      <trkpt lat="48.67816" lon="2.66834">
        <ele>81.8</ele>
        <time>2025-03-15T20:34:21Z</time>
      </trkpt>
      <trkpt lat="48.67808" lon="2.66861">
        <ele>82</ele>
        <time>2025-03-15T20:34:35Z</time>
      </trkpt>
      <trkpt lat="48.67808" lon="2.66863">
        <ele>82.2</ele>
        <time>2025-03-15T20:34:36Z</time>
      </trkpt>
      <trkpt lat="48.67807" lon="2.66865">
        <ele>82</ele>
        <time>2025-03-15T20:34:37Z</time>
      </trkpt>
      <trkpt lat="48.67807" lon="2.66868">
        <ele>82</ele>
        <time>2025-03-15T20:34:38Z</time>
      </trkpt>
      <trkpt lat="48.67806" lon="2.6687">
        <ele>82.2</ele>
        <time>2025-03-15T20:34:39Z</time>
      </trkpt>
      <trkpt lat="48.67806" lon="2.66873">
        <ele>82.2</ele>
        <time>2025-03-15T20:34:40Z</time>
      </trkpt>
      <trkpt lat="48.67805" lon="2.66875">
        <ele>82.2</ele>
        <time>2025-03-15T20:34:41Z</time>
      </trkpt>
      <trkpt lat="48.67804" lon="2.66877">
        <ele>82.4</ele>
        <time>2025-03-15T20:34:42Z</time>
      </trkpt>
      <trkpt lat="48.67799" lon="2.66915">
        <ele>81.4</ele>
        <time>2025-03-15T20:34:59Z</time>
      </trkpt>
      <trkpt lat="48.67791" lon="2.66961">
        <ele>81.4</ele>
        <time>2025-03-15T20:35:19Z</time>
      </trkpt>
      <trkpt lat="48.67782" lon="2.67002">
        <ele>82</ele>
        <time>2025-03-15T20:35:37Z</time>
      </trkpt>
      <trkpt lat="48.67773" lon="2.67037">
        <ele>81.8</ele>
        <time>2025-03-15T20:35:53Z</time>
      </trkpt>
      <trkpt lat="48.67762" lon="2.67075">
        <ele>82.2</ele>
        <time>2025-03-15T20:36:10Z</time>
      </trkpt>
      <trkpt lat="48.67753" lon="2.67118">
        <ele>82.2</ele>
        <time>2025-03-15T20:36:29Z</time>
      </trkpt>
      <trkpt lat="48.67742" lon="2.67159">
        <ele>81.8</ele>
        <time>2025-03-15T20:36:48Z</time>
      </trkpt>
      <trkpt lat="48.67732" lon="2.67194">
        <ele>81.8</ele>
        <time>2025-03-15T20:37:06Z</time>
      </trkpt>
      <trkpt lat="48.67725" lon="2.67212">
        <ele>81.8</ele>
        <time>2025-03-15T20:37:16Z</time>
      </trkpt>
      <trkpt lat="48.67724" lon="2.67214">
        <ele>81.8</ele>
        <time>2025-03-15T20:37:17Z</time>
      </trkpt>
      <trkpt lat="48.67714" lon="2.67242">
        <ele>81.8</ele>
        <time>2025-03-15T20:37:31Z</time>
      </trkpt>
      <trkpt lat="48.67702" lon="2.67277">
        <ele>81.8</ele>
        <time>2025-03-15T20:37:48Z</time>
      </trkpt>
      <trkpt lat="48.67689" lon="2.67308">
        <ele>81.8</ele>
        <time>2025-03-15T20:38:03Z</time>
      </trkpt>
      <trkpt lat="48.67675" lon="2.67339">
        <ele>81.8</ele>
        <time>2025-03-15T20:38:19Z</time>
      </trkpt>
      <trkpt lat="48.67657" lon="2.6737">
        <ele>82</ele>
        <time>2025-03-15T20:38:37Z</time>
      </trkpt>
      <trkpt lat="48.67641" lon="2.674">
        <ele>82</ele>
        <time>2025-03-15T20:38:52Z</time>
      </trkpt>
      <trkpt lat="48.67622" lon="2.67432">
        <ele>82</ele>
        <time>2025-03-15T20:39:11Z</time>
      </trkpt>
      <trkpt lat="48.67606" lon="2.67454">
        <ele>81.8</ele>
        <time>2025-03-15T20:39:25Z</time>
      </trkpt>
      <trkpt lat="48.67605" lon="2.67455">
        <ele>81.8</ele>
        <time>2025-03-15T20:39:26Z</time>
      </trkpt>
      <trkpt lat="48.67604" lon="2.67456">
        <ele>81.8</ele>
        <time>2025-03-15T20:39:27Z</time>
      </trkpt>
      <trkpt lat="48.67586" lon="2.67484">
        <ele>81.8</ele>
        <time>2025-03-15T20:39:43Z</time>
      </trkpt>
      <trkpt lat="48.67566" lon="2.67508">
        <ele>81.8</ele>
        <time>2025-03-15T20:40:00Z</time>
      </trkpt>
      <trkpt lat="48.67549" lon="2.67528">
        <ele>82</ele>
        <time>2025-03-15T20:40:14Z</time>
      </trkpt>
      <trkpt lat="48.67522" lon="2.67553">
        <ele>81.4</ele>
        <time>2025-03-15T20:40:34Z</time>
      </trkpt>
      <trkpt lat="48.67497" lon="2.67577">
        <ele>81.4</ele>
        <time>2025-03-15T20:40:52Z</time>
      </trkpt>
      <trkpt lat="48.6748" lon="2.67594">
        <ele>81.2</ele>
        <time>2025-03-15T20:41:07Z</time>
      </trkpt>
      <trkpt lat="48.67475" lon="2.676">
        <ele>81.2</ele>
        <time>2025-03-15T20:41:12Z</time>
      </trkpt>
      <trkpt lat="48.67473" lon="2.676">
        <ele>81.4</ele>
        <time>2025-03-15T20:41:13Z</time>
      </trkpt>
      <trkpt lat="48.67472" lon="2.676">
        <ele>81.4</ele>
        <time>2025-03-15T20:41:14Z</time>
      </trkpt>
      <trkpt lat="48.67468" lon="2.67603">
        <ele>81.8</ele>
        <time>2025-03-15T20:41:27Z</time>
      </trkpt>
      <trkpt lat="48.67467" lon="2.67603">
        <ele>81.2</ele>
        <time>2025-03-15T20:41:47Z</time>
      </trkpt>
      <trkpt lat="48.67467" lon="2.67603">
        <ele>81.6</ele>
        <time>2025-03-15T20:42:18Z</time>
      </trkpt>
      <trkpt lat="48.67462" lon="2.67602">
        <ele>81.2</ele>
        <time>2025-03-15T20:42:32Z</time>
      </trkpt>
      <trkpt lat="48.67461" lon="2.67602">
        <ele>81</ele>
        <time>2025-03-15T20:42:33Z</time>
      </trkpt>
      <trkpt lat="48.6746" lon="2.67604">
        <ele>80.8</ele>
        <time>2025-03-15T20:42:34Z</time>
      </trkpt>
      <trkpt lat="48.67459" lon="2.67605">
        <ele>80.6</ele>
        <time>2025-03-15T20:42:35Z</time>
      </trkpt>
      <trkpt lat="48.67458" lon="2.67607">
        <ele>80.6</ele>
        <time>2025-03-15T20:42:36Z</time>
      </trkpt>
      <trkpt lat="48.67442" lon="2.67629">
        <ele>81</ele>
        <time>2025-03-15T20:42:52Z</time>
      </trkpt>
      <trkpt lat="48.67441" lon="2.6763">
        <ele>81</ele>
        <time>2025-03-15T20:42:53Z</time>
      </trkpt>
      <trkpt lat="48.67418" lon="2.67646">
        <ele>80.2</ele>
        <time>2025-03-15T20:43:09Z</time>
      </trkpt>
      <trkpt lat="48.67391" lon="2.67666">
        <ele>80</ele>
        <time>2025-03-15T20:43:27Z</time>
      </trkpt>
      <trkpt lat="48.67366" lon="2.67687">
        <ele>79.4</ele>
        <time>2025-03-15T20:43:44Z</time>
      </trkpt>
      <trkpt lat="48.67338" lon="2.6771">
        <ele>79.6</ele>
        <time>2025-03-15T20:44:04Z</time>
      </trkpt>
      <trkpt lat="48.67318" lon="2.6773">
        <ele>79.8</ele>
        <time>2025-03-15T20:44:20Z</time>
      </trkpt>
      <trkpt lat="48.67292" lon="2.6776">
        <ele>79.6</ele>
        <time>2025-03-15T20:44:39Z</time>
      </trkpt>
      <trkpt lat="48.67269" lon="2.67787">
        <ele>79</ele>
        <time>2025-03-15T20:44:57Z</time>
      </trkpt>
      <trkpt lat="48.6725" lon="2.67811">
        <ele>77.4</ele>
        <time>2025-03-15T20:45:13Z</time>
      </trkpt>
      <trkpt lat="48.67228" lon="2.67839">
        <ele>78.6</ele>
        <time>2025-03-15T20:45:31Z</time>
      </trkpt>
      <trkpt lat="48.6721" lon="2.6787">
        <ele>78.2</ele>
        <time>2025-03-15T20:45:49Z</time>
      </trkpt>
      <trkpt lat="48.67191" lon="2.67905">
        <ele>78.4</ele>
        <time>2025-03-15T20:46:09Z</time>
      </trkpt>
      <trkpt lat="48.67174" lon="2.67936">
        <ele>78.6</ele>
        <time>2025-03-15T20:46:26Z</time>
      </trkpt>
      <trkpt lat="48.67158" lon="2.67969">
        <ele>78.6</ele>
        <time>2025-03-15T20:46:44Z</time>
      </trkpt>
      <trkpt lat="48.67145" lon="2.68005">
        <ele>78.6</ele>
        <time>2025-03-15T20:47:01Z</time>
      </trkpt>
      <trkpt lat="48.67129" lon="2.6805">
        <ele>78</ele>
        <time>2025-03-15T20:47:22Z</time>
      </trkpt>
      <trkpt lat="48.67115" lon="2.68094">
        <ele>78</ele>
        <time>2025-03-15T20:47:43Z</time>
      </trkpt>
      <trkpt lat="48.67105" lon="2.68134">
        <ele>77.8</ele>
        <time>2025-03-15T20:48:02Z</time>
      </trkpt>
      <trkpt lat="48.67093" lon="2.68172">
        <ele>77.6</ele>
        <time>2025-03-15T20:48:21Z</time>
      </trkpt>
      <trkpt lat="48.67085" lon="2.68203">
        <ele>76.8</ele>
        <time>2025-03-15T20:48:40Z</time>
      </trkpt>
      <trkpt lat="48.67085" lon="2.68206">
        <ele>77.4</ele>
        <time>2025-03-15T20:49:04Z</time>
      </trkpt>
      <trkpt lat="48.67085" lon="2.68207">
        <ele>77.2</ele>
        <time>2025-03-15T20:49:05Z</time>
      </trkpt>
      <trkpt lat="48.67085" lon="2.68209">
        <ele>77</ele>
        <time>2025-03-15T20:49:06Z</time>
      </trkpt>
      <trkpt lat="48.67084" lon="2.68212">
        <ele>76.6</ele>
        <time>2025-03-15T20:49:07Z</time>
      </trkpt>
      <trkpt lat="48.67084" lon="2.68213">
        <ele>76.4</ele>
        <time>2025-03-15T20:49:08Z</time>
      </trkpt>
      <trkpt lat="48.67084" lon="2.68216">
        <ele>76.4</ele>
        <time>2025-03-15T20:49:09Z</time>
      </trkpt>
      <trkpt lat="48.67084" lon="2.68218">
        <ele>76.2</ele>
        <time>2025-03-15T20:49:10Z</time>
      </trkpt>
      <trkpt lat="48.67085" lon="2.68221">
        <ele>76.2</ele>
        <time>2025-03-15T20:49:11Z</time>
      </trkpt>
      <trkpt lat="48.67078" lon="2.68253">
        <ele>76.6</ele>
        <time>2025-03-15T20:49:28Z</time>
      </trkpt>
      <trkpt lat="48.67067" lon="2.68283">
        <ele>77.2</ele>
        <time>2025-03-15T20:49:43Z</time>
      </trkpt>
      <trkpt lat="48.67056" lon="2.68326">
        <ele>76.8</ele>
        <time>2025-03-15T20:50:02Z</time>
      </trkpt>
      <trkpt lat="48.67048" lon="2.68364">
        <ele>76.4</ele>
        <time>2025-03-15T20:50:20Z</time>
      </trkpt>
      <trkpt lat="48.67039" lon="2.68397">
        <ele>76.8</ele>
        <time>2025-03-15T20:50:35Z</time>
      </trkpt>
      <trkpt lat="48.67029" lon="2.68434">
        <ele>76.2</ele>
        <time>2025-03-15T20:50:53Z</time>
      </trkpt>
      <trkpt lat="48.67019" lon="2.68474">
        <ele>75.6</ele>
        <time>2025-03-15T20:51:11Z</time>
      </trkpt>
      <trkpt lat="48.67008" lon="2.68516">
        <ele>75.6</ele>
        <time>2025-03-15T20:51:31Z</time>
      </trkpt>
      <trkpt lat="48.66997" lon="2.68557">
        <ele>75.4</ele>
        <time>2025-03-15T20:51:50Z</time>
      </trkpt>
      <trkpt lat="48.66983" lon="2.68608">
        <ele>75</ele>
        <time>2025-03-15T20:52:12Z</time>
      </trkpt>
      <trkpt lat="48.66974" lon="2.68645">
        <ele>74.6</ele>
        <time>2025-03-15T20:52:29Z</time>
      </trkpt>
      <trkpt lat="48.66963" lon="2.68683">
        <ele>74.6</ele>
        <time>2025-03-15T20:52:47Z</time>
      </trkpt>
      <trkpt lat="48.66953" lon="2.68725">
        <ele>74.2</ele>
        <time>2025-03-15T20:53:07Z</time>
      </trkpt>
      <trkpt lat="48.66942" lon="2.68764">
        <ele>74</ele>
        <time>2025-03-15T20:53:26Z</time>
      </trkpt>
      <trkpt lat="48.66937" lon="2.68794">
        <ele>73.8</ele>
        <time>2025-03-15T20:53:39Z</time>
      </trkpt>
      <trkpt lat="48.66927" lon="2.68835">
        <ele>73.6</ele>
        <time>2025-03-15T20:53:57Z</time>
      </trkpt>
      <trkpt lat="48.66915" lon="2.68884">
        <ele>73.4</ele>
        <time>2025-03-15T20:54:18Z</time>
      </trkpt>
      <trkpt lat="48.66905" lon="2.68923">
        <ele>73</ele>
        <time>2025-03-15T20:54:36Z</time>
      </trkpt>
      <trkpt lat="48.66893" lon="2.6897">
        <ele>72.4</ele>
        <time>2025-03-15T20:54:57Z</time>
      </trkpt>
      <trkpt lat="48.66881" lon="2.69026">
        <ele>72.4</ele>
        <time>2025-03-15T20:55:22Z</time>
      </trkpt>
      <trkpt lat="48.66868" lon="2.69068">
        <ele>72.2</ele>
        <time>2025-03-15T20:55:42Z</time>
      </trkpt>
      <trkpt lat="48.66856" lon="2.69112">
        <ele>72</ele>
        <time>2025-03-15T20:56:02Z</time>
      </trkpt>
      <trkpt lat="48.66846" lon="2.69155">
        <ele>71.6</ele>
        <time>2025-03-15T20:56:22Z</time>
      </trkpt>
      <trkpt lat="48.66834" lon="2.692">
        <ele>71.8</ele>
        <time>2025-03-15T20:56:42Z</time>
      </trkpt>
      <trkpt lat="48.66825" lon="2.69232">
        <ele>71.4</ele>
        <time>2025-03-15T20:56:58Z</time>
      </trkpt>
      <trkpt lat="48.66818" lon="2.69265">
        <ele>71.4</ele>
        <time>2025-03-15T20:57:14Z</time>
      </trkpt>
      <trkpt lat="48.66808" lon="2.69301">
        <ele>71</ele>
        <time>2025-03-15T20:57:31Z</time>
      </trkpt>
      <trkpt lat="48.66796" lon="2.6935">
        <ele>70.6</ele>
        <time>2025-03-15T20:57:52Z</time>
      </trkpt>
      <trkpt lat="48.66787" lon="2.69381">
        <ele>70.4</ele>
        <time>2025-03-15T20:58:08Z</time>
      </trkpt>
      <trkpt lat="48.66776" lon="2.69426">
        <ele>70.4</ele>
        <time>2025-03-15T20:58:27Z</time>
      </trkpt>
      <trkpt lat="48.66768" lon="2.69457">
        <ele>70</ele>
        <time>2025-03-15T20:58:42Z</time>
      </trkpt>
      <trkpt lat="48.66759" lon="2.69496">
        <ele>69.6</ele>
        <time>2025-03-15T20:58:58Z</time>
      </trkpt>
      <trkpt lat="48.66747" lon="2.69544">
        <ele>70</ele>
        <time>2025-03-15T20:59:19Z</time>
      </trkpt>
      <trkpt lat="48.66728" lon="2.6959">
        <ele>69.4</ele>
        <time>2025-03-15T20:59:42Z</time>
      </trkpt>
      <trkpt lat="48.66713" lon="2.69624">
        <ele>68.8</ele>
        <time>2025-03-15T20:59:59Z</time>
      </trkpt>
      <trkpt lat="48.66699" lon="2.69658">
        <ele>69.4</ele>
        <time>2025-03-15T21:00:17Z</time>
      </trkpt>
      <trkpt lat="48.66689" lon="2.69683">
        <ele>68.8</ele>
        <time>2025-03-15T21:00:32Z</time>
      </trkpt>
      <trkpt lat="48.66672" lon="2.69715">
        <ele>67.4</ele>
        <time>2025-03-15T21:00:50Z</time>
      </trkpt>
      <trkpt lat="48.66656" lon="2.69748">
        <ele>68.4</ele>
        <time>2025-03-15T21:01:08Z</time>
      </trkpt>
      <trkpt lat="48.66649" lon="2.69762">
        <ele>68.8</ele>
        <time>2025-03-15T21:01:16Z</time>
      </trkpt>
      <trkpt lat="48.66648" lon="2.69779">
        <ele>69.8</ele>
        <time>2025-03-15T21:01:32Z</time>
      </trkpt>
      <trkpt lat="48.66647" lon="2.69779">
        <ele>70.6</ele>
        <time>2025-03-15T21:01:53Z</time>
      </trkpt>
      <trkpt lat="48.66647" lon="2.69779">
        <ele>70</ele>
        <time>2025-03-15T21:02:23Z</time>
      </trkpt>
      <trkpt lat="48.66647" lon="2.69779">
        <ele>70</ele>
        <time>2025-03-15T21:03:00Z</time>
      </trkpt>
      <trkpt lat="48.66648" lon="2.69782">
        <ele>68.8</ele>
        <time>2025-03-15T21:03:24Z</time>
      </trkpt>
      <trkpt lat="48.66648" lon="2.69782">
        <ele>70.6</ele>
        <time>2025-03-15T21:03:39Z</time>
      </trkpt>
      <trkpt lat="48.66647" lon="2.69781">
        <ele>70.4</ele>
        <time>2025-03-15T21:03:58Z</time>
      </trkpt>
      <trkpt lat="48.66647" lon="2.69778">
        <ele>70.2</ele>
        <time>2025-03-15T21:04:20Z</time>
      </trkpt>
      <trkpt lat="48.66646" lon="2.69776">
        <ele>70</ele>
        <time>2025-03-15T21:04:42Z</time>
      </trkpt>
      <trkpt lat="48.66646" lon="2.69775">
        <ele>70</ele>
        <time>2025-03-15T21:05:06Z</time>
      </trkpt>
      <trkpt lat="48.66646" lon="2.69775">
        <ele>70.2</ele>
        <time>2025-03-15T21:05:37Z</time>
      </trkpt>
      <trkpt lat="48.66643" lon="2.69774">
        <ele>70.2</ele>
        <time>2025-03-15T21:05:58Z</time>
      </trkpt>
      <trkpt lat="48.66643" lon="2.69774">
        <ele>70.4</ele>
        <time>2025-03-15T21:06:27Z</time>
      </trkpt>
      <trkpt lat="48.66634" lon="2.69777">
        <ele>70</ele>
        <time>2025-03-15T21:06:47Z</time>
      </trkpt>
      <trkpt lat="48.6663" lon="2.69783">
        <ele>69.8</ele>
        <time>2025-03-15T21:06:52Z</time>
      </trkpt>
      <trkpt lat="48.66623" lon="2.69792">
        <ele>69.4</ele>
        <time>2025-03-15T21:07:00Z</time>
      </trkpt>
      <trkpt lat="48.66607" lon="2.69817">
        <ele>69.4</ele>
        <time>2025-03-15T21:07:16Z</time>
      </trkpt>
      <trkpt lat="48.66583" lon="2.69842">
        <ele>69.4</ele>
        <time>2025-03-15T21:07:36Z</time>
      </trkpt>
      <trkpt lat="48.6656" lon="2.69872">
        <ele>69.2</ele>
        <time>2025-03-15T21:07:57Z</time>
      </trkpt>
      <trkpt lat="48.66534" lon="2.69892">
        <ele>69.2</ele>
        <time>2025-03-15T21:08:16Z</time>
      </trkpt>
      <trkpt lat="48.66507" lon="2.69904">
        <ele>69.4</ele>
        <time>2025-03-15T21:08:35Z</time>
      </trkpt>
      <trkpt lat="48.66484" lon="2.6992">
        <ele>69</ele>
        <time>2025-03-15T21:08:52Z</time>
      </trkpt>
      <trkpt lat="48.6646" lon="2.69939">
        <ele>69.2</ele>
        <time>2025-03-15T21:09:10Z</time>
      </trkpt>
      <trkpt lat="48.66434" lon="2.69957">
        <ele>69.4</ele>
        <time>2025-03-15T21:09:30Z</time>
      </trkpt>
      <trkpt lat="48.66413" lon="2.69971">
        <ele>69.4</ele>
        <time>2025-03-15T21:09:47Z</time>
      </trkpt>
      <trkpt lat="48.66386" lon="2.69979">
        <ele>69.6</ele>
        <time>2025-03-15T21:10:04Z</time>
      </trkpt>
      <trkpt lat="48.66363" lon="2.69981">
        <ele>69.4</ele>
        <time>2025-03-15T21:10:20Z</time>
      </trkpt>
      <trkpt lat="48.66355" lon="2.69982">
        <ele>69.4</ele>
        <time>2025-03-15T21:10:26Z</time>
      </trkpt>
      <trkpt lat="48.66333" lon="2.69991">
        <ele>69.6</ele>
        <time>2025-03-15T21:10:40Z</time>
      </trkpt>
      <trkpt lat="48.66303" lon="2.70003">
        <ele>70</ele>
        <time>2025-03-15T21:11:00Z</time>
      </trkpt>
      <trkpt lat="48.66297" lon="2.70005">
        <ele>69.8</ele>
        <time>2025-03-15T21:11:04Z</time>
      </trkpt>
      <trkpt lat="48.6629" lon="2.7001">
        <ele>69.8</ele>
        <time>2025-03-15T21:11:10Z</time>
      </trkpt>
      <trkpt lat="48.66288" lon="2.70011">
        <ele>69.8</ele>
        <time>2025-03-15T21:11:11Z</time>
      </trkpt>
      <trkpt lat="48.66287" lon="2.70012">
        <ele>69.8</ele>
        <time>2025-03-15T21:11:12Z</time>
      </trkpt>
      <trkpt lat="48.66266" lon="2.70025">
        <ele>70</ele>
        <time>2025-03-15T21:11:28Z</time>
      </trkpt>
      <trkpt lat="48.66234" lon="2.70033">
        <ele>70</ele>
        <time>2025-03-15T21:11:49Z</time>
      </trkpt>
      <trkpt lat="48.6621" lon="2.70041">
        <ele>69.8</ele>
        <time>2025-03-15T21:12:05Z</time>
      </trkpt>
      <trkpt lat="48.66185" lon="2.70045">
        <ele>70</ele>
        <time>2025-03-15T21:12:22Z</time>
      </trkpt>
      <trkpt lat="48.66162" lon="2.70051">
        <ele>70</ele>
        <time>2025-03-15T21:12:37Z</time>
      </trkpt>
      <trkpt lat="48.66152" lon="2.70053">
        <ele>69.8</ele>
        <time>2025-03-15T21:12:43Z</time>
      </trkpt>
      <trkpt lat="48.66129" lon="2.70062">
        <ele>69.4</ele>
        <time>2025-03-15T21:12:59Z</time>
      </trkpt>
      <trkpt lat="48.6611" lon="2.70063">
        <ele>69.2</ele>
        <time>2025-03-15T21:13:14Z</time>
      </trkpt>
      <trkpt lat="48.66088" lon="2.70072">
        <ele>69</ele>
        <time>2025-03-15T21:13:28Z</time>
      </trkpt>
      <trkpt lat="48.66047" lon="2.7008">
        <ele>69</ele>
        <time>2025-03-15T21:13:54Z</time>
      </trkpt>
      <trkpt lat="48.66022" lon="2.70086">
        <ele>68.8</ele>
        <time>2025-03-15T21:14:11Z</time>
      </trkpt>
      <trkpt lat="48.66001" lon="2.70091">
        <ele>68.6</ele>
        <time>2025-03-15T21:14:27Z</time>
      </trkpt>
      <trkpt lat="48.65969" lon="2.70099">
        <ele>68.4</ele>
        <time>2025-03-15T21:14:47Z</time>
      </trkpt>
      <trkpt lat="48.6594" lon="2.70107">
        <ele>67.8</ele>
        <time>2025-03-15T21:15:05Z</time>
      </trkpt>
      <trkpt lat="48.65909" lon="2.70115">
        <ele>67.2</ele>
        <time>2025-03-15T21:15:23Z</time>
      </trkpt>
      <trkpt lat="48.65888" lon="2.70123">
        <ele>67.4</ele>
        <time>2025-03-15T21:15:38Z</time>
      </trkpt>
      <trkpt lat="48.65865" lon="2.70127">
        <ele>68.2</ele>
        <time>2025-03-15T21:15:52Z</time>
      </trkpt>
      <trkpt lat="48.6584" lon="2.70132">
        <ele>67.4</ele>
        <time>2025-03-15T21:16:08Z</time>
      </trkpt>
      <trkpt lat="48.65822" lon="2.70142">
        <ele>66.4</ele>
        <time>2025-03-15T21:16:24Z</time>
      </trkpt>
      <trkpt lat="48.65812" lon="2.70144">
        <ele>66.4</ele>
        <time>2025-03-15T21:16:30Z</time>
      </trkpt>
      <trkpt lat="48.6581" lon="2.70144">
        <ele>66.4</ele>
        <time>2025-03-15T21:16:31Z</time>
      </trkpt>
      <trkpt lat="48.65778" lon="2.70157">
        <ele>66</ele>
        <time>2025-03-15T21:16:50Z</time>
      </trkpt>
      <trkpt lat="48.65753" lon="2.70168">
        <ele>66.2</ele>
        <time>2025-03-15T21:17:08Z</time>
      </trkpt>
      <trkpt lat="48.65728" lon="2.7018">
        <ele>66.6</ele>
        <time>2025-03-15T21:17:25Z</time>
      </trkpt>
      <trkpt lat="48.65706" lon="2.70195">
        <ele>66.4</ele>
        <time>2025-03-15T21:17:41Z</time>
      </trkpt>
      <trkpt lat="48.65684" lon="2.7021">
        <ele>66</ele>
        <time>2025-03-15T21:17:59Z</time>
      </trkpt>
      <trkpt lat="48.65657" lon="2.70232">
        <ele>65.8</ele>
        <time>2025-03-15T21:18:18Z</time>
      </trkpt>
      <trkpt lat="48.65631" lon="2.70257">
        <ele>65.6</ele>
        <time>2025-03-15T21:18:37Z</time>
      </trkpt>
      <trkpt lat="48.6561" lon="2.70277">
        <ele>65.4</ele>
        <time>2025-03-15T21:18:54Z</time>
      </trkpt>
      <trkpt lat="48.65585" lon="2.70306">
        <ele>65.6</ele>
        <time>2025-03-15T21:19:13Z</time>
      </trkpt>
      <trkpt lat="48.65566" lon="2.70331">
        <ele>65.2</ele>
        <time>2025-03-15T21:19:29Z</time>
      </trkpt>
      <trkpt lat="48.65543" lon="2.70361">
        <ele>65</ele>
        <time>2025-03-15T21:19:49Z</time>
      </trkpt>
      <trkpt lat="48.65523" lon="2.70391">
        <ele>65</ele>
        <time>2025-03-15T21:20:08Z</time>
      </trkpt>
      <trkpt lat="48.65503" lon="2.70425">
        <ele>64.4</ele>
        <time>2025-03-15T21:20:27Z</time>
      </trkpt>
      <trkpt lat="48.65484" lon="2.70455">
        <ele>64</ele>
        <time>2025-03-15T21:20:46Z</time>
      </trkpt>
      <trkpt lat="48.65465" lon="2.70484">
        <ele>63.8</ele>
        <time>2025-03-15T21:21:04Z</time>
      </trkpt>
      <trkpt lat="48.65444" lon="2.70518">
        <ele>63.8</ele>
        <time>2025-03-15T21:21:23Z</time>
      </trkpt>
      <trkpt lat="48.65421" lon="2.70553">
        <ele>63.4</ele>
        <time>2025-03-15T21:21:44Z</time>
      </trkpt>
      <trkpt lat="48.65399" lon="2.70585">
        <ele>63.4</ele>
        <time>2025-03-15T21:22:04Z</time>
      </trkpt>
      <trkpt lat="48.65379" lon="2.70613">
        <ele>62.8</ele>
        <time>2025-03-15T21:22:23Z</time>
      </trkpt>
      <trkpt lat="48.65359" lon="2.70643">
        <ele>62.8</ele>
        <time>2025-03-15T21:22:41Z</time>
      </trkpt>
      <trkpt lat="48.6535" lon="2.70658">
        <ele>63</ele>
        <time>2025-03-15T21:22:50Z</time>
      </trkpt>
      <trkpt lat="48.65349" lon="2.7066">
        <ele>63</ele>
        <time>2025-03-15T21:22:51Z</time>
      </trkpt>
      <trkpt lat="48.65348" lon="2.70662">
        <ele>63</ele>
        <time>2025-03-15T21:22:52Z</time>
      </trkpt>
      <trkpt lat="48.65347" lon="2.70664">
        <ele>63</ele>
        <time>2025-03-15T21:22:53Z</time>
      </trkpt>
      <trkpt lat="48.65346" lon="2.70665">
        <ele>63</ele>
        <time>2025-03-15T21:22:54Z</time>
      </trkpt>
      <trkpt lat="48.65345" lon="2.70667">
        <ele>63</ele>
        <time>2025-03-15T21:22:55Z</time>
      </trkpt>
      <trkpt lat="48.65344" lon="2.70668">
        <ele>63</ele>
        <time>2025-03-15T21:22:56Z</time>
      </trkpt>
      <trkpt lat="48.65343" lon="2.7067">
        <ele>62.8</ele>
        <time>2025-03-15T21:22:57Z</time>
      </trkpt>
      <trkpt lat="48.65324" lon="2.70697">
        <ele>62.8</ele>
        <time>2025-03-15T21:23:15Z</time>
      </trkpt>
      <trkpt lat="48.65309" lon="2.70725">
        <ele>62.6</ele>
        <time>2025-03-15T21:23:30Z</time>
      </trkpt>
      <trkpt lat="48.6529" lon="2.70754">
        <ele>62.2</ele>
        <time>2025-03-15T21:23:47Z</time>
      </trkpt>
      <trkpt lat="48.65275" lon="2.70775">
        <ele>62</ele>
        <time>2025-03-15T21:24:01Z</time>
      </trkpt>
      <trkpt lat="48.65261" lon="2.70797">
        <ele>61.4</ele>
        <time>2025-03-15T21:24:15Z</time>
      </trkpt>
      <trkpt lat="48.6526" lon="2.70798">
        <ele>61.2</ele>
        <time>2025-03-15T21:24:16Z</time>
      </trkpt>
      <trkpt lat="48.65259" lon="2.708">
        <ele>61.2</ele>
        <time>2025-03-15T21:24:17Z</time>
      </trkpt>
      <trkpt lat="48.6524" lon="2.70829">
        <ele>61.2</ele>
        <time>2025-03-15T21:24:35Z</time>
      </trkpt>
      <trkpt lat="48.65219" lon="2.70863">
        <ele>60.6</ele>
        <time>2025-03-15T21:24:54Z</time>
      </trkpt>
      <trkpt lat="48.65196" lon="2.70896">
        <ele>60.4</ele>
        <time>2025-03-15T21:25:15Z</time>
      </trkpt>
      <trkpt lat="48.65175" lon="2.70929">
        <ele>60.2</ele>
        <time>2025-03-15T21:25:35Z</time>
      </trkpt>
      <trkpt lat="48.65153" lon="2.70964">
        <ele>60</ele>
        <time>2025-03-15T21:25:56Z</time>
      </trkpt>
      <trkpt lat="48.65135" lon="2.70995">
        <ele>59.6</ele>
        <time>2025-03-15T21:26:14Z</time>
      </trkpt>
      <trkpt lat="48.65114" lon="2.71032">
        <ele>59.2</ele>
        <time>2025-03-15T21:26:34Z</time>
      </trkpt>
      <trkpt lat="48.65095" lon="2.71067">
        <ele>58.8</ele>
        <time>2025-03-15T21:26:54Z</time>
      </trkpt>
      <trkpt lat="48.65075" lon="2.71106">
        <ele>58.4</ele>
        <time>2025-03-15T21:27:15Z</time>
      </trkpt>
      <trkpt lat="48.65059" lon="2.71142">
        <ele>58</ele>
        <time>2025-03-15T21:27:34Z</time>
      </trkpt>
      <trkpt lat="48.65038" lon="2.71184">
        <ele>58.2</ele>
        <time>2025-03-15T21:27:56Z</time>
      </trkpt>
      <trkpt lat="48.65024" lon="2.71218">
        <ele>57.6</ele>
        <time>2025-03-15T21:28:15Z</time>
      </trkpt>
      <trkpt lat="48.65012" lon="2.71249">
        <ele>57.4</ele>
        <time>2025-03-15T21:28:31Z</time>
      </trkpt>
      <trkpt lat="48.65005" lon="2.71267">
        <ele>57.4</ele>
        <time>2025-03-15T21:28:41Z</time>
      </trkpt>
      <trkpt lat="48.65004" lon="2.71269">
        <ele>57.2</ele>
        <time>2025-03-15T21:28:42Z</time>
      </trkpt>
      <trkpt lat="48.65004" lon="2.71272">
        <ele>57.2</ele>
        <time>2025-03-15T21:28:43Z</time>
      </trkpt>
      <trkpt lat="48.65003" lon="2.71274">
        <ele>57.2</ele>
        <time>2025-03-15T21:28:44Z</time>
      </trkpt>
      <trkpt lat="48.65002" lon="2.71276">
        <ele>57</ele>
        <time>2025-03-15T21:28:45Z</time>
      </trkpt>
      <trkpt lat="48.65001" lon="2.71278">
        <ele>57</ele>
        <time>2025-03-15T21:28:46Z</time>
      </trkpt>
      <trkpt lat="48.65001" lon="2.7128">
        <ele>57</ele>
        <time>2025-03-15T21:28:47Z</time>
      </trkpt>
      <trkpt lat="48.65" lon="2.71282">
        <ele>57</ele>
        <time>2025-03-15T21:28:48Z</time>
      </trkpt>
      <trkpt lat="48.64988" lon="2.71317">
        <ele>57.2</ele>
        <time>2025-03-15T21:29:04Z</time>
      </trkpt>
      <trkpt lat="48.64979" lon="2.71347">
        <ele>57.2</ele>
        <time>2025-03-15T21:29:19Z</time>
      </trkpt>
      <trkpt lat="48.64969" lon="2.71379">
        <ele>57</ele>
        <time>2025-03-15T21:29:35Z</time>
      </trkpt>
      <trkpt lat="48.64964" lon="2.71391">
        <ele>56.8</ele>
        <time>2025-03-15T21:29:41Z</time>
      </trkpt>
      <trkpt lat="48.64954" lon="2.71422">
        <ele>57</ele>
        <time>2025-03-15T21:29:56Z</time>
      </trkpt>
      <trkpt lat="48.64944" lon="2.71456">
        <ele>57</ele>
        <time>2025-03-15T21:30:11Z</time>
      </trkpt>
      <trkpt lat="48.64931" lon="2.71497">
        <ele>57.8</ele>
        <time>2025-03-15T21:30:29Z</time>
      </trkpt>
      <trkpt lat="48.64919" lon="2.71531">
        <ele>57.8</ele>
        <time>2025-03-15T21:30:46Z</time>
      </trkpt>
      <trkpt lat="48.64905" lon="2.71573">
        <ele>57.4</ele>
        <time>2025-03-15T21:31:06Z</time>
      </trkpt>
      <trkpt lat="48.64892" lon="2.7161">
        <ele>57.4</ele>
        <time>2025-03-15T21:31:24Z</time>
      </trkpt>
      <trkpt lat="48.64878" lon="2.71649">
        <ele>57.4</ele>
        <time>2025-03-15T21:31:44Z</time>
      </trkpt>
      <trkpt lat="48.64865" lon="2.71696">
        <ele>57.2</ele>
        <time>2025-03-15T21:32:06Z</time>
      </trkpt>
      <trkpt lat="48.64851" lon="2.71735">
        <ele>57</ele>
        <time>2025-03-15T21:32:25Z</time>
      </trkpt>
      <trkpt lat="48.64839" lon="2.71773">
        <ele>57.4</ele>
        <time>2025-03-15T21:32:43Z</time>
      </trkpt>
      <trkpt lat="48.64828" lon="2.71806">
        <ele>57.4</ele>
        <time>2025-03-15T21:33:00Z</time>
      </trkpt>
      <trkpt lat="48.64816" lon="2.71847">
        <ele>57.6</ele>
        <time>2025-03-15T21:33:20Z</time>
      </trkpt>
      <trkpt lat="48.64807" lon="2.71874">
        <ele>57.6</ele>
        <time>2025-03-15T21:33:35Z</time>
      </trkpt>
      <trkpt lat="48.64794" lon="2.71909">
        <ele>57.8</ele>
        <time>2025-03-15T21:33:52Z</time>
      </trkpt>
      <trkpt lat="48.64793" lon="2.71916">
        <ele>58</ele>
        <time>2025-03-15T21:33:55Z</time>
      </trkpt>
      <trkpt lat="48.64793" lon="2.71918">
        <ele>58</ele>
        <time>2025-03-15T21:33:56Z</time>
      </trkpt>
      <trkpt lat="48.64792" lon="2.7192">
        <ele>58</ele>
        <time>2025-03-15T21:33:57Z</time>
      </trkpt>
      <trkpt lat="48.64782" lon="2.71951">
        <ele>58.2</ele>
        <time>2025-03-15T21:34:12Z</time>
      </trkpt>
      <trkpt lat="48.64772" lon="2.71982">
        <ele>58.4</ele>
        <time>2025-03-15T21:34:27Z</time>
      </trkpt>
      <trkpt lat="48.64762" lon="2.72019">
        <ele>58.6</ele>
        <time>2025-03-15T21:34:45Z</time>
      </trkpt>
      <trkpt lat="48.64754" lon="2.72043">
        <ele>59.2</ele>
        <time>2025-03-15T21:34:59Z</time>
      </trkpt>
      <trkpt lat="48.64742" lon="2.72082">
        <ele>59.2</ele>
        <time>2025-03-15T21:35:18Z</time>
      </trkpt>
      <trkpt lat="48.64734" lon="2.7211">
        <ele>59.4</ele>
        <time>2025-03-15T21:35:33Z</time>
      </trkpt>
      <trkpt lat="48.64721" lon="2.72143">
        <ele>59.8</ele>
        <time>2025-03-15T21:35:49Z</time>
      </trkpt>
      <trkpt lat="48.64709" lon="2.72181">
        <ele>59.8</ele>
        <time>2025-03-15T21:36:08Z</time>
      </trkpt>
      <trkpt lat="48.64699" lon="2.72212">
        <ele>60.4</ele>
        <time>2025-03-15T21:36:23Z</time>
      </trkpt>
      <trkpt lat="48.64687" lon="2.72246">
        <ele>60.6</ele>
        <time>2025-03-15T21:36:39Z</time>
      </trkpt>
      <trkpt lat="48.64678" lon="2.72272">
        <ele>60.4</ele>
        <time>2025-03-15T21:36:52Z</time>
      </trkpt>
      <trkpt lat="48.64667" lon="2.72306">
        <ele>61</ele>
        <time>2025-03-15T21:37:09Z</time>
      </trkpt>
      <trkpt lat="48.64661" lon="2.72325">
        <ele>61</ele>
        <time>2025-03-15T21:37:18Z</time>
      </trkpt>
      <trkpt lat="48.6466" lon="2.72327">
        <ele>61</ele>
        <time>2025-03-15T21:37:19Z</time>
      </trkpt>
      <trkpt lat="48.64652" lon="2.72358">
        <ele>61.2</ele>
        <time>2025-03-15T21:37:35Z</time>
      </trkpt>
      <trkpt lat="48.6464" lon="2.72391">
        <ele>61.4</ele>
        <time>2025-03-15T21:37:53Z</time>
      </trkpt>
      <trkpt lat="48.64631" lon="2.72426">
        <ele>61.4</ele>
        <time>2025-03-15T21:38:08Z</time>
      </trkpt>
      <trkpt lat="48.6462" lon="2.72457">
        <ele>62.2</ele>
        <time>2025-03-15T21:38:23Z</time>
      </trkpt>
      <trkpt lat="48.64611" lon="2.72483">
        <ele>62</ele>
        <time>2025-03-15T21:38:36Z</time>
      </trkpt>
      <trkpt lat="48.64604" lon="2.72517">
        <ele>61.6</ele>
        <time>2025-03-15T21:38:53Z</time>
      </trkpt>
      <trkpt lat="48.64594" lon="2.72546">
        <ele>61.8</ele>
        <time>2025-03-15T21:39:07Z</time>
      </trkpt>
      <trkpt lat="48.64585" lon="2.72573">
        <ele>62</ele>
        <time>2025-03-15T21:39:21Z</time>
      </trkpt>
      <trkpt lat="48.64577" lon="2.72594">
        <ele>62</ele>
        <time>2025-03-15T21:39:32Z</time>
      </trkpt>
      <trkpt lat="48.64576" lon="2.72596">
        <ele>62.2</ele>
        <time>2025-03-15T21:39:33Z</time>
      </trkpt>
      <trkpt lat="48.64567" lon="2.72624">
        <ele>62.2</ele>
        <time>2025-03-15T21:39:46Z</time>
      </trkpt>
      <trkpt lat="48.64556" lon="2.72659">
        <ele>62.6</ele>
        <time>2025-03-15T21:40:03Z</time>
      </trkpt>
      <trkpt lat="48.64549" lon="2.72689">
        <ele>62.8</ele>
        <time>2025-03-15T21:40:19Z</time>
      </trkpt>
      <trkpt lat="48.64539" lon="2.72716">
        <ele>62.8</ele>
        <time>2025-03-15T21:40:33Z</time>
      </trkpt>
      <trkpt lat="48.64524" lon="2.72747">
        <ele>62.8</ele>
        <time>2025-03-15T21:40:49Z</time>
      </trkpt>
      <trkpt lat="48.64514" lon="2.72785">
        <ele>62.6</ele>
        <time>2025-03-15T21:41:06Z</time>
      </trkpt>
      <trkpt lat="48.64503" lon="2.72819">
        <ele>62.4</ele>
        <time>2025-03-15T21:41:23Z</time>
      </trkpt>
      <trkpt lat="48.6449" lon="2.72857">
        <ele>62.2</ele>
        <time>2025-03-15T21:41:41Z</time>
      </trkpt>
      <trkpt lat="48.64474" lon="2.729">
        <ele>62.2</ele>
        <time>2025-03-15T21:42:02Z</time>
      </trkpt>
      <trkpt lat="48.6446" lon="2.72938">
        <ele>62.2</ele>
        <time>2025-03-15T21:42:21Z</time>
      </trkpt>
      <trkpt lat="48.64451" lon="2.72974">
        <ele>62.4</ele>
        <time>2025-03-15T21:42:39Z</time>
      </trkpt>
      <trkpt lat="48.6444" lon="2.73011">
        <ele>62.4</ele>
        <time>2025-03-15T21:42:58Z</time>
      </trkpt>
      <trkpt lat="48.64428" lon="2.73052">
        <ele>62.4</ele>
        <time>2025-03-15T21:43:17Z</time>
      </trkpt>
      <trkpt lat="48.64414" lon="2.73092">
        <ele>62.8</ele>
        <time>2025-03-15T21:43:37Z</time>
      </trkpt>
      <trkpt lat="48.64401" lon="2.73133">
        <ele>63.2</ele>
        <time>2025-03-15T21:43:57Z</time>
      </trkpt>
      <trkpt lat="48.64391" lon="2.73165">
        <ele>63</ele>
        <time>2025-03-15T21:44:13Z</time>
      </trkpt>
      <trkpt lat="48.64383" lon="2.73202">
        <ele>63</ele>
        <time>2025-03-15T21:44:31Z</time>
      </trkpt>
      <trkpt lat="48.64372" lon="2.73239">
        <ele>63.8</ele>
        <time>2025-03-15T21:44:50Z</time>
      </trkpt>
      <trkpt lat="48.64364" lon="2.7327">
        <ele>63.8</ele>
        <time>2025-03-15T21:45:05Z</time>
      </trkpt>
      <trkpt lat="48.64358" lon="2.73299">
        <ele>64.2</ele>
        <time>2025-03-15T21:45:19Z</time>
      </trkpt>
      <trkpt lat="48.64351" lon="2.73338">
        <ele>64.6</ele>
        <time>2025-03-15T21:45:36Z</time>
      </trkpt>
      <trkpt lat="48.64345" lon="2.73383">
        <ele>65.2</ele>
        <time>2025-03-15T21:45:56Z</time>
      </trkpt>
      <trkpt lat="48.64349" lon="2.73417">
        <ele>65.4</ele>
        <time>2025-03-15T21:46:13Z</time>
      </trkpt>
      <trkpt lat="48.64378" lon="2.73439">
        <ele>64.4</ele>
        <time>2025-03-15T21:46:34Z</time>
      </trkpt>
      <trkpt lat="48.64396" lon="2.73443">
        <ele>61.2</ele>
        <time>2025-03-15T21:46:45Z</time>
      </trkpt>
      <trkpt lat="48.64406" lon="2.73442">
        <ele>57.8</ele>
        <time>2025-03-15T21:46:52Z</time>
      </trkpt>
      <trkpt lat="48.64436" lon="2.73436">
        <ele>55</ele>
        <time>2025-03-15T21:47:12Z</time>
      </trkpt>
      <trkpt lat="48.64465" lon="2.73435">
        <ele>51.8</ele>
        <time>2025-03-15T21:47:30Z</time>
      </trkpt>
      <trkpt lat="48.64495" lon="2.73432">
        <ele>51</ele>
        <time>2025-03-15T21:47:49Z</time>
      </trkpt>
      <trkpt lat="48.64529" lon="2.73442">
        <ele>50.6</ele>
        <time>2025-03-15T21:48:12Z</time>
      </trkpt>
      <trkpt lat="48.64541" lon="2.73478">
        <ele>50</ele>
        <time>2025-03-15T21:48:30Z</time>
      </trkpt>
      <trkpt lat="48.64555" lon="2.73507">
        <ele>49.8</ele>
        <time>2025-03-15T21:48:45Z</time>
      </trkpt>
      <trkpt lat="48.64548" lon="2.73538">
        <ele>49.6</ele>
        <time>2025-03-15T21:49:01Z</time>
      </trkpt>
      <trkpt lat="48.64518" lon="2.7354">
        <ele>50.8</ele>
        <time>2025-03-15T21:49:20Z</time>
      </trkpt>
      <trkpt lat="48.64491" lon="2.73539">
        <ele>51.8</ele>
        <time>2025-03-15T21:49:38Z</time>
      </trkpt>
      <trkpt lat="48.64463" lon="2.73536">
        <ele>53.8</ele>
        <time>2025-03-15T21:49:58Z</time>
      </trkpt>
      <trkpt lat="48.64433" lon="2.73531">
        <ele>56.4</ele>
        <time>2025-03-15T21:50:19Z</time>
      </trkpt>
      <trkpt lat="48.64403" lon="2.73526">
        <ele>59.4</ele>
        <time>2025-03-15T21:50:40Z</time>
      </trkpt>
      <trkpt lat="48.64374" lon="2.73523">
        <ele>62.4</ele>
        <time>2025-03-15T21:51:01Z</time>
      </trkpt>
      <trkpt lat="48.64344" lon="2.7352">
        <ele>65.6</ele>
        <time>2025-03-15T21:51:22Z</time>
      </trkpt>
      <trkpt lat="48.64335" lon="2.73534">
        <ele>67.6</ele>
        <time>2025-03-15T21:51:32Z</time>
      </trkpt>
      <trkpt lat="48.64328" lon="2.73569">
        <ele>65.2</ele>
        <time>2025-03-15T21:51:48Z</time>
      </trkpt>
      <trkpt lat="48.64327" lon="2.73614">
        <ele>65.4</ele>
        <time>2025-03-15T21:52:07Z</time>
      </trkpt>
      <trkpt lat="48.64324" lon="2.73661">
        <ele>66</ele>
        <time>2025-03-15T21:52:27Z</time>
      </trkpt>
      <trkpt lat="48.64322" lon="2.73706">
        <ele>66.4</ele>
        <time>2025-03-15T21:52:46Z</time>
      </trkpt>
      <trkpt lat="48.64322" lon="2.73741">
        <ele>66.4</ele>
        <time>2025-03-15T21:53:02Z</time>
      </trkpt>
      <trkpt lat="48.64319" lon="2.73781">
        <ele>67</ele>
        <time>2025-03-15T21:53:20Z</time>
      </trkpt>
      <trkpt lat="48.64319" lon="2.7381">
        <ele>67.2</ele>
        <time>2025-03-15T21:53:34Z</time>
      </trkpt>
      <trkpt lat="48.64319" lon="2.73856">
        <ele>67.2</ele>
        <time>2025-03-15T21:53:54Z</time>
      </trkpt>
      <trkpt lat="48.64324" lon="2.73905">
        <ele>67.8</ele>
        <time>2025-03-15T21:54:14Z</time>
      </trkpt>
      <trkpt lat="48.64323" lon="2.73946">
        <ele>68.2</ele>
        <time>2025-03-15T21:54:33Z</time>
      </trkpt>
      <trkpt lat="48.64321" lon="2.73957">
        <ele>68.4</ele>
        <time>2025-03-15T21:54:38Z</time>
      </trkpt>
      <trkpt lat="48.6432" lon="2.73959">
        <ele>68.4</ele>
        <time>2025-03-15T21:54:39Z</time>
      </trkpt>
      <trkpt lat="48.6432" lon="2.73961">
        <ele>68.4</ele>
        <time>2025-03-15T21:54:40Z</time>
      </trkpt>
      <trkpt lat="48.6432" lon="2.73963">
        <ele>68.4</ele>
        <time>2025-03-15T21:54:41Z</time>
      </trkpt>
      <trkpt lat="48.6432" lon="2.73966">
        <ele>68.4</ele>
        <time>2025-03-15T21:54:42Z</time>
      </trkpt>
      <trkpt lat="48.6432" lon="2.73968">
        <ele>68.4</ele>
        <time>2025-03-15T21:54:43Z</time>
      </trkpt>
      <trkpt lat="48.64321" lon="2.73971">
        <ele>68.4</ele>
        <time>2025-03-15T21:54:44Z</time>
      </trkpt>
      <trkpt lat="48.64322" lon="2.74002">
        <ele>68.6</ele>
        <time>2025-03-15T21:54:58Z</time>
      </trkpt>
      <trkpt lat="48.64322" lon="2.74004">
        <ele>68.8</ele>
        <time>2025-03-15T21:54:59Z</time>
      </trkpt>
      <trkpt lat="48.64323" lon="2.74046">
        <ele>69.2</ele>
        <time>2025-03-15T21:55:17Z</time>
      </trkpt>
      <trkpt lat="48.64323" lon="2.74081">
        <ele>69.4</ele>
        <time>2025-03-15T21:55:33Z</time>
      </trkpt>
      <trkpt lat="48.64325" lon="2.74112">
        <ele>69.2</ele>
        <time>2025-03-15T21:55:47Z</time>
      </trkpt>
      <trkpt lat="48.64325" lon="2.74149">
        <ele>69.4</ele>
        <time>2025-03-15T21:56:04Z</time>
      </trkpt>
      <trkpt lat="48.64329" lon="2.74182">
        <ele>69.6</ele>
        <time>2025-03-15T21:56:18Z</time>
      </trkpt>
      <trkpt lat="48.64329" lon="2.74186">
        <ele>69.8</ele>
        <time>2025-03-15T21:56:20Z</time>
      </trkpt>
      <trkpt lat="48.64329" lon="2.74188">
        <ele>70</ele>
        <time>2025-03-15T21:56:21Z</time>
      </trkpt>
      <trkpt lat="48.64329" lon="2.7419">
        <ele>70.2</ele>
        <time>2025-03-15T21:56:22Z</time>
      </trkpt>
      <trkpt lat="48.64329" lon="2.74199">
        <ele>70.4</ele>
        <time>2025-03-15T21:56:26Z</time>
      </trkpt>
      <trkpt lat="48.6433" lon="2.74202">
        <ele>70.4</ele>
        <time>2025-03-15T21:56:27Z</time>
      </trkpt>
      <trkpt lat="48.6433" lon="2.74204">
        <ele>70.4</ele>
        <time>2025-03-15T21:56:28Z</time>
      </trkpt>
      <trkpt lat="48.64331" lon="2.74243">
        <ele>70.6</ele>
        <time>2025-03-15T21:56:45Z</time>
      </trkpt>
      <trkpt lat="48.64332" lon="2.74269">
        <ele>71</ele>
        <time>2025-03-15T21:56:56Z</time>
      </trkpt>
      <trkpt lat="48.64334" lon="2.74303">
        <ele>71</ele>
        <time>2025-03-15T21:57:11Z</time>
      </trkpt>
      <trkpt lat="48.64335" lon="2.74307">
        <ele>71</ele>
        <time>2025-03-15T21:57:13Z</time>
      </trkpt>
      <trkpt lat="48.64336" lon="2.74312">
        <ele>71.2</ele>
        <time>2025-03-15T21:57:16Z</time>
      </trkpt>
      <trkpt lat="48.64336" lon="2.74314">
        <ele>71.2</ele>
        <time>2025-03-15T21:57:17Z</time>
      </trkpt>
      <trkpt lat="48.64336" lon="2.74316">
        <ele>71.2</ele>
        <time>2025-03-15T21:57:18Z</time>
      </trkpt>
      <trkpt lat="48.64336" lon="2.74318">
        <ele>71.2</ele>
        <time>2025-03-15T21:57:19Z</time>
      </trkpt>
      <trkpt lat="48.64336" lon="2.7432">
        <ele>71.4</ele>
        <time>2025-03-15T21:57:20Z</time>
      </trkpt>
      <trkpt lat="48.64336" lon="2.74322">
        <ele>71.4</ele>
        <time>2025-03-15T21:57:21Z</time>
      </trkpt>
      <trkpt lat="48.64336" lon="2.74362">
        <ele>71.4</ele>
        <time>2025-03-15T21:57:39Z</time>
      </trkpt>
      <trkpt lat="48.64337" lon="2.74399">
        <ele>71.6</ele>
        <time>2025-03-15T21:57:55Z</time>
      </trkpt>
      <trkpt lat="48.64337" lon="2.74416">
        <ele>71.8</ele>
        <time>2025-03-15T21:58:02Z</time>
      </trkpt>
      <trkpt lat="48.64336" lon="2.74419">
        <ele>71.6</ele>
        <time>2025-03-15T21:58:03Z</time>
      </trkpt>
      <trkpt lat="48.64332" lon="2.74448">
        <ele>71.8</ele>
        <time>2025-03-15T21:58:16Z</time>
      </trkpt>
      <trkpt lat="48.6433" lon="2.74457">
        <ele>71.8</ele>
        <time>2025-03-15T21:58:20Z</time>
      </trkpt>
      <trkpt lat="48.6433" lon="2.74459">
        <ele>71.8</ele>
        <time>2025-03-15T21:58:21Z</time>
      </trkpt>
      <trkpt lat="48.64329" lon="2.74461">
        <ele>71.8</ele>
        <time>2025-03-15T21:58:22Z</time>
      </trkpt>
      <trkpt lat="48.6433" lon="2.74464">
        <ele>71.8</ele>
        <time>2025-03-15T21:58:23Z</time>
      </trkpt>
      <trkpt lat="48.6433" lon="2.74467">
        <ele>71.8</ele>
        <time>2025-03-15T21:58:24Z</time>
      </trkpt>
      <trkpt lat="48.6433" lon="2.74501">
        <ele>72.6</ele>
        <time>2025-03-15T21:58:38Z</time>
      </trkpt>
      <trkpt lat="48.64329" lon="2.74504">
        <ele>72.6</ele>
        <time>2025-03-15T21:58:39Z</time>
      </trkpt>
      <trkpt lat="48.64329" lon="2.74506">
        <ele>72.6</ele>
        <time>2025-03-15T21:58:40Z</time>
      </trkpt>
      <trkpt lat="48.64329" lon="2.74509">
        <ele>72.6</ele>
        <time>2025-03-15T21:58:41Z</time>
      </trkpt>
      <trkpt lat="48.64329" lon="2.74511">
        <ele>72.6</ele>
        <time>2025-03-15T21:58:42Z</time>
      </trkpt>
      <trkpt lat="48.64325" lon="2.74549">
        <ele>72.6</ele>
        <time>2025-03-15T21:58:58Z</time>
      </trkpt>
      <trkpt lat="48.64327" lon="2.74584">
        <ele>72.8</ele>
        <time>2025-03-15T21:59:14Z</time>
      </trkpt>
      <trkpt lat="48.64326" lon="2.74619">
        <ele>72.8</ele>
        <time>2025-03-15T21:59:29Z</time>
      </trkpt>
      <trkpt lat="48.6432" lon="2.74655">
        <ele>73.2</ele>
        <time>2025-03-15T21:59:44Z</time>
      </trkpt>
      <trkpt lat="48.64317" lon="2.74688">
        <ele>73.6</ele>
        <time>2025-03-15T21:59:59Z</time>
      </trkpt>
      <trkpt lat="48.6431" lon="2.74725">
        <ele>73.4</ele>
        <time>2025-03-15T22:00:16Z</time>
      </trkpt>
      <trkpt lat="48.64306" lon="2.74762">
        <ele>74</ele>
        <time>2025-03-15T22:00:33Z</time>
      </trkpt>
      <trkpt lat="48.64302" lon="2.74794">
        <ele>74</ele>
        <time>2025-03-15T22:00:46Z</time>
      </trkpt>
      <trkpt lat="48.64299" lon="2.74829">
        <ele>74.2</ele>
        <time>2025-03-15T22:01:02Z</time>
      </trkpt>
      <trkpt lat="48.64294" lon="2.74865">
        <ele>74.8</ele>
        <time>2025-03-15T22:01:19Z</time>
      </trkpt>
      <trkpt lat="48.64291" lon="2.74901">
        <ele>75</ele>
        <time>2025-03-15T22:01:36Z</time>
      </trkpt>
      <trkpt lat="48.64284" lon="2.74941">
        <ele>75.2</ele>
        <time>2025-03-15T22:01:52Z</time>
      </trkpt>
      <trkpt lat="48.64281" lon="2.74972">
        <ele>75.6</ele>
        <time>2025-03-15T22:02:06Z</time>
      </trkpt>
      <trkpt lat="48.64275" lon="2.75009">
        <ele>75.8</ele>
        <time>2025-03-15T22:02:22Z</time>
      </trkpt>
      <trkpt lat="48.64271" lon="2.7503">
        <ele>76.2</ele>
        <time>2025-03-15T22:02:32Z</time>
      </trkpt>
      <trkpt lat="48.64269" lon="2.75058">
        <ele>76.2</ele>
        <time>2025-03-15T22:02:45Z</time>
      </trkpt>
      <trkpt lat="48.64266" lon="2.75096">
        <ele>76.2</ele>
        <time>2025-03-15T22:03:02Z</time>
      </trkpt>
      <trkpt lat="48.64259" lon="2.75133">
        <ele>77.4</ele>
        <time>2025-03-15T22:03:18Z</time>
      </trkpt>
      <trkpt lat="48.64251" lon="2.75174">
        <ele>76.2</ele>
        <time>2025-03-15T22:03:36Z</time>
      </trkpt>
      <trkpt lat="48.64247" lon="2.75208">
        <ele>77</ele>
        <time>2025-03-15T22:03:51Z</time>
      </trkpt>
      <trkpt lat="48.64242" lon="2.75239">
        <ele>77.2</ele>
        <time>2025-03-15T22:04:06Z</time>
      </trkpt>
      <trkpt lat="48.64239" lon="2.75276">
        <ele>77.8</ele>
        <time>2025-03-15T22:04:25Z</time>
      </trkpt>
      <trkpt lat="48.64234" lon="2.75308">
        <ele>78</ele>
        <time>2025-03-15T22:04:40Z</time>
      </trkpt>
      <trkpt lat="48.64229" lon="2.75344">
        <ele>78.4</ele>
        <time>2025-03-15T22:04:56Z</time>
      </trkpt>
      <trkpt lat="48.64228" lon="2.75352">
        <ele>78.4</ele>
        <time>2025-03-15T22:05:00Z</time>
      </trkpt>
      <trkpt lat="48.64228" lon="2.75355">
        <ele>78.4</ele>
        <time>2025-03-15T22:05:01Z</time>
      </trkpt>
      <trkpt lat="48.64225" lon="2.75372">
        <ele>78.4</ele>
        <time>2025-03-15T22:05:08Z</time>
      </trkpt>
      <trkpt lat="48.64225" lon="2.75374">
        <ele>78.4</ele>
        <time>2025-03-15T22:05:09Z</time>
      </trkpt>
      <trkpt lat="48.64218" lon="2.75418">
        <ele>79.4</ele>
        <time>2025-03-15T22:05:28Z</time>
      </trkpt>
      <trkpt lat="48.64213" lon="2.75455">
        <ele>79.4</ele>
        <time>2025-03-15T22:05:45Z</time>
      </trkpt>
      <trkpt lat="48.64207" lon="2.75499">
        <ele>79.2</ele>
        <time>2025-03-15T22:06:04Z</time>
      </trkpt>
      <trkpt lat="48.64201" lon="2.75538">
        <ele>79.2</ele>
        <time>2025-03-15T22:06:22Z</time>
      </trkpt>
      <trkpt lat="48.64195" lon="2.75574">
        <ele>79.4</ele>
        <time>2025-03-15T22:06:38Z</time>
      </trkpt>
      <trkpt lat="48.64189" lon="2.7561">
        <ele>79.4</ele>
        <time>2025-03-15T22:06:55Z</time>
      </trkpt>
      <trkpt lat="48.64183" lon="2.75651">
        <ele>79.6</ele>
        <time>2025-03-15T22:07:13Z</time>
      </trkpt>
      <trkpt lat="48.6418" lon="2.75686">
        <ele>79.6</ele>
        <time>2025-03-15T22:07:29Z</time>
      </trkpt>
      <trkpt lat="48.64174" lon="2.75722">
        <ele>79.8</ele>
        <time>2025-03-15T22:07:45Z</time>
      </trkpt>
      <trkpt lat="48.6417" lon="2.75757">
        <ele>79.8</ele>
        <time>2025-03-15T22:08:01Z</time>
      </trkpt>
      <trkpt lat="48.64165" lon="2.75792">
        <ele>80</ele>
        <time>2025-03-15T22:08:17Z</time>
      </trkpt>
      <trkpt lat="48.64159" lon="2.75829">
        <ele>79.8</ele>
        <time>2025-03-15T22:08:34Z</time>
      </trkpt>
      <trkpt lat="48.64151" lon="2.7587">
        <ele>80</ele>
        <time>2025-03-15T22:08:52Z</time>
      </trkpt>
      <trkpt lat="48.64148" lon="2.75906">
        <ele>80.2</ele>
        <time>2025-03-15T22:09:09Z</time>
      </trkpt>
      <trkpt lat="48.64144" lon="2.75944">
        <ele>80.2</ele>
        <time>2025-03-15T22:09:25Z</time>
      </trkpt>
      <trkpt lat="48.64144" lon="2.75952">
        <ele>80</ele>
        <time>2025-03-15T22:09:29Z</time>
      </trkpt>
      <trkpt lat="48.64141" lon="2.7599">
        <ele>80</ele>
        <time>2025-03-15T22:09:46Z</time>
      </trkpt>
      <trkpt lat="48.6414" lon="2.76027">
        <ele>80.2</ele>
        <time>2025-03-15T22:10:02Z</time>
      </trkpt>
      <trkpt lat="48.64135" lon="2.76071">
        <ele>79.8</ele>
        <time>2025-03-15T22:10:20Z</time>
      </trkpt>
      <trkpt lat="48.64132" lon="2.76105">
        <ele>80.2</ele>
        <time>2025-03-15T22:10:36Z</time>
      </trkpt>
      <trkpt lat="48.64127" lon="2.76145">
        <ele>80</ele>
        <time>2025-03-15T22:10:54Z</time>
      </trkpt>
      <trkpt lat="48.64124" lon="2.76186">
        <ele>80.2</ele>
        <time>2025-03-15T22:11:12Z</time>
      </trkpt>
      <trkpt lat="48.64118" lon="2.76235">
        <ele>80.2</ele>
        <time>2025-03-15T22:11:33Z</time>
      </trkpt>
      <trkpt lat="48.64117" lon="2.76271">
        <ele>80.2</ele>
        <time>2025-03-15T22:11:49Z</time>
      </trkpt>
      <trkpt lat="48.64117" lon="2.76273">
        <ele>80.2</ele>
        <time>2025-03-15T22:11:50Z</time>
      </trkpt>
      <trkpt lat="48.64114" lon="2.76293">
        <ele>80</ele>
        <time>2025-03-15T22:11:59Z</time>
      </trkpt>
      <trkpt lat="48.64114" lon="2.76295">
        <ele>80</ele>
        <time>2025-03-15T22:12:00Z</time>
      </trkpt>
      <trkpt lat="48.64114" lon="2.76297">
        <ele>80</ele>
        <time>2025-03-15T22:12:01Z</time>
      </trkpt>
      <trkpt lat="48.64113" lon="2.763">
        <ele>80</ele>
        <time>2025-03-15T22:12:02Z</time>
      </trkpt>
      <trkpt lat="48.64112" lon="2.76302">
        <ele>80</ele>
        <time>2025-03-15T22:12:03Z</time>
      </trkpt>
      <trkpt lat="48.64112" lon="2.76305">
        <ele>80</ele>
        <time>2025-03-15T22:12:04Z</time>
      </trkpt>
      <trkpt lat="48.64112" lon="2.76307">
        <ele>80</ele>
        <time>2025-03-15T22:12:05Z</time>
      </trkpt>
      <trkpt lat="48.64112" lon="2.76309">
        <ele>80</ele>
        <time>2025-03-15T22:12:06Z</time>
      </trkpt>
      <trkpt lat="48.64112" lon="2.76311">
        <ele>80.2</ele>
        <time>2025-03-15T22:12:07Z</time>
      </trkpt>
      <trkpt lat="48.64112" lon="2.76314">
        <ele>80.2</ele>
        <time>2025-03-15T22:12:08Z</time>
      </trkpt>
      <trkpt lat="48.64109" lon="2.76364">
        <ele>80.4</ele>
        <time>2025-03-15T22:12:30Z</time>
      </trkpt>
      <trkpt lat="48.6411" lon="2.76373">
        <ele>80.2</ele>
        <time>2025-03-15T22:12:34Z</time>
      </trkpt>
      <trkpt lat="48.6411" lon="2.76375">
        <ele>80.2</ele>
        <time>2025-03-15T22:12:35Z</time>
      </trkpt>
      <trkpt lat="48.64111" lon="2.76377">
        <ele>80.2</ele>
        <time>2025-03-15T22:12:36Z</time>
      </trkpt>
      <trkpt lat="48.64111" lon="2.7638">
        <ele>80.2</ele>
        <time>2025-03-15T22:12:37Z</time>
      </trkpt>
      <trkpt lat="48.64111" lon="2.76382">
        <ele>80.2</ele>
        <time>2025-03-15T22:12:38Z</time>
      </trkpt>
      <trkpt lat="48.64111" lon="2.76384">
        <ele>80.2</ele>
        <time>2025-03-15T22:12:39Z</time>
      </trkpt>
      <trkpt lat="48.64111" lon="2.76386">
        <ele>80.2</ele>
        <time>2025-03-15T22:12:40Z</time>
      </trkpt>
      <trkpt lat="48.64111" lon="2.76388">
        <ele>80.2</ele>
        <time>2025-03-15T22:12:41Z</time>
      </trkpt>
      <trkpt lat="48.6411" lon="2.7639">
        <ele>80.2</ele>
        <time>2025-03-15T22:12:42Z</time>
      </trkpt>
      <trkpt lat="48.6411" lon="2.76393">
        <ele>80.2</ele>
        <time>2025-03-15T22:12:43Z</time>
      </trkpt>
      <trkpt lat="48.6411" lon="2.76395">
        <ele>80.2</ele>
        <time>2025-03-15T22:12:44Z</time>
      </trkpt>
      <trkpt lat="48.6411" lon="2.76397">
        <ele>80.2</ele>
        <time>2025-03-15T22:12:45Z</time>
      </trkpt>
      <trkpt lat="48.64109" lon="2.764">
        <ele>80.2</ele>
        <time>2025-03-15T22:12:46Z</time>
      </trkpt>
      <trkpt lat="48.64106" lon="2.76431">
        <ele>80.6</ele>
        <time>2025-03-15T22:13:00Z</time>
      </trkpt>
      <trkpt lat="48.64107" lon="2.76433">
        <ele>80.6</ele>
        <time>2025-03-15T22:13:01Z</time>
      </trkpt>
      <trkpt lat="48.64107" lon="2.76436">
        <ele>80.6</ele>
        <time>2025-03-15T22:13:02Z</time>
      </trkpt>
      <trkpt lat="48.64107" lon="2.76438">
        <ele>80.6</ele>
        <time>2025-03-15T22:13:03Z</time>
      </trkpt>
      <trkpt lat="48.64106" lon="2.7644">
        <ele>80.6</ele>
        <time>2025-03-15T22:13:04Z</time>
      </trkpt>
      <trkpt lat="48.64106" lon="2.76442">
        <ele>80.6</ele>
        <time>2025-03-15T22:13:05Z</time>
      </trkpt>
      <trkpt lat="48.64107" lon="2.76444">
        <ele>80.6</ele>
        <time>2025-03-15T22:13:06Z</time>
      </trkpt>
      <trkpt lat="48.64104" lon="2.76482">
        <ele>80.8</ele>
        <time>2025-03-15T22:13:23Z</time>
      </trkpt>
      <trkpt lat="48.641" lon="2.76522">
        <ele>80.2</ele>
        <time>2025-03-15T22:13:40Z</time>
      </trkpt>
      <trkpt lat="48.64097" lon="2.76559">
        <ele>80.2</ele>
        <time>2025-03-15T22:13:57Z</time>
      </trkpt>
      <trkpt lat="48.64092" lon="2.76594">
        <ele>80.2</ele>
        <time>2025-03-15T22:14:13Z</time>
      </trkpt>
      <trkpt lat="48.6409" lon="2.76634">
        <ele>80</ele>
        <time>2025-03-15T22:14:30Z</time>
      </trkpt>
      <trkpt lat="48.64085" lon="2.76674">
        <ele>80</ele>
        <time>2025-03-15T22:14:48Z</time>
      </trkpt>
      <trkpt lat="48.64083" lon="2.76708">
        <ele>80</ele>
        <time>2025-03-15T22:15:03Z</time>
      </trkpt>
      <trkpt lat="48.64079" lon="2.76764">
        <ele>79.6</ele>
        <time>2025-03-15T22:15:26Z</time>
      </trkpt>
      <trkpt lat="48.64073" lon="2.76805">
        <ele>79.6</ele>
        <time>2025-03-15T22:15:44Z</time>
      </trkpt>
      <trkpt lat="48.6407" lon="2.76851">
        <ele>79.6</ele>
        <time>2025-03-15T22:16:04Z</time>
      </trkpt>
      <trkpt lat="48.64068" lon="2.76892">
        <ele>79.6</ele>
        <time>2025-03-15T22:16:22Z</time>
      </trkpt>
      <trkpt lat="48.64065" lon="2.76932">
        <ele>79.8</ele>
        <time>2025-03-15T22:16:40Z</time>
      </trkpt>
      <trkpt lat="48.64061" lon="2.76976">
        <ele>79.6</ele>
        <time>2025-03-15T22:16:59Z</time>
      </trkpt>
      <trkpt lat="48.64057" lon="2.77024">
        <ele>79.2</ele>
        <time>2025-03-15T22:17:20Z</time>
      </trkpt>
      <trkpt lat="48.64051" lon="2.77062">
        <ele>79.2</ele>
        <time>2025-03-15T22:17:39Z</time>
      </trkpt>
      <trkpt lat="48.64052" lon="2.77068">
        <ele>79.2</ele>
        <time>2025-03-15T22:17:44Z</time>
      </trkpt>
      <trkpt lat="48.64053" lon="2.77069">
        <ele>79.2</ele>
        <time>2025-03-15T22:17:45Z</time>
      </trkpt>
      <trkpt lat="48.64054" lon="2.77071">
        <ele>79.2</ele>
        <time>2025-03-15T22:17:46Z</time>
      </trkpt>
      <trkpt lat="48.64054" lon="2.77073">
        <ele>79</ele>
        <time>2025-03-15T22:17:47Z</time>
      </trkpt>
      <trkpt lat="48.64054" lon="2.77075">
        <ele>79</ele>
        <time>2025-03-15T22:17:48Z</time>
      </trkpt>
      <trkpt lat="48.64053" lon="2.77077">
        <ele>78.8</ele>
        <time>2025-03-15T22:17:49Z</time>
      </trkpt>
      <trkpt lat="48.64053" lon="2.77079">
        <ele>78.8</ele>
        <time>2025-03-15T22:17:50Z</time>
      </trkpt>
      <trkpt lat="48.6405" lon="2.77104">
        <ele>78.4</ele>
        <time>2025-03-15T22:18:02Z</time>
      </trkpt>
      <trkpt lat="48.6405" lon="2.77106">
        <ele>78.4</ele>
        <time>2025-03-15T22:18:03Z</time>
      </trkpt>
      <trkpt lat="48.6405" lon="2.77108">
        <ele>78.6</ele>
        <time>2025-03-15T22:18:04Z</time>
      </trkpt>
      <trkpt lat="48.6405" lon="2.77111">
        <ele>78.8</ele>
        <time>2025-03-15T22:18:05Z</time>
      </trkpt>
      <trkpt lat="48.6405" lon="2.77113">
        <ele>79</ele>
        <time>2025-03-15T22:18:06Z</time>
      </trkpt>
      <trkpt lat="48.64049" lon="2.77115">
        <ele>79.2</ele>
        <time>2025-03-15T22:18:07Z</time>
      </trkpt>
      <trkpt lat="48.64049" lon="2.77117">
        <ele>79.2</ele>
        <time>2025-03-15T22:18:08Z</time>
      </trkpt>
      <trkpt lat="48.64049" lon="2.77119">
        <ele>79.4</ele>
        <time>2025-03-15T22:18:09Z</time>
      </trkpt>
      <trkpt lat="48.64047" lon="2.77139">
        <ele>77.4</ele>
        <time>2025-03-15T22:18:18Z</time>
      </trkpt>
      <trkpt lat="48.64044" lon="2.77188">
        <ele>77.4</ele>
        <time>2025-03-15T22:18:39Z</time>
      </trkpt>
      <trkpt lat="48.64038" lon="2.77242">
        <ele>77.6</ele>
        <time>2025-03-15T22:19:01Z</time>
      </trkpt>
      <trkpt lat="48.64036" lon="2.7729">
        <ele>78.2</ele>
        <time>2025-03-15T22:19:22Z</time>
      </trkpt>
      <trkpt lat="48.64032" lon="2.77334">
        <ele>77.2</ele>
        <time>2025-03-15T22:19:41Z</time>
      </trkpt>
      <trkpt lat="48.6403" lon="2.77381">
        <ele>78</ele>
        <time>2025-03-15T22:20:02Z</time>
      </trkpt>
      <trkpt lat="48.64028" lon="2.77383">
        <ele>78.2</ele>
        <time>2025-03-15T22:20:05Z</time>
      </trkpt>
      <trkpt lat="48.64027" lon="2.77382">
        <ele>78.4</ele>
        <time>2025-03-15T22:20:06Z</time>
      </trkpt>
      <trkpt lat="48.64025" lon="2.77381">
        <ele>78.4</ele>
        <time>2025-03-15T22:20:07Z</time>
      </trkpt>
      <trkpt lat="48.64024" lon="2.77379">
        <ele>78.6</ele>
        <time>2025-03-15T22:20:08Z</time>
      </trkpt>
      <trkpt lat="48.64023" lon="2.77378">
        <ele>78.6</ele>
        <time>2025-03-15T22:20:09Z</time>
      </trkpt>
      <trkpt lat="48.64022" lon="2.77376">
        <ele>78.6</ele>
        <time>2025-03-15T22:20:10Z</time>
      </trkpt>
      <trkpt lat="48.64021" lon="2.77375">
        <ele>78.8</ele>
        <time>2025-03-15T22:20:11Z</time>
      </trkpt>
      <trkpt lat="48.64019" lon="2.77373">
        <ele>78.8</ele>
        <time>2025-03-15T22:20:12Z</time>
      </trkpt>
      <trkpt lat="48.63998" lon="2.77346">
        <ele>80</ele>
        <time>2025-03-15T22:20:32Z</time>
      </trkpt>
      <trkpt lat="48.63993" lon="2.77342">
        <ele>80.6</ele>
        <time>2025-03-15T22:20:48Z</time>
      </trkpt>
      <trkpt lat="48.6399" lon="2.77336">
        <ele>80.4</ele>
        <time>2025-03-15T22:21:08Z</time>
      </trkpt>
      <trkpt lat="48.6399" lon="2.77334">
        <ele>80.4</ele>
        <time>2025-03-15T22:21:28Z</time>
      </trkpt>
      <trkpt lat="48.63989" lon="2.77335">
        <ele>80.6</ele>
        <time>2025-03-15T22:21:58Z</time>
      </trkpt>
      <trkpt lat="48.63987" lon="2.77323">
        <ele>79</ele>
        <time>2025-03-15T22:22:21Z</time>
      </trkpt>
      <trkpt lat="48.63988" lon="2.77322">
        <ele>80.4</ele>
        <time>2025-03-15T22:22:45Z</time>
      </trkpt>
      <trkpt lat="48.63988" lon="2.77326">
        <ele>80.8</ele>
        <time>2025-03-15T22:23:15Z</time>
      </trkpt>
      <trkpt lat="48.63986" lon="2.77335">
        <ele>80.6</ele>
        <time>2025-03-15T22:23:29Z</time>
      </trkpt>
      <trkpt lat="48.63986" lon="2.77335">
        <ele>80.4</ele>
        <time>2025-03-15T22:23:50Z</time>
      </trkpt>
      <trkpt lat="48.63987" lon="2.77338">
        <ele>80.6</ele>
        <time>2025-03-15T22:24:04Z</time>
      </trkpt>
      <trkpt lat="48.63987" lon="2.77336">
        <ele>80.4</ele>
        <time>2025-03-15T22:24:23Z</time>
      </trkpt>
      <trkpt lat="48.63987" lon="2.77335">
        <ele>80.4</ele>
        <time>2025-03-15T22:24:42Z</time>
      </trkpt>
      <trkpt lat="48.63984" lon="2.77334">
        <ele>80.4</ele>
        <time>2025-03-15T22:25:05Z</time>
      </trkpt>
      <trkpt lat="48.63983" lon="2.77332">
        <ele>81</ele>
        <time>2025-03-15T22:25:16Z</time>
      </trkpt>
      <trkpt lat="48.63981" lon="2.77328">
        <ele>80.8</ele>
        <time>2025-03-15T22:25:18Z</time>
      </trkpt>
      <trkpt lat="48.63969" lon="2.77301">
        <ele>80.4</ele>
        <time>2025-03-15T22:25:34Z</time>
      </trkpt>
      <trkpt lat="48.63956" lon="2.77276">
        <ele>80.8</ele>
        <time>2025-03-15T22:25:50Z</time>
      </trkpt>
      <trkpt lat="48.63935" lon="2.7725">
        <ele>80.6</ele>
        <time>2025-03-15T22:26:08Z</time>
      </trkpt>
      <trkpt lat="48.63911" lon="2.77222">
        <ele>80.2</ele>
        <time>2025-03-15T22:26:27Z</time>
      </trkpt>
      <trkpt lat="48.63889" lon="2.77191">
        <ele>81.4</ele>
        <time>2025-03-15T22:26:47Z</time>
      </trkpt>
      <trkpt lat="48.63869" lon="2.77164">
        <ele>82.2</ele>
        <time>2025-03-15T22:27:06Z</time>
      </trkpt>
      <trkpt lat="48.63834" lon="2.77137">
        <ele>83.4</ele>
        <time>2025-03-15T22:27:32Z</time>
      </trkpt>
      <trkpt lat="48.63817" lon="2.77119">
        <ele>85</ele>
        <time>2025-03-15T22:27:48Z</time>
      </trkpt>
      <trkpt lat="48.63806" lon="2.77091">
        <ele>85</ele>
        <time>2025-03-15T22:28:05Z</time>
      </trkpt>
      <trkpt lat="48.63789" lon="2.77088">
        <ele>84.6</ele>
        <time>2025-03-15T22:28:20Z</time>
      </trkpt>
      <trkpt lat="48.63775" lon="2.77084">
        <ele>84.6</ele>
        <time>2025-03-15T22:28:32Z</time>
      </trkpt>
      <trkpt lat="48.63773" lon="2.77083">
        <ele>84.6</ele>
        <time>2025-03-15T22:28:33Z</time>
      </trkpt>
      <trkpt lat="48.63771" lon="2.77081">
        <ele>84.4</ele>
        <time>2025-03-15T22:28:34Z</time>
      </trkpt>
      <trkpt lat="48.6377" lon="2.77078">
        <ele>84.2</ele>
        <time>2025-03-15T22:28:35Z</time>
      </trkpt>
      <trkpt lat="48.63769" lon="2.77076">
        <ele>84.2</ele>
        <time>2025-03-15T22:28:36Z</time>
      </trkpt>
      <trkpt lat="48.63768" lon="2.77075">
        <ele>84</ele>
        <time>2025-03-15T22:28:37Z</time>
      </trkpt>
      <trkpt lat="48.63763" lon="2.77075">
        <ele>84</ele>
        <time>2025-03-15T22:28:42Z</time>
      </trkpt>
      <trkpt lat="48.63761" lon="2.77077">
        <ele>84.2</ele>
        <time>2025-03-15T22:28:43Z</time>
      </trkpt>
      <trkpt lat="48.63761" lon="2.77078">
        <ele>84.2</ele>
        <time>2025-03-15T22:28:44Z</time>
      </trkpt>
      <trkpt lat="48.63754" lon="2.77106">
        <ele>82.6</ele>
        <time>2025-03-15T22:28:59Z</time>
      </trkpt>
      <trkpt lat="48.63751" lon="2.77134">
        <ele>85.2</ele>
        <time>2025-03-15T22:29:14Z</time>
      </trkpt>
      <trkpt lat="48.63748" lon="2.77148">
        <ele>84.8</ele>
        <time>2025-03-15T22:29:22Z</time>
      </trkpt>
      <trkpt lat="48.63748" lon="2.7715">
        <ele>85</ele>
        <time>2025-03-15T22:29:23Z</time>
      </trkpt>
      <trkpt lat="48.63753" lon="2.7717">
        <ele>84.8</ele>
        <time>2025-03-15T22:29:34Z</time>
      </trkpt>
      <trkpt lat="48.63754" lon="2.77172">
        <ele>84.8</ele>
        <time>2025-03-15T22:29:35Z</time>
      </trkpt>
      <trkpt lat="48.63755" lon="2.77217">
        <ele>83.2</ele>
        <time>2025-03-15T22:29:53Z</time>
      </trkpt>
      <trkpt lat="48.63757" lon="2.77259">
        <ele>83</ele>
        <time>2025-03-15T22:30:11Z</time>
      </trkpt>
      <trkpt lat="48.63756" lon="2.77308">
        <ele>82.6</ele>
        <time>2025-03-15T22:30:33Z</time>
      </trkpt>
      <trkpt lat="48.63753" lon="2.77344">
        <ele>82.4</ele>
        <time>2025-03-15T22:30:50Z</time>
      </trkpt>
      <trkpt lat="48.63743" lon="2.77374">
        <ele>82</ele>
        <time>2025-03-15T22:31:08Z</time>
      </trkpt>
      <trkpt lat="48.63743" lon="2.77388">
        <ele>82</ele>
        <time>2025-03-15T22:31:16Z</time>
      </trkpt>
      <trkpt lat="48.63747" lon="2.77406">
        <ele>81.8</ele>
        <time>2025-03-15T22:31:24Z</time>
      </trkpt>
      <trkpt lat="48.63747" lon="2.7741">
        <ele>81.8</ele>
        <time>2025-03-15T22:31:25Z</time>
      </trkpt>
      <trkpt lat="48.63747" lon="2.77413">
        <ele>81.8</ele>
        <time>2025-03-15T22:31:26Z</time>
      </trkpt>
      <trkpt lat="48.63747" lon="2.77416">
        <ele>81.6</ele>
        <time>2025-03-15T22:31:27Z</time>
      </trkpt>
      <trkpt lat="48.63747" lon="2.77418">
        <ele>81.4</ele>
        <time>2025-03-15T22:31:28Z</time>
      </trkpt>
      <trkpt lat="48.63747" lon="2.77442">
        <ele>80.2</ele>
        <time>2025-03-15T22:31:39Z</time>
      </trkpt>
      <trkpt lat="48.63745" lon="2.77488">
        <ele>79.6</ele>
        <time>2025-03-15T22:31:58Z</time>
      </trkpt>
      <trkpt lat="48.63742" lon="2.77536">
        <ele>80</ele>
        <time>2025-03-15T22:32:18Z</time>
      </trkpt>
      <trkpt lat="48.63743" lon="2.77585">
        <ele>80.4</ele>
        <time>2025-03-15T22:32:38Z</time>
      </trkpt>
      <trkpt lat="48.63745" lon="2.77589">
        <ele>80.4</ele>
        <time>2025-03-15T22:32:40Z</time>
      </trkpt>
      <trkpt lat="48.63744" lon="2.77591">
        <ele>80.4</ele>
        <time>2025-03-15T22:32:41Z</time>
      </trkpt>
      <trkpt lat="48.63744" lon="2.77593">
        <ele>80.6</ele>
        <time>2025-03-15T22:32:42Z</time>
      </trkpt>
      <trkpt lat="48.63743" lon="2.77594">
        <ele>80.8</ele>
        <time>2025-03-15T22:32:43Z</time>
      </trkpt>
      <trkpt lat="48.63743" lon="2.77597">
        <ele>80.8</ele>
        <time>2025-03-15T22:32:44Z</time>
      </trkpt>
      <trkpt lat="48.63742" lon="2.776">
        <ele>80.8</ele>
        <time>2025-03-15T22:32:45Z</time>
      </trkpt>
      <trkpt lat="48.63739" lon="2.77636">
        <ele>80.2</ele>
        <time>2025-03-15T22:33:01Z</time>
      </trkpt>
      <trkpt lat="48.63737" lon="2.77688">
        <ele>79.6</ele>
        <time>2025-03-15T22:33:22Z</time>
      </trkpt>
      <trkpt lat="48.63738" lon="2.77737">
        <ele>79.2</ele>
        <time>2025-03-15T22:33:43Z</time>
      </trkpt>
      <trkpt lat="48.63739" lon="2.77784">
        <ele>79.2</ele>
        <time>2025-03-15T22:34:03Z</time>
      </trkpt>
      <trkpt lat="48.63739" lon="2.7784">
        <ele>79.6</ele>
        <time>2025-03-15T22:34:27Z</time>
      </trkpt>
      <trkpt lat="48.63739" lon="2.77894">
        <ele>79.4</ele>
        <time>2025-03-15T22:34:50Z</time>
      </trkpt>
      <trkpt lat="48.6374" lon="2.77947">
        <ele>79</ele>
        <time>2025-03-15T22:35:13Z</time>
      </trkpt>
      <trkpt lat="48.63742" lon="2.7799">
        <ele>79</ele>
        <time>2025-03-15T22:35:32Z</time>
      </trkpt>
      <trkpt lat="48.63744" lon="2.78029">
        <ele>78.6</ele>
        <time>2025-03-15T22:35:49Z</time>
      </trkpt>
      <trkpt lat="48.63752" lon="2.7808">
        <ele>78</ele>
        <time>2025-03-15T22:36:10Z</time>
      </trkpt>
      <trkpt lat="48.63758" lon="2.78119">
        <ele>78.8</ele>
        <time>2025-03-15T22:36:27Z</time>
      </trkpt>
      <trkpt lat="48.63764" lon="2.7815">
        <ele>78.6</ele>
        <time>2025-03-15T22:36:42Z</time>
      </trkpt>
      <trkpt lat="48.63773" lon="2.78187">
        <ele>78.6</ele>
        <time>2025-03-15T22:36:59Z</time>
      </trkpt>
      <trkpt lat="48.63779" lon="2.78225">
        <ele>78</ele>
        <time>2025-03-15T22:37:17Z</time>
      </trkpt>
      <trkpt lat="48.63789" lon="2.78269">
        <ele>78</ele>
        <time>2025-03-15T22:37:37Z</time>
      </trkpt>
      <trkpt lat="48.63796" lon="2.78313">
        <ele>78.2</ele>
        <time>2025-03-15T22:37:56Z</time>
      </trkpt>
      <trkpt lat="48.63802" lon="2.78352">
        <ele>77.8</ele>
        <time>2025-03-15T22:38:14Z</time>
      </trkpt>
      <trkpt lat="48.63808" lon="2.78383">
        <ele>77.6</ele>
        <time>2025-03-15T22:38:29Z</time>
      </trkpt>
      <trkpt lat="48.63818" lon="2.78431">
        <ele>78</ele>
        <time>2025-03-15T22:38:50Z</time>
      </trkpt>
      <trkpt lat="48.63824" lon="2.78472">
        <ele>78</ele>
        <time>2025-03-15T22:39:08Z</time>
      </trkpt>
      <trkpt lat="48.63833" lon="2.78512">
        <ele>78.2</ele>
        <time>2025-03-15T22:39:26Z</time>
      </trkpt>
      <trkpt lat="48.63841" lon="2.78552">
        <ele>78</ele>
        <time>2025-03-15T22:39:44Z</time>
      </trkpt>
      <trkpt lat="48.63853" lon="2.78589">
        <ele>77.8</ele>
        <time>2025-03-15T22:40:02Z</time>
      </trkpt>
      <trkpt lat="48.63874" lon="2.78616">
        <ele>77.8</ele>
        <time>2025-03-15T22:40:20Z</time>
      </trkpt>
      <trkpt lat="48.63898" lon="2.78631">
        <ele>77.8</ele>
        <time>2025-03-15T22:40:38Z</time>
      </trkpt>
      <trkpt lat="48.63931" lon="2.78633">
        <ele>78</ele>
        <time>2025-03-15T22:40:56Z</time>
      </trkpt>
      <trkpt lat="48.63956" lon="2.78629">
        <ele>77.4</ele>
        <time>2025-03-15T22:41:14Z</time>
      </trkpt>
      <trkpt lat="48.63977" lon="2.78626">
        <ele>77.8</ele>
        <time>2025-03-15T22:41:27Z</time>
      </trkpt>
      <trkpt lat="48.63993" lon="2.78632">
        <ele>78</ele>
        <time>2025-03-15T22:41:41Z</time>
      </trkpt>
      <trkpt lat="48.64001" lon="2.78659">
        <ele>78.4</ele>
        <time>2025-03-15T22:41:57Z</time>
      </trkpt>
      <trkpt lat="48.64007" lon="2.78696">
        <ele>77.4</ele>
        <time>2025-03-15T22:42:14Z</time>
      </trkpt>
      <trkpt lat="48.6401" lon="2.78738">
        <ele>76.4</ele>
        <time>2025-03-15T22:42:33Z</time>
      </trkpt>
      <trkpt lat="48.64016" lon="2.78787">
        <ele>75.4</ele>
        <time>2025-03-15T22:42:55Z</time>
      </trkpt>
      <trkpt lat="48.64019" lon="2.7883">
        <ele>73.2</ele>
        <time>2025-03-15T22:43:14Z</time>
      </trkpt>
      <trkpt lat="48.64023" lon="2.78878">
        <ele>72.4</ele>
        <time>2025-03-15T22:43:34Z</time>
      </trkpt>
      <trkpt lat="48.64008" lon="2.78918">
        <ele>72.6</ele>
        <time>2025-03-15T22:43:54Z</time>
      </trkpt>
      <trkpt lat="48.63991" lon="2.78959">
        <ele>72</ele>
        <time>2025-03-15T22:44:16Z</time>
      </trkpt>
      <trkpt lat="48.63969" lon="2.79001">
        <ele>71.6</ele>
        <time>2025-03-15T22:44:39Z</time>
      </trkpt>
      <trkpt lat="48.63945" lon="2.79043">
        <ele>70.6</ele>
        <time>2025-03-15T22:45:02Z</time>
      </trkpt>
      <trkpt lat="48.6393" lon="2.79071">
        <ele>70</ele>
        <time>2025-03-15T22:45:18Z</time>
      </trkpt>
      <trkpt lat="48.63911" lon="2.79105">
        <ele>69</ele>
        <time>2025-03-15T22:45:38Z</time>
      </trkpt>
      <trkpt lat="48.63891" lon="2.79142">
        <ele>68.4</ele>
        <time>2025-03-15T22:45:58Z</time>
      </trkpt>
      <trkpt lat="48.63873" lon="2.79178">
        <ele>67.4</ele>
        <time>2025-03-15T22:46:18Z</time>
      </trkpt>
      <trkpt lat="48.63859" lon="2.79211">
        <ele>68</ele>
        <time>2025-03-15T22:46:36Z</time>
      </trkpt>
      <trkpt lat="48.63855" lon="2.79216">
        <ele>67.8</ele>
        <time>2025-03-15T22:46:40Z</time>
      </trkpt>
      <trkpt lat="48.63849" lon="2.79224">
        <ele>68</ele>
        <time>2025-03-15T22:46:47Z</time>
      </trkpt>
      <trkpt lat="48.63848" lon="2.79226">
        <ele>68</ele>
        <time>2025-03-15T22:46:48Z</time>
      </trkpt>
      <trkpt lat="48.63847" lon="2.79228">
        <ele>67.8</ele>
        <time>2025-03-15T22:46:49Z</time>
      </trkpt>
      <trkpt lat="48.63846" lon="2.7923">
        <ele>67.8</ele>
        <time>2025-03-15T22:46:50Z</time>
      </trkpt>
      <trkpt lat="48.63845" lon="2.79232">
        <ele>67.8</ele>
        <time>2025-03-15T22:46:51Z</time>
      </trkpt>
      <trkpt lat="48.63844" lon="2.79234">
        <ele>67.8</ele>
        <time>2025-03-15T22:46:52Z</time>
      </trkpt>
      <trkpt lat="48.63825" lon="2.79279">
        <ele>67.6</ele>
        <time>2025-03-15T22:47:14Z</time>
      </trkpt>
      <trkpt lat="48.63809" lon="2.79317">
        <ele>67.8</ele>
        <time>2025-03-15T22:47:35Z</time>
      </trkpt>
      <trkpt lat="48.63792" lon="2.79341">
        <ele>68.6</ele>
        <time>2025-03-15T22:47:54Z</time>
      </trkpt>
      <trkpt lat="48.63792" lon="2.79341">
        <ele>68.2</ele>
        <time>2025-03-15T22:48:21Z</time>
      </trkpt>
      <trkpt lat="48.63791" lon="2.79343">
        <ele>68.2</ele>
        <time>2025-03-15T22:48:35Z</time>
      </trkpt>
      <trkpt lat="48.6379" lon="2.79344">
        <ele>68.2</ele>
        <time>2025-03-15T22:48:36Z</time>
      </trkpt>
      <trkpt lat="48.63789" lon="2.79346">
        <ele>68</ele>
        <time>2025-03-15T22:48:37Z</time>
      </trkpt>
      <trkpt lat="48.63788" lon="2.79348">
        <ele>67.8</ele>
        <time>2025-03-15T22:48:38Z</time>
      </trkpt>
      <trkpt lat="48.63787" lon="2.7935">
        <ele>67.6</ele>
        <time>2025-03-15T22:48:39Z</time>
      </trkpt>
      <trkpt lat="48.63777" lon="2.79396">
        <ele>67.6</ele>
        <time>2025-03-15T22:49:00Z</time>
      </trkpt>
      <trkpt lat="48.63765" lon="2.79435">
        <ele>67.2</ele>
        <time>2025-03-15T22:49:19Z</time>
      </trkpt>
      <trkpt lat="48.63757" lon="2.79481">
        <ele>67.6</ele>
        <time>2025-03-15T22:49:40Z</time>
      </trkpt>
      <trkpt lat="48.63748" lon="2.79527">
        <ele>68.2</ele>
        <time>2025-03-15T22:50:02Z</time>
      </trkpt>
      <trkpt lat="48.63732" lon="2.79562">
        <ele>68.2</ele>
        <time>2025-03-15T22:50:20Z</time>
      </trkpt>
      <trkpt lat="48.63718" lon="2.79599">
        <ele>68.8</ele>
        <time>2025-03-15T22:50:38Z</time>
      </trkpt>
      <trkpt lat="48.63705" lon="2.79634">
        <ele>69.8</ele>
        <time>2025-03-15T22:50:56Z</time>
      </trkpt>
      <trkpt lat="48.63703" lon="2.79643">
        <ele>70.2</ele>
        <time>2025-03-15T22:51:00Z</time>
      </trkpt>
      <trkpt lat="48.63697" lon="2.79681">
        <ele>71.4</ele>
        <time>2025-03-15T22:51:18Z</time>
      </trkpt>
      <trkpt lat="48.63683" lon="2.79717">
        <ele>72.6</ele>
        <time>2025-03-15T22:51:37Z</time>
      </trkpt>
      <trkpt lat="48.6367" lon="2.79738">
        <ele>73.6</ele>
        <time>2025-03-15T22:51:49Z</time>
      </trkpt>
      <trkpt lat="48.6367" lon="2.79739">
        <ele>73.8</ele>
        <time>2025-03-15T22:51:50Z</time>
      </trkpt>
      <trkpt lat="48.63669" lon="2.79741">
        <ele>73.8</ele>
        <time>2025-03-15T22:51:51Z</time>
      </trkpt>
      <trkpt lat="48.63657" lon="2.79777">
        <ele>75</ele>
        <time>2025-03-15T22:52:11Z</time>
      </trkpt>
      <trkpt lat="48.63638" lon="2.79803">
        <ele>75.6</ele>
        <time>2025-03-15T22:52:26Z</time>
      </trkpt>
      <trkpt lat="48.63625" lon="2.79834">
        <ele>76.4</ele>
        <time>2025-03-15T22:52:43Z</time>
      </trkpt>
      <trkpt lat="48.63614" lon="2.79867">
        <ele>77</ele>
        <time>2025-03-15T22:53:01Z</time>
      </trkpt>
      <trkpt lat="48.63611" lon="2.79874">
        <ele>77.2</ele>
        <time>2025-03-15T22:53:06Z</time>
      </trkpt>
      <trkpt lat="48.6361" lon="2.79876">
        <ele>77.2</ele>
        <time>2025-03-15T22:53:07Z</time>
      </trkpt>
      <trkpt lat="48.63609" lon="2.79877">
        <ele>77.2</ele>
        <time>2025-03-15T22:53:08Z</time>
      </trkpt>
      <trkpt lat="48.63608" lon="2.79879">
        <ele>77.2</ele>
        <time>2025-03-15T22:53:09Z</time>
      </trkpt>
      <trkpt lat="48.63607" lon="2.7988">
        <ele>77.2</ele>
        <time>2025-03-15T22:53:10Z</time>
      </trkpt>
      <trkpt lat="48.63581" lon="2.79916">
        <ele>78.2</ele>
        <time>2025-03-15T22:53:34Z</time>
      </trkpt>
      <trkpt lat="48.63561" lon="2.7995">
        <ele>78.6</ele>
        <time>2025-03-15T22:53:51Z</time>
      </trkpt>
      <trkpt lat="48.6356" lon="2.79951">
        <ele>78.8</ele>
        <time>2025-03-15T22:53:52Z</time>
      </trkpt>
      <trkpt lat="48.63558" lon="2.79951">
        <ele>78.8</ele>
        <time>2025-03-15T22:53:53Z</time>
      </trkpt>
      <trkpt lat="48.63556" lon="2.79951">
        <ele>78.8</ele>
        <time>2025-03-15T22:53:54Z</time>
      </trkpt>
      <trkpt lat="48.63555" lon="2.79956">
        <ele>78.8</ele>
        <time>2025-03-15T22:53:57Z</time>
      </trkpt>
      <trkpt lat="48.63557" lon="2.79969">
        <ele>79</ele>
        <time>2025-03-15T22:54:03Z</time>
      </trkpt>
      <trkpt lat="48.63558" lon="2.79971">
        <ele>78.8</ele>
        <time>2025-03-15T22:54:04Z</time>
      </trkpt>
      <trkpt lat="48.63558" lon="2.79972">
        <ele>78.8</ele>
        <time>2025-03-15T22:54:05Z</time>
      </trkpt>
      <trkpt lat="48.63559" lon="2.79976">
        <ele>78.8</ele>
        <time>2025-03-15T22:54:07Z</time>
      </trkpt>
      <trkpt lat="48.63559" lon="2.79977">
        <ele>78.6</ele>
        <time>2025-03-15T22:54:08Z</time>
      </trkpt>
      <trkpt lat="48.63559" lon="2.79979">
        <ele>78.6</ele>
        <time>2025-03-15T22:54:09Z</time>
      </trkpt>
      <trkpt lat="48.63559" lon="2.79981">
        <ele>78.6</ele>
        <time>2025-03-15T22:54:10Z</time>
      </trkpt>
      <trkpt lat="48.63559" lon="2.79982">
        <ele>78.6</ele>
        <time>2025-03-15T22:54:11Z</time>
      </trkpt>
      <trkpt lat="48.63558" lon="2.79984">
        <ele>78.6</ele>
        <time>2025-03-15T22:54:12Z</time>
      </trkpt>
      <trkpt lat="48.63557" lon="2.79986">
        <ele>78.6</ele>
        <time>2025-03-15T22:54:13Z</time>
      </trkpt>
      <trkpt lat="48.63557" lon="2.79988">
        <ele>78.8</ele>
        <time>2025-03-15T22:54:14Z</time>
      </trkpt>
      <trkpt lat="48.63556" lon="2.7999">
        <ele>79</ele>
        <time>2025-03-15T22:54:15Z</time>
      </trkpt>
      <trkpt lat="48.63555" lon="2.79992">
        <ele>79</ele>
        <time>2025-03-15T22:54:16Z</time>
      </trkpt>
      <trkpt lat="48.63554" lon="2.79995">
        <ele>79</ele>
        <time>2025-03-15T22:54:17Z</time>
      </trkpt>
      <trkpt lat="48.63553" lon="2.79997">
        <ele>79.2</ele>
        <time>2025-03-15T22:54:18Z</time>
      </trkpt>
      <trkpt lat="48.63552" lon="2.79998">
        <ele>79.2</ele>
        <time>2025-03-15T22:54:19Z</time>
      </trkpt>
      <trkpt lat="48.63551" lon="2.79999">
        <ele>79.2</ele>
        <time>2025-03-15T22:54:20Z</time>
      </trkpt>
      <trkpt lat="48.6355" lon="2.80001">
        <ele>79.4</ele>
        <time>2025-03-15T22:54:21Z</time>
      </trkpt>
      <trkpt lat="48.63549" lon="2.80003">
        <ele>79.6</ele>
        <time>2025-03-15T22:54:22Z</time>
      </trkpt>
      <trkpt lat="48.63548" lon="2.80004">
        <ele>79.6</ele>
        <time>2025-03-15T22:54:23Z</time>
      </trkpt>
      <trkpt lat="48.63547" lon="2.80005">
        <ele>79.6</ele>
        <time>2025-03-15T22:54:24Z</time>
      </trkpt>
      <trkpt lat="48.63542" lon="2.8001">
        <ele>79.6</ele>
        <time>2025-03-15T22:54:29Z</time>
      </trkpt>
      <trkpt lat="48.6354" lon="2.80011">
        <ele>79.6</ele>
        <time>2025-03-15T22:54:30Z</time>
      </trkpt>
      <trkpt lat="48.63539" lon="2.80013">
        <ele>79.6</ele>
        <time>2025-03-15T22:54:31Z</time>
      </trkpt>
      <trkpt lat="48.63539" lon="2.80015">
        <ele>79.6</ele>
        <time>2025-03-15T22:54:32Z</time>
      </trkpt>
      <trkpt lat="48.63538" lon="2.80017">
        <ele>79.8</ele>
        <time>2025-03-15T22:54:33Z</time>
      </trkpt>
      <trkpt lat="48.63536" lon="2.80017">
        <ele>79.8</ele>
        <time>2025-03-15T22:54:34Z</time>
      </trkpt>
      <trkpt lat="48.6352" lon="2.80041">
        <ele>80</ele>
        <time>2025-03-15T22:54:50Z</time>
      </trkpt>
      <trkpt lat="48.63519" lon="2.80044">
        <ele>80</ele>
        <time>2025-03-15T22:54:51Z</time>
      </trkpt>
      <trkpt lat="48.63519" lon="2.80046">
        <ele>80</ele>
        <time>2025-03-15T22:54:52Z</time>
      </trkpt>
      <trkpt lat="48.63518" lon="2.80048">
        <ele>79.8</ele>
        <time>2025-03-15T22:54:53Z</time>
      </trkpt>
      <trkpt lat="48.63518" lon="2.80051">
        <ele>79.8</ele>
        <time>2025-03-15T22:54:54Z</time>
      </trkpt>
      <trkpt lat="48.63518" lon="2.80053">
        <ele>79.8</ele>
        <time>2025-03-15T22:54:55Z</time>
      </trkpt>
      <trkpt lat="48.63519" lon="2.80055">
        <ele>79.8</ele>
        <time>2025-03-15T22:54:56Z</time>
      </trkpt>
      <trkpt lat="48.6352" lon="2.80057">
        <ele>79.8</ele>
        <time>2025-03-15T22:54:57Z</time>
      </trkpt>
      <trkpt lat="48.63519" lon="2.80057">
        <ele>79.8</ele>
        <time>2025-03-15T22:54:58Z</time>
      </trkpt>
      <trkpt lat="48.6352" lon="2.80059">
        <ele>79.8</ele>
        <time>2025-03-15T22:54:59Z</time>
      </trkpt>
      <trkpt lat="48.6352" lon="2.80061">
        <ele>79.8</ele>
        <time>2025-03-15T22:55:00Z</time>
      </trkpt>
      <trkpt lat="48.6352" lon="2.80063">
        <ele>79.8</ele>
        <time>2025-03-15T22:55:01Z</time>
      </trkpt>
      <trkpt lat="48.6353" lon="2.80112">
        <ele>79.4</ele>
        <time>2025-03-15T22:55:22Z</time>
      </trkpt>
      <trkpt lat="48.6354" lon="2.80152">
        <ele>79.2</ele>
        <time>2025-03-15T22:55:41Z</time>
      </trkpt>
      <trkpt lat="48.63541" lon="2.80156">
        <ele>79.2</ele>
        <time>2025-03-15T22:55:43Z</time>
      </trkpt>
      <trkpt lat="48.63549" lon="2.80195">
        <ele>78.8</ele>
        <time>2025-03-15T22:56:01Z</time>
      </trkpt>
      <trkpt lat="48.63558" lon="2.80237">
        <ele>78.6</ele>
        <time>2025-03-15T22:56:20Z</time>
      </trkpt>
      <trkpt lat="48.63568" lon="2.80279">
        <ele>78.2</ele>
        <time>2025-03-15T22:56:39Z</time>
      </trkpt>
      <trkpt lat="48.63575" lon="2.80328">
        <ele>77.8</ele>
        <time>2025-03-15T22:57:01Z</time>
      </trkpt>
      <trkpt lat="48.63576" lon="2.80373">
        <ele>77</ele>
        <time>2025-03-15T22:57:21Z</time>
      </trkpt>
      <trkpt lat="48.63575" lon="2.80412">
        <ele>76.6</ele>
        <time>2025-03-15T22:57:38Z</time>
      </trkpt>
      <trkpt lat="48.63577" lon="2.8046">
        <ele>75.8</ele>
        <time>2025-03-15T22:57:59Z</time>
      </trkpt>
      <trkpt lat="48.63576" lon="2.80504">
        <ele>74.4</ele>
        <time>2025-03-15T22:58:18Z</time>
      </trkpt>
      <trkpt lat="48.63577" lon="2.80543">
        <ele>73.2</ele>
        <time>2025-03-15T22:58:35Z</time>
      </trkpt>
      <trkpt lat="48.63581" lon="2.80582">
        <ele>71.6</ele>
        <time>2025-03-15T22:58:53Z</time>
      </trkpt>
      <trkpt lat="48.63586" lon="2.80622">
        <ele>70.2</ele>
        <time>2025-03-15T22:59:12Z</time>
      </trkpt>
      <trkpt lat="48.63582" lon="2.80668">
        <ele>69.2</ele>
        <time>2025-03-15T22:59:32Z</time>
      </trkpt>
      <trkpt lat="48.63581" lon="2.80705">
        <ele>68.8</ele>
        <time>2025-03-15T22:59:49Z</time>
      </trkpt>
      <trkpt lat="48.63584" lon="2.80745">
        <ele>68.2</ele>
        <time>2025-03-15T23:00:07Z</time>
      </trkpt>
      <trkpt lat="48.63586" lon="2.8078">
        <ele>67.8</ele>
        <time>2025-03-15T23:00:23Z</time>
      </trkpt>
      <trkpt lat="48.63583" lon="2.80822">
        <ele>67.8</ele>
        <time>2025-03-15T23:00:39Z</time>
      </trkpt>
      <trkpt lat="48.63577" lon="2.80867">
        <ele>69</ele>
        <time>2025-03-15T23:00:58Z</time>
      </trkpt>
      <trkpt lat="48.63571" lon="2.80924">
        <ele>70</ele>
        <time>2025-03-15T23:01:22Z</time>
      </trkpt>
      <trkpt lat="48.63571" lon="2.80973">
        <ele>71.4</ele>
        <time>2025-03-15T23:01:43Z</time>
      </trkpt>
      <trkpt lat="48.63575" lon="2.81021">
        <ele>72.6</ele>
        <time>2025-03-15T23:02:04Z</time>
      </trkpt>
      <trkpt lat="48.63579" lon="2.81062">
        <ele>73.8</ele>
        <time>2025-03-15T23:02:22Z</time>
      </trkpt>
      <trkpt lat="48.63585" lon="2.81104">
        <ele>74.4</ele>
        <time>2025-03-15T23:02:41Z</time>
      </trkpt>
      <trkpt lat="48.63595" lon="2.81143">
        <ele>76</ele>
        <time>2025-03-15T23:03:00Z</time>
      </trkpt>
      <trkpt lat="48.63617" lon="2.81186">
        <ele>77.2</ele>
        <time>2025-03-15T23:03:24Z</time>
      </trkpt>
      <trkpt lat="48.63639" lon="2.81229">
        <ele>77.6</ele>
        <time>2025-03-15T23:03:49Z</time>
      </trkpt>
      <trkpt lat="48.63662" lon="2.81269">
        <ele>78</ele>
        <time>2025-03-15T23:04:13Z</time>
      </trkpt>
      <trkpt lat="48.63689" lon="2.81315">
        <ele>78.8</ele>
        <time>2025-03-15T23:04:40Z</time>
      </trkpt>
      <trkpt lat="48.63712" lon="2.81356">
        <ele>79.2</ele>
        <time>2025-03-15T23:05:04Z</time>
      </trkpt>
      <trkpt lat="48.63736" lon="2.81396">
        <ele>80</ele>
        <time>2025-03-15T23:05:27Z</time>
      </trkpt>
      <trkpt lat="48.63756" lon="2.81436">
        <ele>80</ele>
        <time>2025-03-15T23:05:51Z</time>
      </trkpt>
      <trkpt lat="48.63782" lon="2.81476">
        <ele>80.2</ele>
        <time>2025-03-15T23:06:14Z</time>
      </trkpt>
      <trkpt lat="48.63799" lon="2.81508">
        <ele>80.4</ele>
        <time>2025-03-15T23:06:32Z</time>
      </trkpt>
      <trkpt lat="48.63819" lon="2.81543">
        <ele>79.8</ele>
        <time>2025-03-15T23:06:52Z</time>
      </trkpt>
      <trkpt lat="48.63839" lon="2.81577">
        <ele>80.6</ele>
        <time>2025-03-15T23:07:12Z</time>
      </trkpt>
      <trkpt lat="48.6384" lon="2.81579">
        <ele>80.8</ele>
        <time>2025-03-15T23:07:13Z</time>
      </trkpt>
      <trkpt lat="48.63857" lon="2.81607">
        <ele>79.6</ele>
        <time>2025-03-15T23:07:31Z</time>
      </trkpt>
      <trkpt lat="48.63876" lon="2.81642">
        <ele>79.8</ele>
        <time>2025-03-15T23:07:51Z</time>
      </trkpt>
      <trkpt lat="48.63899" lon="2.81682">
        <ele>81</ele>
        <time>2025-03-15T23:08:14Z</time>
      </trkpt>
      <trkpt lat="48.63922" lon="2.81719">
        <ele>81.6</ele>
        <time>2025-03-15T23:08:36Z</time>
      </trkpt>
      <trkpt lat="48.6394" lon="2.81756">
        <ele>81.8</ele>
        <time>2025-03-15T23:08:57Z</time>
      </trkpt>
      <trkpt lat="48.63958" lon="2.81787">
        <ele>82</ele>
        <time>2025-03-15T23:09:15Z</time>
      </trkpt>
      <trkpt lat="48.63979" lon="2.81823">
        <ele>82.8</ele>
        <time>2025-03-15T23:09:37Z</time>
      </trkpt>
      <trkpt lat="48.63999" lon="2.81859">
        <ele>82.4</ele>
        <time>2025-03-15T23:09:58Z</time>
      </trkpt>
      <trkpt lat="48.64016" lon="2.81889">
        <ele>82.4</ele>
        <time>2025-03-15T23:10:16Z</time>
      </trkpt>
      <trkpt lat="48.64034" lon="2.81919">
        <ele>82.4</ele>
        <time>2025-03-15T23:10:33Z</time>
      </trkpt>
      <trkpt lat="48.64053" lon="2.81953">
        <ele>82.8</ele>
        <time>2025-03-15T23:10:53Z</time>
      </trkpt>
      <trkpt lat="48.64076" lon="2.81993">
        <ele>82.8</ele>
        <time>2025-03-15T23:11:16Z</time>
      </trkpt>
      <trkpt lat="48.641" lon="2.82034">
        <ele>82</ele>
        <time>2025-03-15T23:11:40Z</time>
      </trkpt>
      <trkpt lat="48.64125" lon="2.82076">
        <ele>82.8</ele>
        <time>2025-03-15T23:12:04Z</time>
      </trkpt>
      <trkpt lat="48.64145" lon="2.82111">
        <ele>82.8</ele>
        <time>2025-03-15T23:12:25Z</time>
      </trkpt>
      <trkpt lat="48.64166" lon="2.8215">
        <ele>83.2</ele>
        <time>2025-03-15T23:12:48Z</time>
      </trkpt>
      <trkpt lat="48.64188" lon="2.82189">
        <ele>83.6</ele>
        <time>2025-03-15T23:13:11Z</time>
      </trkpt>
      <trkpt lat="48.6421" lon="2.82227">
        <ele>83.6</ele>
        <time>2025-03-15T23:13:33Z</time>
      </trkpt>
      <trkpt lat="48.64232" lon="2.82265">
        <ele>83.6</ele>
        <time>2025-03-15T23:13:55Z</time>
      </trkpt>
      <trkpt lat="48.64252" lon="2.82302">
        <ele>83.4</ele>
        <time>2025-03-15T23:14:16Z</time>
      </trkpt>
      <trkpt lat="48.64274" lon="2.8234">
        <ele>83.6</ele>
        <time>2025-03-15T23:14:38Z</time>
      </trkpt>
      <trkpt lat="48.64293" lon="2.82374">
        <ele>83.2</ele>
        <time>2025-03-15T23:14:58Z</time>
      </trkpt>
      <trkpt lat="48.6431" lon="2.82408">
        <ele>83.6</ele>
        <time>2025-03-15T23:15:18Z</time>
      </trkpt>
      <trkpt lat="48.64327" lon="2.82437">
        <ele>83.6</ele>
        <time>2025-03-15T23:15:35Z</time>
      </trkpt>
      <trkpt lat="48.64342" lon="2.82469">
        <ele>82.8</ele>
        <time>2025-03-15T23:15:53Z</time>
      </trkpt>
      <trkpt lat="48.64354" lon="2.82503">
        <ele>82.8</ele>
        <time>2025-03-15T23:16:13Z</time>
      </trkpt>
      <trkpt lat="48.64342" lon="2.8254">
        <ele>82.8</ele>
        <time>2025-03-15T23:16:32Z</time>
      </trkpt>
      <trkpt lat="48.64322" lon="2.8258">
        <ele>82.6</ele>
        <time>2025-03-15T23:16:54Z</time>
      </trkpt>
      <trkpt lat="48.64303" lon="2.82617">
        <ele>82.6</ele>
        <time>2025-03-15T23:17:14Z</time>
      </trkpt>
      <trkpt lat="48.64291" lon="2.82639">
        <ele>82.8</ele>
        <time>2025-03-15T23:17:32Z</time>
      </trkpt>
      <trkpt lat="48.64265" lon="2.82692">
        <ele>83.6</ele>
        <time>2025-03-15T23:18:05Z</time>
      </trkpt>
      <trkpt lat="48.64238" lon="2.82739">
        <ele>84.4</ele>
        <time>2025-03-15T23:18:33Z</time>
      </trkpt>
      <trkpt lat="48.64214" lon="2.82786">
        <ele>85.4</ele>
        <time>2025-03-15T23:18:59Z</time>
      </trkpt>
      <trkpt lat="48.64193" lon="2.82825">
        <ele>86.4</ele>
        <time>2025-03-15T23:19:20Z</time>
      </trkpt>
      <trkpt lat="48.64182" lon="2.82872">
        <ele>87.2</ele>
        <time>2025-03-15T23:19:39Z</time>
      </trkpt>
      <trkpt lat="48.64199" lon="2.82909">
        <ele>87.8</ele>
        <time>2025-03-15T23:20:00Z</time>
      </trkpt>
      <trkpt lat="48.64225" lon="2.82923">
        <ele>89.2</ele>
        <time>2025-03-15T23:20:19Z</time>
      </trkpt>
      <trkpt lat="48.64246" lon="2.82933">
        <ele>89.4</ele>
        <time>2025-03-15T23:20:35Z</time>
      </trkpt>
      <trkpt lat="48.64275" lon="2.82946">
        <ele>88.2</ele>
        <time>2025-03-15T23:20:56Z</time>
      </trkpt>
      <trkpt lat="48.64302" lon="2.82957">
        <ele>87</ele>
        <time>2025-03-15T23:21:16Z</time>
      </trkpt>
      <trkpt lat="48.64331" lon="2.82967">
        <ele>85.4</ele>
        <time>2025-03-15T23:21:35Z</time>
      </trkpt>
      <trkpt lat="48.64355" lon="2.82976">
        <ele>84.4</ele>
        <time>2025-03-15T23:21:54Z</time>
      </trkpt>
      <trkpt lat="48.64371" lon="2.83013">
        <ele>82.8</ele>
        <time>2025-03-15T23:22:13Z</time>
      </trkpt>
      <trkpt lat="48.6437" lon="2.83058">
        <ele>82.2</ele>
        <time>2025-03-15T23:22:33Z</time>
      </trkpt>
      <trkpt lat="48.64369" lon="2.83106">
        <ele>81.6</ele>
        <time>2025-03-15T23:22:54Z</time>
      </trkpt>
      <trkpt lat="48.6437" lon="2.83148">
        <ele>81.4</ele>
        <time>2025-03-15T23:23:13Z</time>
      </trkpt>
      <trkpt lat="48.64367" lon="2.83192">
        <ele>80.6</ele>
        <time>2025-03-15T23:23:33Z</time>
      </trkpt>
      <trkpt lat="48.64374" lon="2.83217">
        <ele>80.8</ele>
        <time>2025-03-15T23:23:46Z</time>
      </trkpt>
      <trkpt lat="48.64375" lon="2.83217">
        <ele>80.8</ele>
        <time>2025-03-15T23:23:47Z</time>
      </trkpt>
      <trkpt lat="48.64377" lon="2.83217">
        <ele>80.8</ele>
        <time>2025-03-15T23:23:48Z</time>
      </trkpt>
      <trkpt lat="48.64393" lon="2.83218">
        <ele>80.8</ele>
        <time>2025-03-15T23:24:00Z</time>
      </trkpt>
      <trkpt lat="48.64395" lon="2.83218">
        <ele>80.8</ele>
        <time>2025-03-15T23:24:01Z</time>
      </trkpt>
      <trkpt lat="48.64396" lon="2.83218">
        <ele>81</ele>
        <time>2025-03-15T23:24:02Z</time>
      </trkpt>
      <trkpt lat="48.64398" lon="2.83219">
        <ele>80.8</ele>
        <time>2025-03-15T23:24:03Z</time>
      </trkpt>
      <trkpt lat="48.644" lon="2.83219">
        <ele>81</ele>
        <time>2025-03-15T23:24:04Z</time>
      </trkpt>
      <trkpt lat="48.64401" lon="2.83219">
        <ele>81</ele>
        <time>2025-03-15T23:24:05Z</time>
      </trkpt>
      <trkpt lat="48.64403" lon="2.83219">
        <ele>81</ele>
        <time>2025-03-15T23:24:06Z</time>
      </trkpt>
      <trkpt lat="48.64405" lon="2.83219">
        <ele>81</ele>
        <time>2025-03-15T23:24:07Z</time>
      </trkpt>
      <trkpt lat="48.64407" lon="2.83219">
        <ele>81</ele>
        <time>2025-03-15T23:24:08Z</time>
      </trkpt>
      <trkpt lat="48.64408" lon="2.83219">
        <ele>81</ele>
        <time>2025-03-15T23:24:09Z</time>
      </trkpt>
      <trkpt lat="48.6441" lon="2.83218">
        <ele>81</ele>
        <time>2025-03-15T23:24:10Z</time>
      </trkpt>
      <trkpt lat="48.64439" lon="2.83219">
        <ele>81</ele>
        <time>2025-03-15T23:24:29Z</time>
      </trkpt>
      <trkpt lat="48.64465" lon="2.83218">
        <ele>81.2</ele>
        <time>2025-03-15T23:24:48Z</time>
      </trkpt>
      <trkpt lat="48.64487" lon="2.83228">
        <ele>81.4</ele>
        <time>2025-03-15T23:25:05Z</time>
      </trkpt>
      <trkpt lat="48.64494" lon="2.83259">
        <ele>81.4</ele>
        <time>2025-03-15T23:25:21Z</time>
      </trkpt>
      <trkpt lat="48.64497" lon="2.83293">
        <ele>82</ele>
        <time>2025-03-15T23:25:37Z</time>
      </trkpt>
      <trkpt lat="48.645" lon="2.83331">
        <ele>82.2</ele>
        <time>2025-03-15T23:25:55Z</time>
      </trkpt>
      <trkpt lat="48.64503" lon="2.83372">
        <ele>83</ele>
        <time>2025-03-15T23:26:14Z</time>
      </trkpt>
      <trkpt lat="48.64504" lon="2.83399">
        <ele>84.6</ele>
        <time>2025-03-15T23:26:34Z</time>
      </trkpt>
      <trkpt lat="48.64507" lon="2.83401">
        <ele>84</ele>
        <time>2025-03-15T23:27:00Z</time>
      </trkpt>
      <trkpt lat="48.64508" lon="2.83405">
        <ele>84.2</ele>
        <time>2025-03-15T23:27:18Z</time>
      </trkpt>
      <trkpt lat="48.64507" lon="2.83406">
        <ele>83.8</ele>
        <time>2025-03-15T23:27:40Z</time>
      </trkpt>
      <trkpt lat="48.64507" lon="2.83409">
        <ele>83.6</ele>
        <time>2025-03-15T23:28:08Z</time>
      </trkpt>
      <trkpt lat="48.64506" lon="2.83412">
        <ele>83.8</ele>
        <time>2025-03-15T23:28:44Z</time>
      </trkpt>
      <trkpt lat="48.64505" lon="2.83412">
        <ele>83.4</ele>
        <time>2025-03-15T23:29:20Z</time>
      </trkpt>
      <trkpt lat="48.64505" lon="2.83412">
        <ele>83.4</ele>
        <time>2025-03-15T23:30:08Z</time>
      </trkpt>
      <trkpt lat="48.64506" lon="2.83413">
        <ele>84</ele>
        <time>2025-03-15T23:30:44Z</time>
      </trkpt>
      <trkpt lat="48.64506" lon="2.8341">
        <ele>83.8</ele>
        <time>2025-03-15T23:31:11Z</time>
      </trkpt>
      <trkpt lat="48.64506" lon="2.83411">
        <ele>83.2</ele>
        <time>2025-03-15T23:31:49Z</time>
      </trkpt>
      <trkpt lat="48.64506" lon="2.83412">
        <ele>82.2</ele>
        <time>2025-03-15T23:32:13Z</time>
      </trkpt>
      <trkpt lat="48.64506" lon="2.83411">
        <ele>81.6</ele>
        <time>2025-03-15T23:32:38Z</time>
      </trkpt>
      <trkpt lat="48.64507" lon="2.83412">
        <ele>81.2</ele>
        <time>2025-03-15T23:32:47Z</time>
      </trkpt>
      <trkpt lat="48.64513" lon="2.8341">
        <ele>104</ele>
        <time>2025-03-15T23:43:22Z</time>
      </trkpt>
      <trkpt lat="48.64513" lon="2.8341">
        <ele>83.6</ele>
        <time>2025-03-15T23:43:23Z</time>
      </trkpt>
      <trkpt lat="48.6451" lon="2.83407">
        <ele>83.6</ele>
        <time>2025-03-15T23:43:45Z</time>
      </trkpt>
      <trkpt lat="48.6451" lon="2.83406">
        <ele>84.4</ele>
        <time>2025-03-15T23:44:17Z</time>
      </trkpt>
      <trkpt lat="48.64511" lon="2.83406">
        <ele>84.6</ele>
        <time>2025-03-15T23:44:49Z</time>
      </trkpt>
      <trkpt lat="48.64511" lon="2.8341">
        <ele>84.6</ele>
        <time>2025-03-15T23:45:04Z</time>
      </trkpt>
      <trkpt lat="48.64511" lon="2.83422">
        <ele>84.2</ele>
        <time>2025-03-15T23:45:18Z</time>
      </trkpt>
      <trkpt lat="48.64511" lon="2.83424">
        <ele>84</ele>
        <time>2025-03-15T23:45:19Z</time>
      </trkpt>
      <trkpt lat="48.6451" lon="2.83425">
        <ele>84</ele>
        <time>2025-03-15T23:45:20Z</time>
      </trkpt>
      <trkpt lat="48.64511" lon="2.83427">
        <ele>84</ele>
        <time>2025-03-15T23:45:21Z</time>
      </trkpt>
      <trkpt lat="48.64511" lon="2.83429">
        <ele>83.8</ele>
        <time>2025-03-15T23:45:22Z</time>
      </trkpt>
      <trkpt lat="48.64511" lon="2.83431">
        <ele>83.8</ele>
        <time>2025-03-15T23:45:23Z</time>
      </trkpt>
      <trkpt lat="48.64512" lon="2.8346">
        <ele>84</ele>
        <time>2025-03-15T23:45:40Z</time>
      </trkpt>
      <trkpt lat="48.64511" lon="2.83472">
        <ele>84.2</ele>
        <time>2025-03-15T23:45:49Z</time>
      </trkpt>
      <trkpt lat="48.6451" lon="2.83475">
        <ele>84.2</ele>
        <time>2025-03-15T23:45:51Z</time>
      </trkpt>
      <trkpt lat="48.64511" lon="2.83477">
        <ele>84.2</ele>
        <time>2025-03-15T23:45:52Z</time>
      </trkpt>
      <trkpt lat="48.64511" lon="2.83479">
        <ele>84.2</ele>
        <time>2025-03-15T23:45:53Z</time>
      </trkpt>
      <trkpt lat="48.64512" lon="2.83481">
        <ele>84.2</ele>
        <time>2025-03-15T23:45:54Z</time>
      </trkpt>
      <trkpt lat="48.64512" lon="2.83483">
        <ele>84.4</ele>
        <time>2025-03-15T23:45:55Z</time>
      </trkpt>
      <trkpt lat="48.64511" lon="2.83515">
        <ele>84.4</ele>
        <time>2025-03-15T23:46:10Z</time>
      </trkpt>
      <trkpt lat="48.64511" lon="2.83543">
        <ele>84.8</ele>
        <time>2025-03-15T23:46:25Z</time>
      </trkpt>
      <trkpt lat="48.64509" lon="2.83543">
        <ele>84.8</ele>
        <time>2025-03-15T23:46:26Z</time>
      </trkpt>
      <trkpt lat="48.64508" lon="2.83543">
        <ele>84.8</ele>
        <time>2025-03-15T23:46:27Z</time>
      </trkpt>
      <trkpt lat="48.64488" lon="2.83548">
        <ele>84.8</ele>
        <time>2025-03-15T23:46:43Z</time>
      </trkpt>
      <trkpt lat="48.64468" lon="2.83569">
        <ele>84</ele>
        <time>2025-03-15T23:47:00Z</time>
      </trkpt>
      <trkpt lat="48.64455" lon="2.83608">
        <ele>84.2</ele>
        <time>2025-03-15T23:47:18Z</time>
      </trkpt>
      <trkpt lat="48.64442" lon="2.83643">
        <ele>84.6</ele>
        <time>2025-03-15T23:47:36Z</time>
      </trkpt>
      <trkpt lat="48.64434" lon="2.83661">
        <ele>84.4</ele>
        <time>2025-03-15T23:47:46Z</time>
      </trkpt>
      <trkpt lat="48.64433" lon="2.83663">
        <ele>84.4</ele>
        <time>2025-03-15T23:47:47Z</time>
      </trkpt>
      <trkpt lat="48.64429" lon="2.83702">
        <ele>84.6</ele>
        <time>2025-03-15T23:48:05Z</time>
      </trkpt>
      <trkpt lat="48.64433" lon="2.83744">
        <ele>84.8</ele>
        <time>2025-03-15T23:48:24Z</time>
      </trkpt>
      <trkpt lat="48.64444" lon="2.83789">
        <ele>85.2</ele>
        <time>2025-03-15T23:48:45Z</time>
      </trkpt>
      <trkpt lat="48.64452" lon="2.83829">
        <ele>85.8</ele>
        <time>2025-03-15T23:49:04Z</time>
      </trkpt>
      <trkpt lat="48.6446" lon="2.83867">
        <ele>86</ele>
        <time>2025-03-15T23:49:22Z</time>
      </trkpt>
      <trkpt lat="48.64468" lon="2.83902">
        <ele>86.4</ele>
        <time>2025-03-15T23:49:40Z</time>
      </trkpt>
      <trkpt lat="48.6448" lon="2.83947">
        <ele>87.2</ele>
        <time>2025-03-15T23:50:01Z</time>
      </trkpt>
      <trkpt lat="48.64489" lon="2.83984">
        <ele>87.8</ele>
        <time>2025-03-15T23:50:19Z</time>
      </trkpt>
      <trkpt lat="48.645" lon="2.84025">
        <ele>88.4</ele>
        <time>2025-03-15T23:50:39Z</time>
      </trkpt>
      <trkpt lat="48.64505" lon="2.84043">
        <ele>88.8</ele>
        <time>2025-03-15T23:50:48Z</time>
      </trkpt>
      <trkpt lat="48.64505" lon="2.84045">
        <ele>88.8</ele>
        <time>2025-03-15T23:50:49Z</time>
      </trkpt>
      <trkpt lat="48.64506" lon="2.84047">
        <ele>88.8</ele>
        <time>2025-03-15T23:50:50Z</time>
      </trkpt>
      <trkpt lat="48.64506" lon="2.84049">
        <ele>89</ele>
        <time>2025-03-15T23:50:51Z</time>
      </trkpt>
      <trkpt lat="48.64506" lon="2.84051">
        <ele>89</ele>
        <time>2025-03-15T23:50:52Z</time>
      </trkpt>
      <trkpt lat="48.64507" lon="2.84053">
        <ele>89</ele>
        <time>2025-03-15T23:50:53Z</time>
      </trkpt>
      <trkpt lat="48.64507" lon="2.84055">
        <ele>89</ele>
        <time>2025-03-15T23:50:54Z</time>
      </trkpt>
      <trkpt lat="48.64507" lon="2.84057">
        <ele>89.2</ele>
        <time>2025-03-15T23:50:55Z</time>
      </trkpt>
      <trkpt lat="48.64507" lon="2.84059">
        <ele>89.2</ele>
        <time>2025-03-15T23:50:56Z</time>
      </trkpt>
      <trkpt lat="48.64507" lon="2.84061">
        <ele>89.2</ele>
        <time>2025-03-15T23:50:57Z</time>
      </trkpt>
      <trkpt lat="48.64508" lon="2.84063">
        <ele>89.2</ele>
        <time>2025-03-15T23:50:58Z</time>
      </trkpt>
      <trkpt lat="48.64508" lon="2.84065">
        <ele>89.2</ele>
        <time>2025-03-15T23:50:59Z</time>
      </trkpt>
      <trkpt lat="48.64516" lon="2.84104">
        <ele>89.8</ele>
        <time>2025-03-15T23:51:17Z</time>
      </trkpt>
      <trkpt lat="48.64522" lon="2.84137">
        <ele>90.6</ele>
        <time>2025-03-15T23:51:32Z</time>
      </trkpt>
      <trkpt lat="48.64521" lon="2.84139">
        <ele>90.6</ele>
        <time>2025-03-15T23:51:33Z</time>
      </trkpt>
      <trkpt lat="48.64521" lon="2.84141">
        <ele>90.6</ele>
        <time>2025-03-15T23:51:34Z</time>
      </trkpt>
      <trkpt lat="48.6452" lon="2.84143">
        <ele>90.6</ele>
        <time>2025-03-15T23:51:35Z</time>
      </trkpt>
      <trkpt lat="48.6452" lon="2.84145">
        <ele>90.6</ele>
        <time>2025-03-15T23:51:36Z</time>
      </trkpt>
      <trkpt lat="48.6452" lon="2.84148">
        <ele>90.6</ele>
        <time>2025-03-15T23:51:37Z</time>
      </trkpt>
      <trkpt lat="48.6452" lon="2.8415">
        <ele>90.6</ele>
        <time>2025-03-15T23:51:38Z</time>
      </trkpt>
      <trkpt lat="48.6452" lon="2.84152">
        <ele>90.6</ele>
        <time>2025-03-15T23:51:39Z</time>
      </trkpt>
      <trkpt lat="48.6452" lon="2.84154">
        <ele>90.6</ele>
        <time>2025-03-15T23:51:40Z</time>
      </trkpt>
      <trkpt lat="48.6452" lon="2.84156">
        <ele>90.6</ele>
        <time>2025-03-15T23:51:41Z</time>
      </trkpt>
      <trkpt lat="48.6452" lon="2.84159">
        <ele>90.6</ele>
        <time>2025-03-15T23:51:42Z</time>
      </trkpt>
      <trkpt lat="48.64523" lon="2.84194">
        <ele>91.2</ele>
        <time>2025-03-15T23:51:59Z</time>
      </trkpt>
      <trkpt lat="48.64529" lon="2.84229">
        <ele>91.4</ele>
        <time>2025-03-15T23:52:15Z</time>
      </trkpt>
      <trkpt lat="48.6453" lon="2.84237">
        <ele>91.2</ele>
        <time>2025-03-15T23:52:19Z</time>
      </trkpt>
      <trkpt lat="48.6454" lon="2.8427">
        <ele>92.2</ele>
        <time>2025-03-15T23:52:34Z</time>
      </trkpt>
      <trkpt lat="48.6454" lon="2.84308">
        <ele>92</ele>
        <time>2025-03-15T23:52:51Z</time>
      </trkpt>
      <trkpt lat="48.64541" lon="2.84363">
        <ele>91.2</ele>
        <time>2025-03-15T23:53:14Z</time>
      </trkpt>
      <trkpt lat="48.64542" lon="2.84415">
        <ele>90.2</ele>
        <time>2025-03-15T23:53:36Z</time>
      </trkpt>
      <trkpt lat="48.64542" lon="2.84465">
        <ele>89.6</ele>
        <time>2025-03-15T23:53:57Z</time>
      </trkpt>
      <trkpt lat="48.64544" lon="2.84516">
        <ele>89.2</ele>
        <time>2025-03-15T23:54:19Z</time>
      </trkpt>
      <trkpt lat="48.64546" lon="2.84561">
        <ele>89</ele>
        <time>2025-03-15T23:54:38Z</time>
      </trkpt>
      <trkpt lat="48.64548" lon="2.84597">
        <ele>85.8</ele>
        <time>2025-03-15T23:54:54Z</time>
      </trkpt>
      <trkpt lat="48.64548" lon="2.84606">
        <ele>83.2</ele>
        <time>2025-03-15T23:54:58Z</time>
      </trkpt>
      <trkpt lat="48.64548" lon="2.84617">
        <ele>86.4</ele>
        <time>2025-03-15T23:55:03Z</time>
      </trkpt>
      <trkpt lat="48.64549" lon="2.84624">
        <ele>88</ele>
        <time>2025-03-15T23:55:06Z</time>
      </trkpt>
      <trkpt lat="48.64554" lon="2.84676">
        <ele>88.6</ele>
        <time>2025-03-15T23:55:29Z</time>
      </trkpt>
      <trkpt lat="48.64557" lon="2.84723">
        <ele>87.8</ele>
        <time>2025-03-15T23:55:50Z</time>
      </trkpt>
      <trkpt lat="48.64561" lon="2.84779">
        <ele>86.4</ele>
        <time>2025-03-15T23:56:14Z</time>
      </trkpt>
      <trkpt lat="48.64566" lon="2.84825">
        <ele>86.4</ele>
        <time>2025-03-15T23:56:34Z</time>
      </trkpt>
      <trkpt lat="48.64569" lon="2.84866">
        <ele>87.2</ele>
        <time>2025-03-15T23:56:52Z</time>
      </trkpt>
      <trkpt lat="48.64573" lon="2.84909">
        <ele>87.2</ele>
        <time>2025-03-15T23:57:11Z</time>
      </trkpt>
      <trkpt lat="48.64576" lon="2.84955">
        <ele>87.6</ele>
        <time>2025-03-15T23:57:31Z</time>
      </trkpt>
      <trkpt lat="48.6458" lon="2.84998">
        <ele>87.6</ele>
        <time>2025-03-15T23:57:50Z</time>
      </trkpt>
      <trkpt lat="48.64585" lon="2.85046">
        <ele>87</ele>
        <time>2025-03-15T23:58:11Z</time>
      </trkpt>
      <trkpt lat="48.64587" lon="2.85089">
        <ele>86.4</ele>
        <time>2025-03-15T23:58:30Z</time>
      </trkpt>
      <trkpt lat="48.64591" lon="2.85125">
        <ele>86.4</ele>
        <time>2025-03-15T23:58:46Z</time>
      </trkpt>
      <trkpt lat="48.64595" lon="2.85171">
        <ele>87.2</ele>
        <time>2025-03-15T23:59:06Z</time>
      </trkpt>
      <trkpt lat="48.64599" lon="2.85219">
        <ele>86.4</ele>
        <time>2025-03-15T23:59:27Z</time>
      </trkpt>
      <trkpt lat="48.64603" lon="2.8526">
        <ele>87.8</ele>
        <time>2025-03-15T23:59:45Z</time>
      </trkpt>
      <trkpt lat="48.64609" lon="2.85306">
        <ele>87.6</ele>
        <time>2025-03-16T00:00:06Z</time>
      </trkpt>
      <trkpt lat="48.64613" lon="2.85357">
        <ele>88</ele>
        <time>2025-03-16T00:00:28Z</time>
      </trkpt>
      <trkpt lat="48.64617" lon="2.85407">
        <ele>88</ele>
        <time>2025-03-16T00:00:50Z</time>
      </trkpt>
      <trkpt lat="48.6462" lon="2.85452">
        <ele>88.2</ele>
        <time>2025-03-16T00:01:10Z</time>
      </trkpt>
      <trkpt lat="48.64623" lon="2.85493">
        <ele>88.6</ele>
        <time>2025-03-16T00:01:28Z</time>
      </trkpt>
      <trkpt lat="48.64627" lon="2.85536">
        <ele>88.2</ele>
        <time>2025-03-16T00:01:47Z</time>
      </trkpt>
      <trkpt lat="48.64631" lon="2.85578">
        <ele>88.6</ele>
        <time>2025-03-16T00:02:05Z</time>
      </trkpt>
      <trkpt lat="48.64634" lon="2.8562">
        <ele>89.4</ele>
        <time>2025-03-16T00:02:24Z</time>
      </trkpt>
      <trkpt lat="48.64637" lon="2.85661">
        <ele>89</ele>
        <time>2025-03-16T00:02:42Z</time>
      </trkpt>
      <trkpt lat="48.64641" lon="2.85706">
        <ele>89.6</ele>
        <time>2025-03-16T00:03:02Z</time>
      </trkpt>
      <trkpt lat="48.64645" lon="2.85749">
        <ele>89.6</ele>
        <time>2025-03-16T00:03:21Z</time>
      </trkpt>
      <trkpt lat="48.64648" lon="2.85796">
        <ele>90</ele>
        <time>2025-03-16T00:03:42Z</time>
      </trkpt>
      <trkpt lat="48.64652" lon="2.85837">
        <ele>90.2</ele>
        <time>2025-03-16T00:04:00Z</time>
      </trkpt>
      <trkpt lat="48.64656" lon="2.85881">
        <ele>90.4</ele>
        <time>2025-03-16T00:04:20Z</time>
      </trkpt>
      <trkpt lat="48.6466" lon="2.8592">
        <ele>91</ele>
        <time>2025-03-16T00:04:38Z</time>
      </trkpt>
      <trkpt lat="48.64664" lon="2.85968">
        <ele>90.8</ele>
        <time>2025-03-16T00:05:00Z</time>
      </trkpt>
      <trkpt lat="48.64654" lon="2.86008">
        <ele>91</ele>
        <time>2025-03-16T00:05:19Z</time>
      </trkpt>
      <trkpt lat="48.64641" lon="2.86041">
        <ele>91.4</ele>
        <time>2025-03-16T00:05:37Z</time>
      </trkpt>
      <trkpt lat="48.64626" lon="2.86071">
        <ele>91.2</ele>
        <time>2025-03-16T00:05:54Z</time>
      </trkpt>
      <trkpt lat="48.6461" lon="2.86109">
        <ele>91.4</ele>
        <time>2025-03-16T00:06:14Z</time>
      </trkpt>
      <trkpt lat="48.64597" lon="2.86139">
        <ele>91.2</ele>
        <time>2025-03-16T00:06:30Z</time>
      </trkpt>
      <trkpt lat="48.64583" lon="2.8617">
        <ele>91.2</ele>
        <time>2025-03-16T00:06:48Z</time>
      </trkpt>
      <trkpt lat="48.64567" lon="2.86205">
        <ele>90.6</ele>
        <time>2025-03-16T00:07:06Z</time>
      </trkpt>
      <trkpt lat="48.64551" lon="2.86244">
        <ele>91.4</ele>
        <time>2025-03-16T00:07:26Z</time>
      </trkpt>
      <trkpt lat="48.64538" lon="2.86277">
        <ele>91</ele>
        <time>2025-03-16T00:07:44Z</time>
      </trkpt>
      <trkpt lat="48.64524" lon="2.86308">
        <ele>91.4</ele>
        <time>2025-03-16T00:08:01Z</time>
      </trkpt>
      <trkpt lat="48.64503" lon="2.86343">
        <ele>91.8</ele>
        <time>2025-03-16T00:08:21Z</time>
      </trkpt>
      <trkpt lat="48.64486" lon="2.86379">
        <ele>92</ele>
        <time>2025-03-16T00:08:40Z</time>
      </trkpt>
      <trkpt lat="48.6448" lon="2.8642">
        <ele>92</ele>
        <time>2025-03-16T00:09:00Z</time>
      </trkpt>
      <trkpt lat="48.64474" lon="2.86457">
        <ele>92.4</ele>
        <time>2025-03-16T00:09:18Z</time>
      </trkpt>
      <trkpt lat="48.64472" lon="2.86505">
        <ele>92.8</ele>
        <time>2025-03-16T00:09:39Z</time>
      </trkpt>
      <trkpt lat="48.64463" lon="2.86546">
        <ele>93</ele>
        <time>2025-03-16T00:09:59Z</time>
      </trkpt>
      <trkpt lat="48.64439" lon="2.86571">
        <ele>93.2</ele>
        <time>2025-03-16T00:10:19Z</time>
      </trkpt>
      <trkpt lat="48.64415" lon="2.8659">
        <ele>93.4</ele>
        <time>2025-03-16T00:10:37Z</time>
      </trkpt>
      <trkpt lat="48.64389" lon="2.86611">
        <ele>93</ele>
        <time>2025-03-16T00:10:58Z</time>
      </trkpt>
      <trkpt lat="48.64364" lon="2.86634">
        <ele>93.6</ele>
        <time>2025-03-16T00:11:17Z</time>
      </trkpt>
      <trkpt lat="48.64337" lon="2.86654">
        <ele>93.4</ele>
        <time>2025-03-16T00:11:37Z</time>
      </trkpt>
      <trkpt lat="48.64316" lon="2.86673">
        <ele>93.2</ele>
        <time>2025-03-16T00:11:54Z</time>
      </trkpt>
      <trkpt lat="48.64291" lon="2.86698">
        <ele>93.4</ele>
        <time>2025-03-16T00:12:15Z</time>
      </trkpt>
      <trkpt lat="48.64266" lon="2.8673">
        <ele>93.8</ele>
        <time>2025-03-16T00:12:36Z</time>
      </trkpt>
      <trkpt lat="48.64241" lon="2.86764">
        <ele>94.6</ele>
        <time>2025-03-16T00:12:58Z</time>
      </trkpt>
      <trkpt lat="48.64221" lon="2.86791">
        <ele>95</ele>
        <time>2025-03-16T00:13:16Z</time>
      </trkpt>
      <trkpt lat="48.64198" lon="2.86824">
        <ele>95.4</ele>
        <time>2025-03-16T00:13:37Z</time>
      </trkpt>
      <trkpt lat="48.64175" lon="2.86852">
        <ele>96.2</ele>
        <time>2025-03-16T00:13:57Z</time>
      </trkpt>
      <trkpt lat="48.64156" lon="2.86879">
        <ele>96.4</ele>
        <time>2025-03-16T00:14:14Z</time>
      </trkpt>
      <trkpt lat="48.64134" lon="2.86909">
        <ele>96.6</ele>
        <time>2025-03-16T00:14:34Z</time>
      </trkpt>
      <trkpt lat="48.64116" lon="2.86929">
        <ele>96.8</ele>
        <time>2025-03-16T00:14:49Z</time>
      </trkpt>
      <trkpt lat="48.64094" lon="2.86956">
        <ele>97.8</ele>
        <time>2025-03-16T00:15:09Z</time>
      </trkpt>
      <trkpt lat="48.64069" lon="2.86979">
        <ele>97.4</ele>
        <time>2025-03-16T00:15:28Z</time>
      </trkpt>
      <trkpt lat="48.64045" lon="2.87004">
        <ele>97.2</ele>
        <time>2025-03-16T00:15:47Z</time>
      </trkpt>
      <trkpt lat="48.64021" lon="2.87031">
        <ele>97.6</ele>
        <time>2025-03-16T00:16:07Z</time>
      </trkpt>
      <trkpt lat="48.63994" lon="2.87063">
        <ele>97.8</ele>
        <time>2025-03-16T00:16:29Z</time>
      </trkpt>
      <trkpt lat="48.63974" lon="2.87086">
        <ele>98.2</ele>
        <time>2025-03-16T00:16:46Z</time>
      </trkpt>
      <trkpt lat="48.6395" lon="2.87115">
        <ele>98.2</ele>
        <time>2025-03-16T00:17:06Z</time>
      </trkpt>
      <trkpt lat="48.63928" lon="2.87146">
        <ele>98.4</ele>
        <time>2025-03-16T00:17:27Z</time>
      </trkpt>
      <trkpt lat="48.63904" lon="2.8718">
        <ele>98.6</ele>
        <time>2025-03-16T00:17:48Z</time>
      </trkpt>
      <trkpt lat="48.63882" lon="2.87212">
        <ele>98.8</ele>
        <time>2025-03-16T00:18:09Z</time>
      </trkpt>
      <trkpt lat="48.63862" lon="2.87244">
        <ele>99.2</ele>
        <time>2025-03-16T00:18:29Z</time>
      </trkpt>
      <trkpt lat="48.63845" lon="2.87268">
        <ele>99</ele>
        <time>2025-03-16T00:18:44Z</time>
      </trkpt>
      <trkpt lat="48.63826" lon="2.87302">
        <ele>99</ele>
        <time>2025-03-16T00:19:04Z</time>
      </trkpt>
      <trkpt lat="48.63801" lon="2.87342">
        <ele>99</ele>
        <time>2025-03-16T00:19:28Z</time>
      </trkpt>
      <trkpt lat="48.63779" lon="2.87379">
        <ele>99</ele>
        <time>2025-03-16T00:19:50Z</time>
      </trkpt>
      <trkpt lat="48.63755" lon="2.87418">
        <ele>99</ele>
        <time>2025-03-16T00:20:14Z</time>
      </trkpt>
      <trkpt lat="48.63734" lon="2.87452">
        <ele>99.2</ele>
        <time>2025-03-16T00:20:34Z</time>
      </trkpt>
      <trkpt lat="48.63714" lon="2.87486">
        <ele>99.2</ele>
        <time>2025-03-16T00:20:55Z</time>
      </trkpt>
      <trkpt lat="48.63693" lon="2.87521">
        <ele>99</ele>
        <time>2025-03-16T00:21:15Z</time>
      </trkpt>
      <trkpt lat="48.63675" lon="2.8755">
        <ele>98.6</ele>
        <time>2025-03-16T00:21:33Z</time>
      </trkpt>
      <trkpt lat="48.63653" lon="2.87585">
        <ele>98.6</ele>
        <time>2025-03-16T00:21:54Z</time>
      </trkpt>
      <trkpt lat="48.63632" lon="2.8762">
        <ele>98.8</ele>
        <time>2025-03-16T00:22:15Z</time>
      </trkpt>
      <trkpt lat="48.63608" lon="2.87661">
        <ele>98.4</ele>
        <time>2025-03-16T00:22:39Z</time>
      </trkpt>
      <trkpt lat="48.63589" lon="2.87693">
        <ele>98</ele>
        <time>2025-03-16T00:22:58Z</time>
      </trkpt>
      <trkpt lat="48.63569" lon="2.87724">
        <ele>98.8</ele>
        <time>2025-03-16T00:23:17Z</time>
      </trkpt>
      <trkpt lat="48.6355" lon="2.87758">
        <ele>99.2</ele>
        <time>2025-03-16T00:23:37Z</time>
      </trkpt>
      <trkpt lat="48.63529" lon="2.87791">
        <ele>98.8</ele>
        <time>2025-03-16T00:23:57Z</time>
      </trkpt>
      <trkpt lat="48.63508" lon="2.87828">
        <ele>98.8</ele>
        <time>2025-03-16T00:24:19Z</time>
      </trkpt>
      <trkpt lat="48.63484" lon="2.87863">
        <ele>99</ele>
        <time>2025-03-16T00:24:41Z</time>
      </trkpt>
      <trkpt lat="48.63467" lon="2.87895">
        <ele>99.2</ele>
        <time>2025-03-16T00:25:00Z</time>
      </trkpt>
      <trkpt lat="48.63448" lon="2.87928">
        <ele>99.2</ele>
        <time>2025-03-16T00:25:20Z</time>
      </trkpt>
      <trkpt lat="48.63427" lon="2.8796">
        <ele>99.4</ele>
        <time>2025-03-16T00:25:40Z</time>
      </trkpt>
      <trkpt lat="48.63409" lon="2.8799">
        <ele>100</ele>
        <time>2025-03-16T00:25:58Z</time>
      </trkpt>
      <trkpt lat="48.63384" lon="2.88028">
        <ele>100</ele>
        <time>2025-03-16T00:26:21Z</time>
      </trkpt>
      <trkpt lat="48.63361" lon="2.88066">
        <ele>100.6</ele>
        <time>2025-03-16T00:26:44Z</time>
      </trkpt>
      <trkpt lat="48.63343" lon="2.88098">
        <ele>100.8</ele>
        <time>2025-03-16T00:27:03Z</time>
      </trkpt>
      <trkpt lat="48.63323" lon="2.88129">
        <ele>100.8</ele>
        <time>2025-03-16T00:27:22Z</time>
      </trkpt>
      <trkpt lat="48.63303" lon="2.88163">
        <ele>101</ele>
        <time>2025-03-16T00:27:43Z</time>
      </trkpt>
      <trkpt lat="48.63282" lon="2.88199">
        <ele>101</ele>
        <time>2025-03-16T00:28:04Z</time>
      </trkpt>
      <trkpt lat="48.63262" lon="2.88231">
        <ele>101.4</ele>
        <time>2025-03-16T00:28:24Z</time>
      </trkpt>
      <trkpt lat="48.63242" lon="2.88263">
        <ele>101.4</ele>
        <time>2025-03-16T00:28:44Z</time>
      </trkpt>
      <trkpt lat="48.63219" lon="2.88302">
        <ele>101.8</ele>
        <time>2025-03-16T00:29:07Z</time>
      </trkpt>
      <trkpt lat="48.63198" lon="2.88335">
        <ele>101.8</ele>
        <time>2025-03-16T00:29:27Z</time>
      </trkpt>
      <trkpt lat="48.6318" lon="2.88366">
        <ele>101.4</ele>
        <time>2025-03-16T00:29:46Z</time>
      </trkpt>
      <trkpt lat="48.63161" lon="2.884">
        <ele>101.6</ele>
        <time>2025-03-16T00:30:05Z</time>
      </trkpt>
      <trkpt lat="48.63148" lon="2.88436">
        <ele>101.2</ele>
        <time>2025-03-16T00:30:24Z</time>
      </trkpt>
      <trkpt lat="48.63138" lon="2.88478">
        <ele>101</ele>
        <time>2025-03-16T00:30:45Z</time>
      </trkpt>
      <trkpt lat="48.63126" lon="2.88511">
        <ele>101.2</ele>
        <time>2025-03-16T00:31:01Z</time>
      </trkpt>
      <trkpt lat="48.63108" lon="2.88558">
        <ele>101.6</ele>
        <time>2025-03-16T00:31:24Z</time>
      </trkpt>
      <trkpt lat="48.63106" lon="2.8857">
        <ele>101.2</ele>
        <time>2025-03-16T00:31:30Z</time>
      </trkpt>
      <trkpt lat="48.63107" lon="2.88572">
        <ele>101.2</ele>
        <time>2025-03-16T00:31:31Z</time>
      </trkpt>
      <trkpt lat="48.63108" lon="2.88573">
        <ele>101</ele>
        <time>2025-03-16T00:31:32Z</time>
      </trkpt>
      <trkpt lat="48.6313" lon="2.88592">
        <ele>101.6</ele>
        <time>2025-03-16T00:31:49Z</time>
      </trkpt>
      <trkpt lat="48.63146" lon="2.88602">
        <ele>101.4</ele>
        <time>2025-03-16T00:32:08Z</time>
      </trkpt>
      <trkpt lat="48.6315" lon="2.88606">
        <ele>100.4</ele>
        <time>2025-03-16T00:32:26Z</time>
      </trkpt>
      <trkpt lat="48.63149" lon="2.88609">
        <ele>100.8</ele>
        <time>2025-03-16T00:32:50Z</time>
      </trkpt>
      <trkpt lat="48.63145" lon="2.88611">
        <ele>102</ele>
        <time>2025-03-16T00:33:09Z</time>
      </trkpt>
      <trkpt lat="48.63142" lon="2.88609">
        <ele>103.4</ele>
        <time>2025-03-16T00:33:21Z</time>
      </trkpt>
      <trkpt lat="48.63154" lon="2.88607">
        <ele>101.2</ele>
        <time>2025-03-16T00:33:44Z</time>
      </trkpt>
      <trkpt lat="48.63169" lon="2.8861">
        <ele>101.6</ele>
        <time>2025-03-16T00:34:07Z</time>
      </trkpt>
      <trkpt lat="48.63171" lon="2.88609">
        <ele>100.4</ele>
        <time>2025-03-16T00:34:19Z</time>
      </trkpt>
      <trkpt lat="48.6317" lon="2.88609">
        <ele>101.2</ele>
        <time>2025-03-16T00:34:44Z</time>
      </trkpt>
      <trkpt lat="48.63168" lon="2.88611">
        <ele>101.4</ele>
        <time>2025-03-16T00:35:22Z</time>
      </trkpt>
      <trkpt lat="48.63155" lon="2.88601">
        <ele>100.4</ele>
        <time>2025-03-16T00:35:41Z</time>
      </trkpt>
      <trkpt lat="48.63149" lon="2.88606">
        <ele>101.4</ele>
        <time>2025-03-16T00:36:02Z</time>
      </trkpt>
      <trkpt lat="48.63148" lon="2.88606">
        <ele>100.6</ele>
        <time>2025-03-16T00:36:15Z</time>
      </trkpt>
      <trkpt lat="48.63144" lon="2.88605">
        <ele>101.8</ele>
        <time>2025-03-16T00:36:43Z</time>
      </trkpt>
      <trkpt lat="48.63142" lon="2.88606">
        <ele>100.2</ele>
        <time>2025-03-16T00:37:09Z</time>
      </trkpt>
      <trkpt lat="48.63142" lon="2.88606">
        <ele>99.6</ele>
        <time>2025-03-16T00:37:34Z</time>
      </trkpt>
      <trkpt lat="48.63142" lon="2.88606">
        <ele>98</ele>
        <time>2025-03-16T00:37:37Z</time>
      </trkpt>
      <trkpt lat="48.63143" lon="2.88605">
        <ele>100.4</ele>
        <time>2025-03-16T00:38:10Z</time>
      </trkpt>
      <trkpt lat="48.63136" lon="2.88614">
        <ele>101.6</ele>
        <time>2025-03-16T00:38:23Z</time>
      </trkpt>
      <trkpt lat="48.63135" lon="2.88615">
        <ele>101.6</ele>
        <time>2025-03-16T00:38:24Z</time>
      </trkpt>
      <trkpt lat="48.63125" lon="2.88635">
        <ele>101</ele>
        <time>2025-03-16T00:38:36Z</time>
      </trkpt>
      <trkpt lat="48.63114" lon="2.88641">
        <ele>101.2</ele>
        <time>2025-03-16T00:38:46Z</time>
      </trkpt>
      <trkpt lat="48.63114" lon="2.88643">
        <ele>101</ele>
        <time>2025-03-16T00:38:47Z</time>
      </trkpt>
      <trkpt lat="48.63106" lon="2.88683">
        <ele>101</ele>
        <time>2025-03-16T00:39:06Z</time>
      </trkpt>
      <trkpt lat="48.631" lon="2.88716">
        <ele>101</ele>
        <time>2025-03-16T00:39:23Z</time>
      </trkpt>
      <trkpt lat="48.63098" lon="2.8872">
        <ele>100.8</ele>
        <time>2025-03-16T00:39:26Z</time>
      </trkpt>
      <trkpt lat="48.63081" lon="2.88753">
        <ele>101</ele>
        <time>2025-03-16T00:39:43Z</time>
      </trkpt>
      <trkpt lat="48.63067" lon="2.88792">
        <ele>101.2</ele>
        <time>2025-03-16T00:40:02Z</time>
      </trkpt>
      <trkpt lat="48.63052" lon="2.88838">
        <ele>101.4</ele>
        <time>2025-03-16T00:40:24Z</time>
      </trkpt>
      <trkpt lat="48.63038" lon="2.88882">
        <ele>101.2</ele>
        <time>2025-03-16T00:40:45Z</time>
      </trkpt>
      <trkpt lat="48.63023" lon="2.88917">
        <ele>100.4</ele>
        <time>2025-03-16T00:41:03Z</time>
      </trkpt>
      <trkpt lat="48.63003" lon="2.88949">
        <ele>100.6</ele>
        <time>2025-03-16T00:41:23Z</time>
      </trkpt>
      <trkpt lat="48.62983" lon="2.8898">
        <ele>100.6</ele>
        <time>2025-03-16T00:41:43Z</time>
      </trkpt>
      <trkpt lat="48.62959" lon="2.89013">
        <ele>100.4</ele>
        <time>2025-03-16T00:42:04Z</time>
      </trkpt>
      <trkpt lat="48.62936" lon="2.89044">
        <ele>100.2</ele>
        <time>2025-03-16T00:42:24Z</time>
      </trkpt>
      <trkpt lat="48.62917" lon="2.89069">
        <ele>100.4</ele>
        <time>2025-03-16T00:42:40Z</time>
      </trkpt>
      <trkpt lat="48.62894" lon="2.89102">
        <ele>100.2</ele>
        <time>2025-03-16T00:43:02Z</time>
      </trkpt>
      <trkpt lat="48.62871" lon="2.89136">
        <ele>100.2</ele>
        <time>2025-03-16T00:43:24Z</time>
      </trkpt>
      <trkpt lat="48.62848" lon="2.89167">
        <ele>100.2</ele>
        <time>2025-03-16T00:43:44Z</time>
      </trkpt>
      <trkpt lat="48.62824" lon="2.89195">
        <ele>100</ele>
        <time>2025-03-16T00:44:04Z</time>
      </trkpt>
      <trkpt lat="48.62802" lon="2.8922">
        <ele>99.6</ele>
        <time>2025-03-16T00:44:22Z</time>
      </trkpt>
      <trkpt lat="48.62785" lon="2.89244">
        <ele>99.8</ele>
        <time>2025-03-16T00:44:38Z</time>
      </trkpt>
      <trkpt lat="48.62765" lon="2.89275">
        <ele>99.4</ele>
        <time>2025-03-16T00:44:57Z</time>
      </trkpt>
      <trkpt lat="48.62741" lon="2.8931">
        <ele>99.4</ele>
        <time>2025-03-16T00:45:18Z</time>
      </trkpt>
      <trkpt lat="48.62723" lon="2.89342">
        <ele>99.2</ele>
        <time>2025-03-16T00:45:36Z</time>
      </trkpt>
      <trkpt lat="48.62703" lon="2.89385">
        <ele>99.2</ele>
        <time>2025-03-16T00:45:59Z</time>
      </trkpt>
      <trkpt lat="48.62689" lon="2.89428">
        <ele>98.8</ele>
        <time>2025-03-16T00:46:20Z</time>
      </trkpt>
      <trkpt lat="48.62675" lon="2.89473">
        <ele>98.8</ele>
        <time>2025-03-16T00:46:42Z</time>
      </trkpt>
      <trkpt lat="48.6266" lon="2.89519">
        <ele>99</ele>
        <time>2025-03-16T00:47:05Z</time>
      </trkpt>
      <trkpt lat="48.62646" lon="2.89558">
        <ele>98.8</ele>
        <time>2025-03-16T00:47:24Z</time>
      </trkpt>
      <trkpt lat="48.62631" lon="2.89596">
        <ele>98.6</ele>
        <time>2025-03-16T00:47:44Z</time>
      </trkpt>
      <trkpt lat="48.62606" lon="2.89633">
        <ele>99</ele>
        <time>2025-03-16T00:48:08Z</time>
      </trkpt>
      <trkpt lat="48.62584" lon="2.89657">
        <ele>99.2</ele>
        <time>2025-03-16T00:48:27Z</time>
      </trkpt>
      <trkpt lat="48.62561" lon="2.8968">
        <ele>102.4</ele>
        <time>2025-03-16T00:48:45Z</time>
      </trkpt>
      <trkpt lat="48.62541" lon="2.897">
        <ele>98.8</ele>
        <time>2025-03-16T00:49:01Z</time>
      </trkpt>
      <trkpt lat="48.62539" lon="2.89702">
        <ele>96.8</ele>
        <time>2025-03-16T00:49:03Z</time>
      </trkpt>
      <trkpt lat="48.62533" lon="2.89709">
        <ele>93.2</ele>
        <time>2025-03-16T00:49:08Z</time>
      </trkpt>
      <trkpt lat="48.62524" lon="2.89718">
        <ele>97</ele>
        <time>2025-03-16T00:49:15Z</time>
      </trkpt>
      <trkpt lat="48.625" lon="2.89741">
        <ele>99.8</ele>
        <time>2025-03-16T00:49:34Z</time>
      </trkpt>
      <trkpt lat="48.62476" lon="2.89764">
        <ele>100.2</ele>
        <time>2025-03-16T00:49:54Z</time>
      </trkpt>
      <trkpt lat="48.62448" lon="2.89788">
        <ele>100.2</ele>
        <time>2025-03-16T00:50:15Z</time>
      </trkpt>
      <trkpt lat="48.62419" lon="2.8981">
        <ele>99.8</ele>
        <time>2025-03-16T00:50:35Z</time>
      </trkpt>
      <trkpt lat="48.6239" lon="2.89831">
        <ele>99.6</ele>
        <time>2025-03-16T00:50:57Z</time>
      </trkpt>
      <trkpt lat="48.62366" lon="2.89848">
        <ele>99.8</ele>
        <time>2025-03-16T00:51:15Z</time>
      </trkpt>
      <trkpt lat="48.62342" lon="2.89869">
        <ele>99.2</ele>
        <time>2025-03-16T00:51:35Z</time>
      </trkpt>
      <trkpt lat="48.62329" lon="2.89902">
        <ele>99.4</ele>
        <time>2025-03-16T00:51:52Z</time>
      </trkpt>
      <trkpt lat="48.62321" lon="2.89951">
        <ele>99.4</ele>
        <time>2025-03-16T00:52:13Z</time>
      </trkpt>
      <trkpt lat="48.62314" lon="2.90004">
        <ele>100</ele>
        <time>2025-03-16T00:52:36Z</time>
      </trkpt>
      <trkpt lat="48.62306" lon="2.90048">
        <ele>99.6</ele>
        <time>2025-03-16T00:52:57Z</time>
      </trkpt>
      <trkpt lat="48.62299" lon="2.90093">
        <ele>100</ele>
        <time>2025-03-16T00:53:18Z</time>
      </trkpt>
      <trkpt lat="48.62292" lon="2.90136">
        <ele>100.2</ele>
        <time>2025-03-16T00:53:38Z</time>
      </trkpt>
      <trkpt lat="48.62283" lon="2.90186">
        <ele>100.4</ele>
        <time>2025-03-16T00:54:01Z</time>
      </trkpt>
      <trkpt lat="48.62278" lon="2.90228">
        <ele>100</ele>
        <time>2025-03-16T00:54:20Z</time>
      </trkpt>
      <trkpt lat="48.6227" lon="2.90273">
        <ele>100.4</ele>
        <time>2025-03-16T00:54:41Z</time>
      </trkpt>
      <trkpt lat="48.62265" lon="2.90309">
        <ele>100.6</ele>
        <time>2025-03-16T00:54:57Z</time>
      </trkpt>
      <trkpt lat="48.62257" lon="2.90355">
        <ele>100.8</ele>
        <time>2025-03-16T00:55:18Z</time>
      </trkpt>
      <trkpt lat="48.62251" lon="2.90397">
        <ele>100.4</ele>
        <time>2025-03-16T00:55:37Z</time>
      </trkpt>
      <trkpt lat="48.62245" lon="2.9044">
        <ele>100.4</ele>
        <time>2025-03-16T00:55:57Z</time>
      </trkpt>
      <trkpt lat="48.62235" lon="2.90492">
        <ele>100.4</ele>
        <time>2025-03-16T00:56:21Z</time>
      </trkpt>
      <trkpt lat="48.6223" lon="2.90534">
        <ele>100.8</ele>
        <time>2025-03-16T00:56:41Z</time>
      </trkpt>
      <trkpt lat="48.62223" lon="2.9058">
        <ele>100.8</ele>
        <time>2025-03-16T00:57:02Z</time>
      </trkpt>
      <trkpt lat="48.62215" lon="2.90622">
        <ele>100.8</ele>
        <time>2025-03-16T00:57:21Z</time>
      </trkpt>
      <trkpt lat="48.62209" lon="2.90664">
        <ele>100.8</ele>
        <time>2025-03-16T00:57:40Z</time>
      </trkpt>
      <trkpt lat="48.62202" lon="2.90708">
        <ele>101.4</ele>
        <time>2025-03-16T00:58:00Z</time>
      </trkpt>
      <trkpt lat="48.62195" lon="2.90755">
        <ele>101</ele>
        <time>2025-03-16T00:58:22Z</time>
      </trkpt>
      <trkpt lat="48.62187" lon="2.90803">
        <ele>101.4</ele>
        <time>2025-03-16T00:58:44Z</time>
      </trkpt>
      <trkpt lat="48.62178" lon="2.90849">
        <ele>101</ele>
        <time>2025-03-16T00:59:05Z</time>
      </trkpt>
      <trkpt lat="48.62172" lon="2.90887">
        <ele>101.2</ele>
        <time>2025-03-16T00:59:22Z</time>
      </trkpt>
      <trkpt lat="48.62165" lon="2.90934">
        <ele>101.2</ele>
        <time>2025-03-16T00:59:44Z</time>
      </trkpt>
      <trkpt lat="48.62158" lon="2.90976">
        <ele>101</ele>
        <time>2025-03-16T01:00:03Z</time>
      </trkpt>
      <trkpt lat="48.6215" lon="2.91029">
        <ele>101</ele>
        <time>2025-03-16T01:00:27Z</time>
      </trkpt>
      <trkpt lat="48.62143" lon="2.91073">
        <ele>101</ele>
        <time>2025-03-16T01:00:47Z</time>
      </trkpt>
      <trkpt lat="48.62137" lon="2.91119">
        <ele>100.6</ele>
        <time>2025-03-16T01:01:08Z</time>
      </trkpt>
      <trkpt lat="48.62129" lon="2.91167">
        <ele>100.2</ele>
        <time>2025-03-16T01:01:30Z</time>
      </trkpt>
      <trkpt lat="48.62122" lon="2.91211">
        <ele>100.4</ele>
        <time>2025-03-16T01:01:50Z</time>
      </trkpt>
      <trkpt lat="48.62114" lon="2.91256">
        <ele>100.2</ele>
        <time>2025-03-16T01:02:11Z</time>
      </trkpt>
      <trkpt lat="48.62113" lon="2.91263">
        <ele>104</ele>
        <time>2025-03-16T01:02:14Z</time>
      </trkpt>
      <trkpt lat="48.62113" lon="2.91291">
        <ele>101.6</ele>
        <time>2025-03-16T01:02:27Z</time>
      </trkpt>
      <trkpt lat="48.62119" lon="2.91312">
        <ele>98.4</ele>
        <time>2025-03-16T01:02:37Z</time>
      </trkpt>
      <trkpt lat="48.6213" lon="2.91361">
        <ele>100.6</ele>
        <time>2025-03-16T01:03:00Z</time>
      </trkpt>
      <trkpt lat="48.62128" lon="2.91406">
        <ele>100.6</ele>
        <time>2025-03-16T01:03:20Z</time>
      </trkpt>
      <trkpt lat="48.62113" lon="2.91447">
        <ele>100.8</ele>
        <time>2025-03-16T01:03:40Z</time>
      </trkpt>
      <trkpt lat="48.62097" lon="2.9149">
        <ele>101.2</ele>
        <time>2025-03-16T01:04:02Z</time>
      </trkpt>
      <trkpt lat="48.62093" lon="2.91537">
        <ele>101.2</ele>
        <time>2025-03-16T01:04:23Z</time>
      </trkpt>
      <trkpt lat="48.62099" lon="2.91582">
        <ele>101.4</ele>
        <time>2025-03-16T01:04:43Z</time>
      </trkpt>
      <trkpt lat="48.62108" lon="2.91628">
        <ele>101.6</ele>
        <time>2025-03-16T01:05:05Z</time>
      </trkpt>
      <trkpt lat="48.62118" lon="2.91668">
        <ele>101.6</ele>
        <time>2025-03-16T01:05:24Z</time>
      </trkpt>
      <trkpt lat="48.62128" lon="2.91718">
        <ele>102</ele>
        <time>2025-03-16T01:05:47Z</time>
      </trkpt>
      <trkpt lat="48.62136" lon="2.91768">
        <ele>102.4</ele>
        <time>2025-03-16T01:06:10Z</time>
      </trkpt>
      <trkpt lat="48.62139" lon="2.91811">
        <ele>102.2</ele>
        <time>2025-03-16T01:06:29Z</time>
      </trkpt>
      <trkpt lat="48.6214" lon="2.91841">
        <ele>105.8</ele>
        <time>2025-03-16T01:06:42Z</time>
      </trkpt>
      <trkpt lat="48.62141" lon="2.9187">
        <ele>104.2</ele>
        <time>2025-03-16T01:06:55Z</time>
      </trkpt>
      <trkpt lat="48.62136" lon="2.91901">
        <ele>100.8</ele>
        <time>2025-03-16T01:07:10Z</time>
      </trkpt>
      <trkpt lat="48.62135" lon="2.91903">
        <ele>100.4</ele>
        <time>2025-03-16T01:07:11Z</time>
      </trkpt>
      <trkpt lat="48.62121" lon="2.91915">
        <ele>102</ele>
        <time>2025-03-16T01:07:22Z</time>
      </trkpt>
      <trkpt lat="48.62096" lon="2.91933">
        <ele>102.8</ele>
        <time>2025-03-16T01:07:40Z</time>
      </trkpt>
      <trkpt lat="48.62065" lon="2.91952">
        <ele>102.2</ele>
        <time>2025-03-16T01:08:02Z</time>
      </trkpt>
      <trkpt lat="48.62038" lon="2.91963">
        <ele>102</ele>
        <time>2025-03-16T01:08:21Z</time>
      </trkpt>
      <trkpt lat="48.62001" lon="2.91971">
        <ele>102</ele>
        <time>2025-03-16T01:08:45Z</time>
      </trkpt>
      <trkpt lat="48.61971" lon="2.91972">
        <ele>101.6</ele>
        <time>2025-03-16T01:09:05Z</time>
      </trkpt>
      <trkpt lat="48.61942" lon="2.91962">
        <ele>101.8</ele>
        <time>2025-03-16T01:09:25Z</time>
      </trkpt>
      <trkpt lat="48.61913" lon="2.91946">
        <ele>101.8</ele>
        <time>2025-03-16T01:09:46Z</time>
      </trkpt>
      <trkpt lat="48.6188" lon="2.91932">
        <ele>102</ele>
        <time>2025-03-16T01:10:07Z</time>
      </trkpt>
      <trkpt lat="48.61858" lon="2.91912">
        <ele>102.2</ele>
        <time>2025-03-16T01:10:24Z</time>
      </trkpt>
      <trkpt lat="48.61832" lon="2.91893">
        <ele>101.8</ele>
        <time>2025-03-16T01:10:44Z</time>
      </trkpt>
      <trkpt lat="48.618" lon="2.91874">
        <ele>101.6</ele>
        <time>2025-03-16T01:11:07Z</time>
      </trkpt>
      <trkpt lat="48.61778" lon="2.91862">
        <ele>104.8</ele>
        <time>2025-03-16T01:11:23Z</time>
      </trkpt>
      <trkpt lat="48.61777" lon="2.91862">
        <ele>105</ele>
        <time>2025-03-16T01:11:24Z</time>
      </trkpt>
      <trkpt lat="48.61753" lon="2.91853">
        <ele>102</ele>
        <time>2025-03-16T01:11:41Z</time>
      </trkpt>
      <trkpt lat="48.61734" lon="2.91869">
        <ele>102</ele>
        <time>2025-03-16T01:11:56Z</time>
      </trkpt>
      <trkpt lat="48.61717" lon="2.91886">
        <ele>98.4</ele>
        <time>2025-03-16T01:12:10Z</time>
      </trkpt>
      <trkpt lat="48.61715" lon="2.91887">
        <ele>98.2</ele>
        <time>2025-03-16T01:12:11Z</time>
      </trkpt>
      <trkpt lat="48.61705" lon="2.91897">
        <ele>101.6</ele>
        <time>2025-03-16T01:12:19Z</time>
      </trkpt>
      <trkpt lat="48.61701" lon="2.919">
        <ele>103</ele>
        <time>2025-03-16T01:12:22Z</time>
      </trkpt>
      <trkpt lat="48.61675" lon="2.91927">
        <ele>102.4</ele>
        <time>2025-03-16T01:12:44Z</time>
      </trkpt>
      <trkpt lat="48.61649" lon="2.91952">
        <ele>103</ele>
        <time>2025-03-16T01:13:05Z</time>
      </trkpt>
      <trkpt lat="48.61627" lon="2.91975">
        <ele>102.4</ele>
        <time>2025-03-16T01:13:23Z</time>
      </trkpt>
      <trkpt lat="48.61598" lon="2.92001">
        <ele>103</ele>
        <time>2025-03-16T01:13:45Z</time>
      </trkpt>
      <trkpt lat="48.61567" lon="2.92032">
        <ele>102.4</ele>
        <time>2025-03-16T01:14:10Z</time>
      </trkpt>
      <trkpt lat="48.61539" lon="2.92059">
        <ele>102.2</ele>
        <time>2025-03-16T01:14:32Z</time>
      </trkpt>
      <trkpt lat="48.61517" lon="2.92081">
        <ele>102</ele>
        <time>2025-03-16T01:14:50Z</time>
      </trkpt>
      <trkpt lat="48.61491" lon="2.92107">
        <ele>101.6</ele>
        <time>2025-03-16T01:15:11Z</time>
      </trkpt>
      <trkpt lat="48.61464" lon="2.92134">
        <ele>101</ele>
        <time>2025-03-16T01:15:33Z</time>
      </trkpt>
      <trkpt lat="48.61436" lon="2.92159">
        <ele>101</ele>
        <time>2025-03-16T01:15:55Z</time>
      </trkpt>
      <trkpt lat="48.6141" lon="2.92184">
        <ele>100.8</ele>
        <time>2025-03-16T01:16:16Z</time>
      </trkpt>
      <trkpt lat="48.61383" lon="2.92211">
        <ele>100.6</ele>
        <time>2025-03-16T01:16:37Z</time>
      </trkpt>
      <trkpt lat="48.61359" lon="2.92237">
        <ele>100.4</ele>
        <time>2025-03-16T01:16:58Z</time>
      </trkpt>
      <trkpt lat="48.61337" lon="2.92269">
        <ele>100.2</ele>
        <time>2025-03-16T01:17:19Z</time>
      </trkpt>
      <trkpt lat="48.61317" lon="2.92315">
        <ele>100.2</ele>
        <time>2025-03-16T01:17:43Z</time>
      </trkpt>
      <trkpt lat="48.61302" lon="2.92351">
        <ele>100</ele>
        <time>2025-03-16T01:18:02Z</time>
      </trkpt>
      <trkpt lat="48.61285" lon="2.92394">
        <ele>99.8</ele>
        <time>2025-03-16T01:18:24Z</time>
      </trkpt>
      <trkpt lat="48.61271" lon="2.92436">
        <ele>99.6</ele>
        <time>2025-03-16T01:18:45Z</time>
      </trkpt>
      <trkpt lat="48.61256" lon="2.92475">
        <ele>100</ele>
        <time>2025-03-16T01:19:05Z</time>
      </trkpt>
      <trkpt lat="48.61239" lon="2.92517">
        <ele>99.8</ele>
        <time>2025-03-16T01:19:27Z</time>
      </trkpt>
      <trkpt lat="48.61225" lon="2.92554">
        <ele>100</ele>
        <time>2025-03-16T01:19:46Z</time>
      </trkpt>
      <trkpt lat="48.61209" lon="2.92601">
        <ele>100.2</ele>
        <time>2025-03-16T01:20:10Z</time>
      </trkpt>
      <trkpt lat="48.61192" lon="2.92642">
        <ele>100.6</ele>
        <time>2025-03-16T01:20:31Z</time>
      </trkpt>
      <trkpt lat="48.61177" lon="2.9268">
        <ele>100.2</ele>
        <time>2025-03-16T01:20:50Z</time>
      </trkpt>
      <trkpt lat="48.61164" lon="2.92721">
        <ele>100.2</ele>
        <time>2025-03-16T01:21:11Z</time>
      </trkpt>
      <trkpt lat="48.6115" lon="2.92763">
        <ele>99.8</ele>
        <time>2025-03-16T01:21:32Z</time>
      </trkpt>
      <trkpt lat="48.61135" lon="2.92798">
        <ele>99.8</ele>
        <time>2025-03-16T01:21:51Z</time>
      </trkpt>
      <trkpt lat="48.61114" lon="2.92828">
        <ele>100.8</ele>
        <time>2025-03-16T01:22:10Z</time>
      </trkpt>
      <trkpt lat="48.61109" lon="2.92832">
        <ele>104</ele>
        <time>2025-03-16T01:22:14Z</time>
      </trkpt>
      <trkpt lat="48.61089" lon="2.92851">
        <ele>101</ele>
        <time>2025-03-16T01:22:30Z</time>
      </trkpt>
      <trkpt lat="48.61081" lon="2.92858">
        <ele>97.6</ele>
        <time>2025-03-16T01:22:37Z</time>
      </trkpt>
      <trkpt lat="48.61067" lon="2.92869">
        <ele>100.6</ele>
        <time>2025-03-16T01:22:48Z</time>
      </trkpt>
      <trkpt lat="48.61035" lon="2.92893">
        <ele>101.6</ele>
        <time>2025-03-16T01:23:12Z</time>
      </trkpt>
      <trkpt lat="48.61005" lon="2.92915">
        <ele>102</ele>
        <time>2025-03-16T01:23:34Z</time>
      </trkpt>
      <trkpt lat="48.60978" lon="2.92936">
        <ele>102</ele>
        <time>2025-03-16T01:23:54Z</time>
      </trkpt>
      <trkpt lat="48.60948" lon="2.92962">
        <ele>102.2</ele>
        <time>2025-03-16T01:24:17Z</time>
      </trkpt>
      <trkpt lat="48.60924" lon="2.9298">
        <ele>102</ele>
        <time>2025-03-16T01:24:35Z</time>
      </trkpt>
      <trkpt lat="48.60901" lon="2.92998">
        <ele>102.2</ele>
        <time>2025-03-16T01:24:53Z</time>
      </trkpt>
      <trkpt lat="48.60868" lon="2.93022">
        <ele>102.4</ele>
        <time>2025-03-16T01:25:17Z</time>
      </trkpt>
      <trkpt lat="48.60843" lon="2.93041">
        <ele>102.4</ele>
        <time>2025-03-16T01:25:37Z</time>
      </trkpt>
      <trkpt lat="48.60816" lon="2.93062">
        <ele>102.4</ele>
        <time>2025-03-16T01:25:57Z</time>
      </trkpt>
      <trkpt lat="48.60792" lon="2.93081">
        <ele>102.6</ele>
        <time>2025-03-16T01:26:15Z</time>
      </trkpt>
      <trkpt lat="48.60772" lon="2.93096">
        <ele>102.4</ele>
        <time>2025-03-16T01:26:30Z</time>
      </trkpt>
      <trkpt lat="48.60745" lon="2.93118">
        <ele>102.6</ele>
        <time>2025-03-16T01:26:51Z</time>
      </trkpt>
      <trkpt lat="48.60724" lon="2.93135">
        <ele>102.6</ele>
        <time>2025-03-16T01:27:08Z</time>
      </trkpt>
      <trkpt lat="48.60698" lon="2.93155">
        <ele>102.4</ele>
        <time>2025-03-16T01:27:28Z</time>
      </trkpt>
      <trkpt lat="48.60673" lon="2.93175">
        <ele>102</ele>
        <time>2025-03-16T01:27:47Z</time>
      </trkpt>
      <trkpt lat="48.60648" lon="2.93195">
        <ele>101.6</ele>
        <time>2025-03-16T01:28:06Z</time>
      </trkpt>
      <trkpt lat="48.60624" lon="2.93214">
        <ele>101.2</ele>
        <time>2025-03-16T01:28:25Z</time>
      </trkpt>
      <trkpt lat="48.60596" lon="2.93236">
        <ele>100.6</ele>
        <time>2025-03-16T01:28:47Z</time>
      </trkpt>
      <trkpt lat="48.60569" lon="2.93256">
        <ele>101.2</ele>
        <time>2025-03-16T01:29:06Z</time>
      </trkpt>
      <trkpt lat="48.60544" lon="2.93275">
        <ele>101</ele>
        <time>2025-03-16T01:29:26Z</time>
      </trkpt>
      <trkpt lat="48.60518" lon="2.93297">
        <ele>101.6</ele>
        <time>2025-03-16T01:29:47Z</time>
      </trkpt>
      <trkpt lat="48.60489" lon="2.93319">
        <ele>101.8</ele>
        <time>2025-03-16T01:30:09Z</time>
      </trkpt>
      <trkpt lat="48.60462" lon="2.93339">
        <ele>102</ele>
        <time>2025-03-16T01:30:30Z</time>
      </trkpt>
      <trkpt lat="48.60434" lon="2.93361">
        <ele>102.6</ele>
        <time>2025-03-16T01:30:51Z</time>
      </trkpt>
      <trkpt lat="48.60408" lon="2.93381">
        <ele>102.8</ele>
        <time>2025-03-16T01:31:10Z</time>
      </trkpt>
      <trkpt lat="48.60385" lon="2.93402">
        <ele>102.8</ele>
        <time>2025-03-16T01:31:29Z</time>
      </trkpt>
      <trkpt lat="48.60365" lon="2.93427">
        <ele>103.4</ele>
        <time>2025-03-16T01:31:46Z</time>
      </trkpt>
      <trkpt lat="48.6035" lon="2.93462">
        <ele>103.6</ele>
        <time>2025-03-16T01:32:05Z</time>
      </trkpt>
      <trkpt lat="48.60338" lon="2.93508">
        <ele>103.6</ele>
        <time>2025-03-16T01:32:27Z</time>
      </trkpt>
      <trkpt lat="48.60326" lon="2.93553">
        <ele>103.8</ele>
        <time>2025-03-16T01:32:49Z</time>
      </trkpt>
      <trkpt lat="48.60316" lon="2.936">
        <ele>103.6</ele>
        <time>2025-03-16T01:33:11Z</time>
      </trkpt>
      <trkpt lat="48.60304" lon="2.93655">
        <ele>103.8</ele>
        <time>2025-03-16T01:33:37Z</time>
      </trkpt>
      <trkpt lat="48.60297" lon="2.93699">
        <ele>103.6</ele>
        <time>2025-03-16T01:33:58Z</time>
      </trkpt>
      <trkpt lat="48.6029" lon="2.93751">
        <ele>103</ele>
        <time>2025-03-16T01:34:22Z</time>
      </trkpt>
      <trkpt lat="48.60282" lon="2.93794">
        <ele>103.6</ele>
        <time>2025-03-16T01:34:42Z</time>
      </trkpt>
      <trkpt lat="48.6028" lon="2.93841">
        <ele>103.6</ele>
        <time>2025-03-16T01:35:03Z</time>
      </trkpt>
      <trkpt lat="48.60283" lon="2.93881">
        <ele>103</ele>
        <time>2025-03-16T01:35:21Z</time>
      </trkpt>
      <trkpt lat="48.60282" lon="2.9393">
        <ele>103</ele>
        <time>2025-03-16T01:35:43Z</time>
      </trkpt>
      <trkpt lat="48.60262" lon="2.93954">
        <ele>103</ele>
        <time>2025-03-16T01:36:02Z</time>
      </trkpt>
      <trkpt lat="48.60243" lon="2.93954">
        <ele>103</ele>
        <time>2025-03-16T01:36:16Z</time>
      </trkpt>
      <trkpt lat="48.60242" lon="2.93954">
        <ele>103</ele>
        <time>2025-03-16T01:36:17Z</time>
      </trkpt>
      <trkpt lat="48.6024" lon="2.93953">
        <ele>103</ele>
        <time>2025-03-16T01:36:18Z</time>
      </trkpt>
      <trkpt lat="48.60213" lon="2.93948">
        <ele>103</ele>
        <time>2025-03-16T01:36:37Z</time>
      </trkpt>
      <trkpt lat="48.60181" lon="2.93941">
        <ele>103.6</ele>
        <time>2025-03-16T01:36:58Z</time>
      </trkpt>
      <trkpt lat="48.60148" lon="2.93933">
        <ele>104</ele>
        <time>2025-03-16T01:37:20Z</time>
      </trkpt>
      <trkpt lat="48.60117" lon="2.93917">
        <ele>104</ele>
        <time>2025-03-16T01:37:41Z</time>
      </trkpt>
      <trkpt lat="48.60095" lon="2.93889">
        <ele>104</ele>
        <time>2025-03-16T01:38:00Z</time>
      </trkpt>
      <trkpt lat="48.60076" lon="2.93857">
        <ele>103.8</ele>
        <time>2025-03-16T01:38:19Z</time>
      </trkpt>
      <trkpt lat="48.60065" lon="2.93813">
        <ele>103.8</ele>
        <time>2025-03-16T01:38:40Z</time>
      </trkpt>
      <trkpt lat="48.60054" lon="2.93774">
        <ele>104</ele>
        <time>2025-03-16T01:38:59Z</time>
      </trkpt>
      <trkpt lat="48.60036" lon="2.93738">
        <ele>104.2</ele>
        <time>2025-03-16T01:39:19Z</time>
      </trkpt>
      <trkpt lat="48.60021" lon="2.93697">
        <ele>104.2</ele>
        <time>2025-03-16T01:39:40Z</time>
      </trkpt>
      <trkpt lat="48.60007" lon="2.93664">
        <ele>105.2</ele>
        <time>2025-03-16T01:40:00Z</time>
      </trkpt>
      <trkpt lat="48.60004" lon="2.93654">
        <ele>104</ele>
        <time>2025-03-16T01:40:14Z</time>
      </trkpt>
      <trkpt lat="48.60005" lon="2.93653">
        <ele>107.2</ele>
        <time>2025-03-16T01:40:21Z</time>
      </trkpt>
      <trkpt lat="48.60006" lon="2.93653">
        <ele>103.8</ele>
        <time>2025-03-16T01:40:34Z</time>
      </trkpt>
      <trkpt lat="48.60006" lon="2.93653">
        <ele>105.6</ele>
        <time>2025-03-16T01:41:09Z</time>
      </trkpt>
      <trkpt lat="48.60006" lon="2.93652">
        <ele>104.2</ele>
        <time>2025-03-16T01:41:57Z</time>
      </trkpt>
      <trkpt lat="48.60005" lon="2.93652">
        <ele>104.8</ele>
        <time>2025-03-16T01:42:42Z</time>
      </trkpt>
      <trkpt lat="48.60005" lon="2.93652">
        <ele>103.4</ele>
        <time>2025-03-16T01:42:45Z</time>
      </trkpt>
      <trkpt lat="48.60005" lon="2.93653">
        <ele>104.8</ele>
        <time>2025-03-16T01:42:48Z</time>
      </trkpt>
      <trkpt lat="48.60005" lon="2.93652">
        <ele>101.2</ele>
        <time>2025-03-16T01:43:00Z</time>
      </trkpt>
      <trkpt lat="48.60005" lon="2.93652">
        <ele>97.6</ele>
        <time>2025-03-16T01:43:03Z</time>
      </trkpt>
      <trkpt lat="48.60005" lon="2.93652">
        <ele>103</ele>
        <time>2025-03-16T01:43:12Z</time>
      </trkpt>
      <trkpt lat="48.60005" lon="2.93652">
        <ele>107.6</ele>
        <time>2025-03-16T01:43:13Z</time>
      </trkpt>
      <trkpt lat="48.60005" lon="2.93652">
        <ele>111</ele>
        <time>2025-03-16T01:43:14Z</time>
      </trkpt>
      <trkpt lat="48.60005" lon="2.93652">
        <ele>107.2</ele>
        <time>2025-03-16T01:43:21Z</time>
      </trkpt>
      <trkpt lat="48.60005" lon="2.93652">
        <ele>103.2</ele>
        <time>2025-03-16T01:43:22Z</time>
      </trkpt>
      <trkpt lat="48.60005" lon="2.93652">
        <ele>97.6</ele>
        <time>2025-03-16T01:43:23Z</time>
      </trkpt>
      <trkpt lat="48.60005" lon="2.93652">
        <ele>93.4</ele>
        <time>2025-03-16T01:43:24Z</time>
      </trkpt>
      <trkpt lat="48.60005" lon="2.93652">
        <ele>90</ele>
        <time>2025-03-16T01:43:26Z</time>
      </trkpt>
      <trkpt lat="48.60005" lon="2.93652">
        <ele>98.6</ele>
        <time>2025-03-16T01:43:29Z</time>
      </trkpt>
      <trkpt lat="48.60005" lon="2.93652">
        <ele>105</ele>
        <time>2025-03-16T01:43:30Z</time>
      </trkpt>
      <trkpt lat="48.60005" lon="2.93652">
        <ele>110</ele>
        <time>2025-03-16T01:43:31Z</time>
      </trkpt>
      <trkpt lat="48.60005" lon="2.93652">
        <ele>110.8</ele>
        <time>2025-03-16T01:43:33Z</time>
      </trkpt>
      <trkpt lat="48.60005" lon="2.93652">
        <ele>107.4</ele>
        <time>2025-03-16T01:43:37Z</time>
      </trkpt>
      <trkpt lat="48.60005" lon="2.93652">
        <ele>104.2</ele>
        <time>2025-03-16T01:43:57Z</time>
      </trkpt>
      <trkpt lat="48.60005" lon="2.93652">
        <ele>100.4</ele>
        <time>2025-03-16T01:44:32Z</time>
      </trkpt>
      <trkpt lat="48.60005" lon="2.93652">
        <ele>95.6</ele>
        <time>2025-03-16T01:44:34Z</time>
      </trkpt>
      <trkpt lat="48.60005" lon="2.93652">
        <ele>99.2</ele>
        <time>2025-03-16T01:44:38Z</time>
      </trkpt>
      <trkpt lat="48.60005" lon="2.93652">
        <ele>104.6</ele>
        <time>2025-03-16T01:44:39Z</time>
      </trkpt>
      <trkpt lat="48.60005" lon="2.93652">
        <ele>108.8</ele>
        <time>2025-03-16T01:44:40Z</time>
      </trkpt>
      <trkpt lat="48.60005" lon="2.93652">
        <ele>112.2</ele>
        <time>2025-03-16T01:44:41Z</time>
      </trkpt>
      <trkpt lat="48.60005" lon="2.93652">
        <ele>112.2</ele>
        <time>2025-03-16T01:44:42Z</time>
      </trkpt>
      <trkpt lat="48.60005" lon="2.93652">
        <ele>108.8</ele>
        <time>2025-03-16T01:44:46Z</time>
      </trkpt>
      <trkpt lat="48.60005" lon="2.93652">
        <ele>105.8</ele>
        <time>2025-03-16T01:44:53Z</time>
      </trkpt>
      <trkpt lat="48.60006" lon="2.93643">
        <ele>103.8</ele>
        <time>2025-03-16T01:45:17Z</time>
      </trkpt>
      <trkpt lat="48.60006" lon="2.93645">
        <ele>105.2</ele>
        <time>2025-03-16T01:45:35Z</time>
      </trkpt>
      <trkpt lat="48.60006" lon="2.93645">
        <ele>101.4</ele>
        <time>2025-03-16T01:45:48Z</time>
      </trkpt>
      <trkpt lat="48.60006" lon="2.93645">
        <ele>98.6</ele>
        <time>2025-03-16T01:45:51Z</time>
      </trkpt>
      <trkpt lat="48.60006" lon="2.93645">
        <ele>103.4</ele>
        <time>2025-03-16T01:45:55Z</time>
      </trkpt>
      <trkpt lat="48.60006" lon="2.93645">
        <ele>106.8</ele>
        <time>2025-03-16T01:45:56Z</time>
      </trkpt>
      <trkpt lat="48.60006" lon="2.93646">
        <ele>110.4</ele>
        <time>2025-03-16T01:45:58Z</time>
      </trkpt>
      <trkpt lat="48.60007" lon="2.93647">
        <ele>107.8</ele>
        <time>2025-03-16T01:46:06Z</time>
      </trkpt>
      <trkpt lat="48.60007" lon="2.93646">
        <ele>104.8</ele>
        <time>2025-03-16T01:46:15Z</time>
      </trkpt>
      <trkpt lat="48.60006" lon="2.93646">
        <ele>104.2</ele>
        <time>2025-03-16T01:46:23Z</time>
      </trkpt>
      <trkpt lat="48.60006" lon="2.93645">
        <ele>104.8</ele>
        <time>2025-03-16T01:46:50Z</time>
      </trkpt>
      <trkpt lat="48.60003" lon="2.93642">
        <ele>105.2</ele>
        <time>2025-03-16T01:47:01Z</time>
      </trkpt>
      <trkpt lat="48.60003" lon="2.93641">
        <ele>100.2</ele>
        <time>2025-03-16T01:47:22Z</time>
      </trkpt>
      <trkpt lat="48.60002" lon="2.93642">
        <ele>95.2</ele>
        <time>2025-03-16T01:47:24Z</time>
      </trkpt>
      <trkpt lat="48.60002" lon="2.93642">
        <ele>93.2</ele>
        <time>2025-03-16T01:47:27Z</time>
      </trkpt>
      <trkpt lat="48.60003" lon="2.93643">
        <ele>97.8</ele>
        <time>2025-03-16T01:47:32Z</time>
      </trkpt>
      <trkpt lat="48.60003" lon="2.93644">
        <ele>101.4</ele>
        <time>2025-03-16T01:47:34Z</time>
      </trkpt>
      <trkpt lat="48.60003" lon="2.93644">
        <ele>104.4</ele>
        <time>2025-03-16T01:47:41Z</time>
      </trkpt>
      <trkpt lat="48.60003" lon="2.93644">
        <ele>106.2</ele>
        <time>2025-03-16T01:47:44Z</time>
      </trkpt>
      <trkpt lat="48.6" lon="2.93645">
        <ele>106</ele>
        <time>2025-03-16T01:48:17Z</time>
      </trkpt>
      <trkpt lat="48.59999" lon="2.93646">
        <ele>111.2</ele>
        <time>2025-03-16T01:48:31Z</time>
      </trkpt>
      <trkpt lat="48.59999" lon="2.93646">
        <ele>111.8</ele>
        <time>2025-03-16T01:48:33Z</time>
      </trkpt>
      <trkpt lat="48.59999" lon="2.93646">
        <ele>107.8</ele>
        <time>2025-03-16T01:48:43Z</time>
      </trkpt>
      <trkpt lat="48.59999" lon="2.93646">
        <ele>104.8</ele>
        <time>2025-03-16T01:49:04Z</time>
      </trkpt>
      <trkpt lat="48.59999" lon="2.93644">
        <ele>104</ele>
        <time>2025-03-16T01:49:46Z</time>
      </trkpt>
      <trkpt lat="48.59993" lon="2.93639">
        <ele>104.4</ele>
        <time>2025-03-16T01:50:04Z</time>
      </trkpt>
      <trkpt lat="48.59991" lon="2.93639">
        <ele>104.4</ele>
        <time>2025-03-16T01:50:05Z</time>
      </trkpt>
      <trkpt lat="48.59986" lon="2.93639">
        <ele>104.8</ele>
        <time>2025-03-16T01:50:11Z</time>
      </trkpt>
      <trkpt lat="48.59985" lon="2.9364">
        <ele>104.8</ele>
        <time>2025-03-16T01:50:12Z</time>
      </trkpt>
      <trkpt lat="48.59984" lon="2.93641">
        <ele>104.8</ele>
        <time>2025-03-16T01:50:13Z</time>
      </trkpt>
      <trkpt lat="48.59983" lon="2.93642">
        <ele>104.8</ele>
        <time>2025-03-16T01:50:14Z</time>
      </trkpt>
      <trkpt lat="48.59983" lon="2.93644">
        <ele>104.8</ele>
        <time>2025-03-16T01:50:15Z</time>
      </trkpt>
      <trkpt lat="48.59982" lon="2.93645">
        <ele>104.8</ele>
        <time>2025-03-16T01:50:16Z</time>
      </trkpt>
      <trkpt lat="48.59974" lon="2.93685">
        <ele>105.2</ele>
        <time>2025-03-16T01:50:37Z</time>
      </trkpt>
      <trkpt lat="48.59972" lon="2.93731">
        <ele>105.6</ele>
        <time>2025-03-16T01:50:58Z</time>
      </trkpt>
      <trkpt lat="48.59976" lon="2.93772">
        <ele>105.4</ele>
        <time>2025-03-16T01:51:17Z</time>
      </trkpt>
      <trkpt lat="48.59981" lon="2.93811">
        <ele>105.4</ele>
        <time>2025-03-16T01:51:35Z</time>
      </trkpt>
      <trkpt lat="48.5999" lon="2.93851">
        <ele>105.6</ele>
        <time>2025-03-16T01:51:54Z</time>
      </trkpt>
      <trkpt lat="48.59999" lon="2.93898">
        <ele>105.6</ele>
        <time>2025-03-16T01:52:16Z</time>
      </trkpt>
      <trkpt lat="48.60006" lon="2.93939">
        <ele>105</ele>
        <time>2025-03-16T01:52:35Z</time>
      </trkpt>
      <trkpt lat="48.60008" lon="2.93974">
        <ele>105.6</ele>
        <time>2025-03-16T01:52:51Z</time>
      </trkpt>
      <trkpt lat="48.60008" lon="2.94018">
        <ele>105.6</ele>
        <time>2025-03-16T01:53:11Z</time>
      </trkpt>
      <trkpt lat="48.6001" lon="2.94063">
        <ele>106</ele>
        <time>2025-03-16T01:53:31Z</time>
      </trkpt>
      <trkpt lat="48.60011" lon="2.94113">
        <ele>106.2</ele>
        <time>2025-03-16T01:53:54Z</time>
      </trkpt>
      <trkpt lat="48.60012" lon="2.94162">
        <ele>106.6</ele>
        <time>2025-03-16T01:54:16Z</time>
      </trkpt>
      <trkpt lat="48.60012" lon="2.94171">
        <ele>106.8</ele>
        <time>2025-03-16T01:54:20Z</time>
      </trkpt>
      <trkpt lat="48.60012" lon="2.94173">
        <ele>106.6</ele>
        <time>2025-03-16T01:54:21Z</time>
      </trkpt>
      <trkpt lat="48.60015" lon="2.94217">
        <ele>106.8</ele>
        <time>2025-03-16T01:54:41Z</time>
      </trkpt>
      <trkpt lat="48.6002" lon="2.94258">
        <ele>106.6</ele>
        <time>2025-03-16T01:54:59Z</time>
      </trkpt>
      <trkpt lat="48.60024" lon="2.94294">
        <ele>107</ele>
        <time>2025-03-16T01:55:16Z</time>
      </trkpt>
      <trkpt lat="48.60026" lon="2.94337">
        <ele>106.2</ele>
        <time>2025-03-16T01:55:35Z</time>
      </trkpt>
      <trkpt lat="48.60024" lon="2.94379">
        <ele>106.4</ele>
        <time>2025-03-16T01:55:54Z</time>
      </trkpt>
      <trkpt lat="48.60022" lon="2.94419">
        <ele>106.2</ele>
        <time>2025-03-16T01:56:12Z</time>
      </trkpt>
      <trkpt lat="48.60016" lon="2.94459">
        <ele>106.2</ele>
        <time>2025-03-16T01:56:31Z</time>
      </trkpt>
      <trkpt lat="48.6002" lon="2.94498">
        <ele>106.2</ele>
        <time>2025-03-16T01:56:49Z</time>
      </trkpt>
      <trkpt lat="48.60027" lon="2.94534">
        <ele>106.6</ele>
        <time>2025-03-16T01:57:06Z</time>
      </trkpt>
      <trkpt lat="48.60038" lon="2.9458">
        <ele>106.8</ele>
        <time>2025-03-16T01:57:28Z</time>
      </trkpt>
      <trkpt lat="48.60048" lon="2.94624">
        <ele>107.2</ele>
        <time>2025-03-16T01:57:49Z</time>
      </trkpt>
      <trkpt lat="48.60059" lon="2.9467">
        <ele>107.4</ele>
        <time>2025-03-16T01:58:11Z</time>
      </trkpt>
      <trkpt lat="48.60069" lon="2.94713">
        <ele>107</ele>
        <time>2025-03-16T01:58:31Z</time>
      </trkpt>
      <trkpt lat="48.6008" lon="2.94754">
        <ele>106.4</ele>
        <time>2025-03-16T01:58:50Z</time>
      </trkpt>
      <trkpt lat="48.60082" lon="2.94768">
        <ele>109.6</ele>
        <time>2025-03-16T01:58:57Z</time>
      </trkpt>
      <trkpt lat="48.60092" lon="2.94814">
        <ele>107.4</ele>
        <time>2025-03-16T01:59:19Z</time>
      </trkpt>
      <trkpt lat="48.60098" lon="2.9484">
        <ele>104.2</ele>
        <time>2025-03-16T01:59:31Z</time>
      </trkpt>
      <trkpt lat="48.60104" lon="2.94862">
        <ele>107.4</ele>
        <time>2025-03-16T01:59:42Z</time>
      </trkpt>
      <trkpt lat="48.60104" lon="2.94864">
        <ele>107.6</ele>
        <time>2025-03-16T01:59:43Z</time>
      </trkpt>
      <trkpt lat="48.6011" lon="2.94893">
        <ele>107.2</ele>
        <time>2025-03-16T01:59:57Z</time>
      </trkpt>
      <trkpt lat="48.60121" lon="2.94932">
        <ele>106.6</ele>
        <time>2025-03-16T02:00:15Z</time>
      </trkpt>
      <trkpt lat="48.60133" lon="2.94975">
        <ele>106.6</ele>
        <time>2025-03-16T02:00:36Z</time>
      </trkpt>
      <trkpt lat="48.60144" lon="2.95009">
        <ele>106.6</ele>
        <time>2025-03-16T02:00:53Z</time>
      </trkpt>
      <trkpt lat="48.60155" lon="2.95042">
        <ele>106.4</ele>
        <time>2025-03-16T02:01:10Z</time>
      </trkpt>
      <trkpt lat="48.60169" lon="2.95081">
        <ele>106.4</ele>
        <time>2025-03-16T02:01:30Z</time>
      </trkpt>
      <trkpt lat="48.60182" lon="2.95116">
        <ele>106.2</ele>
        <time>2025-03-16T02:01:48Z</time>
      </trkpt>
      <trkpt lat="48.60192" lon="2.95144">
        <ele>109.4</ele>
        <time>2025-03-16T02:02:02Z</time>
      </trkpt>
      <trkpt lat="48.60192" lon="2.95146">
        <ele>109.4</ele>
        <time>2025-03-16T02:02:03Z</time>
      </trkpt>
      <trkpt lat="48.60202" lon="2.95188">
        <ele>106.8</ele>
        <time>2025-03-16T02:02:24Z</time>
      </trkpt>
      <trkpt lat="48.6021" lon="2.95235">
        <ele>105.6</ele>
        <time>2025-03-16T02:02:46Z</time>
      </trkpt>
      <trkpt lat="48.60212" lon="2.9525">
        <ele>106.6</ele>
        <time>2025-03-16T02:02:53Z</time>
      </trkpt>
      <trkpt lat="48.60217" lon="2.95294">
        <ele>106.8</ele>
        <time>2025-03-16T02:03:13Z</time>
      </trkpt>
      <trkpt lat="48.60221" lon="2.95332">
        <ele>106.4</ele>
        <time>2025-03-16T02:03:30Z</time>
      </trkpt>
      <trkpt lat="48.60213" lon="2.9536">
        <ele>106.2</ele>
        <time>2025-03-16T02:03:45Z</time>
      </trkpt>
      <trkpt lat="48.60185" lon="2.95365">
        <ele>106.8</ele>
        <time>2025-03-16T02:04:05Z</time>
      </trkpt>
      <trkpt lat="48.60152" lon="2.95368">
        <ele>106</ele>
        <time>2025-03-16T02:04:27Z</time>
      </trkpt>
      <trkpt lat="48.60124" lon="2.95371">
        <ele>106.4</ele>
        <time>2025-03-16T02:04:47Z</time>
      </trkpt>
      <trkpt lat="48.60099" lon="2.95372">
        <ele>106.4</ele>
        <time>2025-03-16T02:05:05Z</time>
      </trkpt>
      <trkpt lat="48.60067" lon="2.95378">
        <ele>106.4</ele>
        <time>2025-03-16T02:05:26Z</time>
      </trkpt>
      <trkpt lat="48.60039" lon="2.95383">
        <ele>106.8</ele>
        <time>2025-03-16T02:05:45Z</time>
      </trkpt>
      <trkpt lat="48.60007" lon="2.95387">
        <ele>106.8</ele>
        <time>2025-03-16T02:06:07Z</time>
      </trkpt>
      <trkpt lat="48.59978" lon="2.9539">
        <ele>106.8</ele>
        <time>2025-03-16T02:06:27Z</time>
      </trkpt>
      <trkpt lat="48.5995" lon="2.95401">
        <ele>107</ele>
        <time>2025-03-16T02:06:46Z</time>
      </trkpt>
      <trkpt lat="48.59933" lon="2.95426">
        <ele>107</ele>
        <time>2025-03-16T02:07:02Z</time>
      </trkpt>
      <trkpt lat="48.5992" lon="2.9547">
        <ele>107.6</ele>
        <time>2025-03-16T02:07:23Z</time>
      </trkpt>
      <trkpt lat="48.59908" lon="2.95517">
        <ele>107.8</ele>
        <time>2025-03-16T02:07:46Z</time>
      </trkpt>
      <trkpt lat="48.59896" lon="2.9556">
        <ele>107.6</ele>
        <time>2025-03-16T02:08:07Z</time>
      </trkpt>
      <trkpt lat="48.59876" lon="2.95602">
        <ele>107.8</ele>
        <time>2025-03-16T02:08:30Z</time>
      </trkpt>
      <trkpt lat="48.59847" lon="2.95616">
        <ele>107.6</ele>
        <time>2025-03-16T02:08:51Z</time>
      </trkpt>
      <trkpt lat="48.59808" lon="2.9562">
        <ele>107.8</ele>
        <time>2025-03-16T02:09:17Z</time>
      </trkpt>
      <trkpt lat="48.59776" lon="2.95623">
        <ele>107.6</ele>
        <time>2025-03-16T02:09:39Z</time>
      </trkpt>
      <trkpt lat="48.59744" lon="2.95627">
        <ele>107.8</ele>
        <time>2025-03-16T02:10:01Z</time>
      </trkpt>
      <trkpt lat="48.59708" lon="2.95632">
        <ele>107.8</ele>
        <time>2025-03-16T02:10:26Z</time>
      </trkpt>
      <trkpt lat="48.59675" lon="2.95638">
        <ele>107.8</ele>
        <time>2025-03-16T02:10:48Z</time>
      </trkpt>
      <trkpt lat="48.59641" lon="2.95641">
        <ele>107.4</ele>
        <time>2025-03-16T02:11:11Z</time>
      </trkpt>
      <trkpt lat="48.59613" lon="2.95647">
        <ele>107.4</ele>
        <time>2025-03-16T02:11:31Z</time>
      </trkpt>
      <trkpt lat="48.59584" lon="2.95655">
        <ele>107.2</ele>
        <time>2025-03-16T02:11:51Z</time>
      </trkpt>
      <trkpt lat="48.59554" lon="2.95667">
        <ele>106.6</ele>
        <time>2025-03-16T02:12:12Z</time>
      </trkpt>
      <trkpt lat="48.5953" lon="2.95678">
        <ele>106.6</ele>
        <time>2025-03-16T02:12:29Z</time>
      </trkpt>
      <trkpt lat="48.59496" lon="2.95695">
        <ele>107</ele>
        <time>2025-03-16T02:12:53Z</time>
      </trkpt>
      <trkpt lat="48.59468" lon="2.95708">
        <ele>107.6</ele>
        <time>2025-03-16T02:13:13Z</time>
      </trkpt>
      <trkpt lat="48.59438" lon="2.95726">
        <ele>107.6</ele>
        <time>2025-03-16T02:13:35Z</time>
      </trkpt>
      <trkpt lat="48.59417" lon="2.95749">
        <ele>107.8</ele>
        <time>2025-03-16T02:13:53Z</time>
      </trkpt>
      <trkpt lat="48.59396" lon="2.95769">
        <ele>108</ele>
        <time>2025-03-16T02:14:10Z</time>
      </trkpt>
      <trkpt lat="48.59395" lon="2.9577">
        <ele>108</ele>
        <time>2025-03-16T02:14:11Z</time>
      </trkpt>
      <trkpt lat="48.5937" lon="2.95795">
        <ele>107.8</ele>
        <time>2025-03-16T02:14:30Z</time>
      </trkpt>
      <trkpt lat="48.59347" lon="2.95819">
        <ele>108</ele>
        <time>2025-03-16T02:14:50Z</time>
      </trkpt>
      <trkpt lat="48.59322" lon="2.95845">
        <ele>108.4</ele>
        <time>2025-03-16T02:15:10Z</time>
      </trkpt>
      <trkpt lat="48.593" lon="2.95876">
        <ele>108.2</ele>
        <time>2025-03-16T02:15:30Z</time>
      </trkpt>
      <trkpt lat="48.5928" lon="2.95917">
        <ele>108.4</ele>
        <time>2025-03-16T02:15:53Z</time>
      </trkpt>
      <trkpt lat="48.59266" lon="2.95961">
        <ele>108.4</ele>
        <time>2025-03-16T02:16:15Z</time>
      </trkpt>
      <trkpt lat="48.59253" lon="2.96006">
        <ele>108.4</ele>
        <time>2025-03-16T02:16:37Z</time>
      </trkpt>
      <trkpt lat="48.59241" lon="2.96049">
        <ele>109</ele>
        <time>2025-03-16T02:16:58Z</time>
      </trkpt>
      <trkpt lat="48.59228" lon="2.96095">
        <ele>109</ele>
        <time>2025-03-16T02:17:20Z</time>
      </trkpt>
      <trkpt lat="48.59218" lon="2.96129">
        <ele>109</ele>
        <time>2025-03-16T02:17:37Z</time>
      </trkpt>
      <trkpt lat="48.59204" lon="2.96176">
        <ele>109.4</ele>
        <time>2025-03-16T02:18:00Z</time>
      </trkpt>
      <trkpt lat="48.59193" lon="2.96218">
        <ele>109.2</ele>
        <time>2025-03-16T02:18:21Z</time>
      </trkpt>
      <trkpt lat="48.59181" lon="2.96259">
        <ele>109.4</ele>
        <time>2025-03-16T02:18:41Z</time>
      </trkpt>
      <trkpt lat="48.5917" lon="2.96299">
        <ele>109.6</ele>
        <time>2025-03-16T02:19:01Z</time>
      </trkpt>
      <trkpt lat="48.59157" lon="2.96342">
        <ele>109.4</ele>
        <time>2025-03-16T02:19:23Z</time>
      </trkpt>
      <trkpt lat="48.59144" lon="2.96387">
        <ele>109.6</ele>
        <time>2025-03-16T02:19:45Z</time>
      </trkpt>
      <trkpt lat="48.59133" lon="2.96425">
        <ele>110</ele>
        <time>2025-03-16T02:20:04Z</time>
      </trkpt>
      <trkpt lat="48.5912" lon="2.96471">
        <ele>110.2</ele>
        <time>2025-03-16T02:20:27Z</time>
      </trkpt>
      <trkpt lat="48.59109" lon="2.96509">
        <ele>110.4</ele>
        <time>2025-03-16T02:20:46Z</time>
      </trkpt>
      <trkpt lat="48.59097" lon="2.96554">
        <ele>110.2</ele>
        <time>2025-03-16T02:21:08Z</time>
      </trkpt>
      <trkpt lat="48.59086" lon="2.96603">
        <ele>110.6</ele>
        <time>2025-03-16T02:21:32Z</time>
      </trkpt>
      <trkpt lat="48.59079" lon="2.96649">
        <ele>110.6</ele>
        <time>2025-03-16T02:21:53Z</time>
      </trkpt>
      <trkpt lat="48.59075" lon="2.967">
        <ele>110.6</ele>
        <time>2025-03-16T02:22:17Z</time>
      </trkpt>
      <trkpt lat="48.59072" lon="2.96721">
        <ele>108</ele>
        <time>2025-03-16T02:22:27Z</time>
      </trkpt>
      <trkpt lat="48.5907" lon="2.96731">
        <ele>112</ele>
        <time>2025-03-16T02:22:32Z</time>
      </trkpt>
      <trkpt lat="48.59068" lon="2.96772">
        <ele>111</ele>
        <time>2025-03-16T02:22:51Z</time>
      </trkpt>
      <trkpt lat="48.59063" lon="2.96803">
        <ele>111.4</ele>
        <time>2025-03-16T02:23:06Z</time>
      </trkpt>
      <trkpt lat="48.5906" lon="2.96834">
        <ele>111.2</ele>
        <time>2025-03-16T02:23:21Z</time>
      </trkpt>
      <trkpt lat="48.59052" lon="2.96867">
        <ele>111.4</ele>
        <time>2025-03-16T02:23:37Z</time>
      </trkpt>
      <trkpt lat="48.59046" lon="2.96899">
        <ele>111.8</ele>
        <time>2025-03-16T02:23:53Z</time>
      </trkpt>
      <trkpt lat="48.5905" lon="2.96921">
        <ele>111.8</ele>
        <time>2025-03-16T02:24:03Z</time>
      </trkpt>
      <trkpt lat="48.59058" lon="2.96954">
        <ele>110</ele>
        <time>2025-03-16T02:24:19Z</time>
      </trkpt>
      <trkpt lat="48.59065" lon="2.96993">
        <ele>111.4</ele>
        <time>2025-03-16T02:24:38Z</time>
      </trkpt>
      <trkpt lat="48.59071" lon="2.97039">
        <ele>111.6</ele>
        <time>2025-03-16T02:24:59Z</time>
      </trkpt>
      <trkpt lat="48.59078" lon="2.9708">
        <ele>111.4</ele>
        <time>2025-03-16T02:25:18Z</time>
      </trkpt>
      <trkpt lat="48.59084" lon="2.97125">
        <ele>111</ele>
        <time>2025-03-16T02:25:39Z</time>
      </trkpt>
      <trkpt lat="48.59091" lon="2.97166">
        <ele>111</ele>
        <time>2025-03-16T02:25:58Z</time>
      </trkpt>
      <trkpt lat="48.59097" lon="2.97215">
        <ele>110.8</ele>
        <time>2025-03-16T02:26:21Z</time>
      </trkpt>
      <trkpt lat="48.59105" lon="2.97266">
        <ele>111</ele>
        <time>2025-03-16T02:26:45Z</time>
      </trkpt>
      <trkpt lat="48.59112" lon="2.97308">
        <ele>111</ele>
        <time>2025-03-16T02:27:05Z</time>
      </trkpt>
      <trkpt lat="48.59118" lon="2.9735">
        <ele>111.4</ele>
        <time>2025-03-16T02:27:25Z</time>
      </trkpt>
      <trkpt lat="48.59124" lon="2.97388">
        <ele>111.2</ele>
        <time>2025-03-16T02:27:43Z</time>
      </trkpt>
      <trkpt lat="48.5913" lon="2.97433">
        <ele>111.8</ele>
        <time>2025-03-16T02:28:04Z</time>
      </trkpt>
      <trkpt lat="48.59137" lon="2.9748">
        <ele>112.4</ele>
        <time>2025-03-16T02:28:27Z</time>
      </trkpt>
      <trkpt lat="48.59145" lon="2.97527">
        <ele>112.8</ele>
        <time>2025-03-16T02:28:49Z</time>
      </trkpt>
      <trkpt lat="48.5915" lon="2.9757">
        <ele>113.4</ele>
        <time>2025-03-16T02:29:10Z</time>
      </trkpt>
      <trkpt lat="48.59156" lon="2.9761">
        <ele>114</ele>
        <time>2025-03-16T02:29:29Z</time>
      </trkpt>
      <trkpt lat="48.59164" lon="2.97659">
        <ele>114.6</ele>
        <time>2025-03-16T02:29:52Z</time>
      </trkpt>
      <trkpt lat="48.5917" lon="2.97702">
        <ele>115.4</ele>
        <time>2025-03-16T02:30:13Z</time>
      </trkpt>
      <trkpt lat="48.59178" lon="2.97745">
        <ele>115.6</ele>
        <time>2025-03-16T02:30:33Z</time>
      </trkpt>
      <trkpt lat="48.59184" lon="2.97791">
        <ele>116.2</ele>
        <time>2025-03-16T02:30:55Z</time>
      </trkpt>
      <trkpt lat="48.59191" lon="2.97841">
        <ele>117.2</ele>
        <time>2025-03-16T02:31:19Z</time>
      </trkpt>
      <trkpt lat="48.59198" lon="2.97892">
        <ele>117.6</ele>
        <time>2025-03-16T02:31:43Z</time>
      </trkpt>
      <trkpt lat="48.59206" lon="2.97936">
        <ele>118</ele>
        <time>2025-03-16T02:32:04Z</time>
      </trkpt>
      <trkpt lat="48.59212" lon="2.97984">
        <ele>118.4</ele>
        <time>2025-03-16T02:32:27Z</time>
      </trkpt>
      <trkpt lat="48.5922" lon="2.98031">
        <ele>119.4</ele>
        <time>2025-03-16T02:32:49Z</time>
      </trkpt>
      <trkpt lat="48.59226" lon="2.9807">
        <ele>119.8</ele>
        <time>2025-03-16T02:33:08Z</time>
      </trkpt>
      <trkpt lat="48.59232" lon="2.98113">
        <ele>120</ele>
        <time>2025-03-16T02:33:28Z</time>
      </trkpt>
      <trkpt lat="48.59236" lon="2.98146">
        <ele>123.4</ele>
        <time>2025-03-16T02:33:43Z</time>
      </trkpt>
      <trkpt lat="48.59237" lon="2.98148">
        <ele>123.6</ele>
        <time>2025-03-16T02:33:44Z</time>
      </trkpt>
      <trkpt lat="48.5924" lon="2.98165">
        <ele>121.4</ele>
        <time>2025-03-16T02:33:52Z</time>
      </trkpt>
      <trkpt lat="48.59246" lon="2.98204">
        <ele>120.8</ele>
        <time>2025-03-16T02:34:10Z</time>
      </trkpt>
      <trkpt lat="48.59252" lon="2.98236">
        <ele>121.2</ele>
        <time>2025-03-16T02:34:26Z</time>
      </trkpt>
      <trkpt lat="48.59258" lon="2.98272">
        <ele>121.4</ele>
        <time>2025-03-16T02:34:43Z</time>
      </trkpt>
      <trkpt lat="48.59263" lon="2.98313">
        <ele>121.6</ele>
        <time>2025-03-16T02:35:02Z</time>
      </trkpt>
      <trkpt lat="48.59268" lon="2.98348">
        <ele>119.6</ele>
        <time>2025-03-16T02:35:19Z</time>
      </trkpt>
      <trkpt lat="48.59273" lon="2.98385">
        <ele>121.8</ele>
        <time>2025-03-16T02:35:37Z</time>
      </trkpt>
      <trkpt lat="48.59274" lon="2.98398">
        <ele>118.6</ele>
        <time>2025-03-16T02:35:43Z</time>
      </trkpt>
      <trkpt lat="48.59274" lon="2.984">
        <ele>118.6</ele>
        <time>2025-03-16T02:35:44Z</time>
      </trkpt>
      <trkpt lat="48.59273" lon="2.98422">
        <ele>119.4</ele>
        <time>2025-03-16T02:35:54Z</time>
      </trkpt>
      <trkpt lat="48.59258" lon="2.98449">
        <ele>120.2</ele>
        <time>2025-03-16T02:36:12Z</time>
      </trkpt>
      <trkpt lat="48.59226" lon="2.98463">
        <ele>120.2</ele>
        <time>2025-03-16T02:36:34Z</time>
      </trkpt>
      <trkpt lat="48.59195" lon="2.98475">
        <ele>119.2</ele>
        <time>2025-03-16T02:36:56Z</time>
      </trkpt>
      <trkpt lat="48.59168" lon="2.98487">
        <ele>119</ele>
        <time>2025-03-16T02:37:15Z</time>
      </trkpt>
      <trkpt lat="48.59138" lon="2.98499">
        <ele>118.8</ele>
        <time>2025-03-16T02:37:36Z</time>
      </trkpt>
      <trkpt lat="48.59109" lon="2.98511">
        <ele>121.6</ele>
        <time>2025-03-16T02:37:57Z</time>
      </trkpt>
      <trkpt lat="48.59092" lon="2.98517">
        <ele>118.4</ele>
        <time>2025-03-16T02:38:09Z</time>
      </trkpt>
      <trkpt lat="48.59072" lon="2.98526">
        <ele>116.6</ele>
        <time>2025-03-16T02:38:24Z</time>
      </trkpt>
      <trkpt lat="48.59069" lon="2.98527">
        <ele>115.8</ele>
        <time>2025-03-16T02:38:26Z</time>
      </trkpt>
      <trkpt lat="48.59042" lon="2.98537">
        <ele>116.4</ele>
        <time>2025-03-16T02:38:45Z</time>
      </trkpt>
      <trkpt lat="48.59013" lon="2.98549">
        <ele>116.2</ele>
        <time>2025-03-16T02:39:05Z</time>
      </trkpt>
      <trkpt lat="48.58984" lon="2.9856">
        <ele>115.6</ele>
        <time>2025-03-16T02:39:26Z</time>
      </trkpt>
      <trkpt lat="48.58953" lon="2.98572">
        <ele>115.2</ele>
        <time>2025-03-16T02:39:48Z</time>
      </trkpt>
      <trkpt lat="48.58923" lon="2.98585">
        <ele>115.2</ele>
        <time>2025-03-16T02:40:10Z</time>
      </trkpt>
      <trkpt lat="48.58891" lon="2.98599">
        <ele>115.2</ele>
        <time>2025-03-16T02:40:33Z</time>
      </trkpt>
      <trkpt lat="48.58862" lon="2.9861">
        <ele>115</ele>
        <time>2025-03-16T02:40:54Z</time>
      </trkpt>
      <trkpt lat="48.58832" lon="2.98622">
        <ele>115</ele>
        <time>2025-03-16T02:41:16Z</time>
      </trkpt>
      <trkpt lat="48.58805" lon="2.98633">
        <ele>115.2</ele>
        <time>2025-03-16T02:41:35Z</time>
      </trkpt>
      <trkpt lat="48.58775" lon="2.98645">
        <ele>115</ele>
        <time>2025-03-16T02:41:56Z</time>
      </trkpt>
      <trkpt lat="48.58741" lon="2.98659">
        <ele>115.4</ele>
        <time>2025-03-16T02:42:21Z</time>
      </trkpt>
      <trkpt lat="48.58716" lon="2.9867">
        <ele>115.4</ele>
        <time>2025-03-16T02:42:40Z</time>
      </trkpt>
      <trkpt lat="48.58689" lon="2.98681">
        <ele>115.6</ele>
        <time>2025-03-16T02:42:59Z</time>
      </trkpt>
      <trkpt lat="48.58659" lon="2.98694">
        <ele>116.2</ele>
        <time>2025-03-16T02:43:20Z</time>
      </trkpt>
      <trkpt lat="48.58628" lon="2.98706">
        <ele>116.2</ele>
        <time>2025-03-16T02:43:43Z</time>
      </trkpt>
      <trkpt lat="48.586" lon="2.98717">
        <ele>117</ele>
        <time>2025-03-16T02:44:04Z</time>
      </trkpt>
      <trkpt lat="48.58571" lon="2.98728">
        <ele>116.8</ele>
        <time>2025-03-16T02:44:24Z</time>
      </trkpt>
      <trkpt lat="48.58539" lon="2.9874">
        <ele>117</ele>
        <time>2025-03-16T02:44:47Z</time>
      </trkpt>
      <trkpt lat="48.5851" lon="2.98752">
        <ele>117.2</ele>
        <time>2025-03-16T02:45:08Z</time>
      </trkpt>
      <trkpt lat="48.58478" lon="2.98765">
        <ele>117.2</ele>
        <time>2025-03-16T02:45:32Z</time>
      </trkpt>
      <trkpt lat="48.58449" lon="2.98777">
        <ele>117.4</ele>
        <time>2025-03-16T02:45:53Z</time>
      </trkpt>
      <trkpt lat="48.5842" lon="2.98789">
        <ele>117.4</ele>
        <time>2025-03-16T02:46:13Z</time>
      </trkpt>
      <trkpt lat="48.58386" lon="2.98803">
        <ele>117.2</ele>
        <time>2025-03-16T02:46:37Z</time>
      </trkpt>
      <trkpt lat="48.58357" lon="2.98813">
        <ele>117</ele>
        <time>2025-03-16T02:46:58Z</time>
      </trkpt>
      <trkpt lat="48.5833" lon="2.98825">
        <ele>117.2</ele>
        <time>2025-03-16T02:47:18Z</time>
      </trkpt>
      <trkpt lat="48.58304" lon="2.98833">
        <ele>115.4</ele>
        <time>2025-03-16T02:47:36Z</time>
      </trkpt>
      <trkpt lat="48.58299" lon="2.98834">
        <ele>114</ele>
        <time>2025-03-16T02:47:39Z</time>
      </trkpt>
      <trkpt lat="48.58291" lon="2.98837">
        <ele>117.6</ele>
        <time>2025-03-16T02:47:45Z</time>
      </trkpt>
      <trkpt lat="48.58263" lon="2.98848">
        <ele>117.4</ele>
        <time>2025-03-16T02:48:04Z</time>
      </trkpt>
      <trkpt lat="48.58232" lon="2.98861">
        <ele>116.8</ele>
        <time>2025-03-16T02:48:27Z</time>
      </trkpt>
      <trkpt lat="48.58205" lon="2.98873">
        <ele>116.6</ele>
        <time>2025-03-16T02:48:46Z</time>
      </trkpt>
      <trkpt lat="48.58179" lon="2.98885">
        <ele>116.6</ele>
        <time>2025-03-16T02:49:05Z</time>
      </trkpt>
      <trkpt lat="48.58152" lon="2.98893">
        <ele>116.2</ele>
        <time>2025-03-16T02:49:24Z</time>
      </trkpt>
      <trkpt lat="48.58122" lon="2.98906">
        <ele>116.2</ele>
        <time>2025-03-16T02:49:45Z</time>
      </trkpt>
      <trkpt lat="48.58095" lon="2.98917">
        <ele>115.6</ele>
        <time>2025-03-16T02:50:05Z</time>
      </trkpt>
      <trkpt lat="48.58082" lon="2.98926">
        <ele>118.4</ele>
        <time>2025-03-16T02:50:15Z</time>
      </trkpt>
      <trkpt lat="48.58081" lon="2.98927">
        <ele>118.4</ele>
        <time>2025-03-16T02:50:16Z</time>
      </trkpt>
      <trkpt lat="48.5808" lon="2.98928">
        <ele>117.8</ele>
        <time>2025-03-16T02:50:17Z</time>
      </trkpt>
      <trkpt lat="48.58078" lon="2.9893">
        <ele>117.2</ele>
        <time>2025-03-16T02:50:18Z</time>
      </trkpt>
      <trkpt lat="48.58077" lon="2.98931">
        <ele>116.8</ele>
        <time>2025-03-16T02:50:19Z</time>
      </trkpt>
      <trkpt lat="48.58076" lon="2.98932">
        <ele>116.6</ele>
        <time>2025-03-16T02:50:20Z</time>
      </trkpt>
      <trkpt lat="48.58055" lon="2.98944">
        <ele>114</ele>
        <time>2025-03-16T02:50:36Z</time>
      </trkpt>
      <trkpt lat="48.58031" lon="2.98959">
        <ele>113.4</ele>
        <time>2025-03-16T02:50:54Z</time>
      </trkpt>
      <trkpt lat="48.58003" lon="2.98983">
        <ele>114.2</ele>
        <time>2025-03-16T02:51:16Z</time>
      </trkpt>
      <trkpt lat="48.57974" lon="2.99006">
        <ele>113.8</ele>
        <time>2025-03-16T02:51:39Z</time>
      </trkpt>
      <trkpt lat="48.57948" lon="2.99026">
        <ele>113.2</ele>
        <time>2025-03-16T02:51:59Z</time>
      </trkpt>
      <trkpt lat="48.57926" lon="2.99044">
        <ele>113.2</ele>
        <time>2025-03-16T02:52:17Z</time>
      </trkpt>
      <trkpt lat="48.57903" lon="2.9906">
        <ele>113</ele>
        <time>2025-03-16T02:52:34Z</time>
      </trkpt>
      <trkpt lat="48.57876" lon="2.99084">
        <ele>112.4</ele>
        <time>2025-03-16T02:52:55Z</time>
      </trkpt>
      <trkpt lat="48.57851" lon="2.99103">
        <ele>113.2</ele>
        <time>2025-03-16T02:53:15Z</time>
      </trkpt>
      <trkpt lat="48.57827" lon="2.99119">
        <ele>113.2</ele>
        <time>2025-03-16T02:53:33Z</time>
      </trkpt>
      <trkpt lat="48.57803" lon="2.99141">
        <ele>113.6</ele>
        <time>2025-03-16T02:53:52Z</time>
      </trkpt>
      <trkpt lat="48.57779" lon="2.99159">
        <ele>113.8</ele>
        <time>2025-03-16T02:54:11Z</time>
      </trkpt>
      <trkpt lat="48.57753" lon="2.99177">
        <ele>114.6</ele>
        <time>2025-03-16T02:54:31Z</time>
      </trkpt>
      <trkpt lat="48.57729" lon="2.99196">
        <ele>115.2</ele>
        <time>2025-03-16T02:54:50Z</time>
      </trkpt>
      <trkpt lat="48.57719" lon="2.99204">
        <ele>118.6</ele>
        <time>2025-03-16T02:54:58Z</time>
      </trkpt>
      <trkpt lat="48.57702" lon="2.99222">
        <ele>116.4</ele>
        <time>2025-03-16T02:55:13Z</time>
      </trkpt>
      <trkpt lat="48.57684" lon="2.99238">
        <ele>112.8</ele>
        <time>2025-03-16T02:55:27Z</time>
      </trkpt>
      <trkpt lat="48.57667" lon="2.9925">
        <ele>115.8</ele>
        <time>2025-03-16T02:55:40Z</time>
      </trkpt>
      <trkpt lat="48.57645" lon="2.99281">
        <ele>116.8</ele>
        <time>2025-03-16T02:56:02Z</time>
      </trkpt>
      <trkpt lat="48.57625" lon="2.99308">
        <ele>116.2</ele>
        <time>2025-03-16T02:56:21Z</time>
      </trkpt>
      <trkpt lat="48.57605" lon="2.99337">
        <ele>116.4</ele>
        <time>2025-03-16T02:56:40Z</time>
      </trkpt>
      <trkpt lat="48.57599" lon="2.99339">
        <ele>116.4</ele>
        <time>2025-03-16T02:56:44Z</time>
      </trkpt>
      <trkpt lat="48.57596" lon="2.99336">
        <ele>117.4</ele>
        <time>2025-03-16T02:56:57Z</time>
      </trkpt>
      <trkpt lat="48.57595" lon="2.99336">
        <ele>116.4</ele>
        <time>2025-03-16T02:57:23Z</time>
      </trkpt>
      <trkpt lat="48.57594" lon="2.99335">
        <ele>116.8</ele>
        <time>2025-03-16T02:57:35Z</time>
      </trkpt>
      <trkpt lat="48.57593" lon="2.99333">
        <ele>116</ele>
        <time>2025-03-16T02:57:37Z</time>
      </trkpt>
      <trkpt lat="48.57591" lon="2.99332">
        <ele>115.8</ele>
        <time>2025-03-16T02:57:38Z</time>
      </trkpt>
      <trkpt lat="48.5759" lon="2.99332">
        <ele>115</ele>
        <time>2025-03-16T02:57:39Z</time>
      </trkpt>
      <trkpt lat="48.57589" lon="2.99333">
        <ele>114.6</ele>
        <time>2025-03-16T02:57:40Z</time>
      </trkpt>
      <trkpt lat="48.57588" lon="2.99334">
        <ele>115</ele>
        <time>2025-03-16T02:57:41Z</time>
      </trkpt>
      <trkpt lat="48.57587" lon="2.99335">
        <ele>115.4</ele>
        <time>2025-03-16T02:57:42Z</time>
      </trkpt>
      <trkpt lat="48.57586" lon="2.99336">
        <ele>115.8</ele>
        <time>2025-03-16T02:57:43Z</time>
      </trkpt>
      <trkpt lat="48.57564" lon="2.99364">
        <ele>117</ele>
        <time>2025-03-16T02:58:02Z</time>
      </trkpt>
      <trkpt lat="48.57547" lon="2.99387">
        <ele>116</ele>
        <time>2025-03-16T02:58:18Z</time>
      </trkpt>
      <trkpt lat="48.57525" lon="2.99388">
        <ele>116.4</ele>
        <time>2025-03-16T02:58:34Z</time>
      </trkpt>
      <trkpt lat="48.575" lon="2.99386">
        <ele>119.4</ele>
        <time>2025-03-16T02:58:51Z</time>
      </trkpt>
      <trkpt lat="48.57471" lon="2.99381">
        <ele>117.6</ele>
        <time>2025-03-16T02:59:11Z</time>
      </trkpt>
      <trkpt lat="48.57442" lon="2.99379">
        <ele>116.6</ele>
        <time>2025-03-16T02:59:30Z</time>
      </trkpt>
      <trkpt lat="48.57412" lon="2.99375">
        <ele>117</ele>
        <time>2025-03-16T02:59:51Z</time>
      </trkpt>
      <trkpt lat="48.57382" lon="2.99369">
        <ele>117.4</ele>
        <time>2025-03-16T03:00:12Z</time>
      </trkpt>
      <trkpt lat="48.57355" lon="2.99366">
        <ele>118</ele>
        <time>2025-03-16T03:00:31Z</time>
      </trkpt>
      <trkpt lat="48.57328" lon="2.99363">
        <ele>118.8</ele>
        <time>2025-03-16T03:00:50Z</time>
      </trkpt>
      <trkpt lat="48.57294" lon="2.9936">
        <ele>119</ele>
        <time>2025-03-16T03:01:13Z</time>
      </trkpt>
      <trkpt lat="48.57265" lon="2.99357">
        <ele>119</ele>
        <time>2025-03-16T03:01:34Z</time>
      </trkpt>
      <trkpt lat="48.57236" lon="2.99352">
        <ele>119.2</ele>
        <time>2025-03-16T03:01:55Z</time>
      </trkpt>
      <trkpt lat="48.57207" lon="2.99348">
        <ele>118.8</ele>
        <time>2025-03-16T03:02:15Z</time>
      </trkpt>
      <trkpt lat="48.57175" lon="2.99345">
        <ele>118.8</ele>
        <time>2025-03-16T03:02:37Z</time>
      </trkpt>
      <trkpt lat="48.57146" lon="2.99342">
        <ele>118.8</ele>
        <time>2025-03-16T03:02:58Z</time>
      </trkpt>
      <trkpt lat="48.57113" lon="2.99337">
        <ele>117.6</ele>
        <time>2025-03-16T03:03:21Z</time>
      </trkpt>
      <trkpt lat="48.57089" lon="2.99339">
        <ele>117.8</ele>
        <time>2025-03-16T03:03:38Z</time>
      </trkpt>
      <trkpt lat="48.57074" lon="2.99358">
        <ele>117</ele>
        <time>2025-03-16T03:03:53Z</time>
      </trkpt>
      <trkpt lat="48.57074" lon="2.9936">
        <ele>117</ele>
        <time>2025-03-16T03:03:54Z</time>
      </trkpt>
      <trkpt lat="48.57073" lon="2.99362">
        <ele>117</ele>
        <time>2025-03-16T03:03:55Z</time>
      </trkpt>
      <trkpt lat="48.57073" lon="2.99364">
        <ele>117</ele>
        <time>2025-03-16T03:03:56Z</time>
      </trkpt>
      <trkpt lat="48.57073" lon="2.99366">
        <ele>117</ele>
        <time>2025-03-16T03:03:57Z</time>
      </trkpt>
      <trkpt lat="48.57074" lon="2.99411">
        <ele>117.2</ele>
        <time>2025-03-16T03:04:18Z</time>
      </trkpt>
      <trkpt lat="48.57077" lon="2.9945">
        <ele>117.8</ele>
        <time>2025-03-16T03:04:36Z</time>
      </trkpt>
      <trkpt lat="48.5708" lon="2.99499">
        <ele>117.6</ele>
        <time>2025-03-16T03:04:59Z</time>
      </trkpt>
      <trkpt lat="48.57084" lon="2.99547">
        <ele>118</ele>
        <time>2025-03-16T03:05:21Z</time>
      </trkpt>
      <trkpt lat="48.57087" lon="2.99592">
        <ele>118.6</ele>
        <time>2025-03-16T03:05:42Z</time>
      </trkpt>
      <trkpt lat="48.57091" lon="2.99633">
        <ele>118.6</ele>
        <time>2025-03-16T03:06:01Z</time>
      </trkpt>
      <trkpt lat="48.57089" lon="2.99677">
        <ele>118</ele>
        <time>2025-03-16T03:06:22Z</time>
      </trkpt>
      <trkpt lat="48.57071" lon="2.99697">
        <ele>118.6</ele>
        <time>2025-03-16T03:06:38Z</time>
      </trkpt>
      <trkpt lat="48.5704" lon="2.9971">
        <ele>117.4</ele>
        <time>2025-03-16T03:07:00Z</time>
      </trkpt>
      <trkpt lat="48.57013" lon="2.99732">
        <ele>117.8</ele>
        <time>2025-03-16T03:07:22Z</time>
      </trkpt>
      <trkpt lat="48.5699" lon="2.99765">
        <ele>117.8</ele>
        <time>2025-03-16T03:07:44Z</time>
      </trkpt>
      <trkpt lat="48.56974" lon="2.99796">
        <ele>118.2</ele>
        <time>2025-03-16T03:08:02Z</time>
      </trkpt>
      <trkpt lat="48.56958" lon="2.9984">
        <ele>116.4</ele>
        <time>2025-03-16T03:08:25Z</time>
      </trkpt>
      <trkpt lat="48.56947" lon="2.99882">
        <ele>117.6</ele>
        <time>2025-03-16T03:08:46Z</time>
      </trkpt>
      <trkpt lat="48.56938" lon="2.99928">
        <ele>117.2</ele>
        <time>2025-03-16T03:09:08Z</time>
      </trkpt>
      <trkpt lat="48.5693" lon="2.99967">
        <ele>116.6</ele>
        <time>2025-03-16T03:09:27Z</time>
      </trkpt>
      <trkpt lat="48.56912" lon="3.00015">
        <ele>116</ele>
        <time>2025-03-16T03:09:52Z</time>
      </trkpt>
      <trkpt lat="48.56887" lon="3.00046">
        <ele>115.6</ele>
        <time>2025-03-16T03:10:14Z</time>
      </trkpt>
      <trkpt lat="48.56863" lon="3.00071">
        <ele>115.8</ele>
        <time>2025-03-16T03:10:35Z</time>
      </trkpt>
      <trkpt lat="48.56832" lon="3.00097">
        <ele>115.8</ele>
        <time>2025-03-16T03:10:59Z</time>
      </trkpt>
      <trkpt lat="48.56804" lon="3.00124">
        <ele>116</ele>
        <time>2025-03-16T03:11:22Z</time>
      </trkpt>
      <trkpt lat="48.56783" lon="3.00155">
        <ele>116.2</ele>
        <time>2025-03-16T03:11:43Z</time>
      </trkpt>
      <trkpt lat="48.56765" lon="3.00185">
        <ele>116</ele>
        <time>2025-03-16T03:12:02Z</time>
      </trkpt>
      <trkpt lat="48.56744" lon="3.00227">
        <ele>117.2</ele>
        <time>2025-03-16T03:12:27Z</time>
      </trkpt>
      <trkpt lat="48.56726" lon="3.00266">
        <ele>118.4</ele>
        <time>2025-03-16T03:12:50Z</time>
      </trkpt>
      <trkpt lat="48.56708" lon="3.00308">
        <ele>118.4</ele>
        <time>2025-03-16T03:13:13Z</time>
      </trkpt>
      <trkpt lat="48.56686" lon="3.00347">
        <ele>119</ele>
        <time>2025-03-16T03:13:36Z</time>
      </trkpt>
      <trkpt lat="48.56669" lon="3.00381">
        <ele>118.2</ele>
        <time>2025-03-16T03:13:56Z</time>
      </trkpt>
      <trkpt lat="48.56678" lon="3.00424">
        <ele>119.2</ele>
        <time>2025-03-16T03:14:16Z</time>
      </trkpt>
      <trkpt lat="48.56689" lon="3.00465">
        <ele>119.2</ele>
        <time>2025-03-16T03:14:37Z</time>
      </trkpt>
      <trkpt lat="48.56704" lon="3.00502">
        <ele>118.6</ele>
        <time>2025-03-16T03:14:57Z</time>
      </trkpt>
      <trkpt lat="48.5672" lon="3.00541">
        <ele>118.8</ele>
        <time>2025-03-16T03:15:19Z</time>
      </trkpt>
      <trkpt lat="48.5671" lon="3.00582">
        <ele>119.8</ele>
        <time>2025-03-16T03:15:40Z</time>
      </trkpt>
      <trkpt lat="48.56687" lon="3.00614">
        <ele>120.4</ele>
        <time>2025-03-16T03:16:01Z</time>
      </trkpt>
      <trkpt lat="48.56665" lon="3.00646">
        <ele>120.4</ele>
        <time>2025-03-16T03:16:22Z</time>
      </trkpt>
      <trkpt lat="48.56644" lon="3.00676">
        <ele>120.2</ele>
        <time>2025-03-16T03:16:43Z</time>
      </trkpt>
      <trkpt lat="48.56619" lon="3.00709">
        <ele>120.8</ele>
        <time>2025-03-16T03:17:07Z</time>
      </trkpt>
      <trkpt lat="48.566" lon="3.00738">
        <ele>121.2</ele>
        <time>2025-03-16T03:17:26Z</time>
      </trkpt>
      <trkpt lat="48.56582" lon="3.00763">
        <ele>121.2</ele>
        <time>2025-03-16T03:17:42Z</time>
      </trkpt>
      <trkpt lat="48.56564" lon="3.00792">
        <ele>121</ele>
        <time>2025-03-16T03:18:02Z</time>
      </trkpt>
      <trkpt lat="48.56542" lon="3.00822">
        <ele>121</ele>
        <time>2025-03-16T03:18:22Z</time>
      </trkpt>
      <trkpt lat="48.56523" lon="3.00848">
        <ele>121.2</ele>
        <time>2025-03-16T03:18:40Z</time>
      </trkpt>
      <trkpt lat="48.56501" lon="3.00883">
        <ele>120.2</ele>
        <time>2025-03-16T03:19:02Z</time>
      </trkpt>
      <trkpt lat="48.56481" lon="3.00917">
        <ele>119.8</ele>
        <time>2025-03-16T03:19:23Z</time>
      </trkpt>
      <trkpt lat="48.56459" lon="3.00952">
        <ele>120.6</ele>
        <time>2025-03-16T03:19:45Z</time>
      </trkpt>
      <trkpt lat="48.56453" lon="3.00958">
        <ele>119.4</ele>
        <time>2025-03-16T03:19:51Z</time>
      </trkpt>
      <trkpt lat="48.56432" lon="3.00987">
        <ele>120</ele>
        <time>2025-03-16T03:20:10Z</time>
      </trkpt>
      <trkpt lat="48.56412" lon="3.01015">
        <ele>119.6</ele>
        <time>2025-03-16T03:20:29Z</time>
      </trkpt>
      <trkpt lat="48.56395" lon="3.01044">
        <ele>119.4</ele>
        <time>2025-03-16T03:20:47Z</time>
      </trkpt>
      <trkpt lat="48.56373" lon="3.01072">
        <ele>119.4</ele>
        <time>2025-03-16T03:21:08Z</time>
      </trkpt>
      <trkpt lat="48.56355" lon="3.01099">
        <ele>118</ele>
        <time>2025-03-16T03:21:25Z</time>
      </trkpt>
      <trkpt lat="48.56337" lon="3.0113">
        <ele>119.4</ele>
        <time>2025-03-16T03:21:45Z</time>
      </trkpt>
      <trkpt lat="48.56313" lon="3.01157">
        <ele>118.6</ele>
        <time>2025-03-16T03:22:05Z</time>
      </trkpt>
      <trkpt lat="48.56304" lon="3.01172">
        <ele>118.8</ele>
        <time>2025-03-16T03:22:14Z</time>
      </trkpt>
      <trkpt lat="48.56303" lon="3.01173">
        <ele>119</ele>
        <time>2025-03-16T03:22:15Z</time>
      </trkpt>
      <trkpt lat="48.56303" lon="3.01175">
        <ele>118.8</ele>
        <time>2025-03-16T03:22:16Z</time>
      </trkpt>
      <trkpt lat="48.56302" lon="3.01177">
        <ele>118.8</ele>
        <time>2025-03-16T03:22:17Z</time>
      </trkpt>
      <trkpt lat="48.56301" lon="3.01179">
        <ele>118.8</ele>
        <time>2025-03-16T03:22:18Z</time>
      </trkpt>
      <trkpt lat="48.56281" lon="3.01206">
        <ele>118.4</ele>
        <time>2025-03-16T03:22:37Z</time>
      </trkpt>
      <trkpt lat="48.56259" lon="3.01236">
        <ele>118.2</ele>
        <time>2025-03-16T03:22:57Z</time>
      </trkpt>
      <trkpt lat="48.56237" lon="3.01266">
        <ele>118.2</ele>
        <time>2025-03-16T03:23:18Z</time>
      </trkpt>
      <trkpt lat="48.56222" lon="3.01289">
        <ele>118.2</ele>
        <time>2025-03-16T03:23:34Z</time>
      </trkpt>
      <trkpt lat="48.56209" lon="3.01306">
        <ele>118.6</ele>
        <time>2025-03-16T03:23:53Z</time>
      </trkpt>
      <trkpt lat="48.56209" lon="3.01307">
        <ele>117</ele>
        <time>2025-03-16T03:24:26Z</time>
      </trkpt>
      <trkpt lat="48.56206" lon="3.01305">
        <ele>116.2</ele>
        <time>2025-03-16T03:24:38Z</time>
      </trkpt>
      <trkpt lat="48.56205" lon="3.01305">
        <ele>115.4</ele>
        <time>2025-03-16T03:24:39Z</time>
      </trkpt>
      <trkpt lat="48.56203" lon="3.01305">
        <ele>115</ele>
        <time>2025-03-16T03:24:40Z</time>
      </trkpt>
      <trkpt lat="48.56202" lon="3.01306">
        <ele>114.8</ele>
        <time>2025-03-16T03:24:41Z</time>
      </trkpt>
      <trkpt lat="48.56192" lon="3.01306">
        <ele>117</ele>
        <time>2025-03-16T03:24:47Z</time>
      </trkpt>
      <trkpt lat="48.5617" lon="3.01305">
        <ele>117.2</ele>
        <time>2025-03-16T03:25:04Z</time>
      </trkpt>
      <trkpt lat="48.5614" lon="3.0132">
        <ele>116.6</ele>
        <time>2025-03-16T03:25:25Z</time>
      </trkpt>
      <trkpt lat="48.56116" lon="3.01328">
        <ele>117.2</ele>
        <time>2025-03-16T03:25:42Z</time>
      </trkpt>
      <trkpt lat="48.56092" lon="3.0133">
        <ele>117.4</ele>
        <time>2025-03-16T03:25:58Z</time>
      </trkpt>
      <trkpt lat="48.56067" lon="3.0133">
        <ele>116.8</ele>
        <time>2025-03-16T03:26:15Z</time>
      </trkpt>
      <trkpt lat="48.56049" lon="3.0133">
        <ele>115.8</ele>
        <time>2025-03-16T03:26:32Z</time>
      </trkpt>
      <trkpt lat="48.56047" lon="3.0133">
        <ele>115.4</ele>
        <time>2025-03-16T03:26:34Z</time>
      </trkpt>
      <trkpt lat="48.56044" lon="3.01329">
        <ele>115.8</ele>
        <time>2025-03-16T03:26:36Z</time>
      </trkpt>
      <trkpt lat="48.56043" lon="3.01329">
        <ele>116.2</ele>
        <time>2025-03-16T03:26:37Z</time>
      </trkpt>
      <trkpt lat="48.56041" lon="3.0133">
        <ele>116.4</ele>
        <time>2025-03-16T03:26:38Z</time>
      </trkpt>
      <trkpt lat="48.56012" lon="3.01336">
        <ele>115.8</ele>
        <time>2025-03-16T03:26:59Z</time>
      </trkpt>
      <trkpt lat="48.55981" lon="3.0134">
        <ele>115.2</ele>
        <time>2025-03-16T03:27:20Z</time>
      </trkpt>
      <trkpt lat="48.55949" lon="3.01344">
        <ele>115.4</ele>
        <time>2025-03-16T03:27:41Z</time>
      </trkpt>
      <trkpt lat="48.55921" lon="3.01345">
        <ele>115.2</ele>
        <time>2025-03-16T03:28:01Z</time>
      </trkpt>
      <trkpt lat="48.55893" lon="3.01349">
        <ele>115.4</ele>
        <time>2025-03-16T03:28:21Z</time>
      </trkpt>
      <trkpt lat="48.55864" lon="3.01351">
        <ele>115.8</ele>
        <time>2025-03-16T03:28:42Z</time>
      </trkpt>
      <trkpt lat="48.55841" lon="3.01352">
        <ele>116.2</ele>
        <time>2025-03-16T03:28:59Z</time>
      </trkpt>
      <trkpt lat="48.55827" lon="3.01348">
        <ele>116</ele>
        <time>2025-03-16T03:29:09Z</time>
      </trkpt>
      <trkpt lat="48.55825" lon="3.01347">
        <ele>116</ele>
        <time>2025-03-16T03:29:10Z</time>
      </trkpt>
      <trkpt lat="48.55806" lon="3.01351">
        <ele>117.2</ele>
        <time>2025-03-16T03:29:26Z</time>
      </trkpt>
      <trkpt lat="48.55774" lon="3.01358">
        <ele>116.4</ele>
        <time>2025-03-16T03:29:48Z</time>
      </trkpt>
      <trkpt lat="48.55753" lon="3.01363">
        <ele>117.4</ele>
        <time>2025-03-16T03:30:02Z</time>
      </trkpt>
      <trkpt lat="48.5573" lon="3.01367">
        <ele>118.6</ele>
        <time>2025-03-16T03:30:21Z</time>
      </trkpt>
      <trkpt lat="48.55704" lon="3.01365">
        <ele>118.6</ele>
        <time>2025-03-16T03:30:39Z</time>
      </trkpt>
      <trkpt lat="48.55677" lon="3.01367">
        <ele>119.6</ele>
        <time>2025-03-16T03:30:59Z</time>
      </trkpt>
      <trkpt lat="48.55668" lon="3.01373">
        <ele>118.6</ele>
        <time>2025-03-16T03:31:09Z</time>
      </trkpt>
      <trkpt lat="48.55637" lon="3.0137">
        <ele>121</ele>
        <time>2025-03-16T03:31:28Z</time>
      </trkpt>
      <trkpt lat="48.55627" lon="3.01365">
        <ele>123</ele>
        <time>2025-03-16T03:31:33Z</time>
      </trkpt>
      <trkpt lat="48.55603" lon="3.0137">
        <ele>120.6</ele>
        <time>2025-03-16T03:31:52Z</time>
      </trkpt>
      <trkpt lat="48.55598" lon="3.01372">
        <ele>123.2</ele>
        <time>2025-03-16T03:31:56Z</time>
      </trkpt>
      <trkpt lat="48.55571" lon="3.01374">
        <ele>122.8</ele>
        <time>2025-03-16T03:32:16Z</time>
      </trkpt>
      <trkpt lat="48.55544" lon="3.01379">
        <ele>122.2</ele>
        <time>2025-03-16T03:32:34Z</time>
      </trkpt>
      <trkpt lat="48.55518" lon="3.0138">
        <ele>123</ele>
        <time>2025-03-16T03:32:51Z</time>
      </trkpt>
      <trkpt lat="48.55494" lon="3.01378">
        <ele>122.2</ele>
        <time>2025-03-16T03:33:09Z</time>
      </trkpt>
      <trkpt lat="48.5549" lon="3.0136">
        <ele>122</ele>
        <time>2025-03-16T03:33:24Z</time>
      </trkpt>
      <trkpt lat="48.55487" lon="3.01358">
        <ele>125</ele>
        <time>2025-03-16T03:33:34Z</time>
      </trkpt>
      <trkpt lat="48.55486" lon="3.01357">
        <ele>122</ele>
        <time>2025-03-16T03:33:47Z</time>
      </trkpt>
      <trkpt lat="48.55485" lon="3.01356">
        <ele>121.6</ele>
        <time>2025-03-16T03:34:15Z</time>
      </trkpt>
      <trkpt lat="48.55485" lon="3.01356">
        <ele>121.4</ele>
        <time>2025-03-16T03:34:21Z</time>
      </trkpt>
      <trkpt lat="48.55488" lon="3.01357">
        <ele>135.4</ele>
        <time>2025-03-16T03:41:32Z</time>
      </trkpt>
      <trkpt lat="48.55488" lon="3.01356">
        <ele>119.8</ele>
        <time>2025-03-16T03:41:34Z</time>
      </trkpt>
      <trkpt lat="48.55488" lon="3.01351">
        <ele>119.8</ele>
        <time>2025-03-16T03:41:44Z</time>
      </trkpt>
      <trkpt lat="48.5546" lon="3.01668">
        <ele>147</ele>
        <time>2025-03-16T03:56:43Z</time>
      </trkpt>
      <trkpt lat="48.55461" lon="3.01672">
        <ele>147</ele>
        <time>2025-03-16T03:56:44Z</time>
      </trkpt>
      <trkpt lat="48.55461" lon="3.01675">
        <ele>119.8</ele>
        <time>2025-03-16T03:56:46Z</time>
      </trkpt>
      <trkpt lat="48.55462" lon="3.01677">
        <ele>119.8</ele>
        <time>2025-03-16T03:56:47Z</time>
      </trkpt>
      <trkpt lat="48.55463" lon="3.01679">
        <ele>119.8</ele>
        <time>2025-03-16T03:56:48Z</time>
      </trkpt>
      <trkpt lat="48.55463" lon="3.01681">
        <ele>119.6</ele>
        <time>2025-03-16T03:56:49Z</time>
      </trkpt>
      <trkpt lat="48.55464" lon="3.01684">
        <ele>119.4</ele>
        <time>2025-03-16T03:56:50Z</time>
      </trkpt>
      <trkpt lat="48.55465" lon="3.01695">
        <ele>119.4</ele>
        <time>2025-03-16T03:56:56Z</time>
      </trkpt>
      <trkpt lat="48.55466" lon="3.01696">
        <ele>119.4</ele>
        <time>2025-03-16T03:56:57Z</time>
      </trkpt>
      <trkpt lat="48.55467" lon="3.01698">
        <ele>119.4</ele>
        <time>2025-03-16T03:56:58Z</time>
      </trkpt>
      <trkpt lat="48.55467" lon="3.01699">
        <ele>119.2</ele>
        <time>2025-03-16T03:56:59Z</time>
      </trkpt>
      <trkpt lat="48.55468" lon="3.01701">
        <ele>118.6</ele>
        <time>2025-03-16T03:57:00Z</time>
      </trkpt>
      <trkpt lat="48.55468" lon="3.01704">
        <ele>117.4</ele>
        <time>2025-03-16T03:57:01Z</time>
      </trkpt>
      <trkpt lat="48.55469" lon="3.01706">
        <ele>116.8</ele>
        <time>2025-03-16T03:57:02Z</time>
      </trkpt>
      <trkpt lat="48.55469" lon="3.01707">
        <ele>116.4</ele>
        <time>2025-03-16T03:57:03Z</time>
      </trkpt>
      <trkpt lat="48.55469" lon="3.01709">
        <ele>116</ele>
        <time>2025-03-16T03:57:04Z</time>
      </trkpt>
      <trkpt lat="48.55469" lon="3.01711">
        <ele>115.8</ele>
        <time>2025-03-16T03:57:05Z</time>
      </trkpt>
      <trkpt lat="48.55469" lon="3.01721">
        <ele>117.8</ele>
        <time>2025-03-16T03:57:10Z</time>
      </trkpt>
      <trkpt lat="48.55474" lon="3.0175">
        <ele>121</ele>
        <time>2025-03-16T03:57:23Z</time>
      </trkpt>
      <trkpt lat="48.55478" lon="3.01794">
        <ele>121</ele>
        <time>2025-03-16T03:57:43Z</time>
      </trkpt>
      <trkpt lat="48.55485" lon="3.01831">
        <ele>121.6</ele>
        <time>2025-03-16T03:58:01Z</time>
      </trkpt>
      <trkpt lat="48.55494" lon="3.01869">
        <ele>121.6</ele>
        <time>2025-03-16T03:58:19Z</time>
      </trkpt>
      <trkpt lat="48.55494" lon="3.0187">
        <ele>121.6</ele>
        <time>2025-03-16T03:58:20Z</time>
      </trkpt>
      <trkpt lat="48.55495" lon="3.01872">
        <ele>121.4</ele>
        <time>2025-03-16T03:58:21Z</time>
      </trkpt>
      <trkpt lat="48.55496" lon="3.01873">
        <ele>121</ele>
        <time>2025-03-16T03:58:22Z</time>
      </trkpt>
      <trkpt lat="48.55497" lon="3.01874">
        <ele>120.8</ele>
        <time>2025-03-16T03:58:23Z</time>
      </trkpt>
      <trkpt lat="48.55499" lon="3.01875">
        <ele>120.8</ele>
        <time>2025-03-16T03:58:24Z</time>
      </trkpt>
      <trkpt lat="48.55503" lon="3.01884">
        <ele>123.4</ele>
        <time>2025-03-16T03:58:30Z</time>
      </trkpt>
      <trkpt lat="48.55499" lon="3.01919">
        <ele>122.8</ele>
        <time>2025-03-16T03:58:48Z</time>
      </trkpt>
      <trkpt lat="48.55485" lon="3.01958">
        <ele>123.8</ele>
        <time>2025-03-16T03:59:08Z</time>
      </trkpt>
      <trkpt lat="48.55483" lon="3.01967">
        <ele>123.6</ele>
        <time>2025-03-16T03:59:12Z</time>
      </trkpt>
      <trkpt lat="48.55483" lon="3.01969">
        <ele>123</ele>
        <time>2025-03-16T03:59:13Z</time>
      </trkpt>
      <trkpt lat="48.55482" lon="3.01971">
        <ele>122.6</ele>
        <time>2025-03-16T03:59:14Z</time>
      </trkpt>
      <trkpt lat="48.55482" lon="3.01973">
        <ele>122.4</ele>
        <time>2025-03-16T03:59:15Z</time>
      </trkpt>
      <trkpt lat="48.55482" lon="3.01975">
        <ele>122.4</ele>
        <time>2025-03-16T03:59:16Z</time>
      </trkpt>
      <trkpt lat="48.55482" lon="3.01977">
        <ele>122.2</ele>
        <time>2025-03-16T03:59:17Z</time>
      </trkpt>
      <trkpt lat="48.55481" lon="3.01979">
        <ele>122.4</ele>
        <time>2025-03-16T03:59:18Z</time>
      </trkpt>
      <trkpt lat="48.55481" lon="3.01983">
        <ele>122.8</ele>
        <time>2025-03-16T03:59:20Z</time>
      </trkpt>
      <trkpt lat="48.55482" lon="3.01985">
        <ele>122.8</ele>
        <time>2025-03-16T03:59:21Z</time>
      </trkpt>
      <trkpt lat="48.55482" lon="3.01987">
        <ele>122.8</ele>
        <time>2025-03-16T03:59:22Z</time>
      </trkpt>
      <trkpt lat="48.55482" lon="3.01989">
        <ele>122.8</ele>
        <time>2025-03-16T03:59:23Z</time>
      </trkpt>
      <trkpt lat="48.55482" lon="3.01991">
        <ele>122.6</ele>
        <time>2025-03-16T03:59:24Z</time>
      </trkpt>
      <trkpt lat="48.55481" lon="3.01994">
        <ele>122.6</ele>
        <time>2025-03-16T03:59:25Z</time>
      </trkpt>
      <trkpt lat="48.55477" lon="3.0204">
        <ele>122.2</ele>
        <time>2025-03-16T03:59:45Z</time>
      </trkpt>
      <trkpt lat="48.55473" lon="3.02077">
        <ele>121.8</ele>
        <time>2025-03-16T04:00:01Z</time>
      </trkpt>
      <trkpt lat="48.55468" lon="3.02118">
        <ele>121.2</ele>
        <time>2025-03-16T04:00:20Z</time>
      </trkpt>
      <trkpt lat="48.55464" lon="3.02152">
        <ele>121</ele>
        <time>2025-03-16T04:00:36Z</time>
      </trkpt>
      <trkpt lat="48.5546" lon="3.02189">
        <ele>120.6</ele>
        <time>2025-03-16T04:00:53Z</time>
      </trkpt>
      <trkpt lat="48.5546" lon="3.02191">
        <ele>120.6</ele>
        <time>2025-03-16T04:00:54Z</time>
      </trkpt>
      <trkpt lat="48.5546" lon="3.02193">
        <ele>120.6</ele>
        <time>2025-03-16T04:00:55Z</time>
      </trkpt>
      <trkpt lat="48.5546" lon="3.02195">
        <ele>120.6</ele>
        <time>2025-03-16T04:00:56Z</time>
      </trkpt>
      <trkpt lat="48.5546" lon="3.02197">
        <ele>120.8</ele>
        <time>2025-03-16T04:00:57Z</time>
      </trkpt>
      <trkpt lat="48.5546" lon="3.02199">
        <ele>120.8</ele>
        <time>2025-03-16T04:00:58Z</time>
      </trkpt>
      <trkpt lat="48.5546" lon="3.02202">
        <ele>120.8</ele>
        <time>2025-03-16T04:00:59Z</time>
      </trkpt>
      <trkpt lat="48.5546" lon="3.02204">
        <ele>120.8</ele>
        <time>2025-03-16T04:01:00Z</time>
      </trkpt>
      <trkpt lat="48.55456" lon="3.02238">
        <ele>120.4</ele>
        <time>2025-03-16T04:01:16Z</time>
      </trkpt>
      <trkpt lat="48.55455" lon="3.02274">
        <ele>120.8</ele>
        <time>2025-03-16T04:01:33Z</time>
      </trkpt>
      <trkpt lat="48.55449" lon="3.02311">
        <ele>121</ele>
        <time>2025-03-16T04:01:49Z</time>
      </trkpt>
      <trkpt lat="48.55449" lon="3.02313">
        <ele>121</ele>
        <time>2025-03-16T04:01:50Z</time>
      </trkpt>
      <trkpt lat="48.55449" lon="3.02315">
        <ele>121</ele>
        <time>2025-03-16T04:01:51Z</time>
      </trkpt>
      <trkpt lat="48.55449" lon="3.02318">
        <ele>121.2</ele>
        <time>2025-03-16T04:01:52Z</time>
      </trkpt>
      <trkpt lat="48.55449" lon="3.0232">
        <ele>121.2</ele>
        <time>2025-03-16T04:01:53Z</time>
      </trkpt>
      <trkpt lat="48.55448" lon="3.02322">
        <ele>121.2</ele>
        <time>2025-03-16T04:01:54Z</time>
      </trkpt>
      <trkpt lat="48.55446" lon="3.0236">
        <ele>121</ele>
        <time>2025-03-16T04:02:12Z</time>
      </trkpt>
      <trkpt lat="48.55442" lon="3.02402">
        <ele>121.8</ele>
        <time>2025-03-16T04:02:31Z</time>
      </trkpt>
      <trkpt lat="48.55445" lon="3.02443">
        <ele>120.8</ele>
        <time>2025-03-16T04:02:49Z</time>
      </trkpt>
      <trkpt lat="48.5545" lon="3.02483">
        <ele>122.4</ele>
        <time>2025-03-16T04:03:09Z</time>
      </trkpt>
      <trkpt lat="48.55461" lon="3.02517">
        <ele>122.8</ele>
        <time>2025-03-16T04:03:26Z</time>
      </trkpt>
      <trkpt lat="48.55472" lon="3.02546">
        <ele>123</ele>
        <time>2025-03-16T04:03:43Z</time>
      </trkpt>
      <trkpt lat="48.55483" lon="3.02585">
        <ele>122.8</ele>
        <time>2025-03-16T04:04:02Z</time>
      </trkpt>
      <trkpt lat="48.55488" lon="3.02628">
        <ele>122.2</ele>
        <time>2025-03-16T04:04:21Z</time>
      </trkpt>
      <trkpt lat="48.55497" lon="3.02667">
        <ele>121.6</ele>
        <time>2025-03-16T04:04:39Z</time>
      </trkpt>
      <trkpt lat="48.55509" lon="3.0271">
        <ele>120.6</ele>
        <time>2025-03-16T04:05:00Z</time>
      </trkpt>
      <trkpt lat="48.55513" lon="3.0273">
        <ele>119.8</ele>
        <time>2025-03-16T04:05:09Z</time>
      </trkpt>
      <trkpt lat="48.55518" lon="3.02773">
        <ele>120.4</ele>
        <time>2025-03-16T04:05:28Z</time>
      </trkpt>
      <trkpt lat="48.55521" lon="3.02812">
        <ele>120</ele>
        <time>2025-03-16T04:05:46Z</time>
      </trkpt>
      <trkpt lat="48.55525" lon="3.02854">
        <ele>119.8</ele>
        <time>2025-03-16T04:06:05Z</time>
      </trkpt>
      <trkpt lat="48.55527" lon="3.02902">
        <ele>119.8</ele>
        <time>2025-03-16T04:06:27Z</time>
      </trkpt>
      <trkpt lat="48.55529" lon="3.02948">
        <ele>119.8</ele>
        <time>2025-03-16T04:06:48Z</time>
      </trkpt>
      <trkpt lat="48.5553" lon="3.02985">
        <ele>119</ele>
        <time>2025-03-16T04:07:05Z</time>
      </trkpt>
      <trkpt lat="48.55527" lon="3.03029">
        <ele>118.6</ele>
        <time>2025-03-16T04:07:25Z</time>
      </trkpt>
      <trkpt lat="48.55524" lon="3.0307">
        <ele>118.4</ele>
        <time>2025-03-16T04:07:44Z</time>
      </trkpt>
      <trkpt lat="48.5552" lon="3.03116">
        <ele>118</ele>
        <time>2025-03-16T04:08:05Z</time>
      </trkpt>
      <trkpt lat="48.55518" lon="3.0316">
        <ele>117.8</ele>
        <time>2025-03-16T04:08:25Z</time>
      </trkpt>
      <trkpt lat="48.55515" lon="3.03205">
        <ele>118</ele>
        <time>2025-03-16T04:08:46Z</time>
      </trkpt>
      <trkpt lat="48.55509" lon="3.03244">
        <ele>118.2</ele>
        <time>2025-03-16T04:09:05Z</time>
      </trkpt>
      <trkpt lat="48.55503" lon="3.03283">
        <ele>117.6</ele>
        <time>2025-03-16T04:09:24Z</time>
      </trkpt>
      <trkpt lat="48.55495" lon="3.03327">
        <ele>117.6</ele>
        <time>2025-03-16T04:09:45Z</time>
      </trkpt>
      <trkpt lat="48.55488" lon="3.03369">
        <ele>117.6</ele>
        <time>2025-03-16T04:10:05Z</time>
      </trkpt>
      <trkpt lat="48.55483" lon="3.034">
        <ele>117</ele>
        <time>2025-03-16T04:10:20Z</time>
      </trkpt>
      <trkpt lat="48.55477" lon="3.03444">
        <ele>117.4</ele>
        <time>2025-03-16T04:10:40Z</time>
      </trkpt>
      <trkpt lat="48.55475" lon="3.03482">
        <ele>116.6</ele>
        <time>2025-03-16T04:10:57Z</time>
      </trkpt>
      <trkpt lat="48.55471" lon="3.03524">
        <ele>116</ele>
        <time>2025-03-16T04:11:16Z</time>
      </trkpt>
      <trkpt lat="48.55471" lon="3.03528">
        <ele>116.2</ele>
        <time>2025-03-16T04:11:18Z</time>
      </trkpt>
      <trkpt lat="48.55468" lon="3.03573">
        <ele>115.8</ele>
        <time>2025-03-16T04:11:39Z</time>
      </trkpt>
      <trkpt lat="48.55463" lon="3.03626">
        <ele>115.8</ele>
        <time>2025-03-16T04:12:03Z</time>
      </trkpt>
      <trkpt lat="48.5546" lon="3.03666">
        <ele>115.6</ele>
        <time>2025-03-16T04:12:22Z</time>
      </trkpt>
      <trkpt lat="48.55456" lon="3.03707">
        <ele>116.2</ele>
        <time>2025-03-16T04:12:41Z</time>
      </trkpt>
      <trkpt lat="48.55444" lon="3.03744">
        <ele>115.6</ele>
        <time>2025-03-16T04:13:00Z</time>
      </trkpt>
      <trkpt lat="48.55423" lon="3.03778">
        <ele>116</ele>
        <time>2025-03-16T04:13:21Z</time>
      </trkpt>
      <trkpt lat="48.55407" lon="3.0381">
        <ele>116.4</ele>
        <time>2025-03-16T04:13:40Z</time>
      </trkpt>
      <trkpt lat="48.55395" lon="3.03851">
        <ele>117</ele>
        <time>2025-03-16T04:14:02Z</time>
      </trkpt>
      <trkpt lat="48.55385" lon="3.03895">
        <ele>119.4</ele>
        <time>2025-03-16T04:14:25Z</time>
      </trkpt>
      <trkpt lat="48.55373" lon="3.03944">
        <ele>122.2</ele>
        <time>2025-03-16T04:14:48Z</time>
      </trkpt>
      <trkpt lat="48.55363" lon="3.03988">
        <ele>122.4</ele>
        <time>2025-03-16T04:15:08Z</time>
      </trkpt>
      <trkpt lat="48.55357" lon="3.04025">
        <ele>123</ele>
        <time>2025-03-16T04:15:27Z</time>
      </trkpt>
      <trkpt lat="48.55352" lon="3.04066">
        <ele>122.8</ele>
        <time>2025-03-16T04:15:47Z</time>
      </trkpt>
      <trkpt lat="48.55343" lon="3.04103">
        <ele>123.6</ele>
        <time>2025-03-16T04:16:06Z</time>
      </trkpt>
      <trkpt lat="48.55332" lon="3.04146">
        <ele>125</ele>
        <time>2025-03-16T04:16:27Z</time>
      </trkpt>
      <trkpt lat="48.55325" lon="3.04187">
        <ele>126</ele>
        <time>2025-03-16T04:16:46Z</time>
      </trkpt>
      <trkpt lat="48.55324" lon="3.04231">
        <ele>126.8</ele>
        <time>2025-03-16T04:17:06Z</time>
      </trkpt>
      <trkpt lat="48.55324" lon="3.04234">
        <ele>127.4</ele>
        <time>2025-03-16T04:17:07Z</time>
      </trkpt>
      <trkpt lat="48.55324" lon="3.04236">
        <ele>128</ele>
        <time>2025-03-16T04:17:08Z</time>
      </trkpt>
      <trkpt lat="48.55324" lon="3.04238">
        <ele>128.4</ele>
        <time>2025-03-16T04:17:09Z</time>
      </trkpt>
      <trkpt lat="48.55324" lon="3.0424">
        <ele>128.6</ele>
        <time>2025-03-16T04:17:10Z</time>
      </trkpt>
      <trkpt lat="48.5532" lon="3.04278">
        <ele>129</ele>
        <time>2025-03-16T04:17:29Z</time>
      </trkpt>
      <trkpt lat="48.55312" lon="3.04316">
        <ele>129.2</ele>
        <time>2025-03-16T04:17:46Z</time>
      </trkpt>
      <trkpt lat="48.55302" lon="3.04356">
        <ele>127.8</ele>
        <time>2025-03-16T04:18:05Z</time>
      </trkpt>
      <trkpt lat="48.55292" lon="3.04406">
        <ele>125.8</ele>
        <time>2025-03-16T04:18:28Z</time>
      </trkpt>
      <trkpt lat="48.55285" lon="3.04448">
        <ele>124.8</ele>
        <time>2025-03-16T04:18:48Z</time>
      </trkpt>
      <trkpt lat="48.55281" lon="3.04491">
        <ele>124</ele>
        <time>2025-03-16T04:19:08Z</time>
      </trkpt>
      <trkpt lat="48.55278" lon="3.04535">
        <ele>124</ele>
        <time>2025-03-16T04:19:28Z</time>
      </trkpt>
      <trkpt lat="48.55278" lon="3.04576">
        <ele>123</ele>
        <time>2025-03-16T04:19:47Z</time>
      </trkpt>
      <trkpt lat="48.55275" lon="3.04629">
        <ele>123</ele>
        <time>2025-03-16T04:20:11Z</time>
      </trkpt>
      <trkpt lat="48.55276" lon="3.04675">
        <ele>122.8</ele>
        <time>2025-03-16T04:20:33Z</time>
      </trkpt>
      <trkpt lat="48.55275" lon="3.04726">
        <ele>122.4</ele>
        <time>2025-03-16T04:20:56Z</time>
      </trkpt>
      <trkpt lat="48.55273" lon="3.04767">
        <ele>122.2</ele>
        <time>2025-03-16T04:21:15Z</time>
      </trkpt>
      <trkpt lat="48.55272" lon="3.04811">
        <ele>121.8</ele>
        <time>2025-03-16T04:21:35Z</time>
      </trkpt>
      <trkpt lat="48.5527" lon="3.04859">
        <ele>121.6</ele>
        <time>2025-03-16T04:21:57Z</time>
      </trkpt>
      <trkpt lat="48.55267" lon="3.04904">
        <ele>121.8</ele>
        <time>2025-03-16T04:22:18Z</time>
      </trkpt>
      <trkpt lat="48.55265" lon="3.04947">
        <ele>121.2</ele>
        <time>2025-03-16T04:22:38Z</time>
      </trkpt>
      <trkpt lat="48.55264" lon="3.04986">
        <ele>121</ele>
        <time>2025-03-16T04:22:56Z</time>
      </trkpt>
      <trkpt lat="48.55263" lon="3.05025">
        <ele>121</ele>
        <time>2025-03-16T04:23:15Z</time>
      </trkpt>
      <trkpt lat="48.55258" lon="3.0507">
        <ele>121.6</ele>
        <time>2025-03-16T04:23:36Z</time>
      </trkpt>
      <trkpt lat="48.55254" lon="3.05114">
        <ele>121.8</ele>
        <time>2025-03-16T04:23:56Z</time>
      </trkpt>
      <trkpt lat="48.55252" lon="3.05153">
        <ele>122.2</ele>
        <time>2025-03-16T04:24:15Z</time>
      </trkpt>
      <trkpt lat="48.55248" lon="3.05195">
        <ele>122.2</ele>
        <time>2025-03-16T04:24:34Z</time>
      </trkpt>
      <trkpt lat="48.55247" lon="3.05238">
        <ele>122.6</ele>
        <time>2025-03-16T04:24:54Z</time>
      </trkpt>
      <trkpt lat="48.55246" lon="3.05282">
        <ele>123.4</ele>
        <time>2025-03-16T04:25:15Z</time>
      </trkpt>
      <trkpt lat="48.55243" lon="3.05322">
        <ele>123.4</ele>
        <time>2025-03-16T04:25:34Z</time>
      </trkpt>
      <trkpt lat="48.55242" lon="3.05366">
        <ele>124.6</ele>
        <time>2025-03-16T04:25:54Z</time>
      </trkpt>
      <trkpt lat="48.55239" lon="3.05408">
        <ele>124.6</ele>
        <time>2025-03-16T04:26:14Z</time>
      </trkpt>
      <trkpt lat="48.55236" lon="3.05455">
        <ele>123.6</ele>
        <time>2025-03-16T04:26:35Z</time>
      </trkpt>
      <trkpt lat="48.55232" lon="3.0549">
        <ele>123.8</ele>
        <time>2025-03-16T04:26:52Z</time>
      </trkpt>
      <trkpt lat="48.55232" lon="3.05514">
        <ele>124</ele>
        <time>2025-03-16T04:27:03Z</time>
      </trkpt>
      <trkpt lat="48.55232" lon="3.05516">
        <ele>124</ele>
        <time>2025-03-16T04:27:04Z</time>
      </trkpt>
      <trkpt lat="48.55227" lon="3.05563">
        <ele>124.4</ele>
        <time>2025-03-16T04:27:26Z</time>
      </trkpt>
      <trkpt lat="48.55219" lon="3.05609">
        <ele>124.4</ele>
        <time>2025-03-16T04:27:48Z</time>
      </trkpt>
      <trkpt lat="48.55212" lon="3.05649">
        <ele>124.8</ele>
        <time>2025-03-16T04:28:07Z</time>
      </trkpt>
      <trkpt lat="48.55203" lon="3.05684">
        <ele>124.8</ele>
        <time>2025-03-16T04:28:25Z</time>
      </trkpt>
      <trkpt lat="48.55189" lon="3.05722">
        <ele>126</ele>
        <time>2025-03-16T04:28:45Z</time>
      </trkpt>
      <trkpt lat="48.55175" lon="3.05759">
        <ele>127</ele>
        <time>2025-03-16T04:29:05Z</time>
      </trkpt>
      <trkpt lat="48.55161" lon="3.05797">
        <ele>128.4</ele>
        <time>2025-03-16T04:29:26Z</time>
      </trkpt>
      <trkpt lat="48.5515" lon="3.0583">
        <ele>128.4</ele>
        <time>2025-03-16T04:29:43Z</time>
      </trkpt>
      <trkpt lat="48.55136" lon="3.05861">
        <ele>130.2</ele>
        <time>2025-03-16T04:30:01Z</time>
      </trkpt>
      <trkpt lat="48.55123" lon="3.05898">
        <ele>131.6</ele>
        <time>2025-03-16T04:30:20Z</time>
      </trkpt>
      <trkpt lat="48.55113" lon="3.05933">
        <ele>133</ele>
        <time>2025-03-16T04:30:38Z</time>
      </trkpt>
      <trkpt lat="48.55105" lon="3.05973">
        <ele>134.2</ele>
        <time>2025-03-16T04:30:58Z</time>
      </trkpt>
      <trkpt lat="48.55106" lon="3.06011">
        <ele>134.8</ele>
        <time>2025-03-16T04:31:16Z</time>
      </trkpt>
      <trkpt lat="48.55114" lon="3.06046">
        <ele>134.2</ele>
        <time>2025-03-16T04:31:33Z</time>
      </trkpt>
      <trkpt lat="48.55119" lon="3.06083">
        <ele>134.8</ele>
        <time>2025-03-16T04:31:50Z</time>
      </trkpt>
      <trkpt lat="48.55111" lon="3.06128">
        <ele>135</ele>
        <time>2025-03-16T04:32:10Z</time>
      </trkpt>
      <trkpt lat="48.55097" lon="3.06166">
        <ele>134.8</ele>
        <time>2025-03-16T04:32:29Z</time>
      </trkpt>
      <trkpt lat="48.55085" lon="3.06204">
        <ele>135</ele>
        <time>2025-03-16T04:32:48Z</time>
      </trkpt>
      <trkpt lat="48.55071" lon="3.06245">
        <ele>135.2</ele>
        <time>2025-03-16T04:33:09Z</time>
      </trkpt>
      <trkpt lat="48.5506" lon="3.06286">
        <ele>135.6</ele>
        <time>2025-03-16T04:33:29Z</time>
      </trkpt>
      <trkpt lat="48.55055" lon="3.06328">
        <ele>136.4</ele>
        <time>2025-03-16T04:33:49Z</time>
      </trkpt>
      <trkpt lat="48.55057" lon="3.06368">
        <ele>137.4</ele>
        <time>2025-03-16T04:34:08Z</time>
      </trkpt>
      <trkpt lat="48.55062" lon="3.06405">
        <ele>136.8</ele>
        <time>2025-03-16T04:34:25Z</time>
      </trkpt>
      <trkpt lat="48.55067" lon="3.06428">
        <ele>137.8</ele>
        <time>2025-03-16T04:34:36Z</time>
      </trkpt>
      <trkpt lat="48.55068" lon="3.06431">
        <ele>137.6</ele>
        <time>2025-03-16T04:34:37Z</time>
      </trkpt>
      <trkpt lat="48.55068" lon="3.06433">
        <ele>137.6</ele>
        <time>2025-03-16T04:34:38Z</time>
      </trkpt>
      <trkpt lat="48.55068" lon="3.06435">
        <ele>137.2</ele>
        <time>2025-03-16T04:34:39Z</time>
      </trkpt>
      <trkpt lat="48.55068" lon="3.06437">
        <ele>137.2</ele>
        <time>2025-03-16T04:34:40Z</time>
      </trkpt>
      <trkpt lat="48.55073" lon="3.0648">
        <ele>136.2</ele>
        <time>2025-03-16T04:35:00Z</time>
      </trkpt>
      <trkpt lat="48.55066" lon="3.06518">
        <ele>135.2</ele>
        <time>2025-03-16T04:35:19Z</time>
      </trkpt>
      <trkpt lat="48.55044" lon="3.06543">
        <ele>134.4</ele>
        <time>2025-03-16T04:35:38Z</time>
      </trkpt>
      <trkpt lat="48.55022" lon="3.06567">
        <ele>132.8</ele>
        <time>2025-03-16T04:35:57Z</time>
      </trkpt>
      <trkpt lat="48.55007" lon="3.06599">
        <ele>132.4</ele>
        <time>2025-03-16T04:36:15Z</time>
      </trkpt>
      <trkpt lat="48.55003" lon="3.06637">
        <ele>131.6</ele>
        <time>2025-03-16T04:36:33Z</time>
      </trkpt>
      <trkpt lat="48.54995" lon="3.06667">
        <ele>129.8</ele>
        <time>2025-03-16T04:36:49Z</time>
      </trkpt>
      <trkpt lat="48.54992" lon="3.06672">
        <ele>128.6</ele>
        <time>2025-03-16T04:36:52Z</time>
      </trkpt>
      <trkpt lat="48.54981" lon="3.06696">
        <ele>127</ele>
        <time>2025-03-16T04:37:06Z</time>
      </trkpt>
      <trkpt lat="48.54985" lon="3.06735">
        <ele>126.6</ele>
        <time>2025-03-16T04:37:24Z</time>
      </trkpt>
      <trkpt lat="48.54991" lon="3.06774">
        <ele>126.4</ele>
        <time>2025-03-16T04:37:42Z</time>
      </trkpt>
      <trkpt lat="48.54995" lon="3.0681">
        <ele>125.4</ele>
        <time>2025-03-16T04:37:59Z</time>
      </trkpt>
      <trkpt lat="48.54996" lon="3.06848">
        <ele>125.2</ele>
        <time>2025-03-16T04:38:15Z</time>
      </trkpt>
      <trkpt lat="48.54992" lon="3.06879">
        <ele>124.8</ele>
        <time>2025-03-16T04:38:29Z</time>
      </trkpt>
      <trkpt lat="48.54984" lon="3.06914">
        <ele>124.4</ele>
        <time>2025-03-16T04:38:46Z</time>
      </trkpt>
      <trkpt lat="48.54984" lon="3.0692">
        <ele>124.4</ele>
        <time>2025-03-16T04:38:49Z</time>
      </trkpt>
      <trkpt lat="48.54984" lon="3.06921">
        <ele>124.4</ele>
        <time>2025-03-16T04:38:50Z</time>
      </trkpt>
      <trkpt lat="48.54983" lon="3.06923">
        <ele>124.4</ele>
        <time>2025-03-16T04:38:51Z</time>
      </trkpt>
      <trkpt lat="48.54983" lon="3.06925">
        <ele>124.4</ele>
        <time>2025-03-16T04:38:52Z</time>
      </trkpt>
      <trkpt lat="48.54982" lon="3.06927">
        <ele>124.4</ele>
        <time>2025-03-16T04:38:53Z</time>
      </trkpt>
      <trkpt lat="48.54982" lon="3.0693">
        <ele>124.4</ele>
        <time>2025-03-16T04:38:54Z</time>
      </trkpt>
      <trkpt lat="48.54981" lon="3.06932">
        <ele>124.6</ele>
        <time>2025-03-16T04:38:55Z</time>
      </trkpt>
      <trkpt lat="48.5498" lon="3.06934">
        <ele>124.6</ele>
        <time>2025-03-16T04:38:56Z</time>
      </trkpt>
      <trkpt lat="48.5498" lon="3.06936">
        <ele>124.6</ele>
        <time>2025-03-16T04:38:57Z</time>
      </trkpt>
      <trkpt lat="48.54972" lon="3.06975">
        <ele>123.8</ele>
        <time>2025-03-16T04:39:15Z</time>
      </trkpt>
      <trkpt lat="48.54969" lon="3.07019">
        <ele>123.6</ele>
        <time>2025-03-16T04:39:35Z</time>
      </trkpt>
      <trkpt lat="48.54962" lon="3.07054">
        <ele>122.6</ele>
        <time>2025-03-16T04:39:51Z</time>
      </trkpt>
      <trkpt lat="48.54957" lon="3.07101">
        <ele>122.8</ele>
        <time>2025-03-16T04:40:13Z</time>
      </trkpt>
      <trkpt lat="48.54954" lon="3.07137">
        <ele>122.4</ele>
        <time>2025-03-16T04:40:30Z</time>
      </trkpt>
      <trkpt lat="48.54951" lon="3.07173">
        <ele>121.8</ele>
        <time>2025-03-16T04:40:46Z</time>
      </trkpt>
      <trkpt lat="48.54944" lon="3.07217">
        <ele>121.4</ele>
        <time>2025-03-16T04:41:06Z</time>
      </trkpt>
      <trkpt lat="48.54936" lon="3.07255">
        <ele>125.6</ele>
        <time>2025-03-16T04:41:24Z</time>
      </trkpt>
      <trkpt lat="48.54936" lon="3.07259">
        <ele>126.4</ele>
        <time>2025-03-16T04:41:26Z</time>
      </trkpt>
      <trkpt lat="48.54932" lon="3.07273">
        <ele>123.2</ele>
        <time>2025-03-16T04:41:33Z</time>
      </trkpt>
      <trkpt lat="48.5493" lon="3.07279">
        <ele>120</ele>
        <time>2025-03-16T04:41:36Z</time>
      </trkpt>
      <trkpt lat="48.54929" lon="3.07284">
        <ele>119.4</ele>
        <time>2025-03-16T04:41:38Z</time>
      </trkpt>
      <trkpt lat="48.54917" lon="3.07296">
        <ele>117.4</ele>
        <time>2025-03-16T04:41:47Z</time>
      </trkpt>
      <trkpt lat="48.54895" lon="3.0731">
        <ele>119.6</ele>
        <time>2025-03-16T04:42:06Z</time>
      </trkpt>
      <trkpt lat="48.54873" lon="3.07323">
        <ele>119.6</ele>
        <time>2025-03-16T04:42:21Z</time>
      </trkpt>
      <trkpt lat="48.54845" lon="3.07342">
        <ele>121</ele>
        <time>2025-03-16T04:42:42Z</time>
      </trkpt>
      <trkpt lat="48.54816" lon="3.07356">
        <ele>120.8</ele>
        <time>2025-03-16T04:43:02Z</time>
      </trkpt>
      <trkpt lat="48.5479" lon="3.07367">
        <ele>120.8</ele>
        <time>2025-03-16T04:43:20Z</time>
      </trkpt>
      <trkpt lat="48.54756" lon="3.07384">
        <ele>121.2</ele>
        <time>2025-03-16T04:43:44Z</time>
      </trkpt>
      <trkpt lat="48.54721" lon="3.07403">
        <ele>121.4</ele>
        <time>2025-03-16T04:44:09Z</time>
      </trkpt>
      <trkpt lat="48.54693" lon="3.0742">
        <ele>121.4</ele>
        <time>2025-03-16T04:44:29Z</time>
      </trkpt>
      <trkpt lat="48.54664" lon="3.07439">
        <ele>121.6</ele>
        <time>2025-03-16T04:44:51Z</time>
      </trkpt>
      <trkpt lat="48.54641" lon="3.07471">
        <ele>122</ele>
        <time>2025-03-16T04:45:12Z</time>
      </trkpt>
      <trkpt lat="48.5463" lon="3.07502">
        <ele>122.2</ele>
        <time>2025-03-16T04:45:28Z</time>
      </trkpt>
      <trkpt lat="48.54622" lon="3.0754">
        <ele>123.4</ele>
        <time>2025-03-16T04:45:46Z</time>
      </trkpt>
      <trkpt lat="48.54611" lon="3.07581">
        <ele>123</ele>
        <time>2025-03-16T04:46:06Z</time>
      </trkpt>
      <trkpt lat="48.546" lon="3.0762">
        <ele>122.8</ele>
        <time>2025-03-16T04:46:25Z</time>
      </trkpt>
      <trkpt lat="48.54589" lon="3.07664">
        <ele>123.2</ele>
        <time>2025-03-16T04:46:46Z</time>
      </trkpt>
      <trkpt lat="48.5458" lon="3.07697">
        <ele>123</ele>
        <time>2025-03-16T04:47:02Z</time>
      </trkpt>
      <trkpt lat="48.54567" lon="3.0774">
        <ele>122.8</ele>
        <time>2025-03-16T04:47:23Z</time>
      </trkpt>
      <trkpt lat="48.54558" lon="3.07778">
        <ele>123.2</ele>
        <time>2025-03-16T04:47:42Z</time>
      </trkpt>
      <trkpt lat="48.54546" lon="3.07819">
        <ele>122.8</ele>
        <time>2025-03-16T04:48:02Z</time>
      </trkpt>
      <trkpt lat="48.54534" lon="3.07859">
        <ele>122.8</ele>
        <time>2025-03-16T04:48:22Z</time>
      </trkpt>
      <trkpt lat="48.54523" lon="3.07902">
        <ele>122.2</ele>
        <time>2025-03-16T04:48:43Z</time>
      </trkpt>
      <trkpt lat="48.54512" lon="3.07944">
        <ele>122.4</ele>
        <time>2025-03-16T04:49:04Z</time>
      </trkpt>
      <trkpt lat="48.545" lon="3.07989">
        <ele>122</ele>
        <time>2025-03-16T04:49:26Z</time>
      </trkpt>
      <trkpt lat="48.54487" lon="3.08033">
        <ele>121.6</ele>
        <time>2025-03-16T04:49:48Z</time>
      </trkpt>
      <trkpt lat="48.54476" lon="3.08075">
        <ele>121</ele>
        <time>2025-03-16T04:50:08Z</time>
      </trkpt>
      <trkpt lat="48.54465" lon="3.08113">
        <ele>120.6</ele>
        <time>2025-03-16T04:50:27Z</time>
      </trkpt>
      <trkpt lat="48.54452" lon="3.08161">
        <ele>120.6</ele>
        <time>2025-03-16T04:50:51Z</time>
      </trkpt>
      <trkpt lat="48.5444" lon="3.08204">
        <ele>120.4</ele>
        <time>2025-03-16T04:51:12Z</time>
      </trkpt>
      <trkpt lat="48.54428" lon="3.08246">
        <ele>121</ele>
        <time>2025-03-16T04:51:33Z</time>
      </trkpt>
      <trkpt lat="48.54416" lon="3.08291">
        <ele>120.4</ele>
        <time>2025-03-16T04:51:55Z</time>
      </trkpt>
      <trkpt lat="48.54405" lon="3.08333">
        <ele>120.8</ele>
        <time>2025-03-16T04:52:16Z</time>
      </trkpt>
      <trkpt lat="48.54394" lon="3.08377">
        <ele>121</ele>
        <time>2025-03-16T04:52:38Z</time>
      </trkpt>
      <trkpt lat="48.54382" lon="3.08419">
        <ele>121</ele>
        <time>2025-03-16T04:52:59Z</time>
      </trkpt>
      <trkpt lat="48.54372" lon="3.08457">
        <ele>121.4</ele>
        <time>2025-03-16T04:53:18Z</time>
      </trkpt>
      <trkpt lat="48.54361" lon="3.08493">
        <ele>121.4</ele>
        <time>2025-03-16T04:53:37Z</time>
      </trkpt>
      <trkpt lat="48.54348" lon="3.08537">
        <ele>121.4</ele>
        <time>2025-03-16T04:53:59Z</time>
      </trkpt>
      <trkpt lat="48.54338" lon="3.08581">
        <ele>121.4</ele>
        <time>2025-03-16T04:54:20Z</time>
      </trkpt>
      <trkpt lat="48.54325" lon="3.08627">
        <ele>121</ele>
        <time>2025-03-16T04:54:43Z</time>
      </trkpt>
      <trkpt lat="48.54312" lon="3.08674">
        <ele>121.8</ele>
        <time>2025-03-16T04:55:06Z</time>
      </trkpt>
      <trkpt lat="48.54301" lon="3.08715">
        <ele>121</ele>
        <time>2025-03-16T04:55:27Z</time>
      </trkpt>
      <trkpt lat="48.5429" lon="3.08755">
        <ele>120.2</ele>
        <time>2025-03-16T04:55:47Z</time>
      </trkpt>
      <trkpt lat="48.54279" lon="3.08797">
        <ele>120.8</ele>
        <time>2025-03-16T04:56:08Z</time>
      </trkpt>
      <trkpt lat="48.54269" lon="3.08835">
        <ele>120.2</ele>
        <time>2025-03-16T04:56:27Z</time>
      </trkpt>
      <trkpt lat="48.54256" lon="3.08885">
        <ele>120.6</ele>
        <time>2025-03-16T04:56:52Z</time>
      </trkpt>
      <trkpt lat="48.54243" lon="3.0893">
        <ele>120.6</ele>
        <time>2025-03-16T04:57:15Z</time>
      </trkpt>
      <trkpt lat="48.5423" lon="3.08973">
        <ele>120.4</ele>
        <time>2025-03-16T04:57:37Z</time>
      </trkpt>
      <trkpt lat="48.54219" lon="3.09013">
        <ele>120.6</ele>
        <time>2025-03-16T04:57:58Z</time>
      </trkpt>
      <trkpt lat="48.54209" lon="3.0905">
        <ele>120.4</ele>
        <time>2025-03-16T04:58:16Z</time>
      </trkpt>
      <trkpt lat="48.54197" lon="3.09096">
        <ele>120.4</ele>
        <time>2025-03-16T04:58:39Z</time>
      </trkpt>
      <trkpt lat="48.54187" lon="3.09143">
        <ele>120.2</ele>
        <time>2025-03-16T04:59:02Z</time>
      </trkpt>
      <trkpt lat="48.54178" lon="3.0919">
        <ele>120.4</ele>
        <time>2025-03-16T04:59:25Z</time>
      </trkpt>
      <trkpt lat="48.54171" lon="3.09241">
        <ele>120.6</ele>
        <time>2025-03-16T04:59:49Z</time>
      </trkpt>
      <trkpt lat="48.54166" lon="3.0929">
        <ele>120.4</ele>
        <time>2025-03-16T05:00:13Z</time>
      </trkpt>
      <trkpt lat="48.54162" lon="3.09334">
        <ele>121.2</ele>
        <time>2025-03-16T05:00:34Z</time>
      </trkpt>
      <trkpt lat="48.5416" lon="3.09385">
        <ele>121.2</ele>
        <time>2025-03-16T05:00:58Z</time>
      </trkpt>
      <trkpt lat="48.54158" lon="3.09432">
        <ele>122</ele>
        <time>2025-03-16T05:01:20Z</time>
      </trkpt>
      <trkpt lat="48.54156" lon="3.0948">
        <ele>122.4</ele>
        <time>2025-03-16T05:01:42Z</time>
      </trkpt>
      <trkpt lat="48.54154" lon="3.09525">
        <ele>122.4</ele>
        <time>2025-03-16T05:02:03Z</time>
      </trkpt>
      <trkpt lat="48.54153" lon="3.09573">
        <ele>121.8</ele>
        <time>2025-03-16T05:02:25Z</time>
      </trkpt>
      <trkpt lat="48.54148" lon="3.09621">
        <ele>122.4</ele>
        <time>2025-03-16T05:02:47Z</time>
      </trkpt>
      <trkpt lat="48.5414" lon="3.09662">
        <ele>122.2</ele>
        <time>2025-03-16T05:03:07Z</time>
      </trkpt>
      <trkpt lat="48.54127" lon="3.09699">
        <ele>122.8</ele>
        <time>2025-03-16T05:03:27Z</time>
      </trkpt>
      <trkpt lat="48.54112" lon="3.09742">
        <ele>122.8</ele>
        <time>2025-03-16T05:03:50Z</time>
      </trkpt>
      <trkpt lat="48.54097" lon="3.09781">
        <ele>123</ele>
        <time>2025-03-16T05:04:11Z</time>
      </trkpt>
      <trkpt lat="48.54082" lon="3.09818">
        <ele>123.6</ele>
        <time>2025-03-16T05:04:31Z</time>
      </trkpt>
      <trkpt lat="48.54069" lon="3.09851">
        <ele>124.2</ele>
        <time>2025-03-16T05:04:49Z</time>
      </trkpt>
      <trkpt lat="48.54057" lon="3.09883">
        <ele>124</ele>
        <time>2025-03-16T05:05:07Z</time>
      </trkpt>
      <trkpt lat="48.54044" lon="3.09917">
        <ele>124.6</ele>
        <time>2025-03-16T05:05:25Z</time>
      </trkpt>
      <trkpt lat="48.54032" lon="3.09949">
        <ele>124.4</ele>
        <time>2025-03-16T05:05:43Z</time>
      </trkpt>
      <trkpt lat="48.54021" lon="3.09989">
        <ele>124.6</ele>
        <time>2025-03-16T05:06:03Z</time>
      </trkpt>
      <trkpt lat="48.54014" lon="3.10022">
        <ele>124.2</ele>
        <time>2025-03-16T05:06:19Z</time>
      </trkpt>
      <trkpt lat="48.54008" lon="3.10064">
        <ele>124.4</ele>
        <time>2025-03-16T05:06:39Z</time>
      </trkpt>
      <trkpt lat="48.54001" lon="3.10105">
        <ele>124.4</ele>
        <time>2025-03-16T05:06:59Z</time>
      </trkpt>
      <trkpt lat="48.53996" lon="3.10148">
        <ele>124</ele>
        <time>2025-03-16T05:07:20Z</time>
      </trkpt>
      <trkpt lat="48.5399" lon="3.10186">
        <ele>124.2</ele>
        <time>2025-03-16T05:07:39Z</time>
      </trkpt>
      <trkpt lat="48.53984" lon="3.10234">
        <ele>123.6</ele>
        <time>2025-03-16T05:08:01Z</time>
      </trkpt>
      <trkpt lat="48.53985" lon="3.10283">
        <ele>123.8</ele>
        <time>2025-03-16T05:08:23Z</time>
      </trkpt>
      <trkpt lat="48.53987" lon="3.10332">
        <ele>123.4</ele>
        <time>2025-03-16T05:08:45Z</time>
      </trkpt>
      <trkpt lat="48.5399" lon="3.10384">
        <ele>123.8</ele>
        <time>2025-03-16T05:09:09Z</time>
      </trkpt>
      <trkpt lat="48.53994" lon="3.10432">
        <ele>124</ele>
        <time>2025-03-16T05:09:32Z</time>
      </trkpt>
      <trkpt lat="48.53998" lon="3.10476">
        <ele>124.8</ele>
        <time>2025-03-16T05:09:53Z</time>
      </trkpt>
      <trkpt lat="48.54002" lon="3.10525">
        <ele>124</ele>
        <time>2025-03-16T05:10:16Z</time>
      </trkpt>
      <trkpt lat="48.54007" lon="3.10571">
        <ele>123.6</ele>
        <time>2025-03-16T05:10:38Z</time>
      </trkpt>
      <trkpt lat="48.5401" lon="3.10609">
        <ele>123.4</ele>
        <time>2025-03-16T05:10:56Z</time>
      </trkpt>
      <trkpt lat="48.54015" lon="3.10648">
        <ele>122.6</ele>
        <time>2025-03-16T05:11:15Z</time>
      </trkpt>
      <trkpt lat="48.5402" lon="3.10694">
        <ele>122.8</ele>
        <time>2025-03-16T05:11:36Z</time>
      </trkpt>
      <trkpt lat="48.54038" lon="3.10735">
        <ele>124</ele>
        <time>2025-03-16T05:11:59Z</time>
      </trkpt>
      <trkpt lat="48.54064" lon="3.10749">
        <ele>123.6</ele>
        <time>2025-03-16T05:12:19Z</time>
      </trkpt>
      <trkpt lat="48.54086" lon="3.10756">
        <ele>123.4</ele>
        <time>2025-03-16T05:12:36Z</time>
      </trkpt>
      <trkpt lat="48.54116" lon="3.10756">
        <ele>123.4</ele>
        <time>2025-03-16T05:12:57Z</time>
      </trkpt>
      <trkpt lat="48.54125" lon="3.1079">
        <ele>124.2</ele>
        <time>2025-03-16T05:13:14Z</time>
      </trkpt>
      <trkpt lat="48.54124" lon="3.10791">
        <ele>124.4</ele>
        <time>2025-03-16T05:13:15Z</time>
      </trkpt>
      <trkpt lat="48.54121" lon="3.10792">
        <ele>119.2</ele>
        <time>2025-03-16T05:13:22Z</time>
      </trkpt>
      <trkpt lat="48.5412" lon="3.10792">
        <ele>124.8</ele>
        <time>2025-03-16T05:13:29Z</time>
      </trkpt>
      <trkpt lat="48.5412" lon="3.10796">
        <ele>128.2</ele>
        <time>2025-03-16T05:13:31Z</time>
      </trkpt>
      <trkpt lat="48.5412" lon="3.108">
        <ele>128.6</ele>
        <time>2025-03-16T05:13:33Z</time>
      </trkpt>
      <trkpt lat="48.54119" lon="3.10802">
        <ele>128</ele>
        <time>2025-03-16T05:13:34Z</time>
      </trkpt>
      <trkpt lat="48.5412" lon="3.10815">
        <ele>124.8</ele>
        <time>2025-03-16T05:13:40Z</time>
      </trkpt>
      <trkpt lat="48.54117" lon="3.10862">
        <ele>124</ele>
        <time>2025-03-16T05:14:01Z</time>
      </trkpt>
      <trkpt lat="48.54104" lon="3.10909">
        <ele>124.8</ele>
        <time>2025-03-16T05:14:24Z</time>
      </trkpt>
      <trkpt lat="48.54091" lon="3.10912">
        <ele>124.2</ele>
        <time>2025-03-16T05:14:36Z</time>
      </trkpt>
      <trkpt lat="48.54084" lon="3.109">
        <ele>124.4</ele>
        <time>2025-03-16T05:14:51Z</time>
      </trkpt>
      <trkpt lat="48.54083" lon="3.10899">
        <ele>125.8</ele>
        <time>2025-03-16T05:15:10Z</time>
      </trkpt>
      <trkpt lat="48.54086" lon="3.10909">
        <ele>124.4</ele>
        <time>2025-03-16T05:15:49Z</time>
      </trkpt>
      <trkpt lat="48.54085" lon="3.10913">
        <ele>128.8</ele>
        <time>2025-03-16T05:15:52Z</time>
      </trkpt>
      <trkpt lat="48.54085" lon="3.10916">
        <ele>129.6</ele>
        <time>2025-03-16T05:15:54Z</time>
      </trkpt>
      <trkpt lat="48.54084" lon="3.10924">
        <ele>126.4</ele>
        <time>2025-03-16T05:16:02Z</time>
      </trkpt>
      <trkpt lat="48.54083" lon="3.10925">
        <ele>123.8</ele>
        <time>2025-03-16T05:16:15Z</time>
      </trkpt>
      <trkpt lat="48.54083" lon="3.10926">
        <ele>121.8</ele>
        <time>2025-03-16T05:16:20Z</time>
      </trkpt>
      <trkpt lat="48.54086" lon="3.1093">
        <ele>121</ele>
        <time>2025-03-16T05:16:44Z</time>
      </trkpt>
      <trkpt lat="48.5409" lon="3.1093">
        <ele>124.2</ele>
        <time>2025-03-16T05:16:57Z</time>
      </trkpt>
      <trkpt lat="48.54091" lon="3.10931">
        <ele>124.2</ele>
        <time>2025-03-16T05:17:18Z</time>
      </trkpt>
      <trkpt lat="48.54085" lon="3.10931">
        <ele>124</ele>
        <time>2025-03-16T05:17:39Z</time>
      </trkpt>
      <trkpt lat="48.54083" lon="3.1093">
        <ele>123.6</ele>
        <time>2025-03-16T05:18:11Z</time>
      </trkpt>
      <trkpt lat="48.54083" lon="3.10931">
        <ele>124.2</ele>
        <time>2025-03-16T05:18:49Z</time>
      </trkpt>
      <trkpt lat="48.54083" lon="3.10932">
        <ele>123</ele>
        <time>2025-03-16T05:19:19Z</time>
      </trkpt>
      <trkpt lat="48.54086" lon="3.10946">
        <ele>122.8</ele>
        <time>2025-03-16T05:19:29Z</time>
      </trkpt>
      <trkpt lat="48.54087" lon="3.10947">
        <ele>122.8</ele>
        <time>2025-03-16T05:19:30Z</time>
      </trkpt>
      <trkpt lat="48.54087" lon="3.10949">
        <ele>122.8</ele>
        <time>2025-03-16T05:19:31Z</time>
      </trkpt>
      <trkpt lat="48.54088" lon="3.10952">
        <ele>122.8</ele>
        <time>2025-03-16T05:19:32Z</time>
      </trkpt>
      <trkpt lat="48.54088" lon="3.10954">
        <ele>122.8</ele>
        <time>2025-03-16T05:19:33Z</time>
      </trkpt>
      <trkpt lat="48.54088" lon="3.10956">
        <ele>122.8</ele>
        <time>2025-03-16T05:19:34Z</time>
      </trkpt>
      <trkpt lat="48.54088" lon="3.10958">
        <ele>122.8</ele>
        <time>2025-03-16T05:19:35Z</time>
      </trkpt>
      <trkpt lat="48.54088" lon="3.1096">
        <ele>122.8</ele>
        <time>2025-03-16T05:19:36Z</time>
      </trkpt>
      <trkpt lat="48.54088" lon="3.10962">
        <ele>122.8</ele>
        <time>2025-03-16T05:19:37Z</time>
      </trkpt>
      <trkpt lat="48.54087" lon="3.10964">
        <ele>123</ele>
        <time>2025-03-16T05:19:38Z</time>
      </trkpt>
      <trkpt lat="48.54086" lon="3.10971">
        <ele>124.6</ele>
        <time>2025-03-16T05:19:41Z</time>
      </trkpt>
      <trkpt lat="48.54079" lon="3.1101">
        <ele>124.6</ele>
        <time>2025-03-16T05:20:00Z</time>
      </trkpt>
      <trkpt lat="48.54072" lon="3.11053">
        <ele>125.2</ele>
        <time>2025-03-16T05:20:20Z</time>
      </trkpt>
      <trkpt lat="48.54067" lon="3.11091">
        <ele>125.6</ele>
        <time>2025-03-16T05:20:37Z</time>
      </trkpt>
      <trkpt lat="48.54059" lon="3.11139">
        <ele>125.6</ele>
        <time>2025-03-16T05:20:59Z</time>
      </trkpt>
      <trkpt lat="48.54053" lon="3.11185">
        <ele>126.2</ele>
        <time>2025-03-16T05:21:20Z</time>
      </trkpt>
      <trkpt lat="48.54051" lon="3.11229">
        <ele>126</ele>
        <time>2025-03-16T05:21:40Z</time>
      </trkpt>
      <trkpt lat="48.5405" lon="3.11276">
        <ele>126.2</ele>
        <time>2025-03-16T05:22:02Z</time>
      </trkpt>
      <trkpt lat="48.54049" lon="3.11324">
        <ele>126.6</ele>
        <time>2025-03-16T05:22:24Z</time>
      </trkpt>
      <trkpt lat="48.54049" lon="3.11371">
        <ele>127</ele>
        <time>2025-03-16T05:22:45Z</time>
      </trkpt>
      <trkpt lat="48.54048" lon="3.11413">
        <ele>126.2</ele>
        <time>2025-03-16T05:23:04Z</time>
      </trkpt>
      <trkpt lat="48.54049" lon="3.11453">
        <ele>127</ele>
        <time>2025-03-16T05:23:22Z</time>
      </trkpt>
      <trkpt lat="48.54048" lon="3.11504">
        <ele>127.4</ele>
        <time>2025-03-16T05:23:45Z</time>
      </trkpt>
      <trkpt lat="48.54042" lon="3.11541">
        <ele>127.8</ele>
        <time>2025-03-16T05:24:02Z</time>
      </trkpt>
      <trkpt lat="48.54036" lon="3.11579">
        <ele>127.6</ele>
        <time>2025-03-16T05:24:20Z</time>
      </trkpt>
      <trkpt lat="48.54028" lon="3.11622">
        <ele>127.6</ele>
        <time>2025-03-16T05:24:40Z</time>
      </trkpt>
      <trkpt lat="48.5402" lon="3.11662">
        <ele>128</ele>
        <time>2025-03-16T05:24:59Z</time>
      </trkpt>
      <trkpt lat="48.54012" lon="3.11704">
        <ele>128.4</ele>
        <time>2025-03-16T05:25:19Z</time>
      </trkpt>
      <trkpt lat="48.54004" lon="3.1175">
        <ele>128.4</ele>
        <time>2025-03-16T05:25:41Z</time>
      </trkpt>
      <trkpt lat="48.53995" lon="3.11797">
        <ele>128.6</ele>
        <time>2025-03-16T05:26:03Z</time>
      </trkpt>
      <trkpt lat="48.53987" lon="3.11837">
        <ele>129.2</ele>
        <time>2025-03-16T05:26:22Z</time>
      </trkpt>
      <trkpt lat="48.53979" lon="3.11886">
        <ele>129.4</ele>
        <time>2025-03-16T05:26:45Z</time>
      </trkpt>
      <trkpt lat="48.53971" lon="3.11924">
        <ele>130.4</ele>
        <time>2025-03-16T05:27:03Z</time>
      </trkpt>
      <trkpt lat="48.53969" lon="3.11966">
        <ele>130.8</ele>
        <time>2025-03-16T05:27:22Z</time>
      </trkpt>
      <trkpt lat="48.5399" lon="3.11974">
        <ele>130.4</ele>
        <time>2025-03-16T05:27:37Z</time>
      </trkpt>
      <trkpt lat="48.54019" lon="3.11976">
        <ele>131</ele>
        <time>2025-03-16T05:27:57Z</time>
      </trkpt>
      <trkpt lat="48.54048" lon="3.11991">
        <ele>130.6</ele>
        <time>2025-03-16T05:28:18Z</time>
      </trkpt>
      <trkpt lat="48.5408" lon="3.12016">
        <ele>131.8</ele>
        <time>2025-03-16T05:28:42Z</time>
      </trkpt>
      <trkpt lat="48.54109" lon="3.12036">
        <ele>131.6</ele>
        <time>2025-03-16T05:29:04Z</time>
      </trkpt>
      <trkpt lat="48.54136" lon="3.12055">
        <ele>132.4</ele>
        <time>2025-03-16T05:29:25Z</time>
      </trkpt>
      <trkpt lat="48.54162" lon="3.12072">
        <ele>132</ele>
        <time>2025-03-16T05:29:44Z</time>
      </trkpt>
      <trkpt lat="48.54197" lon="3.12087">
        <ele>132.2</ele>
        <time>2025-03-16T05:30:08Z</time>
      </trkpt>
      <trkpt lat="48.54227" lon="3.12094">
        <ele>131.4</ele>
        <time>2025-03-16T05:30:29Z</time>
      </trkpt>
      <trkpt lat="48.54254" lon="3.12102">
        <ele>131.4</ele>
        <time>2025-03-16T05:30:47Z</time>
      </trkpt>
      <trkpt lat="48.54282" lon="3.12111">
        <ele>131.4</ele>
        <time>2025-03-16T05:31:07Z</time>
      </trkpt>
      <trkpt lat="48.54313" lon="3.12121">
        <ele>131.2</ele>
        <time>2025-03-16T05:31:29Z</time>
      </trkpt>
      <trkpt lat="48.54349" lon="3.12128">
        <ele>131.2</ele>
        <time>2025-03-16T05:31:53Z</time>
      </trkpt>
      <trkpt lat="48.54384" lon="3.12127">
        <ele>130.6</ele>
        <time>2025-03-16T05:32:17Z</time>
      </trkpt>
      <trkpt lat="48.54417" lon="3.12128">
        <ele>130.4</ele>
        <time>2025-03-16T05:32:39Z</time>
      </trkpt>
      <trkpt lat="48.54451" lon="3.12129">
        <ele>130.4</ele>
        <time>2025-03-16T05:33:02Z</time>
      </trkpt>
      <trkpt lat="48.5448" lon="3.12128">
        <ele>130</ele>
        <time>2025-03-16T05:33:22Z</time>
      </trkpt>
      <trkpt lat="48.54513" lon="3.12129">
        <ele>130</ele>
        <time>2025-03-16T05:33:44Z</time>
      </trkpt>
      <trkpt lat="48.54547" lon="3.12127">
        <ele>130.8</ele>
        <time>2025-03-16T05:34:08Z</time>
      </trkpt>
      <trkpt lat="48.54571" lon="3.12123">
        <ele>134.6</ele>
        <time>2025-03-16T05:34:25Z</time>
      </trkpt>
      <trkpt lat="48.54583" lon="3.12121">
        <ele>131</ele>
        <time>2025-03-16T05:34:33Z</time>
      </trkpt>
      <trkpt lat="48.54586" lon="3.1212">
        <ele>130.4</ele>
        <time>2025-03-16T05:34:35Z</time>
      </trkpt>
      <trkpt lat="48.54615" lon="3.12118">
        <ele>131.8</ele>
        <time>2025-03-16T05:34:55Z</time>
      </trkpt>
      <trkpt lat="48.54642" lon="3.12125">
        <ele>131.4</ele>
        <time>2025-03-16T05:35:16Z</time>
      </trkpt>
      <trkpt lat="48.54643" lon="3.12144">
        <ele>128.2</ele>
        <time>2025-03-16T05:35:25Z</time>
      </trkpt>
      <trkpt lat="48.54638" lon="3.12169">
        <ele>131.2</ele>
        <time>2025-03-16T05:35:37Z</time>
      </trkpt>
      <trkpt lat="48.5463" lon="3.12209">
        <ele>132.4</ele>
        <time>2025-03-16T05:35:57Z</time>
      </trkpt>
      <trkpt lat="48.54618" lon="3.12262">
        <ele>133.4</ele>
        <time>2025-03-16T05:36:22Z</time>
      </trkpt>
      <trkpt lat="48.5461" lon="3.12299">
        <ele>133.2</ele>
        <time>2025-03-16T05:36:40Z</time>
      </trkpt>
      <trkpt lat="48.54602" lon="3.1234">
        <ele>133.2</ele>
        <time>2025-03-16T05:36:59Z</time>
      </trkpt>
      <trkpt lat="48.54592" lon="3.12384">
        <ele>133.4</ele>
        <time>2025-03-16T05:37:20Z</time>
      </trkpt>
      <trkpt lat="48.54582" lon="3.12432">
        <ele>133.6</ele>
        <time>2025-03-16T05:37:43Z</time>
      </trkpt>
      <trkpt lat="48.54573" lon="3.12471">
        <ele>133.2</ele>
        <time>2025-03-16T05:38:02Z</time>
      </trkpt>
      <trkpt lat="48.54562" lon="3.12519">
        <ele>134.2</ele>
        <time>2025-03-16T05:38:25Z</time>
      </trkpt>
      <trkpt lat="48.54553" lon="3.12558">
        <ele>134</ele>
        <time>2025-03-16T05:38:44Z</time>
      </trkpt>
      <trkpt lat="48.54547" lon="3.12597">
        <ele>134.2</ele>
        <time>2025-03-16T05:39:02Z</time>
      </trkpt>
      <trkpt lat="48.54541" lon="3.12639">
        <ele>134.8</ele>
        <time>2025-03-16T05:39:22Z</time>
      </trkpt>
      <trkpt lat="48.54538" lon="3.12687">
        <ele>134.8</ele>
        <time>2025-03-16T05:39:44Z</time>
      </trkpt>
      <trkpt lat="48.54533" lon="3.12736">
        <ele>134.6</ele>
        <time>2025-03-16T05:40:07Z</time>
      </trkpt>
      <trkpt lat="48.54531" lon="3.12779">
        <ele>134.8</ele>
        <time>2025-03-16T05:40:27Z</time>
      </trkpt>
      <trkpt lat="48.54529" lon="3.12797">
        <ele>135.2</ele>
        <time>2025-03-16T05:40:35Z</time>
      </trkpt>
      <trkpt lat="48.54529" lon="3.12799">
        <ele>135.2</ele>
        <time>2025-03-16T05:40:36Z</time>
      </trkpt>
      <trkpt lat="48.54529" lon="3.12801">
        <ele>135.2</ele>
        <time>2025-03-16T05:40:37Z</time>
      </trkpt>
      <trkpt lat="48.54529" lon="3.12803">
        <ele>135.2</ele>
        <time>2025-03-16T05:40:38Z</time>
      </trkpt>
      <trkpt lat="48.54529" lon="3.12805">
        <ele>135.2</ele>
        <time>2025-03-16T05:40:39Z</time>
      </trkpt>
      <trkpt lat="48.54528" lon="3.12807">
        <ele>135.2</ele>
        <time>2025-03-16T05:40:40Z</time>
      </trkpt>
      <trkpt lat="48.54522" lon="3.12847">
        <ele>135</ele>
        <time>2025-03-16T05:40:58Z</time>
      </trkpt>
      <trkpt lat="48.54509" lon="3.1289">
        <ele>135.4</ele>
        <time>2025-03-16T05:41:19Z</time>
      </trkpt>
      <trkpt lat="48.54491" lon="3.12925">
        <ele>136</ele>
        <time>2025-03-16T05:41:40Z</time>
      </trkpt>
      <trkpt lat="48.54471" lon="3.12955">
        <ele>136.6</ele>
        <time>2025-03-16T05:42:00Z</time>
      </trkpt>
      <trkpt lat="48.5445" lon="3.12986">
        <ele>136.8</ele>
        <time>2025-03-16T05:42:20Z</time>
      </trkpt>
      <trkpt lat="48.54431" lon="3.13019">
        <ele>136.8</ele>
        <time>2025-03-16T05:42:40Z</time>
      </trkpt>
      <trkpt lat="48.54414" lon="3.13058">
        <ele>136.8</ele>
        <time>2025-03-16T05:43:01Z</time>
      </trkpt>
      <trkpt lat="48.54402" lon="3.131">
        <ele>137</ele>
        <time>2025-03-16T05:43:22Z</time>
      </trkpt>
      <trkpt lat="48.54393" lon="3.13144">
        <ele>137</ele>
        <time>2025-03-16T05:43:43Z</time>
      </trkpt>
      <trkpt lat="48.54385" lon="3.13188">
        <ele>136.8</ele>
        <time>2025-03-16T05:44:04Z</time>
      </trkpt>
      <trkpt lat="48.54378" lon="3.13221">
        <ele>136.6</ele>
        <time>2025-03-16T05:44:20Z</time>
      </trkpt>
      <trkpt lat="48.54363" lon="3.13262">
        <ele>136</ele>
        <time>2025-03-16T05:44:41Z</time>
      </trkpt>
      <trkpt lat="48.54349" lon="3.13293">
        <ele>135.8</ele>
        <time>2025-03-16T05:44:58Z</time>
      </trkpt>
      <trkpt lat="48.54329" lon="3.13329">
        <ele>135.8</ele>
        <time>2025-03-16T05:45:19Z</time>
      </trkpt>
      <trkpt lat="48.54305" lon="3.13359">
        <ele>135.6</ele>
        <time>2025-03-16T05:45:41Z</time>
      </trkpt>
      <trkpt lat="48.54278" lon="3.13388">
        <ele>135.8</ele>
        <time>2025-03-16T05:46:04Z</time>
      </trkpt>
      <trkpt lat="48.54253" lon="3.13411">
        <ele>136.2</ele>
        <time>2025-03-16T05:46:24Z</time>
      </trkpt>
      <trkpt lat="48.54227" lon="3.13434">
        <ele>136</ele>
        <time>2025-03-16T05:46:44Z</time>
      </trkpt>
      <trkpt lat="48.54202" lon="3.13455">
        <ele>135.4</ele>
        <time>2025-03-16T05:47:04Z</time>
      </trkpt>
      <trkpt lat="48.54174" lon="3.13476">
        <ele>135</ele>
        <time>2025-03-16T05:47:26Z</time>
      </trkpt>
      <trkpt lat="48.54144" lon="3.13494">
        <ele>134.6</ele>
        <time>2025-03-16T05:47:47Z</time>
      </trkpt>
      <trkpt lat="48.54117" lon="3.13511">
        <ele>134</ele>
        <time>2025-03-16T05:48:07Z</time>
      </trkpt>
      <trkpt lat="48.54088" lon="3.1353">
        <ele>133.6</ele>
        <time>2025-03-16T05:48:28Z</time>
      </trkpt>
      <trkpt lat="48.5406" lon="3.13549">
        <ele>132.6</ele>
        <time>2025-03-16T05:48:48Z</time>
      </trkpt>
      <trkpt lat="48.54033" lon="3.13567">
        <ele>132</ele>
        <time>2025-03-16T05:49:08Z</time>
      </trkpt>
      <trkpt lat="48.54004" lon="3.13588">
        <ele>131.2</ele>
        <time>2025-03-16T05:49:30Z</time>
      </trkpt>
      <trkpt lat="48.53977" lon="3.13621">
        <ele>130.2</ele>
        <time>2025-03-16T05:49:53Z</time>
      </trkpt>
      <trkpt lat="48.53954" lon="3.13652">
        <ele>129</ele>
        <time>2025-03-16T05:50:14Z</time>
      </trkpt>
      <trkpt lat="48.5393" lon="3.13688">
        <ele>128.2</ele>
        <time>2025-03-16T05:50:37Z</time>
      </trkpt>
      <trkpt lat="48.53908" lon="3.13722">
        <ele>127</ele>
        <time>2025-03-16T05:50:58Z</time>
      </trkpt>
      <trkpt lat="48.53886" lon="3.13755">
        <ele>125.8</ele>
        <time>2025-03-16T05:51:19Z</time>
      </trkpt>
      <trkpt lat="48.53867" lon="3.13789">
        <ele>125</ele>
        <time>2025-03-16T05:51:39Z</time>
      </trkpt>
      <trkpt lat="48.53854" lon="3.13823">
        <ele>123.4</ele>
        <time>2025-03-16T05:51:56Z</time>
      </trkpt>
      <trkpt lat="48.53842" lon="3.13865">
        <ele>122.6</ele>
        <time>2025-03-16T05:52:16Z</time>
      </trkpt>
      <trkpt lat="48.53832" lon="3.13902">
        <ele>121.8</ele>
        <time>2025-03-16T05:52:34Z</time>
      </trkpt>
      <trkpt lat="48.53821" lon="3.13946">
        <ele>121.2</ele>
        <time>2025-03-16T05:52:55Z</time>
      </trkpt>
      <trkpt lat="48.53811" lon="3.13985">
        <ele>121.2</ele>
        <time>2025-03-16T05:53:14Z</time>
      </trkpt>
      <trkpt lat="48.538" lon="3.14029">
        <ele>120.6</ele>
        <time>2025-03-16T05:53:35Z</time>
      </trkpt>
      <trkpt lat="48.53791" lon="3.14067">
        <ele>120.6</ele>
        <time>2025-03-16T05:53:54Z</time>
      </trkpt>
      <trkpt lat="48.53781" lon="3.1411">
        <ele>120</ele>
        <time>2025-03-16T05:54:14Z</time>
      </trkpt>
      <trkpt lat="48.5377" lon="3.14154">
        <ele>120.4</ele>
        <time>2025-03-16T05:54:36Z</time>
      </trkpt>
      <trkpt lat="48.53758" lon="3.14203">
        <ele>120.4</ele>
        <time>2025-03-16T05:54:59Z</time>
      </trkpt>
      <trkpt lat="48.53748" lon="3.14247">
        <ele>120.4</ele>
        <time>2025-03-16T05:55:20Z</time>
      </trkpt>
      <trkpt lat="48.53732" lon="3.14265">
        <ele>120.6</ele>
        <time>2025-03-16T05:55:35Z</time>
      </trkpt>
      <trkpt lat="48.53705" lon="3.1427">
        <ele>121.2</ele>
        <time>2025-03-16T05:55:53Z</time>
      </trkpt>
      <trkpt lat="48.53677" lon="3.14274">
        <ele>119.8</ele>
        <time>2025-03-16T05:56:12Z</time>
      </trkpt>
      <trkpt lat="48.53651" lon="3.14278">
        <ele>119.6</ele>
        <time>2025-03-16T05:56:30Z</time>
      </trkpt>
      <trkpt lat="48.53634" lon="3.14303">
        <ele>119.4</ele>
        <time>2025-03-16T05:56:46Z</time>
      </trkpt>
      <trkpt lat="48.53613" lon="3.14339">
        <ele>118.8</ele>
        <time>2025-03-16T05:57:07Z</time>
      </trkpt>
      <trkpt lat="48.53596" lon="3.14384">
        <ele>118.6</ele>
        <time>2025-03-16T05:57:31Z</time>
      </trkpt>
      <trkpt lat="48.53582" lon="3.14425">
        <ele>117.6</ele>
        <time>2025-03-16T05:57:52Z</time>
      </trkpt>
      <trkpt lat="48.53567" lon="3.14465">
        <ele>117.6</ele>
        <time>2025-03-16T05:58:12Z</time>
      </trkpt>
      <trkpt lat="48.53552" lon="3.14504">
        <ele>117.6</ele>
        <time>2025-03-16T05:58:33Z</time>
      </trkpt>
      <trkpt lat="48.53539" lon="3.14544">
        <ele>117.4</ele>
        <time>2025-03-16T05:58:53Z</time>
      </trkpt>
      <trkpt lat="48.53526" lon="3.14581">
        <ele>117</ele>
        <time>2025-03-16T05:59:12Z</time>
      </trkpt>
      <trkpt lat="48.5351" lon="3.14622">
        <ele>116.2</ele>
        <time>2025-03-16T05:59:33Z</time>
      </trkpt>
      <trkpt lat="48.53496" lon="3.14662">
        <ele>115.8</ele>
        <time>2025-03-16T05:59:53Z</time>
      </trkpt>
      <trkpt lat="48.53483" lon="3.14701">
        <ele>115.8</ele>
        <time>2025-03-16T06:00:13Z</time>
      </trkpt>
      <trkpt lat="48.53468" lon="3.14742">
        <ele>115.4</ele>
        <time>2025-03-16T06:00:34Z</time>
      </trkpt>
      <trkpt lat="48.53451" lon="3.14789">
        <ele>115.2</ele>
        <time>2025-03-16T06:00:59Z</time>
      </trkpt>
      <trkpt lat="48.53436" lon="3.14831">
        <ele>114.4</ele>
        <time>2025-03-16T06:01:21Z</time>
      </trkpt>
      <trkpt lat="48.5342" lon="3.14877">
        <ele>114.4</ele>
        <time>2025-03-16T06:01:44Z</time>
      </trkpt>
      <trkpt lat="48.53403" lon="3.14923">
        <ele>114.2</ele>
        <time>2025-03-16T06:02:08Z</time>
      </trkpt>
      <trkpt lat="48.53387" lon="3.14965">
        <ele>114</ele>
        <time>2025-03-16T06:02:30Z</time>
      </trkpt>
      <trkpt lat="48.53372" lon="3.15009">
        <ele>113.4</ele>
        <time>2025-03-16T06:02:53Z</time>
      </trkpt>
      <trkpt lat="48.53356" lon="3.15054">
        <ele>113.2</ele>
        <time>2025-03-16T06:03:16Z</time>
      </trkpt>
      <trkpt lat="48.53342" lon="3.15095">
        <ele>112.4</ele>
        <time>2025-03-16T06:03:37Z</time>
      </trkpt>
      <trkpt lat="48.53325" lon="3.15141">
        <ele>112.2</ele>
        <time>2025-03-16T06:04:01Z</time>
      </trkpt>
      <trkpt lat="48.5331" lon="3.15184">
        <ele>112</ele>
        <time>2025-03-16T06:04:24Z</time>
      </trkpt>
      <trkpt lat="48.53296" lon="3.15224">
        <ele>111.8</ele>
        <time>2025-03-16T06:04:45Z</time>
      </trkpt>
      <trkpt lat="48.5328" lon="3.1527">
        <ele>111.8</ele>
        <time>2025-03-16T06:05:08Z</time>
      </trkpt>
      <trkpt lat="48.53265" lon="3.15314">
        <ele>112.2</ele>
        <time>2025-03-16T06:05:31Z</time>
      </trkpt>
      <trkpt lat="48.5325" lon="3.15354">
        <ele>111.6</ele>
        <time>2025-03-16T06:05:52Z</time>
      </trkpt>
      <trkpt lat="48.53234" lon="3.15398">
        <ele>111.8</ele>
        <time>2025-03-16T06:06:15Z</time>
      </trkpt>
      <trkpt lat="48.53219" lon="3.15441">
        <ele>111.4</ele>
        <time>2025-03-16T06:06:37Z</time>
      </trkpt>
      <trkpt lat="48.53203" lon="3.15487">
        <ele>111.2</ele>
        <time>2025-03-16T06:07:01Z</time>
      </trkpt>
      <trkpt lat="48.53186" lon="3.15535">
        <ele>111.6</ele>
        <time>2025-03-16T06:07:26Z</time>
      </trkpt>
      <trkpt lat="48.53169" lon="3.15582">
        <ele>111.6</ele>
        <time>2025-03-16T06:07:51Z</time>
      </trkpt>
      <trkpt lat="48.53152" lon="3.15626">
        <ele>112</ele>
        <time>2025-03-16T06:08:14Z</time>
      </trkpt>
      <trkpt lat="48.53137" lon="3.15665">
        <ele>112.4</ele>
        <time>2025-03-16T06:08:35Z</time>
      </trkpt>
      <trkpt lat="48.53122" lon="3.15699">
        <ele>113.2</ele>
        <time>2025-03-16T06:08:54Z</time>
      </trkpt>
      <trkpt lat="48.53119" lon="3.15703">
        <ele>117.4</ele>
        <time>2025-03-16T06:08:57Z</time>
      </trkpt>
      <trkpt lat="48.53101" lon="3.15721">
        <ele>114.4</ele>
        <time>2025-03-16T06:09:12Z</time>
      </trkpt>
      <trkpt lat="48.53078" lon="3.15736">
        <ele>114</ele>
        <time>2025-03-16T06:09:30Z</time>
      </trkpt>
      <trkpt lat="48.53061" lon="3.15748">
        <ele>111.6</ele>
        <time>2025-03-16T06:09:43Z</time>
      </trkpt>
      <trkpt lat="48.53044" lon="3.1576">
        <ele>114.8</ele>
        <time>2025-03-16T06:09:56Z</time>
      </trkpt>
      <trkpt lat="48.53015" lon="3.15782">
        <ele>116.6</ele>
        <time>2025-03-16T06:10:19Z</time>
      </trkpt>
      <trkpt lat="48.52985" lon="3.15803">
        <ele>116.2</ele>
        <time>2025-03-16T06:10:42Z</time>
      </trkpt>
      <trkpt lat="48.52957" lon="3.15825">
        <ele>115.8</ele>
        <time>2025-03-16T06:11:04Z</time>
      </trkpt>
      <trkpt lat="48.52929" lon="3.15846">
        <ele>114.6</ele>
        <time>2025-03-16T06:11:26Z</time>
      </trkpt>
      <trkpt lat="48.52899" lon="3.15866">
        <ele>114.2</ele>
        <time>2025-03-16T06:11:49Z</time>
      </trkpt>
      <trkpt lat="48.52871" lon="3.15885">
        <ele>113.8</ele>
        <time>2025-03-16T06:12:10Z</time>
      </trkpt>
      <trkpt lat="48.5284" lon="3.15905">
        <ele>114.6</ele>
        <time>2025-03-16T06:12:33Z</time>
      </trkpt>
      <trkpt lat="48.52815" lon="3.15921">
        <ele>116</ele>
        <time>2025-03-16T06:12:52Z</time>
      </trkpt>
      <trkpt lat="48.52784" lon="3.15943">
        <ele>117.2</ele>
        <time>2025-03-16T06:13:16Z</time>
      </trkpt>
      <trkpt lat="48.52755" lon="3.15964">
        <ele>118</ele>
        <time>2025-03-16T06:13:38Z</time>
      </trkpt>
      <trkpt lat="48.52726" lon="3.15986">
        <ele>119</ele>
        <time>2025-03-16T06:14:02Z</time>
      </trkpt>
      <trkpt lat="48.52699" lon="3.16003">
        <ele>120.2</ele>
        <time>2025-03-16T06:14:23Z</time>
      </trkpt>
      <trkpt lat="48.52669" lon="3.16023">
        <ele>120.8</ele>
        <time>2025-03-16T06:14:46Z</time>
      </trkpt>
      <trkpt lat="48.52641" lon="3.16041">
        <ele>120.6</ele>
        <time>2025-03-16T06:15:08Z</time>
      </trkpt>
      <trkpt lat="48.5261" lon="3.16063">
        <ele>121.8</ele>
        <time>2025-03-16T06:15:32Z</time>
      </trkpt>
      <trkpt lat="48.52581" lon="3.16082">
        <ele>122.4</ele>
        <time>2025-03-16T06:15:54Z</time>
      </trkpt>
      <trkpt lat="48.52555" lon="3.161">
        <ele>123.6</ele>
        <time>2025-03-16T06:16:14Z</time>
      </trkpt>
      <trkpt lat="48.52525" lon="3.1612">
        <ele>124.6</ele>
        <time>2025-03-16T06:16:37Z</time>
      </trkpt>
      <trkpt lat="48.52499" lon="3.16137">
        <ele>125.6</ele>
        <time>2025-03-16T06:16:57Z</time>
      </trkpt>
      <trkpt lat="48.5247" lon="3.16157">
        <ele>127</ele>
        <time>2025-03-16T06:17:21Z</time>
      </trkpt>
      <trkpt lat="48.52452" lon="3.16171">
        <ele>127.2</ele>
        <time>2025-03-16T06:17:38Z</time>
      </trkpt>
      <trkpt lat="48.5243" lon="3.16182">
        <ele>128.2</ele>
        <time>2025-03-16T06:17:56Z</time>
      </trkpt>
      <trkpt lat="48.52405" lon="3.16197">
        <ele>129.4</ele>
        <time>2025-03-16T06:18:14Z</time>
      </trkpt>
      <trkpt lat="48.52385" lon="3.16211">
        <ele>130</ele>
        <time>2025-03-16T06:18:30Z</time>
      </trkpt>
      <trkpt lat="48.52351" lon="3.16235">
        <ele>131.4</ele>
        <time>2025-03-16T06:18:54Z</time>
      </trkpt>
      <trkpt lat="48.52315" lon="3.16254">
        <ele>132.6</ele>
        <time>2025-03-16T06:19:18Z</time>
      </trkpt>
      <trkpt lat="48.52286" lon="3.16261">
        <ele>133.2</ele>
        <time>2025-03-16T06:19:38Z</time>
      </trkpt>
      <trkpt lat="48.52254" lon="3.16262">
        <ele>135.6</ele>
        <time>2025-03-16T06:20:01Z</time>
      </trkpt>
      <trkpt lat="48.52231" lon="3.16265">
        <ele>135.4</ele>
        <time>2025-03-16T06:20:16Z</time>
      </trkpt>
      <trkpt lat="48.52202" lon="3.1627">
        <ele>135</ele>
        <time>2025-03-16T06:20:36Z</time>
      </trkpt>
      <trkpt lat="48.52182" lon="3.16276">
        <ele>134.2</ele>
        <time>2025-03-16T06:20:51Z</time>
      </trkpt>
      <trkpt lat="48.52154" lon="3.16286">
        <ele>133.4</ele>
        <time>2025-03-16T06:21:10Z</time>
      </trkpt>
      <trkpt lat="48.52123" lon="3.16297">
        <ele>132.8</ele>
        <time>2025-03-16T06:21:32Z</time>
      </trkpt>
      <trkpt lat="48.52093" lon="3.16307">
        <ele>131.8</ele>
        <time>2025-03-16T06:21:53Z</time>
      </trkpt>
      <trkpt lat="48.52066" lon="3.16317">
        <ele>130.4</ele>
        <time>2025-03-16T06:22:12Z</time>
      </trkpt>
      <trkpt lat="48.52038" lon="3.1633">
        <ele>128.6</ele>
        <time>2025-03-16T06:22:32Z</time>
      </trkpt>
      <trkpt lat="48.5201" lon="3.16342">
        <ele>127.4</ele>
        <time>2025-03-16T06:22:52Z</time>
      </trkpt>
      <trkpt lat="48.51983" lon="3.16353">
        <ele>125.6</ele>
        <time>2025-03-16T06:23:11Z</time>
      </trkpt>
      <trkpt lat="48.51952" lon="3.16366">
        <ele>124.4</ele>
        <time>2025-03-16T06:23:33Z</time>
      </trkpt>
      <trkpt lat="48.51921" lon="3.16381">
        <ele>122.8</ele>
        <time>2025-03-16T06:23:56Z</time>
      </trkpt>
      <trkpt lat="48.5189" lon="3.16394">
        <ele>121.6</ele>
        <time>2025-03-16T06:24:18Z</time>
      </trkpt>
      <trkpt lat="48.51859" lon="3.16408">
        <ele>121.4</ele>
        <time>2025-03-16T06:24:40Z</time>
      </trkpt>
      <trkpt lat="48.51828" lon="3.1642">
        <ele>121.4</ele>
        <time>2025-03-16T06:25:02Z</time>
      </trkpt>
      <trkpt lat="48.51794" lon="3.16436">
        <ele>120.8</ele>
        <time>2025-03-16T06:25:26Z</time>
      </trkpt>
      <trkpt lat="48.51768" lon="3.16446">
        <ele>120.8</ele>
        <time>2025-03-16T06:25:44Z</time>
      </trkpt>
      <trkpt lat="48.51739" lon="3.16458">
        <ele>121</ele>
        <time>2025-03-16T06:26:05Z</time>
      </trkpt>
      <trkpt lat="48.51708" lon="3.16472">
        <ele>120.8</ele>
        <time>2025-03-16T06:26:26Z</time>
      </trkpt>
      <trkpt lat="48.51683" lon="3.16482">
        <ele>121</ele>
        <time>2025-03-16T06:26:44Z</time>
      </trkpt>
      <trkpt lat="48.51651" lon="3.16497">
        <ele>121</ele>
        <time>2025-03-16T06:27:07Z</time>
      </trkpt>
      <trkpt lat="48.51621" lon="3.16509">
        <ele>121</ele>
        <time>2025-03-16T06:27:28Z</time>
      </trkpt>
      <trkpt lat="48.51589" lon="3.1652">
        <ele>121.4</ele>
        <time>2025-03-16T06:27:51Z</time>
      </trkpt>
      <trkpt lat="48.51556" lon="3.16535">
        <ele>122</ele>
        <time>2025-03-16T06:28:15Z</time>
      </trkpt>
      <trkpt lat="48.51528" lon="3.16547">
        <ele>122.6</ele>
        <time>2025-03-16T06:28:35Z</time>
      </trkpt>
      <trkpt lat="48.51502" lon="3.1656">
        <ele>123</ele>
        <time>2025-03-16T06:28:54Z</time>
      </trkpt>
      <trkpt lat="48.51476" lon="3.1657">
        <ele>123.6</ele>
        <time>2025-03-16T06:29:12Z</time>
      </trkpt>
      <trkpt lat="48.51446" lon="3.16581">
        <ele>124</ele>
        <time>2025-03-16T06:29:33Z</time>
      </trkpt>
      <trkpt lat="48.51416" lon="3.16595">
        <ele>124.8</ele>
        <time>2025-03-16T06:29:54Z</time>
      </trkpt>
      <trkpt lat="48.51387" lon="3.16606">
        <ele>125.8</ele>
        <time>2025-03-16T06:30:14Z</time>
      </trkpt>
      <trkpt lat="48.51361" lon="3.16615">
        <ele>126.6</ele>
        <time>2025-03-16T06:30:33Z</time>
      </trkpt>
      <trkpt lat="48.51337" lon="3.16628">
        <ele>126.8</ele>
        <time>2025-03-16T06:30:51Z</time>
      </trkpt>
      <trkpt lat="48.5131" lon="3.16645">
        <ele>127.6</ele>
        <time>2025-03-16T06:31:12Z</time>
      </trkpt>
      <trkpt lat="48.51301" lon="3.16648">
        <ele>127.6</ele>
        <time>2025-03-16T06:31:19Z</time>
      </trkpt>
      <trkpt lat="48.513" lon="3.16648">
        <ele>127.8</ele>
        <time>2025-03-16T06:31:20Z</time>
      </trkpt>
      <trkpt lat="48.51299" lon="3.16648">
        <ele>128</ele>
        <time>2025-03-16T06:31:21Z</time>
      </trkpt>
      <trkpt lat="48.51297" lon="3.16649">
        <ele>128</ele>
        <time>2025-03-16T06:31:22Z</time>
      </trkpt>
      <trkpt lat="48.51296" lon="3.1665">
        <ele>128</ele>
        <time>2025-03-16T06:31:23Z</time>
      </trkpt>
      <trkpt lat="48.51268" lon="3.16667">
        <ele>128.4</ele>
        <time>2025-03-16T06:31:45Z</time>
      </trkpt>
      <trkpt lat="48.51238" lon="3.1668">
        <ele>128</ele>
        <time>2025-03-16T06:32:05Z</time>
      </trkpt>
      <trkpt lat="48.51216" lon="3.1669">
        <ele>129.2</ele>
        <time>2025-03-16T06:32:21Z</time>
      </trkpt>
      <trkpt lat="48.51192" lon="3.16697">
        <ele>129</ele>
        <time>2025-03-16T06:32:38Z</time>
      </trkpt>
      <trkpt lat="48.51185" lon="3.167">
        <ele>129.6</ele>
        <time>2025-03-16T06:32:42Z</time>
      </trkpt>
      <trkpt lat="48.51179" lon="3.16704">
        <ele>129.8</ele>
        <time>2025-03-16T06:32:46Z</time>
      </trkpt>
      <trkpt lat="48.5115" lon="3.16713">
        <ele>129.4</ele>
        <time>2025-03-16T06:33:04Z</time>
      </trkpt>
      <trkpt lat="48.51129" lon="3.16716">
        <ele>129.2</ele>
        <time>2025-03-16T06:33:20Z</time>
      </trkpt>
      <trkpt lat="48.51109" lon="3.16725">
        <ele>129.2</ele>
        <time>2025-03-16T06:33:34Z</time>
      </trkpt>
      <trkpt lat="48.51088" lon="3.16734">
        <ele>129</ele>
        <time>2025-03-16T06:33:50Z</time>
      </trkpt>
      <trkpt lat="48.51078" lon="3.16763">
        <ele>128.8</ele>
        <time>2025-03-16T06:34:03Z</time>
      </trkpt>
      <trkpt lat="48.51076" lon="3.1681">
        <ele>128</ele>
        <time>2025-03-16T06:34:25Z</time>
      </trkpt>
      <trkpt lat="48.51073" lon="3.16849">
        <ele>127.2</ele>
        <time>2025-03-16T06:34:43Z</time>
      </trkpt>
      <trkpt lat="48.51067" lon="3.16893">
        <ele>126.2</ele>
        <time>2025-03-16T06:35:04Z</time>
      </trkpt>
      <trkpt lat="48.51064" lon="3.16895">
        <ele>126.2</ele>
        <time>2025-03-16T06:35:06Z</time>
      </trkpt>
      <trkpt lat="48.51039" lon="3.16896">
        <ele>126.2</ele>
        <time>2025-03-16T06:35:23Z</time>
      </trkpt>
      <trkpt lat="48.51009" lon="3.16891">
        <ele>127</ele>
        <time>2025-03-16T06:35:43Z</time>
      </trkpt>
      <trkpt lat="48.50999" lon="3.16891">
        <ele>127</ele>
        <time>2025-03-16T06:35:49Z</time>
      </trkpt>
      <trkpt lat="48.50998" lon="3.1689">
        <ele>126.8</ele>
        <time>2025-03-16T06:35:50Z</time>
      </trkpt>
      <trkpt lat="48.50988" lon="3.16886">
        <ele>130.2</ele>
        <time>2025-03-16T06:36:03Z</time>
      </trkpt>
      <trkpt lat="48.50988" lon="3.16886">
        <ele>130.4</ele>
        <time>2025-03-16T06:36:04Z</time>
      </trkpt>
      <trkpt lat="48.50988" lon="3.16886">
        <ele>127.4</ele>
        <time>2025-03-16T06:36:15Z</time>
      </trkpt>
      <trkpt lat="48.50988" lon="3.16886">
        <ele>126.4</ele>
        <time>2025-03-16T06:36:17Z</time>
      </trkpt>
      <trkpt lat="48.50987" lon="3.16887">
        <ele>125.6</ele>
        <time>2025-03-16T06:36:26Z</time>
      </trkpt>
      <trkpt lat="48.51026" lon="3.16894">
        <ele>137.2</ele>
        <time>2025-03-16T07:06:33Z</time>
      </trkpt>
      <trkpt lat="48.51027" lon="3.16895">
        <ele>125.6</ele>
        <time>2025-03-16T07:06:34Z</time>
      </trkpt>
      <trkpt lat="48.51029" lon="3.16895">
        <ele>125.4</ele>
        <time>2025-03-16T07:06:36Z</time>
      </trkpt>
      <trkpt lat="48.51031" lon="3.16895">
        <ele>125.4</ele>
        <time>2025-03-16T07:06:37Z</time>
      </trkpt>
      <trkpt lat="48.51054" lon="3.16899">
        <ele>125.4</ele>
        <time>2025-03-16T07:06:54Z</time>
      </trkpt>
      <trkpt lat="48.51055" lon="3.16899">
        <ele>125.4</ele>
        <time>2025-03-16T07:06:55Z</time>
      </trkpt>
      <trkpt lat="48.51058" lon="3.16899">
        <ele>125.4</ele>
        <time>2025-03-16T07:06:58Z</time>
      </trkpt>
      <trkpt lat="48.51073" lon="3.16868">
        <ele>126.2</ele>
        <time>2025-03-16T07:07:17Z</time>
      </trkpt>
      <trkpt lat="48.51074" lon="3.16846">
        <ele>126.8</ele>
        <time>2025-03-16T07:07:27Z</time>
      </trkpt>
      <trkpt lat="48.51074" lon="3.16844">
        <ele>126.8</ele>
        <time>2025-03-16T07:07:28Z</time>
      </trkpt>
      <trkpt lat="48.51074" lon="3.16842">
        <ele>126.8</ele>
        <time>2025-03-16T07:07:29Z</time>
      </trkpt>
      <trkpt lat="48.51074" lon="3.1684">
        <ele>126.8</ele>
        <time>2025-03-16T07:07:30Z</time>
      </trkpt>
      <trkpt lat="48.51074" lon="3.16838">
        <ele>126.8</ele>
        <time>2025-03-16T07:07:31Z</time>
      </trkpt>
      <trkpt lat="48.51075" lon="3.16836">
        <ele>126.8</ele>
        <time>2025-03-16T07:07:32Z</time>
      </trkpt>
      <trkpt lat="48.51076" lon="3.16834">
        <ele>126.8</ele>
        <time>2025-03-16T07:07:33Z</time>
      </trkpt>
      <trkpt lat="48.51077" lon="3.16832">
        <ele>126.8</ele>
        <time>2025-03-16T07:07:34Z</time>
      </trkpt>
      <trkpt lat="48.51077" lon="3.1683">
        <ele>126.8</ele>
        <time>2025-03-16T07:07:35Z</time>
      </trkpt>
      <trkpt lat="48.5108" lon="3.16796">
        <ele>127.4</ele>
        <time>2025-03-16T07:07:51Z</time>
      </trkpt>
      <trkpt lat="48.51082" lon="3.16758">
        <ele>128.8</ele>
        <time>2025-03-16T07:08:09Z</time>
      </trkpt>
      <trkpt lat="48.51097" lon="3.16734">
        <ele>128.6</ele>
        <time>2025-03-16T07:08:24Z</time>
      </trkpt>
      <trkpt lat="48.51118" lon="3.16728">
        <ele>128.8</ele>
        <time>2025-03-16T07:08:40Z</time>
      </trkpt>
      <trkpt lat="48.51142" lon="3.16717">
        <ele>129.8</ele>
        <time>2025-03-16T07:08:58Z</time>
      </trkpt>
      <trkpt lat="48.51172" lon="3.16709">
        <ele>129.6</ele>
        <time>2025-03-16T07:09:18Z</time>
      </trkpt>
      <trkpt lat="48.51198" lon="3.167">
        <ele>129.4</ele>
        <time>2025-03-16T07:09:36Z</time>
      </trkpt>
      <trkpt lat="48.5122" lon="3.16691">
        <ele>128.8</ele>
        <time>2025-03-16T07:09:52Z</time>
      </trkpt>
      <trkpt lat="48.51245" lon="3.1668">
        <ele>128.6</ele>
        <time>2025-03-16T07:10:10Z</time>
      </trkpt>
      <trkpt lat="48.51272" lon="3.16665">
        <ele>128</ele>
        <time>2025-03-16T07:10:30Z</time>
      </trkpt>
      <trkpt lat="48.51301" lon="3.1665">
        <ele>127.6</ele>
        <time>2025-03-16T07:10:51Z</time>
      </trkpt>
      <trkpt lat="48.5132" lon="3.16642">
        <ele>127.2</ele>
        <time>2025-03-16T07:11:05Z</time>
      </trkpt>
      <trkpt lat="48.51348" lon="3.1663">
        <ele>126.4</ele>
        <time>2025-03-16T07:11:24Z</time>
      </trkpt>
      <trkpt lat="48.51378" lon="3.16616">
        <ele>126</ele>
        <time>2025-03-16T07:11:45Z</time>
      </trkpt>
      <trkpt lat="48.51408" lon="3.16603">
        <ele>125.2</ele>
        <time>2025-03-16T07:12:06Z</time>
      </trkpt>
      <trkpt lat="48.51435" lon="3.16593">
        <ele>124.4</ele>
        <time>2025-03-16T07:12:24Z</time>
      </trkpt>
      <trkpt lat="48.51462" lon="3.16579">
        <ele>123</ele>
        <time>2025-03-16T07:12:43Z</time>
      </trkpt>
      <trkpt lat="48.51491" lon="3.16569">
        <ele>122.4</ele>
        <time>2025-03-16T07:13:04Z</time>
      </trkpt>
      <trkpt lat="48.51517" lon="3.16556">
        <ele>122</ele>
        <time>2025-03-16T07:13:22Z</time>
      </trkpt>
      <trkpt lat="48.51547" lon="3.16542">
        <ele>121.2</ele>
        <time>2025-03-16T07:13:43Z</time>
      </trkpt>
      <trkpt lat="48.51578" lon="3.16527">
        <ele>121</ele>
        <time>2025-03-16T07:14:05Z</time>
      </trkpt>
      <trkpt lat="48.5161" lon="3.16514">
        <ele>120.6</ele>
        <time>2025-03-16T07:14:27Z</time>
      </trkpt>
      <trkpt lat="48.51635" lon="3.16527">
        <ele>119.8</ele>
        <time>2025-03-16T07:14:47Z</time>
      </trkpt>
      <trkpt lat="48.5166" lon="3.16567">
        <ele>119.4</ele>
        <time>2025-03-16T07:15:12Z</time>
      </trkpt>
      <trkpt lat="48.51682" lon="3.16604">
        <ele>119.2</ele>
        <time>2025-03-16T07:15:35Z</time>
      </trkpt>
      <trkpt lat="48.51704" lon="3.16641">
        <ele>119</ele>
        <time>2025-03-16T07:15:58Z</time>
      </trkpt>
      <trkpt lat="48.51723" lon="3.16672">
        <ele>118.6</ele>
        <time>2025-03-16T07:16:17Z</time>
      </trkpt>
      <trkpt lat="48.51744" lon="3.16708">
        <ele>118.6</ele>
        <time>2025-03-16T07:16:39Z</time>
      </trkpt>
      <trkpt lat="48.5177" lon="3.16745">
        <ele>119</ele>
        <time>2025-03-16T07:17:03Z</time>
      </trkpt>
      <trkpt lat="48.518" lon="3.16772">
        <ele>118.2</ele>
        <time>2025-03-16T07:17:27Z</time>
      </trkpt>
      <trkpt lat="48.5183" lon="3.16801">
        <ele>117.2</ele>
        <time>2025-03-16T07:17:50Z</time>
      </trkpt>
      <trkpt lat="48.5186" lon="3.16826">
        <ele>116.4</ele>
        <time>2025-03-16T07:18:13Z</time>
      </trkpt>
      <trkpt lat="48.51891" lon="3.16858">
        <ele>117</ele>
        <time>2025-03-16T07:18:38Z</time>
      </trkpt>
      <trkpt lat="48.51906" lon="3.16887">
        <ele>117.2</ele>
        <time>2025-03-16T07:18:55Z</time>
      </trkpt>
      <trkpt lat="48.51922" lon="3.1693">
        <ele>118.4</ele>
        <time>2025-03-16T07:19:17Z</time>
      </trkpt>
      <trkpt lat="48.51936" lon="3.16964">
        <ele>118.6</ele>
        <time>2025-03-16T07:19:36Z</time>
      </trkpt>
      <trkpt lat="48.51952" lon="3.16996">
        <ele>118.6</ele>
        <time>2025-03-16T07:19:53Z</time>
      </trkpt>
      <trkpt lat="48.51969" lon="3.17027">
        <ele>119.2</ele>
        <time>2025-03-16T07:20:12Z</time>
      </trkpt>
      <trkpt lat="48.51989" lon="3.1706">
        <ele>120.2</ele>
        <time>2025-03-16T07:20:32Z</time>
      </trkpt>
      <trkpt lat="48.52007" lon="3.1709">
        <ele>120.6</ele>
        <time>2025-03-16T07:20:51Z</time>
      </trkpt>
      <trkpt lat="48.52026" lon="3.17131">
        <ele>121.4</ele>
        <time>2025-03-16T07:21:12Z</time>
      </trkpt>
      <trkpt lat="48.52041" lon="3.17166">
        <ele>122</ele>
        <time>2025-03-16T07:21:31Z</time>
      </trkpt>
      <trkpt lat="48.52044" lon="3.17176">
        <ele>122.2</ele>
        <time>2025-03-16T07:21:36Z</time>
      </trkpt>
      <trkpt lat="48.52045" lon="3.17178">
        <ele>122.4</ele>
        <time>2025-03-16T07:21:37Z</time>
      </trkpt>
      <trkpt lat="48.52045" lon="3.1718">
        <ele>122.6</ele>
        <time>2025-03-16T07:21:38Z</time>
      </trkpt>
      <trkpt lat="48.52046" lon="3.17182">
        <ele>122.6</ele>
        <time>2025-03-16T07:21:39Z</time>
      </trkpt>
      <trkpt lat="48.52046" lon="3.17184">
        <ele>122.8</ele>
        <time>2025-03-16T07:21:40Z</time>
      </trkpt>
      <trkpt lat="48.52047" lon="3.17187">
        <ele>122.8</ele>
        <time>2025-03-16T07:21:41Z</time>
      </trkpt>
      <trkpt lat="48.52047" lon="3.17193">
        <ele>123.2</ele>
        <time>2025-03-16T07:21:44Z</time>
      </trkpt>
      <trkpt lat="48.52048" lon="3.17195">
        <ele>123.2</ele>
        <time>2025-03-16T07:21:45Z</time>
      </trkpt>
      <trkpt lat="48.52049" lon="3.17227">
        <ele>123.2</ele>
        <time>2025-03-16T07:21:59Z</time>
      </trkpt>
      <trkpt lat="48.52048" lon="3.17276">
        <ele>123.4</ele>
        <time>2025-03-16T07:22:21Z</time>
      </trkpt>
      <trkpt lat="48.52046" lon="3.17326">
        <ele>124.4</ele>
        <time>2025-03-16T07:22:43Z</time>
      </trkpt>
      <trkpt lat="48.52043" lon="3.17377">
        <ele>125</ele>
        <time>2025-03-16T07:23:05Z</time>
      </trkpt>
      <trkpt lat="48.52042" lon="3.17424">
        <ele>125</ele>
        <time>2025-03-16T07:23:26Z</time>
      </trkpt>
      <trkpt lat="48.52043" lon="3.17471">
        <ele>125.2</ele>
        <time>2025-03-16T07:23:47Z</time>
      </trkpt>
      <trkpt lat="48.52047" lon="3.17516">
        <ele>124.4</ele>
        <time>2025-03-16T07:24:08Z</time>
      </trkpt>
      <trkpt lat="48.5205" lon="3.17563">
        <ele>125</ele>
        <time>2025-03-16T07:24:29Z</time>
      </trkpt>
      <trkpt lat="48.5205" lon="3.17606">
        <ele>125.6</ele>
        <time>2025-03-16T07:24:48Z</time>
      </trkpt>
      <trkpt lat="48.52053" lon="3.17656">
        <ele>125.6</ele>
        <time>2025-03-16T07:25:10Z</time>
      </trkpt>
      <trkpt lat="48.52056" lon="3.17714">
        <ele>124.8</ele>
        <time>2025-03-16T07:25:35Z</time>
      </trkpt>
      <trkpt lat="48.52058" lon="3.17763">
        <ele>124.8</ele>
        <time>2025-03-16T07:25:57Z</time>
      </trkpt>
      <trkpt lat="48.52063" lon="3.17811">
        <ele>124.4</ele>
        <time>2025-03-16T07:26:18Z</time>
      </trkpt>
      <trkpt lat="48.52074" lon="3.17862">
        <ele>124.8</ele>
        <time>2025-03-16T07:26:42Z</time>
      </trkpt>
      <trkpt lat="48.52088" lon="3.17916">
        <ele>125.8</ele>
        <time>2025-03-16T07:27:08Z</time>
      </trkpt>
      <trkpt lat="48.52102" lon="3.17958">
        <ele>126</ele>
        <time>2025-03-16T07:27:29Z</time>
      </trkpt>
      <trkpt lat="48.52114" lon="3.17994">
        <ele>126</ele>
        <time>2025-03-16T07:27:47Z</time>
      </trkpt>
      <trkpt lat="48.52114" lon="3.17996">
        <ele>126</ele>
        <time>2025-03-16T07:27:48Z</time>
      </trkpt>
      <trkpt lat="48.52115" lon="3.17998">
        <ele>126.2</ele>
        <time>2025-03-16T07:27:49Z</time>
      </trkpt>
      <trkpt lat="48.52117" lon="3.17999">
        <ele>126.2</ele>
        <time>2025-03-16T07:27:50Z</time>
      </trkpt>
      <trkpt lat="48.52118" lon="3.18001">
        <ele>126.2</ele>
        <time>2025-03-16T07:27:51Z</time>
      </trkpt>
      <trkpt lat="48.52138" lon="3.18045">
        <ele>126</ele>
        <time>2025-03-16T07:28:14Z</time>
      </trkpt>
      <trkpt lat="48.52155" lon="3.18091">
        <ele>126</ele>
        <time>2025-03-16T07:28:37Z</time>
      </trkpt>
      <trkpt lat="48.52169" lon="3.18133">
        <ele>125</ele>
        <time>2025-03-16T07:28:58Z</time>
      </trkpt>
      <trkpt lat="48.52187" lon="3.18181">
        <ele>123.8</ele>
        <time>2025-03-16T07:29:23Z</time>
      </trkpt>
      <trkpt lat="48.52202" lon="3.18229">
        <ele>122.8</ele>
        <time>2025-03-16T07:29:47Z</time>
      </trkpt>
      <trkpt lat="48.52208" lon="3.18252">
        <ele>122.8</ele>
        <time>2025-03-16T07:30:05Z</time>
      </trkpt>
      <trkpt lat="48.52208" lon="3.18252">
        <ele>123</ele>
        <time>2025-03-16T07:30:40Z</time>
      </trkpt>
      <trkpt lat="48.52206" lon="3.18254">
        <ele>122.6</ele>
        <time>2025-03-16T07:31:01Z</time>
      </trkpt>
      <trkpt lat="48.52218" lon="3.18276">
        <ele>122.2</ele>
        <time>2025-03-16T07:31:14Z</time>
      </trkpt>
      <trkpt lat="48.52236" lon="3.18319">
        <ele>121.4</ele>
        <time>2025-03-16T07:31:36Z</time>
      </trkpt>
      <trkpt lat="48.52257" lon="3.18368">
        <ele>120</ele>
        <time>2025-03-16T07:32:02Z</time>
      </trkpt>
      <trkpt lat="48.52275" lon="3.1841">
        <ele>119</ele>
        <time>2025-03-16T07:32:24Z</time>
      </trkpt>
      <trkpt lat="48.52292" lon="3.18452">
        <ele>118.4</ele>
        <time>2025-03-16T07:32:46Z</time>
      </trkpt>
      <trkpt lat="48.52309" lon="3.18495">
        <ele>117.8</ele>
        <time>2025-03-16T07:33:07Z</time>
      </trkpt>
      <trkpt lat="48.52324" lon="3.18537">
        <ele>117.6</ele>
        <time>2025-03-16T07:33:29Z</time>
      </trkpt>
      <trkpt lat="48.5234" lon="3.1858">
        <ele>117.2</ele>
        <time>2025-03-16T07:33:51Z</time>
      </trkpt>
      <trkpt lat="48.52357" lon="3.18626">
        <ele>116.8</ele>
        <time>2025-03-16T07:34:14Z</time>
      </trkpt>
      <trkpt lat="48.52376" lon="3.18677">
        <ele>116</ele>
        <time>2025-03-16T07:34:40Z</time>
      </trkpt>
      <trkpt lat="48.52391" lon="3.18718">
        <ele>115.8</ele>
        <time>2025-03-16T07:35:01Z</time>
      </trkpt>
      <trkpt lat="48.52405" lon="3.18758">
        <ele>115.8</ele>
        <time>2025-03-16T07:35:22Z</time>
      </trkpt>
      <trkpt lat="48.52422" lon="3.18801">
        <ele>115.8</ele>
        <time>2025-03-16T07:35:44Z</time>
      </trkpt>
      <trkpt lat="48.52437" lon="3.18842">
        <ele>116.2</ele>
        <time>2025-03-16T07:36:05Z</time>
      </trkpt>
      <trkpt lat="48.52452" lon="3.18883">
        <ele>116.6</ele>
        <time>2025-03-16T07:36:26Z</time>
      </trkpt>
      <trkpt lat="48.52473" lon="3.18929">
        <ele>116.2</ele>
        <time>2025-03-16T07:36:50Z</time>
      </trkpt>
      <trkpt lat="48.52492" lon="3.18971">
        <ele>115.8</ele>
        <time>2025-03-16T07:37:12Z</time>
      </trkpt>
      <trkpt lat="48.5251" lon="3.19018">
        <ele>115.4</ele>
        <time>2025-03-16T07:37:36Z</time>
      </trkpt>
      <trkpt lat="48.52526" lon="3.19065">
        <ele>116</ele>
        <time>2025-03-16T07:37:59Z</time>
      </trkpt>
      <trkpt lat="48.5254" lon="3.19107">
        <ele>116.8</ele>
        <time>2025-03-16T07:38:20Z</time>
      </trkpt>
      <trkpt lat="48.52556" lon="3.19152">
        <ele>117.4</ele>
        <time>2025-03-16T07:38:42Z</time>
      </trkpt>
      <trkpt lat="48.52573" lon="3.19199">
        <ele>118</ele>
        <time>2025-03-16T07:39:06Z</time>
      </trkpt>
      <trkpt lat="48.52591" lon="3.19233">
        <ele>119.2</ele>
        <time>2025-03-16T07:39:26Z</time>
      </trkpt>
      <trkpt lat="48.52613" lon="3.19269">
        <ele>120.6</ele>
        <time>2025-03-16T07:39:48Z</time>
      </trkpt>
      <trkpt lat="48.52636" lon="3.19307">
        <ele>121.2</ele>
        <time>2025-03-16T07:40:11Z</time>
      </trkpt>
      <trkpt lat="48.52659" lon="3.19347">
        <ele>121.6</ele>
        <time>2025-03-16T07:40:35Z</time>
      </trkpt>
      <trkpt lat="48.52681" lon="3.19382">
        <ele>120.4</ele>
        <time>2025-03-16T07:40:56Z</time>
      </trkpt>
      <trkpt lat="48.52704" lon="3.19421">
        <ele>119.4</ele>
        <time>2025-03-16T07:41:19Z</time>
      </trkpt>
      <trkpt lat="48.52729" lon="3.19462">
        <ele>118.6</ele>
        <time>2025-03-16T07:41:44Z</time>
      </trkpt>
      <trkpt lat="48.52753" lon="3.19499">
        <ele>117.6</ele>
        <time>2025-03-16T07:42:07Z</time>
      </trkpt>
      <trkpt lat="48.52777" lon="3.19536">
        <ele>117.4</ele>
        <time>2025-03-16T07:42:30Z</time>
      </trkpt>
      <trkpt lat="48.52803" lon="3.19581">
        <ele>116.8</ele>
        <time>2025-03-16T07:42:57Z</time>
      </trkpt>
      <trkpt lat="48.52827" lon="3.19617">
        <ele>116.2</ele>
        <time>2025-03-16T07:43:19Z</time>
      </trkpt>
      <trkpt lat="48.52853" lon="3.19662">
        <ele>115.8</ele>
        <time>2025-03-16T07:43:46Z</time>
      </trkpt>
      <trkpt lat="48.52869" lon="3.19701">
        <ele>115</ele>
        <time>2025-03-16T07:44:06Z</time>
      </trkpt>
      <trkpt lat="48.52885" lon="3.19752">
        <ele>114.6</ele>
        <time>2025-03-16T07:44:31Z</time>
      </trkpt>
      <trkpt lat="48.52898" lon="3.19803">
        <ele>114.4</ele>
        <time>2025-03-16T07:44:55Z</time>
      </trkpt>
      <trkpt lat="48.52912" lon="3.19853">
        <ele>113.4</ele>
        <time>2025-03-16T07:45:19Z</time>
      </trkpt>
      <trkpt lat="48.52924" lon="3.19899">
        <ele>113.2</ele>
        <time>2025-03-16T07:45:41Z</time>
      </trkpt>
      <trkpt lat="48.52935" lon="3.19945">
        <ele>113.2</ele>
        <time>2025-03-16T07:46:03Z</time>
      </trkpt>
      <trkpt lat="48.52948" lon="3.19993">
        <ele>113</ele>
        <time>2025-03-16T07:46:26Z</time>
      </trkpt>
      <trkpt lat="48.52959" lon="3.20039">
        <ele>113.2</ele>
        <time>2025-03-16T07:46:48Z</time>
      </trkpt>
      <trkpt lat="48.52971" lon="3.20083">
        <ele>113.8</ele>
        <time>2025-03-16T07:47:09Z</time>
      </trkpt>
      <trkpt lat="48.52986" lon="3.20128">
        <ele>113.8</ele>
        <time>2025-03-16T07:47:31Z</time>
      </trkpt>
      <trkpt lat="48.53008" lon="3.2017">
        <ele>113.4</ele>
        <time>2025-03-16T07:47:54Z</time>
      </trkpt>
      <trkpt lat="48.53033" lon="3.20213">
        <ele>113</ele>
        <time>2025-03-16T07:48:19Z</time>
      </trkpt>
      <trkpt lat="48.53051" lon="3.20249">
        <ele>112.6</ele>
        <time>2025-03-16T07:48:39Z</time>
      </trkpt>
      <trkpt lat="48.53068" lon="3.20297">
        <ele>112</ele>
        <time>2025-03-16T07:49:03Z</time>
      </trkpt>
      <trkpt lat="48.53085" lon="3.20348">
        <ele>110.8</ele>
        <time>2025-03-16T07:49:28Z</time>
      </trkpt>
      <trkpt lat="48.53099" lon="3.20397">
        <ele>108.8</ele>
        <time>2025-03-16T07:49:52Z</time>
      </trkpt>
      <trkpt lat="48.53114" lon="3.20441">
        <ele>106</ele>
        <time>2025-03-16T07:50:13Z</time>
      </trkpt>
      <trkpt lat="48.53129" lon="3.20484">
        <ele>103</ele>
        <time>2025-03-16T07:50:34Z</time>
      </trkpt>
      <trkpt lat="48.53146" lon="3.20534">
        <ele>99.8</ele>
        <time>2025-03-16T07:50:58Z</time>
      </trkpt>
      <trkpt lat="48.53159" lon="3.20575">
        <ele>97</ele>
        <time>2025-03-16T07:51:18Z</time>
      </trkpt>
      <trkpt lat="48.53174" lon="3.20622">
        <ele>93.8</ele>
        <time>2025-03-16T07:51:40Z</time>
      </trkpt>
      <trkpt lat="48.5319" lon="3.20663">
        <ele>91</ele>
        <time>2025-03-16T07:52:00Z</time>
      </trkpt>
      <trkpt lat="48.53204" lon="3.20703">
        <ele>87.8</ele>
        <time>2025-03-16T07:52:20Z</time>
      </trkpt>
      <trkpt lat="48.53226" lon="3.20737">
        <ele>85.4</ele>
        <time>2025-03-16T07:52:39Z</time>
      </trkpt>
      <trkpt lat="48.53247" lon="3.2076">
        <ele>83.4</ele>
        <time>2025-03-16T07:52:57Z</time>
      </trkpt>
      <trkpt lat="48.53271" lon="3.20779">
        <ele>81.2</ele>
        <time>2025-03-16T07:53:17Z</time>
      </trkpt>
      <trkpt lat="48.53299" lon="3.208">
        <ele>78</ele>
        <time>2025-03-16T07:53:35Z</time>
      </trkpt>
      <trkpt lat="48.53331" lon="3.20819">
        <ele>75.2</ele>
        <time>2025-03-16T07:53:56Z</time>
      </trkpt>
      <trkpt lat="48.53357" lon="3.20837">
        <ele>72.6</ele>
        <time>2025-03-16T07:54:14Z</time>
      </trkpt>
      <trkpt lat="48.5338" lon="3.20861">
        <ele>69.6</ele>
        <time>2025-03-16T07:54:33Z</time>
      </trkpt>
      <trkpt lat="48.53397" lon="3.20901">
        <ele>66.6</ele>
        <time>2025-03-16T07:54:53Z</time>
      </trkpt>
      <trkpt lat="48.53409" lon="3.20944">
        <ele>63.8</ele>
        <time>2025-03-16T07:55:14Z</time>
      </trkpt>
      <trkpt lat="48.53422" lon="3.20993">
        <ele>61.8</ele>
        <time>2025-03-16T07:55:37Z</time>
      </trkpt>
      <trkpt lat="48.53438" lon="3.21038">
        <ele>61.8</ele>
        <time>2025-03-16T07:55:59Z</time>
      </trkpt>
      <trkpt lat="48.53462" lon="3.2106">
        <ele>62.4</ele>
        <time>2025-03-16T07:56:18Z</time>
      </trkpt>
      <trkpt lat="48.53493" lon="3.21065">
        <ele>62.6</ele>
        <time>2025-03-16T07:56:37Z</time>
      </trkpt>
      <trkpt lat="48.53514" lon="3.21089">
        <ele>63.8</ele>
        <time>2025-03-16T07:56:56Z</time>
      </trkpt>
      <trkpt lat="48.53521" lon="3.21128">
        <ele>63.4</ele>
        <time>2025-03-16T07:57:14Z</time>
      </trkpt>
      <trkpt lat="48.53528" lon="3.21174">
        <ele>62.4</ele>
        <time>2025-03-16T07:57:34Z</time>
      </trkpt>
      <trkpt lat="48.53541" lon="3.21214">
        <ele>61</ele>
        <time>2025-03-16T07:57:53Z</time>
      </trkpt>
      <trkpt lat="48.5355" lon="3.21251">
        <ele>60.4</ele>
        <time>2025-03-16T07:58:09Z</time>
      </trkpt>
      <trkpt lat="48.53556" lon="3.213">
        <ele>60</ele>
        <time>2025-03-16T07:58:31Z</time>
      </trkpt>
      <trkpt lat="48.5356" lon="3.21349">
        <ele>60.2</ele>
        <time>2025-03-16T07:58:52Z</time>
      </trkpt>
      <trkpt lat="48.53554" lon="3.21404">
        <ele>59.8</ele>
        <time>2025-03-16T07:59:16Z</time>
      </trkpt>
      <trkpt lat="48.53545" lon="3.21451">
        <ele>60</ele>
        <time>2025-03-16T07:59:38Z</time>
      </trkpt>
      <trkpt lat="48.53537" lon="3.21506">
        <ele>60.2</ele>
        <time>2025-03-16T08:00:03Z</time>
      </trkpt>
      <trkpt lat="48.53532" lon="3.21555">
        <ele>60.8</ele>
        <time>2025-03-16T08:00:24Z</time>
      </trkpt>
      <trkpt lat="48.53522" lon="3.21594">
        <ele>61.2</ele>
        <time>2025-03-16T08:00:42Z</time>
      </trkpt>
      <trkpt lat="48.53511" lon="3.21642">
        <ele>61.2</ele>
        <time>2025-03-16T08:01:05Z</time>
      </trkpt>
      <trkpt lat="48.53493" lon="3.21684">
        <ele>61.2</ele>
        <time>2025-03-16T08:01:27Z</time>
      </trkpt>
      <trkpt lat="48.53473" lon="3.2172">
        <ele>60.2</ele>
        <time>2025-03-16T08:01:47Z</time>
      </trkpt>
      <trkpt lat="48.5345" lon="3.21762">
        <ele>60</ele>
        <time>2025-03-16T08:02:11Z</time>
      </trkpt>
      <trkpt lat="48.53434" lon="3.21798">
        <ele>60</ele>
        <time>2025-03-16T08:02:31Z</time>
      </trkpt>
      <trkpt lat="48.53418" lon="3.2183">
        <ele>60.4</ele>
        <time>2025-03-16T08:02:49Z</time>
      </trkpt>
      <trkpt lat="48.534" lon="3.21866">
        <ele>60.4</ele>
        <time>2025-03-16T08:03:09Z</time>
      </trkpt>
      <trkpt lat="48.53389" lon="3.21901">
        <ele>60.8</ele>
        <time>2025-03-16T08:03:27Z</time>
      </trkpt>
      <trkpt lat="48.53382" lon="3.21935">
        <ele>62</ele>
        <time>2025-03-16T08:03:44Z</time>
      </trkpt>
      <trkpt lat="48.53373" lon="3.21983">
        <ele>63.8</ele>
        <time>2025-03-16T08:04:07Z</time>
      </trkpt>
      <trkpt lat="48.53364" lon="3.22023">
        <ele>64.8</ele>
        <time>2025-03-16T08:04:26Z</time>
      </trkpt>
      <trkpt lat="48.53357" lon="3.22062">
        <ele>66.2</ele>
        <time>2025-03-16T08:04:45Z</time>
      </trkpt>
      <trkpt lat="48.53355" lon="3.22102">
        <ele>67.6</ele>
        <time>2025-03-16T08:05:04Z</time>
      </trkpt>
      <trkpt lat="48.5336" lon="3.22136">
        <ele>69.6</ele>
        <time>2025-03-16T08:05:21Z</time>
      </trkpt>
      <trkpt lat="48.53373" lon="3.22168">
        <ele>70.8</ele>
        <time>2025-03-16T08:05:39Z</time>
      </trkpt>
      <trkpt lat="48.53394" lon="3.222">
        <ele>72.4</ele>
        <time>2025-03-16T08:06:00Z</time>
      </trkpt>
      <trkpt lat="48.53416" lon="3.22223">
        <ele>73.8</ele>
        <time>2025-03-16T08:06:18Z</time>
      </trkpt>
      <trkpt lat="48.5343" lon="3.22253">
        <ele>75.4</ele>
        <time>2025-03-16T08:06:35Z</time>
      </trkpt>
      <trkpt lat="48.53439" lon="3.22289">
        <ele>77.4</ele>
        <time>2025-03-16T08:06:52Z</time>
      </trkpt>
      <trkpt lat="48.53443" lon="3.22333">
        <ele>79</ele>
        <time>2025-03-16T08:07:12Z</time>
      </trkpt>
      <trkpt lat="48.53447" lon="3.22379">
        <ele>80.6</ele>
        <time>2025-03-16T08:07:32Z</time>
      </trkpt>
      <trkpt lat="48.53451" lon="3.22424">
        <ele>82.4</ele>
        <time>2025-03-16T08:07:51Z</time>
      </trkpt>
      <trkpt lat="48.53454" lon="3.22466">
        <ele>84</ele>
        <time>2025-03-16T08:08:11Z</time>
      </trkpt>
      <trkpt lat="48.5346" lon="3.22506">
        <ele>85.6</ele>
        <time>2025-03-16T08:08:28Z</time>
      </trkpt>
      <trkpt lat="48.53463" lon="3.22543">
        <ele>87.2</ele>
        <time>2025-03-16T08:08:46Z</time>
      </trkpt>
      <trkpt lat="48.53468" lon="3.22598">
        <ele>89.2</ele>
        <time>2025-03-16T08:09:08Z</time>
      </trkpt>
      <trkpt lat="48.53473" lon="3.22649">
        <ele>90.8</ele>
        <time>2025-03-16T08:09:30Z</time>
      </trkpt>
      <trkpt lat="48.53476" lon="3.22695">
        <ele>92.8</ele>
        <time>2025-03-16T08:09:51Z</time>
      </trkpt>
      <trkpt lat="48.53476" lon="3.22739">
        <ele>94.4</ele>
        <time>2025-03-16T08:10:09Z</time>
      </trkpt>
      <trkpt lat="48.53472" lon="3.22775">
        <ele>95.8</ele>
        <time>2025-03-16T08:10:25Z</time>
      </trkpt>
      <trkpt lat="48.53465" lon="3.22814">
        <ele>97.4</ele>
        <time>2025-03-16T08:10:43Z</time>
      </trkpt>
      <trkpt lat="48.53468" lon="3.2286">
        <ele>99.2</ele>
        <time>2025-03-16T08:11:03Z</time>
      </trkpt>
      <trkpt lat="48.53468" lon="3.22903">
        <ele>101.2</ele>
        <time>2025-03-16T08:11:22Z</time>
      </trkpt>
      <trkpt lat="48.53465" lon="3.22955">
        <ele>102.4</ele>
        <time>2025-03-16T08:11:45Z</time>
      </trkpt>
      <trkpt lat="48.53466" lon="3.23">
        <ele>104.2</ele>
        <time>2025-03-16T08:12:05Z</time>
      </trkpt>
      <trkpt lat="48.53464" lon="3.23049">
        <ele>106.2</ele>
        <time>2025-03-16T08:12:28Z</time>
      </trkpt>
      <trkpt lat="48.5346" lon="3.2309">
        <ele>107.6</ele>
        <time>2025-03-16T08:12:46Z</time>
      </trkpt>
      <trkpt lat="48.53456" lon="3.2313">
        <ele>109</ele>
        <time>2025-03-16T08:13:04Z</time>
      </trkpt>
      <trkpt lat="48.53447" lon="3.23169">
        <ele>111.2</ele>
        <time>2025-03-16T08:13:23Z</time>
      </trkpt>
      <trkpt lat="48.53445" lon="3.23215">
        <ele>112.6</ele>
        <time>2025-03-16T08:13:43Z</time>
      </trkpt>
      <trkpt lat="48.53442" lon="3.23268">
        <ele>114.2</ele>
        <time>2025-03-16T08:14:07Z</time>
      </trkpt>
      <trkpt lat="48.53441" lon="3.23303">
        <ele>115.4</ele>
        <time>2025-03-16T08:14:23Z</time>
      </trkpt>
      <trkpt lat="48.53446" lon="3.23342">
        <ele>116.4</ele>
        <time>2025-03-16T08:14:41Z</time>
      </trkpt>
      <trkpt lat="48.5345" lon="3.2338">
        <ele>116.6</ele>
        <time>2025-03-16T08:14:58Z</time>
      </trkpt>
      <trkpt lat="48.53455" lon="3.23424">
        <ele>117.2</ele>
        <time>2025-03-16T08:15:18Z</time>
      </trkpt>
      <trkpt lat="48.53458" lon="3.23464">
        <ele>117.6</ele>
        <time>2025-03-16T08:15:36Z</time>
      </trkpt>
      <trkpt lat="48.53462" lon="3.23508">
        <ele>117.6</ele>
        <time>2025-03-16T08:15:56Z</time>
      </trkpt>
      <trkpt lat="48.53464" lon="3.23563">
        <ele>117.8</ele>
        <time>2025-03-16T08:16:21Z</time>
      </trkpt>
      <trkpt lat="48.53466" lon="3.23616">
        <ele>117.8</ele>
        <time>2025-03-16T08:16:45Z</time>
      </trkpt>
      <trkpt lat="48.53469" lon="3.23664">
        <ele>118</ele>
        <time>2025-03-16T08:17:06Z</time>
      </trkpt>
      <trkpt lat="48.53474" lon="3.23722">
        <ele>117.8</ele>
        <time>2025-03-16T08:17:32Z</time>
      </trkpt>
      <trkpt lat="48.53476" lon="3.23767">
        <ele>117.6</ele>
        <time>2025-03-16T08:17:53Z</time>
      </trkpt>
      <trkpt lat="48.53479" lon="3.23816">
        <ele>118.2</ele>
        <time>2025-03-16T08:18:15Z</time>
      </trkpt>
      <trkpt lat="48.53484" lon="3.23862">
        <ele>118.2</ele>
        <time>2025-03-16T08:18:36Z</time>
      </trkpt>
      <trkpt lat="48.53489" lon="3.23903">
        <ele>118</ele>
        <time>2025-03-16T08:18:55Z</time>
      </trkpt>
      <trkpt lat="48.53494" lon="3.23942">
        <ele>119</ele>
        <time>2025-03-16T08:19:14Z</time>
      </trkpt>
      <trkpt lat="48.53504" lon="3.23987">
        <ele>119</ele>
        <time>2025-03-16T08:19:36Z</time>
      </trkpt>
      <trkpt lat="48.5352" lon="3.24036">
        <ele>120</ele>
        <time>2025-03-16T08:20:02Z</time>
      </trkpt>
      <trkpt lat="48.53538" lon="3.24081">
        <ele>119.4</ele>
        <time>2025-03-16T08:20:25Z</time>
      </trkpt>
      <trkpt lat="48.53557" lon="3.24132">
        <ele>118.4</ele>
        <time>2025-03-16T08:20:51Z</time>
      </trkpt>
      <trkpt lat="48.53575" lon="3.24178">
        <ele>117.4</ele>
        <time>2025-03-16T08:21:15Z</time>
      </trkpt>
      <trkpt lat="48.53593" lon="3.24226">
        <ele>117</ele>
        <time>2025-03-16T08:21:40Z</time>
      </trkpt>
      <trkpt lat="48.53608" lon="3.24265">
        <ele>116.8</ele>
        <time>2025-03-16T08:22:00Z</time>
      </trkpt>
      <trkpt lat="48.53624" lon="3.24308">
        <ele>115.8</ele>
        <time>2025-03-16T08:22:22Z</time>
      </trkpt>
      <trkpt lat="48.5364" lon="3.24353">
        <ele>115</ele>
        <time>2025-03-16T08:22:45Z</time>
      </trkpt>
      <trkpt lat="48.53656" lon="3.24395">
        <ele>114.6</ele>
        <time>2025-03-16T08:23:07Z</time>
      </trkpt>
      <trkpt lat="48.53673" lon="3.24438">
        <ele>114.4</ele>
        <time>2025-03-16T08:23:29Z</time>
      </trkpt>
      <trkpt lat="48.53686" lon="3.24472">
        <ele>113.8</ele>
        <time>2025-03-16T08:23:46Z</time>
      </trkpt>
      <trkpt lat="48.53699" lon="3.24507">
        <ele>113.2</ele>
        <time>2025-03-16T08:24:04Z</time>
      </trkpt>
      <trkpt lat="48.53716" lon="3.2455">
        <ele>112.8</ele>
        <time>2025-03-16T08:24:26Z</time>
      </trkpt>
      <trkpt lat="48.53732" lon="3.2459">
        <ele>112.4</ele>
        <time>2025-03-16T08:24:46Z</time>
      </trkpt>
      <trkpt lat="48.53746" lon="3.24629">
        <ele>112.4</ele>
        <time>2025-03-16T08:25:06Z</time>
      </trkpt>
      <trkpt lat="48.53759" lon="3.24664">
        <ele>111.8</ele>
        <time>2025-03-16T08:25:25Z</time>
      </trkpt>
      <trkpt lat="48.53773" lon="3.24698">
        <ele>112</ele>
        <time>2025-03-16T08:25:43Z</time>
      </trkpt>
      <trkpt lat="48.53785" lon="3.24734">
        <ele>111.4</ele>
        <time>2025-03-16T08:26:02Z</time>
      </trkpt>
      <trkpt lat="48.53797" lon="3.24769">
        <ele>111</ele>
        <time>2025-03-16T08:26:20Z</time>
      </trkpt>
      <trkpt lat="48.53812" lon="3.2481">
        <ele>111</ele>
        <time>2025-03-16T08:26:41Z</time>
      </trkpt>
      <trkpt lat="48.53828" lon="3.24852">
        <ele>110.6</ele>
        <time>2025-03-16T08:27:02Z</time>
      </trkpt>
      <trkpt lat="48.53841" lon="3.24888">
        <ele>109.8</ele>
        <time>2025-03-16T08:27:21Z</time>
      </trkpt>
      <trkpt lat="48.53857" lon="3.24927">
        <ele>108.8</ele>
        <time>2025-03-16T08:27:42Z</time>
      </trkpt>
      <trkpt lat="48.53876" lon="3.24968">
        <ele>107.6</ele>
        <time>2025-03-16T08:28:04Z</time>
      </trkpt>
      <trkpt lat="48.53894" lon="3.2501">
        <ele>106</ele>
        <time>2025-03-16T08:28:26Z</time>
      </trkpt>
      <trkpt lat="48.53911" lon="3.25051">
        <ele>104.6</ele>
        <time>2025-03-16T08:28:48Z</time>
      </trkpt>
      <trkpt lat="48.53928" lon="3.25086">
        <ele>103.6</ele>
        <time>2025-03-16T08:29:07Z</time>
      </trkpt>
      <trkpt lat="48.53944" lon="3.25127">
        <ele>100.8</ele>
        <time>2025-03-16T08:29:29Z</time>
      </trkpt>
      <trkpt lat="48.5396" lon="3.25169">
        <ele>98.8</ele>
        <time>2025-03-16T08:29:51Z</time>
      </trkpt>
      <trkpt lat="48.53974" lon="3.25205">
        <ele>97</ele>
        <time>2025-03-16T08:30:09Z</time>
      </trkpt>
      <trkpt lat="48.53991" lon="3.25247">
        <ele>95</ele>
        <time>2025-03-16T08:30:31Z</time>
      </trkpt>
      <trkpt lat="48.54006" lon="3.2529">
        <ele>93.4</ele>
        <time>2025-03-16T08:30:53Z</time>
      </trkpt>
      <trkpt lat="48.54025" lon="3.25331">
        <ele>92.8</ele>
        <time>2025-03-16T08:31:15Z</time>
      </trkpt>
      <trkpt lat="48.54042" lon="3.25366">
        <ele>92.4</ele>
        <time>2025-03-16T08:31:34Z</time>
      </trkpt>
      <trkpt lat="48.54061" lon="3.25407">
        <ele>91.6</ele>
        <time>2025-03-16T08:31:56Z</time>
      </trkpt>
      <trkpt lat="48.54082" lon="3.25454">
        <ele>90.4</ele>
        <time>2025-03-16T08:32:22Z</time>
      </trkpt>
      <trkpt lat="48.541" lon="3.25495">
        <ele>88.6</ele>
        <time>2025-03-16T08:32:44Z</time>
      </trkpt>
      <trkpt lat="48.54116" lon="3.25532">
        <ele>87</ele>
        <time>2025-03-16T08:33:03Z</time>
      </trkpt>
      <trkpt lat="48.54133" lon="3.25579">
        <ele>85.6</ele>
        <time>2025-03-16T08:33:27Z</time>
      </trkpt>
      <trkpt lat="48.54147" lon="3.25619">
        <ele>85</ele>
        <time>2025-03-16T08:33:47Z</time>
      </trkpt>
      <trkpt lat="48.54155" lon="3.25641">
        <ele>84.6</ele>
        <time>2025-03-16T08:33:58Z</time>
      </trkpt>
      <trkpt lat="48.54156" lon="3.25643">
        <ele>84.6</ele>
        <time>2025-03-16T08:33:59Z</time>
      </trkpt>
      <trkpt lat="48.54156" lon="3.25645">
        <ele>84.6</ele>
        <time>2025-03-16T08:34:00Z</time>
      </trkpt>
      <trkpt lat="48.54157" lon="3.25647">
        <ele>84.4</ele>
        <time>2025-03-16T08:34:01Z</time>
      </trkpt>
      <trkpt lat="48.54158" lon="3.25649">
        <ele>84.4</ele>
        <time>2025-03-16T08:34:02Z</time>
      </trkpt>
      <trkpt lat="48.54175" lon="3.25689">
        <ele>83.8</ele>
        <time>2025-03-16T08:34:23Z</time>
      </trkpt>
      <trkpt lat="48.54189" lon="3.25727">
        <ele>83.6</ele>
        <time>2025-03-16T08:34:43Z</time>
      </trkpt>
      <trkpt lat="48.54209" lon="3.25764">
        <ele>83.4</ele>
        <time>2025-03-16T08:35:03Z</time>
      </trkpt>
      <trkpt lat="48.54227" lon="3.25806">
        <ele>83.4</ele>
        <time>2025-03-16T08:35:25Z</time>
      </trkpt>
      <trkpt lat="48.54235" lon="3.25847">
        <ele>83.4</ele>
        <time>2025-03-16T08:35:44Z</time>
      </trkpt>
      <trkpt lat="48.54243" lon="3.25888">
        <ele>84.6</ele>
        <time>2025-03-16T08:36:04Z</time>
      </trkpt>
      <trkpt lat="48.54251" lon="3.25931">
        <ele>86.2</ele>
        <time>2025-03-16T08:36:25Z</time>
      </trkpt>
      <trkpt lat="48.54264" lon="3.25976">
        <ele>88</ele>
        <time>2025-03-16T08:36:48Z</time>
      </trkpt>
      <trkpt lat="48.54279" lon="3.2602">
        <ele>90.6</ele>
        <time>2025-03-16T08:37:11Z</time>
      </trkpt>
      <trkpt lat="48.54295" lon="3.26055">
        <ele>92.6</ele>
        <time>2025-03-16T08:37:31Z</time>
      </trkpt>
      <trkpt lat="48.54315" lon="3.26092">
        <ele>94.4</ele>
        <time>2025-03-16T08:37:53Z</time>
      </trkpt>
      <trkpt lat="48.54333" lon="3.26127">
        <ele>96.4</ele>
        <time>2025-03-16T08:38:13Z</time>
      </trkpt>
      <trkpt lat="48.54352" lon="3.2616">
        <ele>97.6</ele>
        <time>2025-03-16T08:38:33Z</time>
      </trkpt>
      <trkpt lat="48.54374" lon="3.26199">
        <ele>98.8</ele>
        <time>2025-03-16T08:38:56Z</time>
      </trkpt>
      <trkpt lat="48.54388" lon="3.26222">
        <ele>99</ele>
        <time>2025-03-16T08:39:10Z</time>
      </trkpt>
      <trkpt lat="48.54407" lon="3.26254">
        <ele>100</ele>
        <time>2025-03-16T08:39:30Z</time>
      </trkpt>
      <trkpt lat="48.5443" lon="3.26279">
        <ele>99.6</ele>
        <time>2025-03-16T08:39:49Z</time>
      </trkpt>
      <trkpt lat="48.54457" lon="3.26269">
        <ele>99.6</ele>
        <time>2025-03-16T08:40:09Z</time>
      </trkpt>
      <trkpt lat="48.54481" lon="3.26256">
        <ele>100</ele>
        <time>2025-03-16T08:40:29Z</time>
      </trkpt>
      <trkpt lat="48.54501" lon="3.26236">
        <ele>100.4</ele>
        <time>2025-03-16T08:40:46Z</time>
      </trkpt>
      <trkpt lat="48.54525" lon="3.26219">
        <ele>100.8</ele>
        <time>2025-03-16T08:41:05Z</time>
      </trkpt>
      <trkpt lat="48.54544" lon="3.26202">
        <ele>101.6</ele>
        <time>2025-03-16T08:41:21Z</time>
      </trkpt>
      <trkpt lat="48.54567" lon="3.26183">
        <ele>102.4</ele>
        <time>2025-03-16T08:41:38Z</time>
      </trkpt>
      <trkpt lat="48.54588" lon="3.2616">
        <ele>103.4</ele>
        <time>2025-03-16T08:41:56Z</time>
      </trkpt>
      <trkpt lat="48.54611" lon="3.26139">
        <ele>105</ele>
        <time>2025-03-16T08:42:14Z</time>
      </trkpt>
      <trkpt lat="48.54629" lon="3.2612">
        <ele>106</ele>
        <time>2025-03-16T08:42:29Z</time>
      </trkpt>
      <trkpt lat="48.54652" lon="3.26093">
        <ele>107</ele>
        <time>2025-03-16T08:42:49Z</time>
      </trkpt>
      <trkpt lat="48.54675" lon="3.26065">
        <ele>107.6</ele>
        <time>2025-03-16T08:43:10Z</time>
      </trkpt>
      <trkpt lat="48.54692" lon="3.26028">
        <ele>108.4</ele>
        <time>2025-03-16T08:43:32Z</time>
      </trkpt>
      <trkpt lat="48.54706" lon="3.25993">
        <ele>109.6</ele>
        <time>2025-03-16T08:43:53Z</time>
      </trkpt>
      <trkpt lat="48.54703" lon="3.25983">
        <ele>110.4</ele>
        <time>2025-03-16T08:44:00Z</time>
      </trkpt>
      <trkpt lat="48.54703" lon="3.25982">
        <ele>110.4</ele>
        <time>2025-03-16T08:44:01Z</time>
      </trkpt>
      <trkpt lat="48.54702" lon="3.2598">
        <ele>110.6</ele>
        <time>2025-03-16T08:44:02Z</time>
      </trkpt>
      <trkpt lat="48.54698" lon="3.25972">
        <ele>110.6</ele>
        <time>2025-03-16T08:44:08Z</time>
      </trkpt>
      <trkpt lat="48.54698" lon="3.25971">
        <ele>111</ele>
        <time>2025-03-16T08:44:09Z</time>
      </trkpt>
      <trkpt lat="48.54697" lon="3.25969">
        <ele>111.4</ele>
        <time>2025-03-16T08:44:10Z</time>
      </trkpt>
      <trkpt lat="48.54697" lon="3.25967">
        <ele>111.8</ele>
        <time>2025-03-16T08:44:11Z</time>
      </trkpt>
      <trkpt lat="48.54696" lon="3.25966">
        <ele>111.8</ele>
        <time>2025-03-16T08:44:12Z</time>
      </trkpt>
      <trkpt lat="48.54696" lon="3.25965">
        <ele>112</ele>
        <time>2025-03-16T08:44:13Z</time>
      </trkpt>
      <trkpt lat="48.54695" lon="3.25963">
        <ele>111.8</ele>
        <time>2025-03-16T08:44:14Z</time>
      </trkpt>
      <trkpt lat="48.54694" lon="3.25962">
        <ele>111.8</ele>
        <time>2025-03-16T08:44:15Z</time>
      </trkpt>
      <trkpt lat="48.54689" lon="3.25957">
        <ele>111.6</ele>
        <time>2025-03-16T08:44:27Z</time>
      </trkpt>
      <trkpt lat="48.54686" lon="3.25954">
        <ele>111.4</ele>
        <time>2025-03-16T08:44:32Z</time>
      </trkpt>
      <trkpt lat="48.54685" lon="3.25952">
        <ele>111</ele>
        <time>2025-03-16T08:44:34Z</time>
      </trkpt>
      <trkpt lat="48.54683" lon="3.25949">
        <ele>109.8</ele>
        <time>2025-03-16T08:44:37Z</time>
      </trkpt>
      <trkpt lat="48.54682" lon="3.25947">
        <ele>112.8</ele>
        <time>2025-03-16T08:44:43Z</time>
      </trkpt>
      <trkpt lat="48.54683" lon="3.25946">
        <ele>109.4</ele>
        <time>2025-03-16T08:45:22Z</time>
      </trkpt>
      <trkpt lat="48.54683" lon="3.25946">
        <ele>108.8</ele>
        <time>2025-03-16T08:45:24Z</time>
      </trkpt>
      <trkpt lat="48.54684" lon="3.25947">
        <ele>111.4</ele>
        <time>2025-03-16T08:45:31Z</time>
      </trkpt>
      <trkpt lat="48.54688" lon="3.25951">
        <ele>112.8</ele>
        <time>2025-03-16T08:45:34Z</time>
      </trkpt>
      <trkpt lat="48.54688" lon="3.25952">
        <ele>112.8</ele>
        <time>2025-03-16T08:45:35Z</time>
      </trkpt>
      <trkpt lat="48.54689" lon="3.25953">
        <ele>113</ele>
        <time>2025-03-16T08:45:36Z</time>
      </trkpt>
      <trkpt lat="48.54704" lon="3.25981">
        <ele>111.4</ele>
        <time>2025-03-16T08:45:58Z</time>
      </trkpt>
      <trkpt lat="48.54708" lon="3.25994">
        <ele>110.6</ele>
        <time>2025-03-16T08:46:15Z</time>
      </trkpt>
      <trkpt lat="48.54708" lon="3.25994">
        <ele>110.2</ele>
        <time>2025-03-16T08:46:44Z</time>
      </trkpt>
      <trkpt lat="48.54708" lon="3.25996">
        <ele>110</ele>
        <time>2025-03-16T08:47:18Z</time>
      </trkpt>
      <trkpt lat="48.54708" lon="3.25996">
        <ele>110</ele>
        <time>2025-03-16T08:47:47Z</time>
      </trkpt>
      <trkpt lat="48.54708" lon="3.25997">
        <ele>109.8</ele>
        <time>2025-03-16T08:48:12Z</time>
      </trkpt>
      <trkpt lat="48.54708" lon="3.25997">
        <ele>110</ele>
        <time>2025-03-16T08:48:41Z</time>
      </trkpt>
      <trkpt lat="48.54711" lon="3.25995">
        <ele>110</ele>
        <time>2025-03-16T08:49:05Z</time>
      </trkpt>
      <trkpt lat="48.5471" lon="3.25995">
        <ele>109.8</ele>
        <time>2025-03-16T08:49:29Z</time>
      </trkpt>
      <trkpt lat="48.54709" lon="3.25995">
        <ele>109.8</ele>
        <time>2025-03-16T08:49:53Z</time>
      </trkpt>
      <trkpt lat="48.54709" lon="3.25995">
        <ele>109.8</ele>
        <time>2025-03-16T08:50:24Z</time>
      </trkpt>
      <trkpt lat="48.54709" lon="3.25995">
        <ele>109.8</ele>
        <time>2025-03-16T08:51:01Z</time>
      </trkpt>
      <trkpt lat="48.54709" lon="3.25996">
        <ele>109.4</ele>
        <time>2025-03-16T08:51:34Z</time>
      </trkpt>
      <trkpt lat="48.5471" lon="3.25995">
        <ele>109.6</ele>
        <time>2025-03-16T08:51:50Z</time>
      </trkpt>
      <trkpt lat="48.54706" lon="3.25999">
        <ele>109.4</ele>
        <time>2025-03-16T08:52:08Z</time>
      </trkpt>
      <trkpt lat="48.54704" lon="3.26004">
        <ele>109.6</ele>
        <time>2025-03-16T08:52:12Z</time>
      </trkpt>
      <trkpt lat="48.54703" lon="3.26006">
        <ele>109.4</ele>
        <time>2025-03-16T08:52:13Z</time>
      </trkpt>
      <trkpt lat="48.54689" lon="3.2604">
        <ele>108.8</ele>
        <time>2025-03-16T08:52:34Z</time>
      </trkpt>
      <trkpt lat="48.54683" lon="3.26078">
        <ele>107.8</ele>
        <time>2025-03-16T08:52:55Z</time>
      </trkpt>
      <trkpt lat="48.54692" lon="3.26116">
        <ele>108.2</ele>
        <time>2025-03-16T08:53:15Z</time>
      </trkpt>
      <trkpt lat="48.54709" lon="3.26157">
        <ele>108.8</ele>
        <time>2025-03-16T08:53:39Z</time>
      </trkpt>
      <trkpt lat="48.54724" lon="3.2619">
        <ele>108.8</ele>
        <time>2025-03-16T08:53:57Z</time>
      </trkpt>
      <trkpt lat="48.54742" lon="3.2623">
        <ele>108.8</ele>
        <time>2025-03-16T08:54:20Z</time>
      </trkpt>
      <trkpt lat="48.5476" lon="3.26277">
        <ele>108.8</ele>
        <time>2025-03-16T08:54:46Z</time>
      </trkpt>
      <trkpt lat="48.54775" lon="3.2631">
        <ele>108.4</ele>
        <time>2025-03-16T08:55:05Z</time>
      </trkpt>
      <trkpt lat="48.54789" lon="3.26346">
        <ele>108.4</ele>
        <time>2025-03-16T08:55:25Z</time>
      </trkpt>
      <trkpt lat="48.54805" lon="3.26386">
        <ele>108</ele>
        <time>2025-03-16T08:55:47Z</time>
      </trkpt>
      <trkpt lat="48.5482" lon="3.26422">
        <ele>107.8</ele>
        <time>2025-03-16T08:56:07Z</time>
      </trkpt>
      <trkpt lat="48.54837" lon="3.26461">
        <ele>107.4</ele>
        <time>2025-03-16T08:56:29Z</time>
      </trkpt>
      <trkpt lat="48.54851" lon="3.26496">
        <ele>107.6</ele>
        <time>2025-03-16T08:56:48Z</time>
      </trkpt>
      <trkpt lat="48.54867" lon="3.26533">
        <ele>107</ele>
        <time>2025-03-16T08:57:09Z</time>
      </trkpt>
      <trkpt lat="48.54882" lon="3.26568">
        <ele>105.8</ele>
        <time>2025-03-16T08:57:29Z</time>
      </trkpt>
      <trkpt lat="48.54897" lon="3.26607">
        <ele>104.2</ele>
        <time>2025-03-16T08:57:50Z</time>
      </trkpt>
      <trkpt lat="48.54912" lon="3.2664">
        <ele>103.4</ele>
        <time>2025-03-16T08:58:08Z</time>
      </trkpt>
      <trkpt lat="48.54928" lon="3.26679">
        <ele>102.6</ele>
        <time>2025-03-16T08:58:29Z</time>
      </trkpt>
      <trkpt lat="48.54942" lon="3.26712">
        <ele>101.8</ele>
        <time>2025-03-16T08:58:47Z</time>
      </trkpt>
      <trkpt lat="48.54957" lon="3.26747">
        <ele>101.2</ele>
        <time>2025-03-16T08:59:06Z</time>
      </trkpt>
      <trkpt lat="48.54971" lon="3.26781">
        <ele>100.6</ele>
        <time>2025-03-16T08:59:25Z</time>
      </trkpt>
      <trkpt lat="48.54988" lon="3.26823">
        <ele>100</ele>
        <time>2025-03-16T08:59:48Z</time>
      </trkpt>
      <trkpt lat="48.55004" lon="3.26859">
        <ele>100</ele>
        <time>2025-03-16T09:00:08Z</time>
      </trkpt>
      <trkpt lat="48.55019" lon="3.26895">
        <ele>99.4</ele>
        <time>2025-03-16T09:00:28Z</time>
      </trkpt>
      <trkpt lat="48.55034" lon="3.26932">
        <ele>99.6</ele>
        <time>2025-03-16T09:00:49Z</time>
      </trkpt>
      <trkpt lat="48.55048" lon="3.26968">
        <ele>99.8</ele>
        <time>2025-03-16T09:01:08Z</time>
      </trkpt>
      <trkpt lat="48.55065" lon="3.27007">
        <ele>100.4</ele>
        <time>2025-03-16T09:01:30Z</time>
      </trkpt>
      <trkpt lat="48.55083" lon="3.27049">
        <ele>100.2</ele>
        <time>2025-03-16T09:01:54Z</time>
      </trkpt>
      <trkpt lat="48.55101" lon="3.27097">
        <ele>100.4</ele>
        <time>2025-03-16T09:02:20Z</time>
      </trkpt>
      <trkpt lat="48.55115" lon="3.27129">
        <ele>101.2</ele>
        <time>2025-03-16T09:02:38Z</time>
      </trkpt>
      <trkpt lat="48.55133" lon="3.27171">
        <ele>101.8</ele>
        <time>2025-03-16T09:03:01Z</time>
      </trkpt>
      <trkpt lat="48.55148" lon="3.27207">
        <ele>102.6</ele>
        <time>2025-03-16T09:03:22Z</time>
      </trkpt>
      <trkpt lat="48.55167" lon="3.27245">
        <ele>103.2</ele>
        <time>2025-03-16T09:03:44Z</time>
      </trkpt>
      <trkpt lat="48.55193" lon="3.27271">
        <ele>104.2</ele>
        <time>2025-03-16T09:04:06Z</time>
      </trkpt>
      <trkpt lat="48.55221" lon="3.27288">
        <ele>105.8</ele>
        <time>2025-03-16T09:04:28Z</time>
      </trkpt>
      <trkpt lat="48.5525" lon="3.27308">
        <ele>107.2</ele>
        <time>2025-03-16T09:04:51Z</time>
      </trkpt>
      <trkpt lat="48.55276" lon="3.27328">
        <ele>108</ele>
        <time>2025-03-16T09:05:12Z</time>
      </trkpt>
      <trkpt lat="48.55296" lon="3.27348">
        <ele>110</ele>
        <time>2025-03-16T09:05:30Z</time>
      </trkpt>
      <trkpt lat="48.55325" lon="3.27359">
        <ele>110.8</ele>
        <time>2025-03-16T09:05:52Z</time>
      </trkpt>
      <trkpt lat="48.55357" lon="3.27367">
        <ele>111.8</ele>
        <time>2025-03-16T09:06:15Z</time>
      </trkpt>
      <trkpt lat="48.55394" lon="3.27379">
        <ele>112</ele>
        <time>2025-03-16T09:06:41Z</time>
      </trkpt>
      <trkpt lat="48.55423" lon="3.27387">
        <ele>111.4</ele>
        <time>2025-03-16T09:07:03Z</time>
      </trkpt>
      <trkpt lat="48.55454" lon="3.27397">
        <ele>110.4</ele>
        <time>2025-03-16T09:07:25Z</time>
      </trkpt>
      <trkpt lat="48.55486" lon="3.27406">
        <ele>109.6</ele>
        <time>2025-03-16T09:07:47Z</time>
      </trkpt>
      <trkpt lat="48.55516" lon="3.27414">
        <ele>109.2</ele>
        <time>2025-03-16T09:08:07Z</time>
      </trkpt>
      <trkpt lat="48.55546" lon="3.27422">
        <ele>108.4</ele>
        <time>2025-03-16T09:08:28Z</time>
      </trkpt>
      <trkpt lat="48.55575" lon="3.27432">
        <ele>107.2</ele>
        <time>2025-03-16T09:08:49Z</time>
      </trkpt>
      <trkpt lat="48.55608" lon="3.27442">
        <ele>106.6</ele>
        <time>2025-03-16T09:09:10Z</time>
      </trkpt>
      <trkpt lat="48.55637" lon="3.27442">
        <ele>106</ele>
        <time>2025-03-16T09:09:29Z</time>
      </trkpt>
      <trkpt lat="48.55665" lon="3.27442">
        <ele>105.2</ele>
        <time>2025-03-16T09:09:49Z</time>
      </trkpt>
      <trkpt lat="48.55696" lon="3.27442">
        <ele>104.2</ele>
        <time>2025-03-16T09:10:11Z</time>
      </trkpt>
      <trkpt lat="48.55728" lon="3.27445">
        <ele>102.8</ele>
        <time>2025-03-16T09:10:34Z</time>
      </trkpt>
      <trkpt lat="48.55752" lon="3.27454">
        <ele>101.4</ele>
        <time>2025-03-16T09:10:52Z</time>
      </trkpt>
      <trkpt lat="48.5578" lon="3.27468">
        <ele>101.6</ele>
        <time>2025-03-16T09:11:12Z</time>
      </trkpt>
      <trkpt lat="48.55807" lon="3.27486">
        <ele>101</ele>
        <time>2025-03-16T09:11:32Z</time>
      </trkpt>
      <trkpt lat="48.5584" lon="3.27507">
        <ele>100.2</ele>
        <time>2025-03-16T09:11:56Z</time>
      </trkpt>
      <trkpt lat="48.55858" lon="3.27521">
        <ele>101</ele>
        <time>2025-03-16T09:12:11Z</time>
      </trkpt>
      <trkpt lat="48.55875" lon="3.27532">
        <ele>100.8</ele>
        <time>2025-03-16T09:12:29Z</time>
      </trkpt>
      <trkpt lat="48.55876" lon="3.27529">
        <ele>100.8</ele>
        <time>2025-03-16T09:12:31Z</time>
      </trkpt>
      <trkpt lat="48.55877" lon="3.27528">
        <ele>101.2</ele>
        <time>2025-03-16T09:12:44Z</time>
      </trkpt>
      <trkpt lat="48.55876" lon="3.27526">
        <ele>101.2</ele>
        <time>2025-03-16T09:13:10Z</time>
      </trkpt>
      <trkpt lat="48.55876" lon="3.27525">
        <ele>101.2</ele>
        <time>2025-03-16T09:13:28Z</time>
      </trkpt>
      <trkpt lat="48.55877" lon="3.27527">
        <ele>101.4</ele>
        <time>2025-03-16T09:13:55Z</time>
      </trkpt>
      <trkpt lat="48.55877" lon="3.27529">
        <ele>101.2</ele>
        <time>2025-03-16T09:13:56Z</time>
      </trkpt>
      <trkpt lat="48.55877" lon="3.27531">
        <ele>101.2</ele>
        <time>2025-03-16T09:13:57Z</time>
      </trkpt>
      <trkpt lat="48.55878" lon="3.27532">
        <ele>101.2</ele>
        <time>2025-03-16T09:13:58Z</time>
      </trkpt>
      <trkpt lat="48.55878" lon="3.27534">
        <ele>101.2</ele>
        <time>2025-03-16T09:13:59Z</time>
      </trkpt>
      <trkpt lat="48.55886" lon="3.27564">
        <ele>100.8</ele>
        <time>2025-03-16T09:14:17Z</time>
      </trkpt>
      <trkpt lat="48.55909" lon="3.27588">
        <ele>100.8</ele>
        <time>2025-03-16T09:14:38Z</time>
      </trkpt>
      <trkpt lat="48.55933" lon="3.27585">
        <ele>101</ele>
        <time>2025-03-16T09:14:55Z</time>
      </trkpt>
      <trkpt lat="48.55954" lon="3.27603">
        <ele>101.6</ele>
        <time>2025-03-16T09:15:14Z</time>
      </trkpt>
      <trkpt lat="48.55955" lon="3.27607">
        <ele>101.6</ele>
        <time>2025-03-16T09:15:16Z</time>
      </trkpt>
      <trkpt lat="48.55955" lon="3.27608">
        <ele>101.6</ele>
        <time>2025-03-16T09:15:17Z</time>
      </trkpt>
      <trkpt lat="48.55956" lon="3.2761">
        <ele>101.8</ele>
        <time>2025-03-16T09:15:18Z</time>
      </trkpt>
      <trkpt lat="48.55955" lon="3.27612">
        <ele>101.8</ele>
        <time>2025-03-16T09:15:19Z</time>
      </trkpt>
      <trkpt lat="48.55956" lon="3.27615">
        <ele>101.8</ele>
        <time>2025-03-16T09:15:20Z</time>
      </trkpt>
      <trkpt lat="48.55954" lon="3.27647">
        <ele>101.6</ele>
        <time>2025-03-16T09:15:36Z</time>
      </trkpt>
      <trkpt lat="48.55953" lon="3.27649">
        <ele>101.6</ele>
        <time>2025-03-16T09:15:37Z</time>
      </trkpt>
      <trkpt lat="48.55953" lon="3.27651">
        <ele>101.4</ele>
        <time>2025-03-16T09:15:38Z</time>
      </trkpt>
      <trkpt lat="48.55953" lon="3.27654">
        <ele>101.4</ele>
        <time>2025-03-16T09:15:39Z</time>
      </trkpt>
      <trkpt lat="48.55953" lon="3.27656">
        <ele>101.4</ele>
        <time>2025-03-16T09:15:40Z</time>
      </trkpt>
      <trkpt lat="48.55953" lon="3.27658">
        <ele>101.4</ele>
        <time>2025-03-16T09:15:41Z</time>
      </trkpt>
      <trkpt lat="48.5595" lon="3.27704">
        <ele>100</ele>
        <time>2025-03-16T09:16:03Z</time>
      </trkpt>
      <trkpt lat="48.55948" lon="3.27737">
        <ele>99.4</ele>
        <time>2025-03-16T09:16:19Z</time>
      </trkpt>
      <trkpt lat="48.55948" lon="3.27738">
        <ele>99.6</ele>
        <time>2025-03-16T09:16:20Z</time>
      </trkpt>
      <trkpt lat="48.55949" lon="3.2774">
        <ele>99.8</ele>
        <time>2025-03-16T09:16:21Z</time>
      </trkpt>
      <trkpt lat="48.5595" lon="3.27741">
        <ele>99.8</ele>
        <time>2025-03-16T09:16:22Z</time>
      </trkpt>
      <trkpt lat="48.55951" lon="3.27743">
        <ele>99.8</ele>
        <time>2025-03-16T09:16:23Z</time>
      </trkpt>
      <trkpt lat="48.55951" lon="3.27745">
        <ele>99.8</ele>
        <time>2025-03-16T09:16:24Z</time>
      </trkpt>
      <trkpt lat="48.55952" lon="3.27747">
        <ele>99.8</ele>
        <time>2025-03-16T09:16:25Z</time>
      </trkpt>
      <trkpt lat="48.55963" lon="3.27779">
        <ele>98.6</ele>
        <time>2025-03-16T09:16:42Z</time>
      </trkpt>
      <trkpt lat="48.55976" lon="3.27828">
        <ele>97.8</ele>
        <time>2025-03-16T09:17:06Z</time>
      </trkpt>
      <trkpt lat="48.55984" lon="3.27854">
        <ele>98</ele>
        <time>2025-03-16T09:17:19Z</time>
      </trkpt>
      <trkpt lat="48.55984" lon="3.27856">
        <ele>98.2</ele>
        <time>2025-03-16T09:17:20Z</time>
      </trkpt>
      <trkpt lat="48.55985" lon="3.27857">
        <ele>98.4</ele>
        <time>2025-03-16T09:17:21Z</time>
      </trkpt>
      <trkpt lat="48.55985" lon="3.27859">
        <ele>98.4</ele>
        <time>2025-03-16T09:17:22Z</time>
      </trkpt>
      <trkpt lat="48.55985" lon="3.27861">
        <ele>98.6</ele>
        <time>2025-03-16T09:17:23Z</time>
      </trkpt>
      <trkpt lat="48.55986" lon="3.27863">
        <ele>98.6</ele>
        <time>2025-03-16T09:17:24Z</time>
      </trkpt>
      <trkpt lat="48.55995" lon="3.27889">
        <ele>97.6</ele>
        <time>2025-03-16T09:17:37Z</time>
      </trkpt>
      <trkpt lat="48.56002" lon="3.27917">
        <ele>97.4</ele>
        <time>2025-03-16T09:17:51Z</time>
      </trkpt>
      <trkpt lat="48.56003" lon="3.27945">
        <ele>97.8</ele>
        <time>2025-03-16T09:18:05Z</time>
      </trkpt>
      <trkpt lat="48.56007" lon="3.27964">
        <ele>98.2</ele>
        <time>2025-03-16T09:18:14Z</time>
      </trkpt>
      <trkpt lat="48.56008" lon="3.27966">
        <ele>98.2</ele>
        <time>2025-03-16T09:18:15Z</time>
      </trkpt>
      <trkpt lat="48.56014" lon="3.27994">
        <ele>99.4</ele>
        <time>2025-03-16T09:18:29Z</time>
      </trkpt>
      <trkpt lat="48.56021" lon="3.28021">
        <ele>100.2</ele>
        <time>2025-03-16T09:18:43Z</time>
      </trkpt>
      <trkpt lat="48.5603" lon="3.2805">
        <ele>101.6</ele>
        <time>2025-03-16T09:18:59Z</time>
      </trkpt>
      <trkpt lat="48.56038" lon="3.28076">
        <ele>102.8</ele>
        <time>2025-03-16T09:19:14Z</time>
      </trkpt>
      <trkpt lat="48.56051" lon="3.28103">
        <ele>103.6</ele>
        <time>2025-03-16T09:19:31Z</time>
      </trkpt>
      <trkpt lat="48.56074" lon="3.28136">
        <ele>105</ele>
        <time>2025-03-16T09:19:53Z</time>
      </trkpt>
      <trkpt lat="48.56095" lon="3.2817">
        <ele>106.6</ele>
        <time>2025-03-16T09:20:15Z</time>
      </trkpt>
      <trkpt lat="48.56114" lon="3.28205">
        <ele>107.8</ele>
        <time>2025-03-16T09:20:37Z</time>
      </trkpt>
      <trkpt lat="48.56124" lon="3.28236">
        <ele>108.4</ele>
        <time>2025-03-16T09:20:54Z</time>
      </trkpt>
      <trkpt lat="48.56133" lon="3.28277">
        <ele>108.8</ele>
        <time>2025-03-16T09:21:15Z</time>
      </trkpt>
      <trkpt lat="48.56144" lon="3.28318">
        <ele>109.4</ele>
        <time>2025-03-16T09:21:36Z</time>
      </trkpt>
      <trkpt lat="48.56151" lon="3.28344">
        <ele>109.8</ele>
        <time>2025-03-16T09:21:53Z</time>
      </trkpt>
      <trkpt lat="48.56153" lon="3.28346">
        <ele>109.8</ele>
        <time>2025-03-16T09:22:16Z</time>
      </trkpt>
      <trkpt lat="48.56152" lon="3.28346">
        <ele>109.8</ele>
        <time>2025-03-16T09:22:45Z</time>
      </trkpt>
      <trkpt lat="48.56152" lon="3.28347">
        <ele>109.8</ele>
        <time>2025-03-16T09:22:56Z</time>
      </trkpt>
      <trkpt lat="48.56151" lon="3.28348">
        <ele>109.8</ele>
        <time>2025-03-16T09:22:57Z</time>
      </trkpt>
      <trkpt lat="48.56147" lon="3.28368">
        <ele>109</ele>
        <time>2025-03-16T09:23:12Z</time>
      </trkpt>
      <trkpt lat="48.56145" lon="3.28372">
        <ele>109</ele>
        <time>2025-03-16T09:23:13Z</time>
      </trkpt>
      <trkpt lat="48.56144" lon="3.28375">
        <ele>109</ele>
        <time>2025-03-16T09:23:14Z</time>
      </trkpt>
      <trkpt lat="48.56144" lon="3.28377">
        <ele>109</ele>
        <time>2025-03-16T09:23:15Z</time>
      </trkpt>
      <trkpt lat="48.56144" lon="3.2838">
        <ele>109</ele>
        <time>2025-03-16T09:23:16Z</time>
      </trkpt>
      <trkpt lat="48.56144" lon="3.28382">
        <ele>109.2</ele>
        <time>2025-03-16T09:23:17Z</time>
      </trkpt>
      <trkpt lat="48.56145" lon="3.28385">
        <ele>109.2</ele>
        <time>2025-03-16T09:23:18Z</time>
      </trkpt>
      <trkpt lat="48.56161" lon="3.28427">
        <ele>109.6</ele>
        <time>2025-03-16T09:23:37Z</time>
      </trkpt>
      <trkpt lat="48.5617" lon="3.28467">
        <ele>109.8</ele>
        <time>2025-03-16T09:23:57Z</time>
      </trkpt>
      <trkpt lat="48.56179" lon="3.28504">
        <ele>110.4</ele>
        <time>2025-03-16T09:24:17Z</time>
      </trkpt>
      <trkpt lat="48.56188" lon="3.28528">
        <ele>110</ele>
        <time>2025-03-16T09:24:30Z</time>
      </trkpt>
      <trkpt lat="48.56188" lon="3.2853">
        <ele>110</ele>
        <time>2025-03-16T09:24:31Z</time>
      </trkpt>
      <trkpt lat="48.56189" lon="3.28531">
        <ele>109.8</ele>
        <time>2025-03-16T09:24:32Z</time>
      </trkpt>
      <trkpt lat="48.562" lon="3.28562">
        <ele>109.4</ele>
        <time>2025-03-16T09:24:48Z</time>
      </trkpt>
      <trkpt lat="48.56206" lon="3.28588">
        <ele>110.2</ele>
        <time>2025-03-16T09:25:03Z</time>
      </trkpt>
      <trkpt lat="48.56212" lon="3.28608">
        <ele>111</ele>
        <time>2025-03-16T09:25:15Z</time>
      </trkpt>
      <trkpt lat="48.56215" lon="3.28611">
        <ele>111</ele>
        <time>2025-03-16T09:25:18Z</time>
      </trkpt>
      <trkpt lat="48.56216" lon="3.28612">
        <ele>111</ele>
        <time>2025-03-16T09:25:19Z</time>
      </trkpt>
      <trkpt lat="48.56217" lon="3.28613">
        <ele>111.2</ele>
        <time>2025-03-16T09:25:20Z</time>
      </trkpt>
      <trkpt lat="48.56218" lon="3.28615">
        <ele>111.2</ele>
        <time>2025-03-16T09:25:21Z</time>
      </trkpt>
      <trkpt lat="48.56219" lon="3.28617">
        <ele>111.4</ele>
        <time>2025-03-16T09:25:22Z</time>
      </trkpt>
      <trkpt lat="48.5622" lon="3.28618">
        <ele>111.4</ele>
        <time>2025-03-16T09:25:23Z</time>
      </trkpt>
      <trkpt lat="48.56224" lon="3.28624">
        <ele>111.6</ele>
        <time>2025-03-16T09:25:26Z</time>
      </trkpt>
      <trkpt lat="48.56225" lon="3.28625">
        <ele>111.6</ele>
        <time>2025-03-16T09:25:27Z</time>
      </trkpt>
      <trkpt lat="48.56241" lon="3.28654">
        <ele>112.2</ele>
        <time>2025-03-16T09:25:46Z</time>
      </trkpt>
      <trkpt lat="48.56259" lon="3.28679">
        <ele>112.8</ele>
        <time>2025-03-16T09:26:05Z</time>
      </trkpt>
      <trkpt lat="48.56266" lon="3.28693">
        <ele>112.4</ele>
        <time>2025-03-16T09:26:14Z</time>
      </trkpt>
      <trkpt lat="48.56266" lon="3.28695">
        <ele>112.4</ele>
        <time>2025-03-16T09:26:15Z</time>
      </trkpt>
      <trkpt lat="48.56265" lon="3.287">
        <ele>112.4</ele>
        <time>2025-03-16T09:26:18Z</time>
      </trkpt>
      <trkpt lat="48.56264" lon="3.28702">
        <ele>112.4</ele>
        <time>2025-03-16T09:26:19Z</time>
      </trkpt>
      <trkpt lat="48.56263" lon="3.28704">
        <ele>112.4</ele>
        <time>2025-03-16T09:26:20Z</time>
      </trkpt>
      <trkpt lat="48.56263" lon="3.28706">
        <ele>112.4</ele>
        <time>2025-03-16T09:26:21Z</time>
      </trkpt>
      <trkpt lat="48.56262" lon="3.28709">
        <ele>112.4</ele>
        <time>2025-03-16T09:26:22Z</time>
      </trkpt>
      <trkpt lat="48.56261" lon="3.28711">
        <ele>112.4</ele>
        <time>2025-03-16T09:26:23Z</time>
      </trkpt>
      <trkpt lat="48.5625" lon="3.28735">
        <ele>112.2</ele>
        <time>2025-03-16T09:26:39Z</time>
      </trkpt>
      <trkpt lat="48.56243" lon="3.28757">
        <ele>111</ele>
        <time>2025-03-16T09:26:53Z</time>
      </trkpt>
      <trkpt lat="48.56243" lon="3.28759">
        <ele>111</ele>
        <time>2025-03-16T09:26:54Z</time>
      </trkpt>
      <trkpt lat="48.56236" lon="3.28785">
        <ele>110.6</ele>
        <time>2025-03-16T09:27:07Z</time>
      </trkpt>
      <trkpt lat="48.56228" lon="3.28805">
        <ele>105</ele>
        <time>2025-03-16T09:27:18Z</time>
      </trkpt>
      <trkpt lat="48.56226" lon="3.28808">
        <ele>102</ele>
        <time>2025-03-16T09:27:20Z</time>
      </trkpt>
      <trkpt lat="48.56223" lon="3.28817">
        <ele>108</ele>
        <time>2025-03-16T09:27:24Z</time>
      </trkpt>
      <trkpt lat="48.56222" lon="3.28819">
        <ele>111.2</ele>
        <time>2025-03-16T09:27:25Z</time>
      </trkpt>
      <trkpt lat="48.5622" lon="3.28825">
        <ele>114.4</ele>
        <time>2025-03-16T09:27:28Z</time>
      </trkpt>
      <trkpt lat="48.56212" lon="3.2884">
        <ele>111.4</ele>
        <time>2025-03-16T09:27:38Z</time>
      </trkpt>
      <trkpt lat="48.562" lon="3.2887">
        <ele>110</ele>
        <time>2025-03-16T09:27:59Z</time>
      </trkpt>
      <trkpt lat="48.56181" lon="3.289">
        <ele>109.4</ele>
        <time>2025-03-16T09:28:17Z</time>
      </trkpt>
      <trkpt lat="48.56179" lon="3.28901">
        <ele>109.2</ele>
        <time>2025-03-16T09:28:18Z</time>
      </trkpt>
      <trkpt lat="48.56177" lon="3.28901">
        <ele>109.2</ele>
        <time>2025-03-16T09:28:19Z</time>
      </trkpt>
      <trkpt lat="48.56176" lon="3.28901">
        <ele>109</ele>
        <time>2025-03-16T09:28:20Z</time>
      </trkpt>
      <trkpt lat="48.56174" lon="3.289">
        <ele>108.8</ele>
        <time>2025-03-16T09:28:21Z</time>
      </trkpt>
      <trkpt lat="48.56151" lon="3.28903">
        <ele>108.8</ele>
        <time>2025-03-16T09:28:38Z</time>
      </trkpt>
      <trkpt lat="48.56144" lon="3.28906">
        <ele>108.2</ele>
        <time>2025-03-16T09:28:44Z</time>
      </trkpt>
      <trkpt lat="48.56142" lon="3.28906">
        <ele>108</ele>
        <time>2025-03-16T09:28:45Z</time>
      </trkpt>
      <trkpt lat="48.56135" lon="3.28916">
        <ele>107.2</ele>
        <time>2025-03-16T09:29:01Z</time>
      </trkpt>
      <trkpt lat="48.56135" lon="3.28944">
        <ele>107.8</ele>
        <time>2025-03-16T09:29:15Z</time>
      </trkpt>
      <trkpt lat="48.56128" lon="3.2897">
        <ele>109</ele>
        <time>2025-03-16T09:29:29Z</time>
      </trkpt>
      <trkpt lat="48.56127" lon="3.28972">
        <ele>109</ele>
        <time>2025-03-16T09:29:30Z</time>
      </trkpt>
      <trkpt lat="48.56115" lon="3.29001">
        <ele>109.4</ele>
        <time>2025-03-16T09:29:49Z</time>
      </trkpt>
      <trkpt lat="48.56113" lon="3.29031">
        <ele>109</ele>
        <time>2025-03-16T09:30:04Z</time>
      </trkpt>
      <trkpt lat="48.56103" lon="3.29062">
        <ele>108</ele>
        <time>2025-03-16T09:30:19Z</time>
      </trkpt>
      <trkpt lat="48.56101" lon="3.29067">
        <ele>108</ele>
        <time>2025-03-16T09:30:21Z</time>
      </trkpt>
      <trkpt lat="48.56101" lon="3.29069">
        <ele>108</ele>
        <time>2025-03-16T09:30:23Z</time>
      </trkpt>
      <trkpt lat="48.56101" lon="3.29071">
        <ele>108</ele>
        <time>2025-03-16T09:30:24Z</time>
      </trkpt>
      <trkpt lat="48.56107" lon="3.29102">
        <ele>108.2</ele>
        <time>2025-03-16T09:30:41Z</time>
      </trkpt>
      <trkpt lat="48.56105" lon="3.29109">
        <ele>108.2</ele>
        <time>2025-03-16T09:30:45Z</time>
      </trkpt>
      <trkpt lat="48.56103" lon="3.29117">
        <ele>107.8</ele>
        <time>2025-03-16T09:30:50Z</time>
      </trkpt>
      <trkpt lat="48.56104" lon="3.29118">
        <ele>107.8</ele>
        <time>2025-03-16T09:30:51Z</time>
      </trkpt>
      <trkpt lat="48.56108" lon="3.29132">
        <ele>109.6</ele>
        <time>2025-03-16T09:31:00Z</time>
      </trkpt>
      <trkpt lat="48.56109" lon="3.29134">
        <ele>109.6</ele>
        <time>2025-03-16T09:31:01Z</time>
      </trkpt>
      <trkpt lat="48.56105" lon="3.29146">
        <ele>108.8</ele>
        <time>2025-03-16T09:31:09Z</time>
      </trkpt>
      <trkpt lat="48.56106" lon="3.2915">
        <ele>108</ele>
        <time>2025-03-16T09:31:12Z</time>
      </trkpt>
      <trkpt lat="48.56119" lon="3.2917">
        <ele>106.6</ele>
        <time>2025-03-16T09:31:28Z</time>
      </trkpt>
      <trkpt lat="48.56121" lon="3.29176">
        <ele>106.4</ele>
        <time>2025-03-16T09:31:31Z</time>
      </trkpt>
      <trkpt lat="48.56121" lon="3.29179">
        <ele>106.4</ele>
        <time>2025-03-16T09:31:32Z</time>
      </trkpt>
      <trkpt lat="48.56123" lon="3.29212">
        <ele>105</ele>
        <time>2025-03-16T09:31:47Z</time>
      </trkpt>
      <trkpt lat="48.5613" lon="3.29231">
        <ele>104.4</ele>
        <time>2025-03-16T09:31:59Z</time>
      </trkpt>
      <trkpt lat="48.56137" lon="3.29236">
        <ele>103.2</ele>
        <time>2025-03-16T09:32:05Z</time>
      </trkpt>
      <trkpt lat="48.56137" lon="3.29237">
        <ele>103</ele>
        <time>2025-03-16T09:32:06Z</time>
      </trkpt>
      <trkpt lat="48.56142" lon="3.29243">
        <ele>102.4</ele>
        <time>2025-03-16T09:32:11Z</time>
      </trkpt>
      <trkpt lat="48.56135" lon="3.29266">
        <ele>100</ele>
        <time>2025-03-16T09:32:23Z</time>
      </trkpt>
      <trkpt lat="48.56128" lon="3.29302">
        <ele>96.8</ele>
        <time>2025-03-16T09:32:39Z</time>
      </trkpt>
      <trkpt lat="48.56119" lon="3.29335">
        <ele>93.6</ele>
        <time>2025-03-16T09:32:56Z</time>
      </trkpt>
      <trkpt lat="48.56114" lon="3.29363">
        <ele>90.6</ele>
        <time>2025-03-16T09:33:10Z</time>
      </trkpt>
      <trkpt lat="48.56106" lon="3.29388">
        <ele>87.4</ele>
        <time>2025-03-16T09:33:26Z</time>
      </trkpt>
      <trkpt lat="48.56092" lon="3.29404">
        <ele>84.2</ele>
        <time>2025-03-16T09:33:41Z</time>
      </trkpt>
      <trkpt lat="48.56082" lon="3.29422">
        <ele>82</ele>
        <time>2025-03-16T09:33:54Z</time>
      </trkpt>
      <trkpt lat="48.56082" lon="3.29424">
        <ele>81.8</ele>
        <time>2025-03-16T09:33:55Z</time>
      </trkpt>
      <trkpt lat="48.56096" lon="3.29449">
        <ele>78.6</ele>
        <time>2025-03-16T09:34:08Z</time>
      </trkpt>
      <trkpt lat="48.56104" lon="3.29468">
        <ele>75.4</ele>
        <time>2025-03-16T09:34:20Z</time>
      </trkpt>
      <trkpt lat="48.56106" lon="3.29473">
        <ele>74.6</ele>
        <time>2025-03-16T09:34:23Z</time>
      </trkpt>
      <trkpt lat="48.56118" lon="3.29497">
        <ele>71.6</ele>
        <time>2025-03-16T09:34:35Z</time>
      </trkpt>
      <trkpt lat="48.56117" lon="3.29499">
        <ele>71.4</ele>
        <time>2025-03-16T09:34:36Z</time>
      </trkpt>
      <trkpt lat="48.5611" lon="3.29533">
        <ele>69</ele>
        <time>2025-03-16T09:34:53Z</time>
      </trkpt>
      <trkpt lat="48.56102" lon="3.29564">
        <ele>66.4</ele>
        <time>2025-03-16T09:35:10Z</time>
      </trkpt>
      <trkpt lat="48.56092" lon="3.29584">
        <ele>65.4</ele>
        <time>2025-03-16T09:35:21Z</time>
      </trkpt>
      <trkpt lat="48.56092" lon="3.29586">
        <ele>65.4</ele>
        <time>2025-03-16T09:35:22Z</time>
      </trkpt>
      <trkpt lat="48.56091" lon="3.29588">
        <ele>65.2</ele>
        <time>2025-03-16T09:35:23Z</time>
      </trkpt>
      <trkpt lat="48.56087" lon="3.29612">
        <ele>63.6</ele>
        <time>2025-03-16T09:35:36Z</time>
      </trkpt>
      <trkpt lat="48.56087" lon="3.29615">
        <ele>63.4</ele>
        <time>2025-03-16T09:35:38Z</time>
      </trkpt>
      <trkpt lat="48.56086" lon="3.29617">
        <ele>63.4</ele>
        <time>2025-03-16T09:35:39Z</time>
      </trkpt>
      <trkpt lat="48.56086" lon="3.29619">
        <ele>63.4</ele>
        <time>2025-03-16T09:35:40Z</time>
      </trkpt>
      <trkpt lat="48.56086" lon="3.29621">
        <ele>63.2</ele>
        <time>2025-03-16T09:35:41Z</time>
      </trkpt>
      <trkpt lat="48.56085" lon="3.29623">
        <ele>63.2</ele>
        <time>2025-03-16T09:35:42Z</time>
      </trkpt>
      <trkpt lat="48.56085" lon="3.29625">
        <ele>63</ele>
        <time>2025-03-16T09:35:43Z</time>
      </trkpt>
      <trkpt lat="48.56077" lon="3.29648">
        <ele>62.8</ele>
        <time>2025-03-16T09:35:58Z</time>
      </trkpt>
      <trkpt lat="48.56099" lon="3.29659">
        <ele>62</ele>
        <time>2025-03-16T09:36:18Z</time>
      </trkpt>
      <trkpt lat="48.561" lon="3.29659">
        <ele>62</ele>
        <time>2025-03-16T09:36:19Z</time>
      </trkpt>
      <trkpt lat="48.56102" lon="3.2966">
        <ele>62</ele>
        <time>2025-03-16T09:36:20Z</time>
      </trkpt>
      <trkpt lat="48.56135" lon="3.29672">
        <ele>62.6</ele>
        <time>2025-03-16T09:36:40Z</time>
      </trkpt>
      <trkpt lat="48.56162" lon="3.2968">
        <ele>62.8</ele>
        <time>2025-03-16T09:36:59Z</time>
      </trkpt>
      <trkpt lat="48.56182" lon="3.29683">
        <ele>63.4</ele>
        <time>2025-03-16T09:37:15Z</time>
      </trkpt>
      <trkpt lat="48.56202" lon="3.29689">
        <ele>64</ele>
        <time>2025-03-16T09:37:34Z</time>
      </trkpt>
      <trkpt lat="48.56236" lon="3.29691">
        <ele>63.8</ele>
        <time>2025-03-16T09:37:59Z</time>
      </trkpt>
      <trkpt lat="48.56266" lon="3.29696">
        <ele>63.2</ele>
        <time>2025-03-16T09:38:21Z</time>
      </trkpt>
      <trkpt lat="48.56268" lon="3.29696">
        <ele>63.2</ele>
        <time>2025-03-16T09:38:22Z</time>
      </trkpt>
      <trkpt lat="48.56269" lon="3.29697">
        <ele>63.2</ele>
        <time>2025-03-16T09:38:23Z</time>
      </trkpt>
      <trkpt lat="48.56289" lon="3.29715">
        <ele>62.6</ele>
        <time>2025-03-16T09:38:42Z</time>
      </trkpt>
      <trkpt lat="48.56313" lon="3.29722">
        <ele>63</ele>
        <time>2025-03-16T09:39:01Z</time>
      </trkpt>
      <trkpt lat="48.56348" lon="3.29703">
        <ele>63</ele>
        <time>2025-03-16T09:39:27Z</time>
      </trkpt>
      <trkpt lat="48.56351" lon="3.29703">
        <ele>62.8</ele>
        <time>2025-03-16T09:39:31Z</time>
      </trkpt>
      <trkpt lat="48.56379" lon="3.29711">
        <ele>62.6</ele>
        <time>2025-03-16T09:39:52Z</time>
      </trkpt>
      <trkpt lat="48.56392" lon="3.29723">
        <ele>62.8</ele>
        <time>2025-03-16T09:40:11Z</time>
      </trkpt>
      <trkpt lat="48.56391" lon="3.29726">
        <ele>62.4</ele>
        <time>2025-03-16T09:40:54Z</time>
      </trkpt>
      <trkpt lat="48.56391" lon="3.29727">
        <ele>62.2</ele>
        <time>2025-03-16T09:41:32Z</time>
      </trkpt>
      <trkpt lat="48.56397" lon="3.2972">
        <ele>62.2</ele>
        <time>2025-03-16T09:41:52Z</time>
      </trkpt>
      <trkpt lat="48.56399" lon="3.2972">
        <ele>62.2</ele>
        <time>2025-03-16T09:41:53Z</time>
      </trkpt>
      <trkpt lat="48.56423" lon="3.2972">
        <ele>62.4</ele>
        <time>2025-03-16T09:42:13Z</time>
      </trkpt>
      <trkpt lat="48.56432" lon="3.29722">
        <ele>63</ele>
        <time>2025-03-16T09:42:24Z</time>
      </trkpt>
      <trkpt lat="48.56433" lon="3.29724">
        <ele>63</ele>
        <time>2025-03-16T09:42:25Z</time>
      </trkpt>
      <trkpt lat="48.56434" lon="3.29725">
        <ele>63.4</ele>
        <time>2025-03-16T09:42:26Z</time>
      </trkpt>
      <trkpt lat="48.56434" lon="3.29726">
        <ele>63.8</ele>
        <time>2025-03-16T09:42:27Z</time>
      </trkpt>
      <trkpt lat="48.56435" lon="3.29728">
        <ele>64.2</ele>
        <time>2025-03-16T09:42:28Z</time>
      </trkpt>
      <trkpt lat="48.56435" lon="3.2973">
        <ele>64.4</ele>
        <time>2025-03-16T09:42:29Z</time>
      </trkpt>
      <trkpt lat="48.56435" lon="3.29731">
        <ele>64.4</ele>
        <time>2025-03-16T09:42:30Z</time>
      </trkpt>
      <trkpt lat="48.56435" lon="3.29733">
        <ele>64.6</ele>
        <time>2025-03-16T09:42:31Z</time>
      </trkpt>
      <trkpt lat="48.56435" lon="3.29735">
        <ele>64.6</ele>
        <time>2025-03-16T09:42:32Z</time>
      </trkpt>
      <trkpt lat="48.56436" lon="3.29737">
        <ele>64.6</ele>
        <time>2025-03-16T09:42:33Z</time>
      </trkpt>
      <trkpt lat="48.56436" lon="3.29738">
        <ele>64.6</ele>
        <time>2025-03-16T09:42:34Z</time>
      </trkpt>
      <trkpt lat="48.56446" lon="3.29753">
        <ele>65.6</ele>
        <time>2025-03-16T09:42:48Z</time>
      </trkpt>
      <trkpt lat="48.56466" lon="3.29759">
        <ele>66</ele>
        <time>2025-03-16T09:43:06Z</time>
      </trkpt>
      <trkpt lat="48.56471" lon="3.2976">
        <ele>62.6</ele>
        <time>2025-03-16T09:43:22Z</time>
      </trkpt>
      <trkpt lat="48.56471" lon="3.2976">
        <ele>60.8</ele>
        <time>2025-03-16T09:43:25Z</time>
      </trkpt>
      <trkpt lat="48.56471" lon="3.2976">
        <ele>63.2</ele>
        <time>2025-03-16T09:43:35Z</time>
      </trkpt>
      <trkpt lat="48.56471" lon="3.2976">
        <ele>63.4</ele>
        <time>2025-03-16T09:43:39Z</time>
      </trkpt>
    </trkseg>
  </trk>
</gpx>